<?xml version="1.0" encoding="UTF-8" standalone="no" ?>
<gpx xmlns="http://www.topografix.com/GPX/1/1" xmlns:xsi="http://www.w3.org/2001/XMLSchema-instance" xsi:schemaLocation="http://www.topografix.com/GPX/1/1 http://www.topografix.com/GPX/1/1/gpx.xsd" version="1.1" creator="VisuGPX - https://www.visugpx.com">
  <metadata>
    <name>2018-06-30 Bike ride-Val d-Azergues 31km</name>
    <desc><![CDATA[2018-06-30 Bike ride-Val d-Azergues 31km]]></desc>
  </metadata>
  <wpt lat="45.92452" lon="4.73695">
    <ele>174</ele>
    <name><![CDATA[2018-06-30 10:39 (Start)]]></name>
  </wpt>
  <wpt lat="45.92446" lon="4.73692">
    <ele>174</ele>
    <name><![CDATA[2018-06-30 10:39 (End)]]></name>
  </wpt>
  <trk>
    <name><![CDATA[2018-06-30 10:39]]></name>
    <trkseg>
      <trkpt lat="45.92452" lon="4.73695">
        <ele>174</ele>
        <time>2018-06-30T08:39:00.361Z</time>
      </trkpt>
      <trkpt lat="45.92455" lon="4.73712">
        <ele>174</ele>
        <time>2018-06-30T08:39:03.08Z</time>
      </trkpt>
      <trkpt lat="45.92464" lon="4.73711">
        <ele>174</ele>
        <time>2018-06-30T08:39:12.08Z</time>
      </trkpt>
      <trkpt lat="45.92464" lon="4.73714">
        <ele>174</ele>
        <time>2018-06-30T08:39:13.08Z</time>
      </trkpt>
      <trkpt lat="45.92465" lon="4.73715">
        <ele>174</ele>
        <time>2018-06-30T08:39:14.083Z</time>
      </trkpt>
      <trkpt lat="45.92463" lon="4.73712">
        <ele>174</ele>
        <time>2018-06-30T08:39:15Z</time>
      </trkpt>
      <trkpt lat="45.92459" lon="4.73707">
        <ele>174</ele>
        <time>2018-06-30T08:39:16Z</time>
      </trkpt>
      <trkpt lat="45.92462" lon="4.73697">
        <ele>174</ele>
        <time>2018-06-30T08:39:25Z</time>
      </trkpt>
      <trkpt lat="45.92463" lon="4.73694">
        <ele>174</ele>
        <time>2018-06-30T08:39:26Z</time>
      </trkpt>
      <trkpt lat="45.92465" lon="4.73686">
        <ele>174</ele>
        <time>2018-06-30T08:39:28Z</time>
      </trkpt>
      <trkpt lat="45.92467" lon="4.73672">
        <ele>174</ele>
        <time>2018-06-30T08:39:29Z</time>
      </trkpt>
      <trkpt lat="45.92469" lon="4.73661">
        <ele>174</ele>
        <time>2018-06-30T08:39:31Z</time>
      </trkpt>
      <trkpt lat="45.92471" lon="4.73655">
        <ele>174</ele>
        <time>2018-06-30T08:39:32Z</time>
      </trkpt>
      <trkpt lat="45.92475" lon="4.73645">
        <ele>174</ele>
        <time>2018-06-30T08:39:35Z</time>
      </trkpt>
      <trkpt lat="45.92477" lon="4.73644">
        <ele>174</ele>
        <time>2018-06-30T08:39:36Z</time>
      </trkpt>
      <trkpt lat="45.92479" lon="4.73642">
        <ele>174</ele>
        <time>2018-06-30T08:39:37Z</time>
      </trkpt>
      <trkpt lat="45.92487" lon="4.7364">
        <ele>174</ele>
        <time>2018-06-30T08:39:38Z</time>
      </trkpt>
      <trkpt lat="45.92494" lon="4.7364">
        <ele>174</ele>
        <time>2018-06-30T08:39:40Z</time>
      </trkpt>
      <trkpt lat="45.92498" lon="4.73641">
        <ele>174</ele>
        <time>2018-06-30T08:39:41Z</time>
      </trkpt>
      <trkpt lat="45.92502" lon="4.73641">
        <ele>174</ele>
        <time>2018-06-30T08:39:42Z</time>
      </trkpt>
      <trkpt lat="45.92507" lon="4.73642">
        <ele>174</ele>
        <time>2018-06-30T08:39:43Z</time>
      </trkpt>
      <trkpt lat="45.92513" lon="4.73641">
        <ele>174</ele>
        <time>2018-06-30T08:39:44Z</time>
      </trkpt>
      <trkpt lat="45.92517" lon="4.73641">
        <ele>173</ele>
        <time>2018-06-30T08:39:45Z</time>
      </trkpt>
      <trkpt lat="45.92525" lon="4.73641">
        <ele>173</ele>
        <time>2018-06-30T08:39:47Z</time>
      </trkpt>
      <trkpt lat="45.92529" lon="4.73641">
        <ele>173</ele>
        <time>2018-06-30T08:39:48Z</time>
      </trkpt>
      <trkpt lat="45.92537" lon="4.7364">
        <ele>173</ele>
        <time>2018-06-30T08:39:50Z</time>
      </trkpt>
      <trkpt lat="45.92541" lon="4.73639">
        <ele>173</ele>
        <time>2018-06-30T08:39:51Z</time>
      </trkpt>
      <trkpt lat="45.9255" lon="4.73637">
        <ele>173</ele>
        <time>2018-06-30T08:39:53Z</time>
      </trkpt>
      <trkpt lat="45.92554" lon="4.73636">
        <ele>173</ele>
        <time>2018-06-30T08:39:54Z</time>
      </trkpt>
      <trkpt lat="45.92558" lon="4.73635">
        <ele>173</ele>
        <time>2018-06-30T08:39:55Z</time>
      </trkpt>
      <trkpt lat="45.92563" lon="4.73633">
        <ele>173</ele>
        <time>2018-06-30T08:39:56Z</time>
      </trkpt>
      <trkpt lat="45.92571" lon="4.73631">
        <ele>173</ele>
        <time>2018-06-30T08:39:58Z</time>
      </trkpt>
      <trkpt lat="45.92578" lon="4.73629">
        <ele>173</ele>
        <time>2018-06-30T08:39:59Z</time>
      </trkpt>
      <trkpt lat="45.92582" lon="4.73628">
        <ele>173</ele>
        <time>2018-06-30T08:40:00Z</time>
      </trkpt>
      <trkpt lat="45.92589" lon="4.73628">
        <ele>172</ele>
        <time>2018-06-30T08:40:01Z</time>
      </trkpt>
      <trkpt lat="45.92594" lon="4.73627">
        <ele>172</ele>
        <time>2018-06-30T08:40:02Z</time>
      </trkpt>
      <trkpt lat="45.92601" lon="4.73627">
        <ele>173</ele>
        <time>2018-06-30T08:40:03Z</time>
      </trkpt>
      <trkpt lat="45.92608" lon="4.73627">
        <ele>173</ele>
        <time>2018-06-30T08:40:04Z</time>
      </trkpt>
      <trkpt lat="45.92614" lon="4.73629">
        <ele>173</ele>
        <time>2018-06-30T08:40:05Z</time>
      </trkpt>
      <trkpt lat="45.92619" lon="4.73635">
        <ele>173</ele>
        <time>2018-06-30T08:40:06Z</time>
      </trkpt>
      <trkpt lat="45.92623" lon="4.7364">
        <ele>173</ele>
        <time>2018-06-30T08:40:07Z</time>
      </trkpt>
      <trkpt lat="45.92626" lon="4.73647">
        <ele>173</ele>
        <time>2018-06-30T08:40:08Z</time>
      </trkpt>
      <trkpt lat="45.92629" lon="4.73652">
        <ele>173</ele>
        <time>2018-06-30T08:40:09Z</time>
      </trkpt>
      <trkpt lat="45.92632" lon="4.73659">
        <ele>173</ele>
        <time>2018-06-30T08:40:10Z</time>
      </trkpt>
      <trkpt lat="45.92636" lon="4.73665">
        <ele>173</ele>
        <time>2018-06-30T08:40:11Z</time>
      </trkpt>
      <trkpt lat="45.92639" lon="4.73673">
        <ele>173</ele>
        <time>2018-06-30T08:40:12Z</time>
      </trkpt>
      <trkpt lat="45.92642" lon="4.73678">
        <ele>173</ele>
        <time>2018-06-30T08:40:13Z</time>
      </trkpt>
      <trkpt lat="45.92646" lon="4.73684">
        <ele>173</ele>
        <time>2018-06-30T08:40:14Z</time>
      </trkpt>
      <trkpt lat="45.9265" lon="4.73689">
        <ele>173</ele>
        <time>2018-06-30T08:40:15Z</time>
      </trkpt>
      <trkpt lat="45.92655" lon="4.73694">
        <ele>173</ele>
        <time>2018-06-30T08:40:16Z</time>
      </trkpt>
      <trkpt lat="45.9266" lon="4.73698">
        <ele>173</ele>
        <time>2018-06-30T08:40:17Z</time>
      </trkpt>
      <trkpt lat="45.92665" lon="4.73701">
        <ele>173</ele>
        <time>2018-06-30T08:40:18Z</time>
      </trkpt>
      <trkpt lat="45.92671" lon="4.73705">
        <ele>174</ele>
        <time>2018-06-30T08:40:19Z</time>
      </trkpt>
      <trkpt lat="45.92676" lon="4.73707">
        <ele>173</ele>
        <time>2018-06-30T08:40:20Z</time>
      </trkpt>
      <trkpt lat="45.92681" lon="4.73709">
        <ele>173</ele>
        <time>2018-06-30T08:40:21Z</time>
      </trkpt>
      <trkpt lat="45.92687" lon="4.73711">
        <ele>173</ele>
        <time>2018-06-30T08:40:22Z</time>
      </trkpt>
      <trkpt lat="45.92692" lon="4.73713">
        <ele>173</ele>
        <time>2018-06-30T08:40:23Z</time>
      </trkpt>
      <trkpt lat="45.92698" lon="4.73715">
        <ele>173</ele>
        <time>2018-06-30T08:40:24Z</time>
      </trkpt>
      <trkpt lat="45.92704" lon="4.73716">
        <ele>173</ele>
        <time>2018-06-30T08:40:25Z</time>
      </trkpt>
      <trkpt lat="45.9271" lon="4.73717">
        <ele>173</ele>
        <time>2018-06-30T08:40:26Z</time>
      </trkpt>
      <trkpt lat="45.92716" lon="4.73719">
        <ele>173</ele>
        <time>2018-06-30T08:40:27Z</time>
      </trkpt>
      <trkpt lat="45.9272" lon="4.73721">
        <ele>173</ele>
        <time>2018-06-30T08:40:28Z</time>
      </trkpt>
      <trkpt lat="45.92726" lon="4.73722">
        <ele>173</ele>
        <time>2018-06-30T08:40:29Z</time>
      </trkpt>
      <trkpt lat="45.92732" lon="4.73726">
        <ele>173</ele>
        <time>2018-06-30T08:40:30Z</time>
      </trkpt>
      <trkpt lat="45.92738" lon="4.73726">
        <ele>173</ele>
        <time>2018-06-30T08:40:31Z</time>
      </trkpt>
      <trkpt lat="45.92744" lon="4.73729">
        <ele>173</ele>
        <time>2018-06-30T08:40:32Z</time>
      </trkpt>
      <trkpt lat="45.92749" lon="4.73729">
        <ele>173</ele>
        <time>2018-06-30T08:40:33Z</time>
      </trkpt>
      <trkpt lat="45.92754" lon="4.73732">
        <ele>172</ele>
        <time>2018-06-30T08:40:34Z</time>
      </trkpt>
      <trkpt lat="45.92758" lon="4.73733">
        <ele>172</ele>
        <time>2018-06-30T08:40:35Z</time>
      </trkpt>
      <trkpt lat="45.92762" lon="4.73736">
        <ele>172</ele>
        <time>2018-06-30T08:40:36Z</time>
      </trkpt>
      <trkpt lat="45.92766" lon="4.73737">
        <ele>172</ele>
        <time>2018-06-30T08:40:37Z</time>
      </trkpt>
      <trkpt lat="45.92774" lon="4.73739">
        <ele>172</ele>
        <time>2018-06-30T08:40:39Z</time>
      </trkpt>
      <trkpt lat="45.92775" lon="4.7374">
        <ele>172</ele>
        <time>2018-06-30T08:40:40Z</time>
      </trkpt>
      <trkpt lat="45.92781" lon="4.73746">
        <ele>172</ele>
        <time>2018-06-30T08:40:44Z</time>
      </trkpt>
      <trkpt lat="45.92782" lon="4.73749">
        <ele>172</ele>
        <time>2018-06-30T08:40:45Z</time>
      </trkpt>
      <trkpt lat="45.92788" lon="4.73755">
        <ele>173</ele>
        <time>2018-06-30T08:40:46Z</time>
      </trkpt>
      <trkpt lat="45.92791" lon="4.73758">
        <ele>173</ele>
        <time>2018-06-30T08:40:47Z</time>
      </trkpt>
      <trkpt lat="45.92799" lon="4.73763">
        <ele>173</ele>
        <time>2018-06-30T08:40:49Z</time>
      </trkpt>
      <trkpt lat="45.92803" lon="4.73766">
        <ele>173</ele>
        <time>2018-06-30T08:40:50Z</time>
      </trkpt>
      <trkpt lat="45.9281" lon="4.73771">
        <ele>173</ele>
        <time>2018-06-30T08:40:52Z</time>
      </trkpt>
      <trkpt lat="45.92815" lon="4.73774">
        <ele>173</ele>
        <time>2018-06-30T08:40:53Z</time>
      </trkpt>
      <trkpt lat="45.9282" lon="4.73777">
        <ele>173</ele>
        <time>2018-06-30T08:40:54Z</time>
      </trkpt>
      <trkpt lat="45.92825" lon="4.73781">
        <ele>173</ele>
        <time>2018-06-30T08:40:55Z</time>
      </trkpt>
      <trkpt lat="45.9283" lon="4.73784">
        <ele>173</ele>
        <time>2018-06-30T08:40:56Z</time>
      </trkpt>
      <trkpt lat="45.92835" lon="4.73788">
        <ele>173</ele>
        <time>2018-06-30T08:40:57Z</time>
      </trkpt>
      <trkpt lat="45.9284" lon="4.73791">
        <ele>173</ele>
        <time>2018-06-30T08:40:58Z</time>
      </trkpt>
      <trkpt lat="45.92844" lon="4.73794">
        <ele>173</ele>
        <time>2018-06-30T08:40:59Z</time>
      </trkpt>
      <trkpt lat="45.9285" lon="4.73801">
        <ele>173</ele>
        <time>2018-06-30T08:41:02Z</time>
      </trkpt>
      <trkpt lat="45.92851" lon="4.73803">
        <ele>173</ele>
        <time>2018-06-30T08:41:03Z</time>
      </trkpt>
      <trkpt lat="45.92854" lon="4.73809">
        <ele>173</ele>
        <time>2018-06-30T08:41:05Z</time>
      </trkpt>
      <trkpt lat="45.92858" lon="4.7382">
        <ele>173</ele>
        <time>2018-06-30T08:41:06Z</time>
      </trkpt>
      <trkpt lat="45.9286" lon="4.73832">
        <ele>173</ele>
        <time>2018-06-30T08:41:08Z</time>
      </trkpt>
      <trkpt lat="45.92862" lon="4.73838">
        <ele>173</ele>
        <time>2018-06-30T08:41:09Z</time>
      </trkpt>
      <trkpt lat="45.92865" lon="4.73844">
        <ele>173</ele>
        <time>2018-06-30T08:41:10Z</time>
      </trkpt>
      <trkpt lat="45.92867" lon="4.73851">
        <ele>173</ele>
        <time>2018-06-30T08:41:11Z</time>
      </trkpt>
      <trkpt lat="45.92868" lon="4.73857">
        <ele>173</ele>
        <time>2018-06-30T08:41:12Z</time>
      </trkpt>
      <trkpt lat="45.9287" lon="4.73864">
        <ele>173</ele>
        <time>2018-06-30T08:41:13Z</time>
      </trkpt>
      <trkpt lat="45.92872" lon="4.7387">
        <ele>173</ele>
        <time>2018-06-30T08:41:14Z</time>
      </trkpt>
      <trkpt lat="45.92873" lon="4.73878">
        <ele>173</ele>
        <time>2018-06-30T08:41:15Z</time>
      </trkpt>
      <trkpt lat="45.92875" lon="4.73885">
        <ele>173</ele>
        <time>2018-06-30T08:41:16Z</time>
      </trkpt>
      <trkpt lat="45.92877" lon="4.73892">
        <ele>173</ele>
        <time>2018-06-30T08:41:17Z</time>
      </trkpt>
      <trkpt lat="45.92878" lon="4.73899">
        <ele>173</ele>
        <time>2018-06-30T08:41:18Z</time>
      </trkpt>
      <trkpt lat="45.9288" lon="4.73906">
        <ele>173</ele>
        <time>2018-06-30T08:41:19Z</time>
      </trkpt>
      <trkpt lat="45.92881" lon="4.73914">
        <ele>173</ele>
        <time>2018-06-30T08:41:20Z</time>
      </trkpt>
      <trkpt lat="45.92881" lon="4.73921">
        <ele>172</ele>
        <time>2018-06-30T08:41:21Z</time>
      </trkpt>
      <trkpt lat="45.92882" lon="4.73929">
        <ele>172</ele>
        <time>2018-06-30T08:41:22Z</time>
      </trkpt>
      <trkpt lat="45.92883" lon="4.73937">
        <ele>172</ele>
        <time>2018-06-30T08:41:23Z</time>
      </trkpt>
      <trkpt lat="45.92883" lon="4.73946">
        <ele>172</ele>
        <time>2018-06-30T08:41:24Z</time>
      </trkpt>
      <trkpt lat="45.92883" lon="4.73953">
        <ele>172</ele>
        <time>2018-06-30T08:41:25Z</time>
      </trkpt>
      <trkpt lat="45.92884" lon="4.73962">
        <ele>172</ele>
        <time>2018-06-30T08:41:26Z</time>
      </trkpt>
      <trkpt lat="45.92885" lon="4.73968">
        <ele>172</ele>
        <time>2018-06-30T08:41:27Z</time>
      </trkpt>
      <trkpt lat="45.92885" lon="4.73975">
        <ele>172</ele>
        <time>2018-06-30T08:41:28Z</time>
      </trkpt>
      <trkpt lat="45.92882" lon="4.73983">
        <ele>172</ele>
        <time>2018-06-30T08:41:29Z</time>
      </trkpt>
      <trkpt lat="45.9288" lon="4.7399">
        <ele>172</ele>
        <time>2018-06-30T08:41:30Z</time>
      </trkpt>
      <trkpt lat="45.92878" lon="4.73997">
        <ele>172</ele>
        <time>2018-06-30T08:41:31Z</time>
      </trkpt>
      <trkpt lat="45.92876" lon="4.74005">
        <ele>172</ele>
        <time>2018-06-30T08:41:32Z</time>
      </trkpt>
      <trkpt lat="45.92875" lon="4.74013">
        <ele>172</ele>
        <time>2018-06-30T08:41:33Z</time>
      </trkpt>
      <trkpt lat="45.92875" lon="4.7402">
        <ele>172</ele>
        <time>2018-06-30T08:41:34Z</time>
      </trkpt>
      <trkpt lat="45.92875" lon="4.74027">
        <ele>172</ele>
        <time>2018-06-30T08:41:35Z</time>
      </trkpt>
      <trkpt lat="45.92873" lon="4.74035">
        <ele>172</ele>
        <time>2018-06-30T08:41:36Z</time>
      </trkpt>
      <trkpt lat="45.92871" lon="4.74043">
        <ele>172</ele>
        <time>2018-06-30T08:41:37Z</time>
      </trkpt>
      <trkpt lat="45.92868" lon="4.7405">
        <ele>172</ele>
        <time>2018-06-30T08:41:38Z</time>
      </trkpt>
      <trkpt lat="45.92863" lon="4.74053">
        <ele>172</ele>
        <time>2018-06-30T08:41:39Z</time>
      </trkpt>
      <trkpt lat="45.92859" lon="4.74058">
        <ele>172</ele>
        <time>2018-06-30T08:41:40Z</time>
      </trkpt>
      <trkpt lat="45.92855" lon="4.74063">
        <ele>172</ele>
        <time>2018-06-30T08:41:41Z</time>
      </trkpt>
      <trkpt lat="45.9285" lon="4.74067">
        <ele>172</ele>
        <time>2018-06-30T08:41:42Z</time>
      </trkpt>
      <trkpt lat="45.92846" lon="4.74074">
        <ele>172</ele>
        <time>2018-06-30T08:41:43Z</time>
      </trkpt>
      <trkpt lat="45.92841" lon="4.74078">
        <ele>171</ele>
        <time>2018-06-30T08:41:44Z</time>
      </trkpt>
      <trkpt lat="45.92837" lon="4.74082">
        <ele>171</ele>
        <time>2018-06-30T08:41:45Z</time>
      </trkpt>
      <trkpt lat="45.92833" lon="4.74086">
        <ele>171</ele>
        <time>2018-06-30T08:41:46Z</time>
      </trkpt>
      <trkpt lat="45.92829" lon="4.7409">
        <ele>171</ele>
        <time>2018-06-30T08:41:47Z</time>
      </trkpt>
      <trkpt lat="45.92825" lon="4.74095">
        <ele>171</ele>
        <time>2018-06-30T08:41:48Z</time>
      </trkpt>
      <trkpt lat="45.9282" lon="4.74101">
        <ele>171</ele>
        <time>2018-06-30T08:41:49Z</time>
      </trkpt>
      <trkpt lat="45.92817" lon="4.74106">
        <ele>172</ele>
        <time>2018-06-30T08:41:50Z</time>
      </trkpt>
      <trkpt lat="45.92812" lon="4.74111">
        <ele>172</ele>
        <time>2018-06-30T08:41:51Z</time>
      </trkpt>
      <trkpt lat="45.92807" lon="4.74116">
        <ele>172</ele>
        <time>2018-06-30T08:41:52Z</time>
      </trkpt>
      <trkpt lat="45.92803" lon="4.74121">
        <ele>172</ele>
        <time>2018-06-30T08:41:53Z</time>
      </trkpt>
      <trkpt lat="45.92798" lon="4.74125">
        <ele>172</ele>
        <time>2018-06-30T08:41:54Z</time>
      </trkpt>
      <trkpt lat="45.92793" lon="4.74131">
        <ele>172</ele>
        <time>2018-06-30T08:41:55Z</time>
      </trkpt>
      <trkpt lat="45.92789" lon="4.74135">
        <ele>172</ele>
        <time>2018-06-30T08:41:56Z</time>
      </trkpt>
      <trkpt lat="45.92783" lon="4.7414">
        <ele>172</ele>
        <time>2018-06-30T08:41:57Z</time>
      </trkpt>
      <trkpt lat="45.92778" lon="4.74145">
        <ele>172</ele>
        <time>2018-06-30T08:41:58Z</time>
      </trkpt>
      <trkpt lat="45.92773" lon="4.7415">
        <ele>172</ele>
        <time>2018-06-30T08:41:59Z</time>
      </trkpt>
      <trkpt lat="45.92768" lon="4.74157">
        <ele>172</ele>
        <time>2018-06-30T08:42:00Z</time>
      </trkpt>
      <trkpt lat="45.92763" lon="4.74162">
        <ele>172</ele>
        <time>2018-06-30T08:42:01Z</time>
      </trkpt>
      <trkpt lat="45.92758" lon="4.74167">
        <ele>172</ele>
        <time>2018-06-30T08:42:02Z</time>
      </trkpt>
      <trkpt lat="45.92753" lon="4.74173">
        <ele>172</ele>
        <time>2018-06-30T08:42:03Z</time>
      </trkpt>
      <trkpt lat="45.92746" lon="4.7418">
        <ele>172</ele>
        <time>2018-06-30T08:42:04Z</time>
      </trkpt>
      <trkpt lat="45.92741" lon="4.74186">
        <ele>172</ele>
        <time>2018-06-30T08:42:05Z</time>
      </trkpt>
      <trkpt lat="45.92735" lon="4.74193">
        <ele>171</ele>
        <time>2018-06-30T08:42:06Z</time>
      </trkpt>
      <trkpt lat="45.92731" lon="4.74198">
        <ele>171</ele>
        <time>2018-06-30T08:42:07Z</time>
      </trkpt>
      <trkpt lat="45.92728" lon="4.74204">
        <ele>171</ele>
        <time>2018-06-30T08:42:08Z</time>
      </trkpt>
      <trkpt lat="45.92725" lon="4.74208">
        <ele>171</ele>
        <time>2018-06-30T08:42:09Z</time>
      </trkpt>
      <trkpt lat="45.92721" lon="4.74214">
        <ele>171</ele>
        <time>2018-06-30T08:42:10Z</time>
      </trkpt>
      <trkpt lat="45.92717" lon="4.7422">
        <ele>171</ele>
        <time>2018-06-30T08:42:11Z</time>
      </trkpt>
      <trkpt lat="45.92715" lon="4.74224">
        <ele>171</ele>
        <time>2018-06-30T08:42:12Z</time>
      </trkpt>
      <trkpt lat="45.92711" lon="4.74231">
        <ele>171</ele>
        <time>2018-06-30T08:42:13Z</time>
      </trkpt>
      <trkpt lat="45.92707" lon="4.74236">
        <ele>171</ele>
        <time>2018-06-30T08:42:14Z</time>
      </trkpt>
      <trkpt lat="45.92703" lon="4.74243">
        <ele>171</ele>
        <time>2018-06-30T08:42:15Z</time>
      </trkpt>
      <trkpt lat="45.927" lon="4.74249">
        <ele>171</ele>
        <time>2018-06-30T08:42:16Z</time>
      </trkpt>
      <trkpt lat="45.92697" lon="4.74255">
        <ele>171</ele>
        <time>2018-06-30T08:42:17Z</time>
      </trkpt>
      <trkpt lat="45.92694" lon="4.7426">
        <ele>171</ele>
        <time>2018-06-30T08:42:18Z</time>
      </trkpt>
      <trkpt lat="45.92689" lon="4.74266">
        <ele>171</ele>
        <time>2018-06-30T08:42:19Z</time>
      </trkpt>
      <trkpt lat="45.92687" lon="4.74272">
        <ele>171</ele>
        <time>2018-06-30T08:42:20Z</time>
      </trkpt>
      <trkpt lat="45.92683" lon="4.74278">
        <ele>171</ele>
        <time>2018-06-30T08:42:21Z</time>
      </trkpt>
      <trkpt lat="45.92679" lon="4.74285">
        <ele>171</ele>
        <time>2018-06-30T08:42:22Z</time>
      </trkpt>
      <trkpt lat="45.92676" lon="4.74291">
        <ele>171</ele>
        <time>2018-06-30T08:42:23Z</time>
      </trkpt>
      <trkpt lat="45.92672" lon="4.74297">
        <ele>171</ele>
        <time>2018-06-30T08:42:24Z</time>
      </trkpt>
      <trkpt lat="45.92667" lon="4.74305">
        <ele>171</ele>
        <time>2018-06-30T08:42:25Z</time>
      </trkpt>
      <trkpt lat="45.92665" lon="4.74311">
        <ele>171</ele>
        <time>2018-06-30T08:42:26Z</time>
      </trkpt>
      <trkpt lat="45.92661" lon="4.74317">
        <ele>171</ele>
        <time>2018-06-30T08:42:27Z</time>
      </trkpt>
      <trkpt lat="45.92658" lon="4.74324">
        <ele>171</ele>
        <time>2018-06-30T08:42:28Z</time>
      </trkpt>
      <trkpt lat="45.92654" lon="4.74332">
        <ele>171</ele>
        <time>2018-06-30T08:42:29Z</time>
      </trkpt>
      <trkpt lat="45.9265" lon="4.7434">
        <ele>171</ele>
        <time>2018-06-30T08:42:30Z</time>
      </trkpt>
      <trkpt lat="45.92646" lon="4.74347">
        <ele>171</ele>
        <time>2018-06-30T08:42:31Z</time>
      </trkpt>
      <trkpt lat="45.92642" lon="4.74354">
        <ele>171</ele>
        <time>2018-06-30T08:42:32Z</time>
      </trkpt>
      <trkpt lat="45.92638" lon="4.74361">
        <ele>171</ele>
        <time>2018-06-30T08:42:33Z</time>
      </trkpt>
      <trkpt lat="45.92634" lon="4.74367">
        <ele>171</ele>
        <time>2018-06-30T08:42:34Z</time>
      </trkpt>
      <trkpt lat="45.92631" lon="4.74373">
        <ele>171</ele>
        <time>2018-06-30T08:42:35Z</time>
      </trkpt>
      <trkpt lat="45.92627" lon="4.74379">
        <ele>170</ele>
        <time>2018-06-30T08:42:36Z</time>
      </trkpt>
      <trkpt lat="45.92623" lon="4.74385">
        <ele>170</ele>
        <time>2018-06-30T08:42:37Z</time>
      </trkpt>
      <trkpt lat="45.9262" lon="4.74391">
        <ele>170</ele>
        <time>2018-06-30T08:42:38Z</time>
      </trkpt>
      <trkpt lat="45.92617" lon="4.74398">
        <ele>170</ele>
        <time>2018-06-30T08:42:39Z</time>
      </trkpt>
      <trkpt lat="45.92613" lon="4.74404">
        <ele>170</ele>
        <time>2018-06-30T08:42:40Z</time>
      </trkpt>
      <trkpt lat="45.9261" lon="4.74411">
        <ele>170</ele>
        <time>2018-06-30T08:42:41Z</time>
      </trkpt>
      <trkpt lat="45.92606" lon="4.74417">
        <ele>170</ele>
        <time>2018-06-30T08:42:42Z</time>
      </trkpt>
      <trkpt lat="45.92602" lon="4.74424">
        <ele>170</ele>
        <time>2018-06-30T08:42:43Z</time>
      </trkpt>
      <trkpt lat="45.92598" lon="4.74431">
        <ele>170</ele>
        <time>2018-06-30T08:42:44Z</time>
      </trkpt>
      <trkpt lat="45.92594" lon="4.7444">
        <ele>170</ele>
        <time>2018-06-30T08:42:45Z</time>
      </trkpt>
      <trkpt lat="45.92591" lon="4.74446">
        <ele>170</ele>
        <time>2018-06-30T08:42:46Z</time>
      </trkpt>
      <trkpt lat="45.92586" lon="4.74453">
        <ele>170</ele>
        <time>2018-06-30T08:42:47Z</time>
      </trkpt>
      <trkpt lat="45.92583" lon="4.74461">
        <ele>170</ele>
        <time>2018-06-30T08:42:48Z</time>
      </trkpt>
      <trkpt lat="45.92579" lon="4.74468">
        <ele>170</ele>
        <time>2018-06-30T08:42:49Z</time>
      </trkpt>
      <trkpt lat="45.92576" lon="4.74474">
        <ele>170</ele>
        <time>2018-06-30T08:42:50Z</time>
      </trkpt>
      <trkpt lat="45.92573" lon="4.7448">
        <ele>170</ele>
        <time>2018-06-30T08:42:51Z</time>
      </trkpt>
      <trkpt lat="45.9257" lon="4.74486">
        <ele>170</ele>
        <time>2018-06-30T08:42:52Z</time>
      </trkpt>
      <trkpt lat="45.92566" lon="4.74492">
        <ele>170</ele>
        <time>2018-06-30T08:42:53Z</time>
      </trkpt>
      <trkpt lat="45.92562" lon="4.74499">
        <ele>170</ele>
        <time>2018-06-30T08:42:54Z</time>
      </trkpt>
      <trkpt lat="45.92558" lon="4.74505">
        <ele>170</ele>
        <time>2018-06-30T08:42:55Z</time>
      </trkpt>
      <trkpt lat="45.92555" lon="4.74512">
        <ele>170</ele>
        <time>2018-06-30T08:42:56Z</time>
      </trkpt>
      <trkpt lat="45.92551" lon="4.74519">
        <ele>170</ele>
        <time>2018-06-30T08:42:57Z</time>
      </trkpt>
      <trkpt lat="45.92548" lon="4.74526">
        <ele>170</ele>
        <time>2018-06-30T08:42:58Z</time>
      </trkpt>
      <trkpt lat="45.92544" lon="4.74533">
        <ele>170</ele>
        <time>2018-06-30T08:42:59Z</time>
      </trkpt>
      <trkpt lat="45.9254" lon="4.7454">
        <ele>171</ele>
        <time>2018-06-30T08:43:00Z</time>
      </trkpt>
      <trkpt lat="45.92536" lon="4.74547">
        <ele>171</ele>
        <time>2018-06-30T08:43:01Z</time>
      </trkpt>
      <trkpt lat="45.92532" lon="4.74553">
        <ele>171</ele>
        <time>2018-06-30T08:43:02Z</time>
      </trkpt>
      <trkpt lat="45.92528" lon="4.74559">
        <ele>171</ele>
        <time>2018-06-30T08:43:03Z</time>
      </trkpt>
      <trkpt lat="45.92523" lon="4.74565">
        <ele>171</ele>
        <time>2018-06-30T08:43:04Z</time>
      </trkpt>
      <trkpt lat="45.92519" lon="4.7457">
        <ele>171</ele>
        <time>2018-06-30T08:43:05Z</time>
      </trkpt>
      <trkpt lat="45.92515" lon="4.74575">
        <ele>171</ele>
        <time>2018-06-30T08:43:06Z</time>
      </trkpt>
      <trkpt lat="45.9251" lon="4.74581">
        <ele>171</ele>
        <time>2018-06-30T08:43:07Z</time>
      </trkpt>
      <trkpt lat="45.92504" lon="4.74586">
        <ele>171</ele>
        <time>2018-06-30T08:43:08Z</time>
      </trkpt>
      <trkpt lat="45.925" lon="4.74591">
        <ele>171</ele>
        <time>2018-06-30T08:43:09Z</time>
      </trkpt>
      <trkpt lat="45.92495" lon="4.74596">
        <ele>171</ele>
        <time>2018-06-30T08:43:10Z</time>
      </trkpt>
      <trkpt lat="45.92491" lon="4.746">
        <ele>171</ele>
        <time>2018-06-30T08:43:11Z</time>
      </trkpt>
      <trkpt lat="45.92487" lon="4.74605">
        <ele>171</ele>
        <time>2018-06-30T08:43:12Z</time>
      </trkpt>
      <trkpt lat="45.92483" lon="4.7461">
        <ele>171</ele>
        <time>2018-06-30T08:43:13Z</time>
      </trkpt>
      <trkpt lat="45.92479" lon="4.74616">
        <ele>171</ele>
        <time>2018-06-30T08:43:14Z</time>
      </trkpt>
      <trkpt lat="45.92475" lon="4.74622">
        <ele>171</ele>
        <time>2018-06-30T08:43:15Z</time>
      </trkpt>
      <trkpt lat="45.92471" lon="4.74627">
        <ele>171</ele>
        <time>2018-06-30T08:43:16Z</time>
      </trkpt>
      <trkpt lat="45.92467" lon="4.74633">
        <ele>171</ele>
        <time>2018-06-30T08:43:17Z</time>
      </trkpt>
      <trkpt lat="45.92463" lon="4.7464">
        <ele>171</ele>
        <time>2018-06-30T08:43:18Z</time>
      </trkpt>
      <trkpt lat="45.92459" lon="4.74646">
        <ele>171</ele>
        <time>2018-06-30T08:43:19Z</time>
      </trkpt>
      <trkpt lat="45.92456" lon="4.74652">
        <ele>171</ele>
        <time>2018-06-30T08:43:20Z</time>
      </trkpt>
      <trkpt lat="45.92452" lon="4.74658">
        <ele>171</ele>
        <time>2018-06-30T08:43:21Z</time>
      </trkpt>
      <trkpt lat="45.92449" lon="4.74662">
        <ele>171</ele>
        <time>2018-06-30T08:43:22Z</time>
      </trkpt>
      <trkpt lat="45.92446" lon="4.7467">
        <ele>171</ele>
        <time>2018-06-30T08:43:23Z</time>
      </trkpt>
      <trkpt lat="45.92443" lon="4.74676">
        <ele>171</ele>
        <time>2018-06-30T08:43:24Z</time>
      </trkpt>
      <trkpt lat="45.9244" lon="4.74685">
        <ele>171</ele>
        <time>2018-06-30T08:43:25Z</time>
      </trkpt>
      <trkpt lat="45.92436" lon="4.7469">
        <ele>171</ele>
        <time>2018-06-30T08:43:26Z</time>
      </trkpt>
      <trkpt lat="45.92433" lon="4.747">
        <ele>171</ele>
        <time>2018-06-30T08:43:27Z</time>
      </trkpt>
      <trkpt lat="45.9243" lon="4.74706">
        <ele>171</ele>
        <time>2018-06-30T08:43:28Z</time>
      </trkpt>
      <trkpt lat="45.92428" lon="4.74713">
        <ele>171</ele>
        <time>2018-06-30T08:43:29Z</time>
      </trkpt>
      <trkpt lat="45.92425" lon="4.7472">
        <ele>171</ele>
        <time>2018-06-30T08:43:30Z</time>
      </trkpt>
      <trkpt lat="45.92423" lon="4.74726">
        <ele>171</ele>
        <time>2018-06-30T08:43:31Z</time>
      </trkpt>
      <trkpt lat="45.92421" lon="4.74733">
        <ele>171</ele>
        <time>2018-06-30T08:43:32Z</time>
      </trkpt>
      <trkpt lat="45.9242" lon="4.74739">
        <ele>172</ele>
        <time>2018-06-30T08:43:33Z</time>
      </trkpt>
      <trkpt lat="45.92418" lon="4.74746">
        <ele>172</ele>
        <time>2018-06-30T08:43:34Z</time>
      </trkpt>
      <trkpt lat="45.92415" lon="4.74753">
        <ele>172</ele>
        <time>2018-06-30T08:43:35Z</time>
      </trkpt>
      <trkpt lat="45.92413" lon="4.7476">
        <ele>172</ele>
        <time>2018-06-30T08:43:36Z</time>
      </trkpt>
      <trkpt lat="45.92412" lon="4.74768">
        <ele>172</ele>
        <time>2018-06-30T08:43:37Z</time>
      </trkpt>
      <trkpt lat="45.9241" lon="4.74775">
        <ele>171</ele>
        <time>2018-06-30T08:43:38Z</time>
      </trkpt>
      <trkpt lat="45.92407" lon="4.74783">
        <ele>171</ele>
        <time>2018-06-30T08:43:39Z</time>
      </trkpt>
      <trkpt lat="45.92406" lon="4.74792">
        <ele>171</ele>
        <time>2018-06-30T08:43:40Z</time>
      </trkpt>
      <trkpt lat="45.92404" lon="4.748">
        <ele>171</ele>
        <time>2018-06-30T08:43:41Z</time>
      </trkpt>
      <trkpt lat="45.92404" lon="4.74808">
        <ele>171</ele>
        <time>2018-06-30T08:43:42Z</time>
      </trkpt>
      <trkpt lat="45.92402" lon="4.74815">
        <ele>171</ele>
        <time>2018-06-30T08:43:43Z</time>
      </trkpt>
      <trkpt lat="45.924" lon="4.74821">
        <ele>171</ele>
        <time>2018-06-30T08:43:44Z</time>
      </trkpt>
      <trkpt lat="45.92398" lon="4.74829">
        <ele>171</ele>
        <time>2018-06-30T08:43:45Z</time>
      </trkpt>
      <trkpt lat="45.92395" lon="4.74835">
        <ele>171</ele>
        <time>2018-06-30T08:43:46Z</time>
      </trkpt>
      <trkpt lat="45.92394" lon="4.74845">
        <ele>171</ele>
        <time>2018-06-30T08:43:47Z</time>
      </trkpt>
      <trkpt lat="45.92393" lon="4.74852">
        <ele>171</ele>
        <time>2018-06-30T08:43:48Z</time>
      </trkpt>
      <trkpt lat="45.9239" lon="4.7486">
        <ele>171</ele>
        <time>2018-06-30T08:43:49Z</time>
      </trkpt>
      <trkpt lat="45.92388" lon="4.74867">
        <ele>171</ele>
        <time>2018-06-30T08:43:50Z</time>
      </trkpt>
      <trkpt lat="45.92385" lon="4.74874">
        <ele>171</ele>
        <time>2018-06-30T08:43:51Z</time>
      </trkpt>
      <trkpt lat="45.92381" lon="4.74883">
        <ele>171</ele>
        <time>2018-06-30T08:43:52Z</time>
      </trkpt>
      <trkpt lat="45.92378" lon="4.74891">
        <ele>171</ele>
        <time>2018-06-30T08:43:53Z</time>
      </trkpt>
      <trkpt lat="45.92374" lon="4.74897">
        <ele>171</ele>
        <time>2018-06-30T08:43:54Z</time>
      </trkpt>
      <trkpt lat="45.92371" lon="4.74903">
        <ele>171</ele>
        <time>2018-06-30T08:43:55Z</time>
      </trkpt>
      <trkpt lat="45.92369" lon="4.7491">
        <ele>171</ele>
        <time>2018-06-30T08:43:56Z</time>
      </trkpt>
      <trkpt lat="45.92366" lon="4.74918">
        <ele>170</ele>
        <time>2018-06-30T08:43:57Z</time>
      </trkpt>
      <trkpt lat="45.92364" lon="4.74926">
        <ele>170</ele>
        <time>2018-06-30T08:43:58Z</time>
      </trkpt>
      <trkpt lat="45.92361" lon="4.74932">
        <ele>170</ele>
        <time>2018-06-30T08:43:59Z</time>
      </trkpt>
      <trkpt lat="45.92358" lon="4.74939">
        <ele>170</ele>
        <time>2018-06-30T08:44:00Z</time>
      </trkpt>
      <trkpt lat="45.92355" lon="4.74946">
        <ele>170</ele>
        <time>2018-06-30T08:44:01Z</time>
      </trkpt>
      <trkpt lat="45.92353" lon="4.74954">
        <ele>170</ele>
        <time>2018-06-30T08:44:02Z</time>
      </trkpt>
      <trkpt lat="45.92349" lon="4.74961">
        <ele>170</ele>
        <time>2018-06-30T08:44:03Z</time>
      </trkpt>
      <trkpt lat="45.92346" lon="4.74968">
        <ele>170</ele>
        <time>2018-06-30T08:44:04Z</time>
      </trkpt>
      <trkpt lat="45.92344" lon="4.74976">
        <ele>170</ele>
        <time>2018-06-30T08:44:05Z</time>
      </trkpt>
      <trkpt lat="45.9234" lon="4.74983">
        <ele>170</ele>
        <time>2018-06-30T08:44:06Z</time>
      </trkpt>
      <trkpt lat="45.92338" lon="4.74991">
        <ele>170</ele>
        <time>2018-06-30T08:44:07Z</time>
      </trkpt>
      <trkpt lat="45.92335" lon="4.74999">
        <ele>170</ele>
        <time>2018-06-30T08:44:08Z</time>
      </trkpt>
      <trkpt lat="45.92332" lon="4.75006">
        <ele>170</ele>
        <time>2018-06-30T08:44:09Z</time>
      </trkpt>
      <trkpt lat="45.92329" lon="4.75014">
        <ele>171</ele>
        <time>2018-06-30T08:44:10Z</time>
      </trkpt>
      <trkpt lat="45.92326" lon="4.75021">
        <ele>171</ele>
        <time>2018-06-30T08:44:11Z</time>
      </trkpt>
      <trkpt lat="45.92323" lon="4.75027">
        <ele>171</ele>
        <time>2018-06-30T08:44:12Z</time>
      </trkpt>
      <trkpt lat="45.9232" lon="4.75035">
        <ele>171</ele>
        <time>2018-06-30T08:44:13Z</time>
      </trkpt>
      <trkpt lat="45.92316" lon="4.75041">
        <ele>172</ele>
        <time>2018-06-30T08:44:14Z</time>
      </trkpt>
      <trkpt lat="45.92313" lon="4.75047">
        <ele>172</ele>
        <time>2018-06-30T08:44:15Z</time>
      </trkpt>
      <trkpt lat="45.92309" lon="4.75052">
        <ele>172</ele>
        <time>2018-06-30T08:44:16Z</time>
      </trkpt>
      <trkpt lat="45.92305" lon="4.75057">
        <ele>172</ele>
        <time>2018-06-30T08:44:17Z</time>
      </trkpt>
      <trkpt lat="45.923" lon="4.75064">
        <ele>172</ele>
        <time>2018-06-30T08:44:18Z</time>
      </trkpt>
      <trkpt lat="45.92296" lon="4.75069">
        <ele>172</ele>
        <time>2018-06-30T08:44:19Z</time>
      </trkpt>
      <trkpt lat="45.92292" lon="4.75076">
        <ele>172</ele>
        <time>2018-06-30T08:44:20Z</time>
      </trkpt>
      <trkpt lat="45.92287" lon="4.75082">
        <ele>172</ele>
        <time>2018-06-30T08:44:21Z</time>
      </trkpt>
      <trkpt lat="45.92283" lon="4.75086">
        <ele>173</ele>
        <time>2018-06-30T08:44:22Z</time>
      </trkpt>
      <trkpt lat="45.92278" lon="4.7509">
        <ele>173</ele>
        <time>2018-06-30T08:44:23Z</time>
      </trkpt>
      <trkpt lat="45.92273" lon="4.75095">
        <ele>173</ele>
        <time>2018-06-30T08:44:24Z</time>
      </trkpt>
      <trkpt lat="45.92269" lon="4.751">
        <ele>173</ele>
        <time>2018-06-30T08:44:25Z</time>
      </trkpt>
      <trkpt lat="45.92264" lon="4.75104">
        <ele>173</ele>
        <time>2018-06-30T08:44:26Z</time>
      </trkpt>
      <trkpt lat="45.92259" lon="4.75109">
        <ele>174</ele>
        <time>2018-06-30T08:44:27Z</time>
      </trkpt>
      <trkpt lat="45.92255" lon="4.75115">
        <ele>174</ele>
        <time>2018-06-30T08:44:28Z</time>
      </trkpt>
      <trkpt lat="45.92251" lon="4.75121">
        <ele>174</ele>
        <time>2018-06-30T08:44:29Z</time>
      </trkpt>
      <trkpt lat="45.92247" lon="4.75126">
        <ele>174</ele>
        <time>2018-06-30T08:44:30Z</time>
      </trkpt>
      <trkpt lat="45.92242" lon="4.75133">
        <ele>174</ele>
        <time>2018-06-30T08:44:31Z</time>
      </trkpt>
      <trkpt lat="45.92238" lon="4.7514">
        <ele>174</ele>
        <time>2018-06-30T08:44:32Z</time>
      </trkpt>
      <trkpt lat="45.92235" lon="4.75145">
        <ele>174</ele>
        <time>2018-06-30T08:44:33Z</time>
      </trkpt>
      <trkpt lat="45.92231" lon="4.75151">
        <ele>174</ele>
        <time>2018-06-30T08:44:34Z</time>
      </trkpt>
      <trkpt lat="45.92227" lon="4.75158">
        <ele>174</ele>
        <time>2018-06-30T08:44:35Z</time>
      </trkpt>
      <trkpt lat="45.92224" lon="4.75165">
        <ele>174</ele>
        <time>2018-06-30T08:44:36Z</time>
      </trkpt>
      <trkpt lat="45.9222" lon="4.75174">
        <ele>175</ele>
        <time>2018-06-30T08:44:37Z</time>
      </trkpt>
      <trkpt lat="45.92217" lon="4.75181">
        <ele>175</ele>
        <time>2018-06-30T08:44:38Z</time>
      </trkpt>
      <trkpt lat="45.92215" lon="4.7519">
        <ele>175</ele>
        <time>2018-06-30T08:44:39Z</time>
      </trkpt>
      <trkpt lat="45.92213" lon="4.75198">
        <ele>175</ele>
        <time>2018-06-30T08:44:40Z</time>
      </trkpt>
      <trkpt lat="45.92212" lon="4.75205">
        <ele>175</ele>
        <time>2018-06-30T08:44:41Z</time>
      </trkpt>
      <trkpt lat="45.92212" lon="4.75214">
        <ele>175</ele>
        <time>2018-06-30T08:44:42Z</time>
      </trkpt>
      <trkpt lat="45.92211" lon="4.75222">
        <ele>175</ele>
        <time>2018-06-30T08:44:43Z</time>
      </trkpt>
      <trkpt lat="45.9221" lon="4.75231">
        <ele>175</ele>
        <time>2018-06-30T08:44:44Z</time>
      </trkpt>
      <trkpt lat="45.9221" lon="4.75239">
        <ele>175</ele>
        <time>2018-06-30T08:44:45Z</time>
      </trkpt>
      <trkpt lat="45.92209" lon="4.75249">
        <ele>175</ele>
        <time>2018-06-30T08:44:46Z</time>
      </trkpt>
      <trkpt lat="45.92209" lon="4.75257">
        <ele>175</ele>
        <time>2018-06-30T08:44:47Z</time>
      </trkpt>
      <trkpt lat="45.92209" lon="4.75264">
        <ele>176</ele>
        <time>2018-06-30T08:44:48Z</time>
      </trkpt>
      <trkpt lat="45.92209" lon="4.75273">
        <ele>176</ele>
        <time>2018-06-30T08:44:49Z</time>
      </trkpt>
      <trkpt lat="45.92209" lon="4.75281">
        <ele>176</ele>
        <time>2018-06-30T08:44:50Z</time>
      </trkpt>
      <trkpt lat="45.92207" lon="4.75291">
        <ele>176</ele>
        <time>2018-06-30T08:44:51Z</time>
      </trkpt>
      <trkpt lat="45.92205" lon="4.75297">
        <ele>176</ele>
        <time>2018-06-30T08:44:52Z</time>
      </trkpt>
      <trkpt lat="45.92204" lon="4.75304">
        <ele>176</ele>
        <time>2018-06-30T08:44:53Z</time>
      </trkpt>
      <trkpt lat="45.92203" lon="4.75312">
        <ele>176</ele>
        <time>2018-06-30T08:44:54Z</time>
      </trkpt>
      <trkpt lat="45.92202" lon="4.75321">
        <ele>176</ele>
        <time>2018-06-30T08:44:55Z</time>
      </trkpt>
      <trkpt lat="45.92203" lon="4.75327">
        <ele>176</ele>
        <time>2018-06-30T08:44:56Z</time>
      </trkpt>
      <trkpt lat="45.92202" lon="4.75335">
        <ele>177</ele>
        <time>2018-06-30T08:44:57Z</time>
      </trkpt>
      <trkpt lat="45.922" lon="4.75341">
        <ele>177</ele>
        <time>2018-06-30T08:44:58Z</time>
      </trkpt>
      <trkpt lat="45.92198" lon="4.75349">
        <ele>177</ele>
        <time>2018-06-30T08:44:59Z</time>
      </trkpt>
      <trkpt lat="45.92196" lon="4.75355">
        <ele>177</ele>
        <time>2018-06-30T08:45:00Z</time>
      </trkpt>
      <trkpt lat="45.92194" lon="4.75362">
        <ele>177</ele>
        <time>2018-06-30T08:45:01Z</time>
      </trkpt>
      <trkpt lat="45.92193" lon="4.75368">
        <ele>177</ele>
        <time>2018-06-30T08:45:02Z</time>
      </trkpt>
      <trkpt lat="45.9219" lon="4.75374">
        <ele>177</ele>
        <time>2018-06-30T08:45:03Z</time>
      </trkpt>
      <trkpt lat="45.92188" lon="4.75382">
        <ele>177</ele>
        <time>2018-06-30T08:45:04Z</time>
      </trkpt>
      <trkpt lat="45.92185" lon="4.75389">
        <ele>177</ele>
        <time>2018-06-30T08:45:05Z</time>
      </trkpt>
      <trkpt lat="45.92183" lon="4.75395">
        <ele>177</ele>
        <time>2018-06-30T08:45:06Z</time>
      </trkpt>
      <trkpt lat="45.9218" lon="4.75403">
        <ele>177</ele>
        <time>2018-06-30T08:45:07Z</time>
      </trkpt>
      <trkpt lat="45.92177" lon="4.75411">
        <ele>177</ele>
        <time>2018-06-30T08:45:08Z</time>
      </trkpt>
      <trkpt lat="45.92174" lon="4.75417">
        <ele>178</ele>
        <time>2018-06-30T08:45:09Z</time>
      </trkpt>
      <trkpt lat="45.92172" lon="4.75425">
        <ele>177</ele>
        <time>2018-06-30T08:45:10Z</time>
      </trkpt>
      <trkpt lat="45.92169" lon="4.75433">
        <ele>177</ele>
        <time>2018-06-30T08:45:11Z</time>
      </trkpt>
      <trkpt lat="45.92166" lon="4.75439">
        <ele>177</ele>
        <time>2018-06-30T08:45:12Z</time>
      </trkpt>
      <trkpt lat="45.92163" lon="4.75446">
        <ele>177</ele>
        <time>2018-06-30T08:45:13Z</time>
      </trkpt>
      <trkpt lat="45.92161" lon="4.75452">
        <ele>176</ele>
        <time>2018-06-30T08:45:14Z</time>
      </trkpt>
      <trkpt lat="45.92158" lon="4.7546">
        <ele>176</ele>
        <time>2018-06-30T08:45:15Z</time>
      </trkpt>
      <trkpt lat="45.92155" lon="4.75469">
        <ele>176</ele>
        <time>2018-06-30T08:45:16Z</time>
      </trkpt>
      <trkpt lat="45.92152" lon="4.75474">
        <ele>176</ele>
        <time>2018-06-30T08:45:17Z</time>
      </trkpt>
      <trkpt lat="45.92149" lon="4.75482">
        <ele>176</ele>
        <time>2018-06-30T08:45:18Z</time>
      </trkpt>
      <trkpt lat="45.92147" lon="4.75489">
        <ele>176</ele>
        <time>2018-06-30T08:45:19Z</time>
      </trkpt>
      <trkpt lat="45.92144" lon="4.75496">
        <ele>175</ele>
        <time>2018-06-30T08:45:20Z</time>
      </trkpt>
      <trkpt lat="45.9214" lon="4.75502">
        <ele>174</ele>
        <time>2018-06-30T08:45:21Z</time>
      </trkpt>
      <trkpt lat="45.92136" lon="4.75508">
        <ele>174</ele>
        <time>2018-06-30T08:45:22Z</time>
      </trkpt>
      <trkpt lat="45.92132" lon="4.75515">
        <ele>174</ele>
        <time>2018-06-30T08:45:23Z</time>
      </trkpt>
      <trkpt lat="45.92128" lon="4.75521">
        <ele>174</ele>
        <time>2018-06-30T08:45:24Z</time>
      </trkpt>
      <trkpt lat="45.92124" lon="4.75527">
        <ele>174</ele>
        <time>2018-06-30T08:45:25Z</time>
      </trkpt>
      <trkpt lat="45.9212" lon="4.75535">
        <ele>174</ele>
        <time>2018-06-30T08:45:26Z</time>
      </trkpt>
      <trkpt lat="45.92116" lon="4.75543">
        <ele>174</ele>
        <time>2018-06-30T08:45:27Z</time>
      </trkpt>
      <trkpt lat="45.92112" lon="4.7555">
        <ele>174</ele>
        <time>2018-06-30T08:45:28Z</time>
      </trkpt>
      <trkpt lat="45.92109" lon="4.75557">
        <ele>174</ele>
        <time>2018-06-30T08:45:29Z</time>
      </trkpt>
      <trkpt lat="45.92105" lon="4.75564">
        <ele>174</ele>
        <time>2018-06-30T08:45:30Z</time>
      </trkpt>
      <trkpt lat="45.92101" lon="4.75572">
        <ele>174</ele>
        <time>2018-06-30T08:45:31Z</time>
      </trkpt>
      <trkpt lat="45.92098" lon="4.75578">
        <ele>174</ele>
        <time>2018-06-30T08:45:32Z</time>
      </trkpt>
      <trkpt lat="45.92095" lon="4.75586">
        <ele>174</ele>
        <time>2018-06-30T08:45:33Z</time>
      </trkpt>
      <trkpt lat="45.92091" lon="4.75593">
        <ele>174</ele>
        <time>2018-06-30T08:45:34Z</time>
      </trkpt>
      <trkpt lat="45.92088" lon="4.756">
        <ele>174</ele>
        <time>2018-06-30T08:45:35Z</time>
      </trkpt>
      <trkpt lat="45.92084" lon="4.75606">
        <ele>174</ele>
        <time>2018-06-30T08:45:36Z</time>
      </trkpt>
      <trkpt lat="45.9208" lon="4.7561">
        <ele>175</ele>
        <time>2018-06-30T08:45:37Z</time>
      </trkpt>
      <trkpt lat="45.92076" lon="4.75614">
        <ele>175</ele>
        <time>2018-06-30T08:45:38Z</time>
      </trkpt>
      <trkpt lat="45.92073" lon="4.75621">
        <ele>175</ele>
        <time>2018-06-30T08:45:39Z</time>
      </trkpt>
      <trkpt lat="45.92069" lon="4.75628">
        <ele>175</ele>
        <time>2018-06-30T08:45:40Z</time>
      </trkpt>
      <trkpt lat="45.92064" lon="4.75636">
        <ele>175</ele>
        <time>2018-06-30T08:45:41Z</time>
      </trkpt>
      <trkpt lat="45.9206" lon="4.75643">
        <ele>175</ele>
        <time>2018-06-30T08:45:42Z</time>
      </trkpt>
      <trkpt lat="45.92056" lon="4.75652">
        <ele>175</ele>
        <time>2018-06-30T08:45:43Z</time>
      </trkpt>
      <trkpt lat="45.92052" lon="4.7566">
        <ele>175</ele>
        <time>2018-06-30T08:45:44Z</time>
      </trkpt>
      <trkpt lat="45.92048" lon="4.75666">
        <ele>175</ele>
        <time>2018-06-30T08:45:45Z</time>
      </trkpt>
      <trkpt lat="45.92044" lon="4.75673">
        <ele>175</ele>
        <time>2018-06-30T08:45:46Z</time>
      </trkpt>
      <trkpt lat="45.92041" lon="4.75679">
        <ele>175</ele>
        <time>2018-06-30T08:45:47Z</time>
      </trkpt>
      <trkpt lat="45.92038" lon="4.75687">
        <ele>175</ele>
        <time>2018-06-30T08:45:48Z</time>
      </trkpt>
      <trkpt lat="45.92034" lon="4.75694">
        <ele>175</ele>
        <time>2018-06-30T08:45:49Z</time>
      </trkpt>
      <trkpt lat="45.9203" lon="4.75701">
        <ele>175</ele>
        <time>2018-06-30T08:45:50Z</time>
      </trkpt>
      <trkpt lat="45.92027" lon="4.75708">
        <ele>175</ele>
        <time>2018-06-30T08:45:51Z</time>
      </trkpt>
      <trkpt lat="45.92023" lon="4.75715">
        <ele>175</ele>
        <time>2018-06-30T08:45:52Z</time>
      </trkpt>
      <trkpt lat="45.9202" lon="4.75721">
        <ele>175</ele>
        <time>2018-06-30T08:45:53Z</time>
      </trkpt>
      <trkpt lat="45.92017" lon="4.75728">
        <ele>175</ele>
        <time>2018-06-30T08:45:54Z</time>
      </trkpt>
      <trkpt lat="45.92013" lon="4.75735">
        <ele>174</ele>
        <time>2018-06-30T08:45:55Z</time>
      </trkpt>
      <trkpt lat="45.92009" lon="4.75742">
        <ele>174</ele>
        <time>2018-06-30T08:45:56Z</time>
      </trkpt>
      <trkpt lat="45.92006" lon="4.75752">
        <ele>174</ele>
        <time>2018-06-30T08:45:57Z</time>
      </trkpt>
      <trkpt lat="45.92002" lon="4.75759">
        <ele>174</ele>
        <time>2018-06-30T08:45:58Z</time>
      </trkpt>
      <trkpt lat="45.91998" lon="4.75767">
        <ele>174</ele>
        <time>2018-06-30T08:45:59Z</time>
      </trkpt>
      <trkpt lat="45.91993" lon="4.75774">
        <ele>174</ele>
        <time>2018-06-30T08:46:00Z</time>
      </trkpt>
      <trkpt lat="45.91989" lon="4.75782">
        <ele>174</ele>
        <time>2018-06-30T08:46:01Z</time>
      </trkpt>
      <trkpt lat="45.91986" lon="4.75788">
        <ele>173</ele>
        <time>2018-06-30T08:46:02Z</time>
      </trkpt>
      <trkpt lat="45.91982" lon="4.75795">
        <ele>173</ele>
        <time>2018-06-30T08:46:03Z</time>
      </trkpt>
      <trkpt lat="45.91978" lon="4.75803">
        <ele>173</ele>
        <time>2018-06-30T08:46:04Z</time>
      </trkpt>
      <trkpt lat="45.91973" lon="4.7581">
        <ele>173</ele>
        <time>2018-06-30T08:46:05Z</time>
      </trkpt>
      <trkpt lat="45.91969" lon="4.75817">
        <ele>173</ele>
        <time>2018-06-30T08:46:06Z</time>
      </trkpt>
      <trkpt lat="45.91964" lon="4.75824">
        <ele>173</ele>
        <time>2018-06-30T08:46:07Z</time>
      </trkpt>
      <trkpt lat="45.91961" lon="4.75832">
        <ele>173</ele>
        <time>2018-06-30T08:46:08Z</time>
      </trkpt>
      <trkpt lat="45.91956" lon="4.75839">
        <ele>172</ele>
        <time>2018-06-30T08:46:09Z</time>
      </trkpt>
      <trkpt lat="45.91952" lon="4.75847">
        <ele>172</ele>
        <time>2018-06-30T08:46:10Z</time>
      </trkpt>
      <trkpt lat="45.91948" lon="4.75854">
        <ele>172</ele>
        <time>2018-06-30T08:46:11Z</time>
      </trkpt>
      <trkpt lat="45.91944" lon="4.7586">
        <ele>172</ele>
        <time>2018-06-30T08:46:12Z</time>
      </trkpt>
      <trkpt lat="45.9194" lon="4.75866">
        <ele>172</ele>
        <time>2018-06-30T08:46:13Z</time>
      </trkpt>
      <trkpt lat="45.91937" lon="4.75874">
        <ele>172</ele>
        <time>2018-06-30T08:46:14Z</time>
      </trkpt>
      <trkpt lat="45.91934" lon="4.75883">
        <ele>172</ele>
        <time>2018-06-30T08:46:15Z</time>
      </trkpt>
      <trkpt lat="45.91931" lon="4.75891">
        <ele>172</ele>
        <time>2018-06-30T08:46:16Z</time>
      </trkpt>
      <trkpt lat="45.91928" lon="4.759">
        <ele>172</ele>
        <time>2018-06-30T08:46:17Z</time>
      </trkpt>
      <trkpt lat="45.91925" lon="4.75907">
        <ele>172</ele>
        <time>2018-06-30T08:46:18Z</time>
      </trkpt>
      <trkpt lat="45.91922" lon="4.75916">
        <ele>172</ele>
        <time>2018-06-30T08:46:19Z</time>
      </trkpt>
      <trkpt lat="45.91919" lon="4.75925">
        <ele>172</ele>
        <time>2018-06-30T08:46:20Z</time>
      </trkpt>
      <trkpt lat="45.91917" lon="4.75933">
        <ele>172</ele>
        <time>2018-06-30T08:46:21Z</time>
      </trkpt>
      <trkpt lat="45.91915" lon="4.75941">
        <ele>173</ele>
        <time>2018-06-30T08:46:22Z</time>
      </trkpt>
      <trkpt lat="45.91913" lon="4.7595">
        <ele>173</ele>
        <time>2018-06-30T08:46:23Z</time>
      </trkpt>
      <trkpt lat="45.91911" lon="4.75958">
        <ele>173</ele>
        <time>2018-06-30T08:46:24Z</time>
      </trkpt>
      <trkpt lat="45.91908" lon="4.75967">
        <ele>173</ele>
        <time>2018-06-30T08:46:25Z</time>
      </trkpt>
      <trkpt lat="45.91905" lon="4.75974">
        <ele>173</ele>
        <time>2018-06-30T08:46:26Z</time>
      </trkpt>
      <trkpt lat="45.91903" lon="4.75985">
        <ele>173</ele>
        <time>2018-06-30T08:46:27Z</time>
      </trkpt>
      <trkpt lat="45.91901" lon="4.75994">
        <ele>173</ele>
        <time>2018-06-30T08:46:28Z</time>
      </trkpt>
      <trkpt lat="45.91899" lon="4.76003">
        <ele>173</ele>
        <time>2018-06-30T08:46:29Z</time>
      </trkpt>
      <trkpt lat="45.91896" lon="4.76011">
        <ele>173</ele>
        <time>2018-06-30T08:46:30Z</time>
      </trkpt>
      <trkpt lat="45.91895" lon="4.76019">
        <ele>173</ele>
        <time>2018-06-30T08:46:31Z</time>
      </trkpt>
      <trkpt lat="45.91892" lon="4.76027">
        <ele>173</ele>
        <time>2018-06-30T08:46:32Z</time>
      </trkpt>
      <trkpt lat="45.9189" lon="4.76036">
        <ele>173</ele>
        <time>2018-06-30T08:46:33Z</time>
      </trkpt>
      <trkpt lat="45.91888" lon="4.76042">
        <ele>173</ele>
        <time>2018-06-30T08:46:34Z</time>
      </trkpt>
      <trkpt lat="45.91885" lon="4.76052">
        <ele>173</ele>
        <time>2018-06-30T08:46:35Z</time>
      </trkpt>
      <trkpt lat="45.91883" lon="4.7606">
        <ele>173</ele>
        <time>2018-06-30T08:46:36Z</time>
      </trkpt>
      <trkpt lat="45.91881" lon="4.76067">
        <ele>173</ele>
        <time>2018-06-30T08:46:37Z</time>
      </trkpt>
      <trkpt lat="45.91877" lon="4.76073">
        <ele>173</ele>
        <time>2018-06-30T08:46:38Z</time>
      </trkpt>
      <trkpt lat="45.91875" lon="4.76082">
        <ele>173</ele>
        <time>2018-06-30T08:46:39Z</time>
      </trkpt>
      <trkpt lat="45.91874" lon="4.76091">
        <ele>173</ele>
        <time>2018-06-30T08:46:40Z</time>
      </trkpt>
      <trkpt lat="45.91872" lon="4.76099">
        <ele>173</ele>
        <time>2018-06-30T08:46:41Z</time>
      </trkpt>
      <trkpt lat="45.9187" lon="4.76108">
        <ele>173</ele>
        <time>2018-06-30T08:46:42Z</time>
      </trkpt>
      <trkpt lat="45.91868" lon="4.76118">
        <ele>173</ele>
        <time>2018-06-30T08:46:43Z</time>
      </trkpt>
      <trkpt lat="45.91867" lon="4.76128">
        <ele>173</ele>
        <time>2018-06-30T08:46:44Z</time>
      </trkpt>
      <trkpt lat="45.91865" lon="4.76136">
        <ele>173</ele>
        <time>2018-06-30T08:46:45Z</time>
      </trkpt>
      <trkpt lat="45.91863" lon="4.76146">
        <ele>173</ele>
        <time>2018-06-30T08:46:46Z</time>
      </trkpt>
      <trkpt lat="45.91861" lon="4.76154">
        <ele>173</ele>
        <time>2018-06-30T08:46:47Z</time>
      </trkpt>
      <trkpt lat="45.91859" lon="4.76165">
        <ele>173</ele>
        <time>2018-06-30T08:46:48Z</time>
      </trkpt>
      <trkpt lat="45.91856" lon="4.76173">
        <ele>172</ele>
        <time>2018-06-30T08:46:49Z</time>
      </trkpt>
      <trkpt lat="45.91854" lon="4.76181">
        <ele>172</ele>
        <time>2018-06-30T08:46:50Z</time>
      </trkpt>
      <trkpt lat="45.91852" lon="4.7619">
        <ele>172</ele>
        <time>2018-06-30T08:46:51Z</time>
      </trkpt>
      <trkpt lat="45.9185" lon="4.76199">
        <ele>172</ele>
        <time>2018-06-30T08:46:52Z</time>
      </trkpt>
      <trkpt lat="45.91847" lon="4.76207">
        <ele>172</ele>
        <time>2018-06-30T08:46:53Z</time>
      </trkpt>
      <trkpt lat="45.91845" lon="4.76216">
        <ele>172</ele>
        <time>2018-06-30T08:46:54Z</time>
      </trkpt>
      <trkpt lat="45.91843" lon="4.76225">
        <ele>172</ele>
        <time>2018-06-30T08:46:55Z</time>
      </trkpt>
      <trkpt lat="45.91841" lon="4.76233">
        <ele>172</ele>
        <time>2018-06-30T08:46:56Z</time>
      </trkpt>
      <trkpt lat="45.91839" lon="4.76242">
        <ele>173</ele>
        <time>2018-06-30T08:46:57Z</time>
      </trkpt>
      <trkpt lat="45.91837" lon="4.76249">
        <ele>173</ele>
        <time>2018-06-30T08:46:58Z</time>
      </trkpt>
      <trkpt lat="45.91834" lon="4.76257">
        <ele>173</ele>
        <time>2018-06-30T08:46:59Z</time>
      </trkpt>
      <trkpt lat="45.91832" lon="4.76265">
        <ele>174</ele>
        <time>2018-06-30T08:47:00Z</time>
      </trkpt>
      <trkpt lat="45.9183" lon="4.76271">
        <ele>174</ele>
        <time>2018-06-30T08:47:01Z</time>
      </trkpt>
      <trkpt lat="45.91827" lon="4.76279">
        <ele>174</ele>
        <time>2018-06-30T08:47:02Z</time>
      </trkpt>
      <trkpt lat="45.91826" lon="4.76287">
        <ele>174</ele>
        <time>2018-06-30T08:47:03Z</time>
      </trkpt>
      <trkpt lat="45.91823" lon="4.76297">
        <ele>174</ele>
        <time>2018-06-30T08:47:04Z</time>
      </trkpt>
      <trkpt lat="45.91821" lon="4.76305">
        <ele>174</ele>
        <time>2018-06-30T08:47:05Z</time>
      </trkpt>
      <trkpt lat="45.91821" lon="4.76314">
        <ele>174</ele>
        <time>2018-06-30T08:47:06Z</time>
      </trkpt>
      <trkpt lat="45.91819" lon="4.76321">
        <ele>174</ele>
        <time>2018-06-30T08:47:07Z</time>
      </trkpt>
      <trkpt lat="45.91818" lon="4.7633">
        <ele>174</ele>
        <time>2018-06-30T08:47:08Z</time>
      </trkpt>
      <trkpt lat="45.91817" lon="4.76337">
        <ele>174</ele>
        <time>2018-06-30T08:47:09Z</time>
      </trkpt>
      <trkpt lat="45.91814" lon="4.76345">
        <ele>174</ele>
        <time>2018-06-30T08:47:10Z</time>
      </trkpt>
      <trkpt lat="45.91813" lon="4.76353">
        <ele>174</ele>
        <time>2018-06-30T08:47:11Z</time>
      </trkpt>
      <trkpt lat="45.91813" lon="4.7636">
        <ele>174</ele>
        <time>2018-06-30T08:47:12Z</time>
      </trkpt>
      <trkpt lat="45.91812" lon="4.76367">
        <ele>174</ele>
        <time>2018-06-30T08:47:13Z</time>
      </trkpt>
      <trkpt lat="45.91812" lon="4.76374">
        <ele>174</ele>
        <time>2018-06-30T08:47:14Z</time>
      </trkpt>
      <trkpt lat="45.9181" lon="4.76384">
        <ele>174</ele>
        <time>2018-06-30T08:47:15Z</time>
      </trkpt>
      <trkpt lat="45.9181" lon="4.76393">
        <ele>173</ele>
        <time>2018-06-30T08:47:16Z</time>
      </trkpt>
      <trkpt lat="45.9181" lon="4.76402">
        <ele>173</ele>
        <time>2018-06-30T08:47:17Z</time>
      </trkpt>
      <trkpt lat="45.91809" lon="4.76409">
        <ele>173</ele>
        <time>2018-06-30T08:47:18Z</time>
      </trkpt>
      <trkpt lat="45.91809" lon="4.76417">
        <ele>173</ele>
        <time>2018-06-30T08:47:19Z</time>
      </trkpt>
      <trkpt lat="45.91808" lon="4.76426">
        <ele>173</ele>
        <time>2018-06-30T08:47:20Z</time>
      </trkpt>
      <trkpt lat="45.91808" lon="4.76435">
        <ele>173</ele>
        <time>2018-06-30T08:47:21Z</time>
      </trkpt>
      <trkpt lat="45.91808" lon="4.76443">
        <ele>173</ele>
        <time>2018-06-30T08:47:22Z</time>
      </trkpt>
      <trkpt lat="45.91807" lon="4.7645">
        <ele>173</ele>
        <time>2018-06-30T08:47:23Z</time>
      </trkpt>
      <trkpt lat="45.91807" lon="4.76459">
        <ele>173</ele>
        <time>2018-06-30T08:47:24Z</time>
      </trkpt>
      <trkpt lat="45.91807" lon="4.76466">
        <ele>173</ele>
        <time>2018-06-30T08:47:25Z</time>
      </trkpt>
      <trkpt lat="45.91807" lon="4.76474">
        <ele>173</ele>
        <time>2018-06-30T08:47:26Z</time>
      </trkpt>
      <trkpt lat="45.91806" lon="4.76481">
        <ele>173</ele>
        <time>2018-06-30T08:47:27Z</time>
      </trkpt>
      <trkpt lat="45.91805" lon="4.76489">
        <ele>173</ele>
        <time>2018-06-30T08:47:28Z</time>
      </trkpt>
      <trkpt lat="45.91804" lon="4.76497">
        <ele>173</ele>
        <time>2018-06-30T08:47:29Z</time>
      </trkpt>
      <trkpt lat="45.91803" lon="4.76505">
        <ele>173</ele>
        <time>2018-06-30T08:47:30Z</time>
      </trkpt>
      <trkpt lat="45.91802" lon="4.76514">
        <ele>173</ele>
        <time>2018-06-30T08:47:31Z</time>
      </trkpt>
      <trkpt lat="45.918" lon="4.76522">
        <ele>173</ele>
        <time>2018-06-30T08:47:32Z</time>
      </trkpt>
      <trkpt lat="45.91799" lon="4.76531">
        <ele>173</ele>
        <time>2018-06-30T08:47:33Z</time>
      </trkpt>
      <trkpt lat="45.91799" lon="4.76542">
        <ele>173</ele>
        <time>2018-06-30T08:47:34Z</time>
      </trkpt>
      <trkpt lat="45.91799" lon="4.76552">
        <ele>173</ele>
        <time>2018-06-30T08:47:35Z</time>
      </trkpt>
      <trkpt lat="45.91798" lon="4.76561">
        <ele>173</ele>
        <time>2018-06-30T08:47:36Z</time>
      </trkpt>
      <trkpt lat="45.91796" lon="4.76571">
        <ele>173</ele>
        <time>2018-06-30T08:47:37Z</time>
      </trkpt>
      <trkpt lat="45.91796" lon="4.76581">
        <ele>173</ele>
        <time>2018-06-30T08:47:38Z</time>
      </trkpt>
      <trkpt lat="45.91795" lon="4.7659">
        <ele>173</ele>
        <time>2018-06-30T08:47:39Z</time>
      </trkpt>
      <trkpt lat="45.91793" lon="4.76599">
        <ele>173</ele>
        <time>2018-06-30T08:47:40Z</time>
      </trkpt>
      <trkpt lat="45.91792" lon="4.76609">
        <ele>173</ele>
        <time>2018-06-30T08:47:41Z</time>
      </trkpt>
      <trkpt lat="45.91791" lon="4.76619">
        <ele>173</ele>
        <time>2018-06-30T08:47:42Z</time>
      </trkpt>
      <trkpt lat="45.9179" lon="4.76628">
        <ele>173</ele>
        <time>2018-06-30T08:47:43Z</time>
      </trkpt>
      <trkpt lat="45.91789" lon="4.76638">
        <ele>173</ele>
        <time>2018-06-30T08:47:44Z</time>
      </trkpt>
      <trkpt lat="45.91788" lon="4.76647">
        <ele>173</ele>
        <time>2018-06-30T08:47:45Z</time>
      </trkpt>
      <trkpt lat="45.91787" lon="4.76657">
        <ele>173</ele>
        <time>2018-06-30T08:47:46Z</time>
      </trkpt>
      <trkpt lat="45.91786" lon="4.76667">
        <ele>173</ele>
        <time>2018-06-30T08:47:47Z</time>
      </trkpt>
      <trkpt lat="45.91785" lon="4.76677">
        <ele>172</ele>
        <time>2018-06-30T08:47:48Z</time>
      </trkpt>
      <trkpt lat="45.91784" lon="4.76687">
        <ele>172</ele>
        <time>2018-06-30T08:47:49Z</time>
      </trkpt>
      <trkpt lat="45.91783" lon="4.76697">
        <ele>172</ele>
        <time>2018-06-30T08:47:50Z</time>
      </trkpt>
      <trkpt lat="45.91781" lon="4.76705">
        <ele>172</ele>
        <time>2018-06-30T08:47:51Z</time>
      </trkpt>
      <trkpt lat="45.9178" lon="4.76714">
        <ele>172</ele>
        <time>2018-06-30T08:47:52Z</time>
      </trkpt>
      <trkpt lat="45.91779" lon="4.76723">
        <ele>172</ele>
        <time>2018-06-30T08:47:53Z</time>
      </trkpt>
      <trkpt lat="45.91778" lon="4.76733">
        <ele>172</ele>
        <time>2018-06-30T08:47:54Z</time>
      </trkpt>
      <trkpt lat="45.91777" lon="4.76743">
        <ele>172</ele>
        <time>2018-06-30T08:47:55Z</time>
      </trkpt>
      <trkpt lat="45.91777" lon="4.76751">
        <ele>171</ele>
        <time>2018-06-30T08:47:56Z</time>
      </trkpt>
      <trkpt lat="45.91776" lon="4.7676">
        <ele>171</ele>
        <time>2018-06-30T08:47:57Z</time>
      </trkpt>
      <trkpt lat="45.91776" lon="4.7677">
        <ele>171</ele>
        <time>2018-06-30T08:47:58Z</time>
      </trkpt>
      <trkpt lat="45.91776" lon="4.76778">
        <ele>171</ele>
        <time>2018-06-30T08:47:59Z</time>
      </trkpt>
      <trkpt lat="45.91776" lon="4.7679">
        <ele>171</ele>
        <time>2018-06-30T08:48:00Z</time>
      </trkpt>
      <trkpt lat="45.91776" lon="4.76799">
        <ele>171</ele>
        <time>2018-06-30T08:48:01Z</time>
      </trkpt>
      <trkpt lat="45.91777" lon="4.76807">
        <ele>171</ele>
        <time>2018-06-30T08:48:02Z</time>
      </trkpt>
      <trkpt lat="45.91777" lon="4.76817">
        <ele>171</ele>
        <time>2018-06-30T08:48:03Z</time>
      </trkpt>
      <trkpt lat="45.91777" lon="4.76825">
        <ele>171</ele>
        <time>2018-06-30T08:48:04Z</time>
      </trkpt>
      <trkpt lat="45.91777" lon="4.76835">
        <ele>171</ele>
        <time>2018-06-30T08:48:05Z</time>
      </trkpt>
      <trkpt lat="45.91778" lon="4.76844">
        <ele>170</ele>
        <time>2018-06-30T08:48:06Z</time>
      </trkpt>
      <trkpt lat="45.91778" lon="4.76853">
        <ele>170</ele>
        <time>2018-06-30T08:48:07Z</time>
      </trkpt>
      <trkpt lat="45.91777" lon="4.76862">
        <ele>170</ele>
        <time>2018-06-30T08:48:08Z</time>
      </trkpt>
      <trkpt lat="45.91778" lon="4.7687">
        <ele>170</ele>
        <time>2018-06-30T08:48:09Z</time>
      </trkpt>
      <trkpt lat="45.91777" lon="4.7688">
        <ele>170</ele>
        <time>2018-06-30T08:48:10Z</time>
      </trkpt>
      <trkpt lat="45.91776" lon="4.76888">
        <ele>170</ele>
        <time>2018-06-30T08:48:11Z</time>
      </trkpt>
      <trkpt lat="45.91774" lon="4.76896">
        <ele>170</ele>
        <time>2018-06-30T08:48:12Z</time>
      </trkpt>
      <trkpt lat="45.91774" lon="4.76905">
        <ele>170</ele>
        <time>2018-06-30T08:48:13Z</time>
      </trkpt>
      <trkpt lat="45.91773" lon="4.76914">
        <ele>170</ele>
        <time>2018-06-30T08:48:14Z</time>
      </trkpt>
      <trkpt lat="45.91772" lon="4.76923">
        <ele>170</ele>
        <time>2018-06-30T08:48:15Z</time>
      </trkpt>
      <trkpt lat="45.91772" lon="4.76932">
        <ele>170</ele>
        <time>2018-06-30T08:48:16Z</time>
      </trkpt>
      <trkpt lat="45.91771" lon="4.76941">
        <ele>169</ele>
        <time>2018-06-30T08:48:17Z</time>
      </trkpt>
      <trkpt lat="45.9177" lon="4.76952">
        <ele>169</ele>
        <time>2018-06-30T08:48:18Z</time>
      </trkpt>
      <trkpt lat="45.9177" lon="4.76962">
        <ele>169</ele>
        <time>2018-06-30T08:48:19Z</time>
      </trkpt>
      <trkpt lat="45.91769" lon="4.76971">
        <ele>169</ele>
        <time>2018-06-30T08:48:20Z</time>
      </trkpt>
      <trkpt lat="45.91766" lon="4.7698">
        <ele>169</ele>
        <time>2018-06-30T08:48:21Z</time>
      </trkpt>
      <trkpt lat="45.91764" lon="4.76989">
        <ele>169</ele>
        <time>2018-06-30T08:48:22Z</time>
      </trkpt>
      <trkpt lat="45.91763" lon="4.76998">
        <ele>169</ele>
        <time>2018-06-30T08:48:23Z</time>
      </trkpt>
      <trkpt lat="45.91761" lon="4.77007">
        <ele>169</ele>
        <time>2018-06-30T08:48:24Z</time>
      </trkpt>
      <trkpt lat="45.9176" lon="4.77016">
        <ele>169</ele>
        <time>2018-06-30T08:48:25Z</time>
      </trkpt>
      <trkpt lat="45.91758" lon="4.77023">
        <ele>169</ele>
        <time>2018-06-30T08:48:26Z</time>
      </trkpt>
      <trkpt lat="45.91758" lon="4.77031">
        <ele>169</ele>
        <time>2018-06-30T08:48:27Z</time>
      </trkpt>
      <trkpt lat="45.91756" lon="4.7704">
        <ele>169</ele>
        <time>2018-06-30T08:48:28Z</time>
      </trkpt>
      <trkpt lat="45.91755" lon="4.77049">
        <ele>169</ele>
        <time>2018-06-30T08:48:29Z</time>
      </trkpt>
      <trkpt lat="45.91754" lon="4.77058">
        <ele>169</ele>
        <time>2018-06-30T08:48:30Z</time>
      </trkpt>
      <trkpt lat="45.91753" lon="4.77067">
        <ele>169</ele>
        <time>2018-06-30T08:48:31Z</time>
      </trkpt>
      <trkpt lat="45.91752" lon="4.77076">
        <ele>169</ele>
        <time>2018-06-30T08:48:32Z</time>
      </trkpt>
      <trkpt lat="45.91751" lon="4.77085">
        <ele>169</ele>
        <time>2018-06-30T08:48:33Z</time>
      </trkpt>
      <trkpt lat="45.9175" lon="4.77093">
        <ele>169</ele>
        <time>2018-06-30T08:48:34Z</time>
      </trkpt>
      <trkpt lat="45.91748" lon="4.77102">
        <ele>170</ele>
        <time>2018-06-30T08:48:35Z</time>
      </trkpt>
      <trkpt lat="45.91748" lon="4.7711">
        <ele>170</ele>
        <time>2018-06-30T08:48:36Z</time>
      </trkpt>
      <trkpt lat="45.91747" lon="4.77118">
        <ele>170</ele>
        <time>2018-06-30T08:48:37Z</time>
      </trkpt>
      <trkpt lat="45.91745" lon="4.77124">
        <ele>170</ele>
        <time>2018-06-30T08:48:38Z</time>
      </trkpt>
      <trkpt lat="45.91744" lon="4.77131">
        <ele>170</ele>
        <time>2018-06-30T08:48:39Z</time>
      </trkpt>
      <trkpt lat="45.91744" lon="4.77138">
        <ele>170</ele>
        <time>2018-06-30T08:48:40Z</time>
      </trkpt>
      <trkpt lat="45.91743" lon="4.77145">
        <ele>170</ele>
        <time>2018-06-30T08:48:41Z</time>
      </trkpt>
      <trkpt lat="45.91739" lon="4.77156">
        <ele>170</ele>
        <time>2018-06-30T08:48:43Z</time>
      </trkpt>
      <trkpt lat="45.91738" lon="4.77158">
        <ele>170</ele>
        <time>2018-06-30T08:48:44Z</time>
      </trkpt>
      <trkpt lat="45.91734" lon="4.77162">
        <ele>170</ele>
        <time>2018-06-30T08:48:46Z</time>
      </trkpt>
      <trkpt lat="45.9173" lon="4.77171">
        <ele>170</ele>
        <time>2018-06-30T08:48:47Z</time>
      </trkpt>
      <trkpt lat="45.91727" lon="4.7718">
        <ele>170</ele>
        <time>2018-06-30T08:48:49Z</time>
      </trkpt>
      <trkpt lat="45.91724" lon="4.77186">
        <ele>170</ele>
        <time>2018-06-30T08:48:50Z</time>
      </trkpt>
      <trkpt lat="45.91722" lon="4.77193">
        <ele>170</ele>
        <time>2018-06-30T08:48:51Z</time>
      </trkpt>
      <trkpt lat="45.9172" lon="4.77199">
        <ele>170</ele>
        <time>2018-06-30T08:48:52Z</time>
      </trkpt>
      <trkpt lat="45.91715" lon="4.77209">
        <ele>170</ele>
        <time>2018-06-30T08:48:54Z</time>
      </trkpt>
      <trkpt lat="45.91713" lon="4.77214">
        <ele>170</ele>
        <time>2018-06-30T08:48:55Z</time>
      </trkpt>
      <trkpt lat="45.9171" lon="4.7722">
        <ele>170</ele>
        <time>2018-06-30T08:48:56Z</time>
      </trkpt>
      <trkpt lat="45.91707" lon="4.77225">
        <ele>170</ele>
        <time>2018-06-30T08:48:57Z</time>
      </trkpt>
      <trkpt lat="45.91704" lon="4.77231">
        <ele>170</ele>
        <time>2018-06-30T08:48:58Z</time>
      </trkpt>
      <trkpt lat="45.91701" lon="4.77236">
        <ele>170</ele>
        <time>2018-06-30T08:48:59Z</time>
      </trkpt>
      <trkpt lat="45.91699" lon="4.77243">
        <ele>170</ele>
        <time>2018-06-30T08:49:00Z</time>
      </trkpt>
      <trkpt lat="45.91696" lon="4.77249">
        <ele>170</ele>
        <time>2018-06-30T08:49:01Z</time>
      </trkpt>
      <trkpt lat="45.91693" lon="4.77256">
        <ele>170</ele>
        <time>2018-06-30T08:49:02Z</time>
      </trkpt>
      <trkpt lat="45.91691" lon="4.77263">
        <ele>170</ele>
        <time>2018-06-30T08:49:03Z</time>
      </trkpt>
      <trkpt lat="45.9169" lon="4.77271">
        <ele>170</ele>
        <time>2018-06-30T08:49:04Z</time>
      </trkpt>
      <trkpt lat="45.91689" lon="4.77278">
        <ele>170</ele>
        <time>2018-06-30T08:49:05Z</time>
      </trkpt>
      <trkpt lat="45.91688" lon="4.77284">
        <ele>170</ele>
        <time>2018-06-30T08:49:06Z</time>
      </trkpt>
      <trkpt lat="45.91686" lon="4.7729">
        <ele>170</ele>
        <time>2018-06-30T08:49:07Z</time>
      </trkpt>
      <trkpt lat="45.91685" lon="4.77297">
        <ele>170</ele>
        <time>2018-06-30T08:49:08Z</time>
      </trkpt>
      <trkpt lat="45.91684" lon="4.77307">
        <ele>171</ele>
        <time>2018-06-30T08:49:09Z</time>
      </trkpt>
      <trkpt lat="45.91682" lon="4.77313">
        <ele>171</ele>
        <time>2018-06-30T08:49:10Z</time>
      </trkpt>
      <trkpt lat="45.9168" lon="4.77321">
        <ele>171</ele>
        <time>2018-06-30T08:49:11Z</time>
      </trkpt>
      <trkpt lat="45.91678" lon="4.77327">
        <ele>171</ele>
        <time>2018-06-30T08:49:12Z</time>
      </trkpt>
      <trkpt lat="45.91675" lon="4.77334">
        <ele>172</ele>
        <time>2018-06-30T08:49:13Z</time>
      </trkpt>
      <trkpt lat="45.91672" lon="4.7734">
        <ele>172</ele>
        <time>2018-06-30T08:49:14Z</time>
      </trkpt>
      <trkpt lat="45.9167" lon="4.77346">
        <ele>171</ele>
        <time>2018-06-30T08:49:15Z</time>
      </trkpt>
      <trkpt lat="45.91667" lon="4.77353">
        <ele>171</ele>
        <time>2018-06-30T08:49:16Z</time>
      </trkpt>
      <trkpt lat="45.91665" lon="4.77359">
        <ele>172</ele>
        <time>2018-06-30T08:49:17Z</time>
      </trkpt>
      <trkpt lat="45.91663" lon="4.77366">
        <ele>172</ele>
        <time>2018-06-30T08:49:18Z</time>
      </trkpt>
      <trkpt lat="45.9166" lon="4.77373">
        <ele>172</ele>
        <time>2018-06-30T08:49:19Z</time>
      </trkpt>
      <trkpt lat="45.91658" lon="4.7738">
        <ele>172</ele>
        <time>2018-06-30T08:49:20Z</time>
      </trkpt>
      <trkpt lat="45.91655" lon="4.77387">
        <ele>172</ele>
        <time>2018-06-30T08:49:21Z</time>
      </trkpt>
      <trkpt lat="45.91653" lon="4.77394">
        <ele>172</ele>
        <time>2018-06-30T08:49:22Z</time>
      </trkpt>
      <trkpt lat="45.91651" lon="4.77402">
        <ele>172</ele>
        <time>2018-06-30T08:49:23Z</time>
      </trkpt>
      <trkpt lat="45.91649" lon="4.77408">
        <ele>172</ele>
        <time>2018-06-30T08:49:24Z</time>
      </trkpt>
      <trkpt lat="45.91647" lon="4.77414">
        <ele>172</ele>
        <time>2018-06-30T08:49:25Z</time>
      </trkpt>
      <trkpt lat="45.91646" lon="4.77421">
        <ele>172</ele>
        <time>2018-06-30T08:49:26Z</time>
      </trkpt>
      <trkpt lat="45.91644" lon="4.77429">
        <ele>172</ele>
        <time>2018-06-30T08:49:27Z</time>
      </trkpt>
      <trkpt lat="45.91642" lon="4.77436">
        <ele>172</ele>
        <time>2018-06-30T08:49:28Z</time>
      </trkpt>
      <trkpt lat="45.91641" lon="4.77443">
        <ele>172</ele>
        <time>2018-06-30T08:49:29Z</time>
      </trkpt>
      <trkpt lat="45.91639" lon="4.7745">
        <ele>171</ele>
        <time>2018-06-30T08:49:30Z</time>
      </trkpt>
      <trkpt lat="45.91636" lon="4.77457">
        <ele>171</ele>
        <time>2018-06-30T08:49:31Z</time>
      </trkpt>
      <trkpt lat="45.91635" lon="4.77465">
        <ele>171</ele>
        <time>2018-06-30T08:49:32Z</time>
      </trkpt>
      <trkpt lat="45.91633" lon="4.77471">
        <ele>171</ele>
        <time>2018-06-30T08:49:33Z</time>
      </trkpt>
      <trkpt lat="45.91631" lon="4.77483">
        <ele>171</ele>
        <time>2018-06-30T08:49:35Z</time>
      </trkpt>
      <trkpt lat="45.91631" lon="4.7749">
        <ele>171</ele>
        <time>2018-06-30T08:49:36Z</time>
      </trkpt>
      <trkpt lat="45.91631" lon="4.77502">
        <ele>171</ele>
        <time>2018-06-30T08:49:38Z</time>
      </trkpt>
      <trkpt lat="45.91629" lon="4.77507">
        <ele>171</ele>
        <time>2018-06-30T08:49:39Z</time>
      </trkpt>
      <trkpt lat="45.91627" lon="4.77512">
        <ele>171</ele>
        <time>2018-06-30T08:49:40Z</time>
      </trkpt>
      <trkpt lat="45.91625" lon="4.77518">
        <ele>171</ele>
        <time>2018-06-30T08:49:41Z</time>
      </trkpt>
      <trkpt lat="45.91618" lon="4.77528">
        <ele>171</ele>
        <time>2018-06-30T08:49:43Z</time>
      </trkpt>
      <trkpt lat="45.91615" lon="4.77532">
        <ele>171</ele>
        <time>2018-06-30T08:49:44Z</time>
      </trkpt>
      <trkpt lat="45.91609" lon="4.77541">
        <ele>171</ele>
        <time>2018-06-30T08:49:46Z</time>
      </trkpt>
      <trkpt lat="45.91607" lon="4.77546">
        <ele>171</ele>
        <time>2018-06-30T08:49:47Z</time>
      </trkpt>
      <trkpt lat="45.91602" lon="4.77556">
        <ele>172</ele>
        <time>2018-06-30T08:49:49Z</time>
      </trkpt>
      <trkpt lat="45.916" lon="4.77562">
        <ele>172</ele>
        <time>2018-06-30T08:49:50Z</time>
      </trkpt>
      <trkpt lat="45.91597" lon="4.77568">
        <ele>172</ele>
        <time>2018-06-30T08:49:51Z</time>
      </trkpt>
      <trkpt lat="45.91594" lon="4.77572">
        <ele>172</ele>
        <time>2018-06-30T08:49:52Z</time>
      </trkpt>
      <trkpt lat="45.91591" lon="4.77579">
        <ele>172</ele>
        <time>2018-06-30T08:49:53Z</time>
      </trkpt>
      <trkpt lat="45.91587" lon="4.77581">
        <ele>173</ele>
        <time>2018-06-30T08:49:54Z</time>
      </trkpt>
      <trkpt lat="45.91583" lon="4.77585">
        <ele>173</ele>
        <time>2018-06-30T08:49:55Z</time>
      </trkpt>
      <trkpt lat="45.9158" lon="4.77591">
        <ele>173</ele>
        <time>2018-06-30T08:49:56Z</time>
      </trkpt>
      <trkpt lat="45.91576" lon="4.77596">
        <ele>173</ele>
        <time>2018-06-30T08:49:57Z</time>
      </trkpt>
      <trkpt lat="45.91574" lon="4.77602">
        <ele>173</ele>
        <time>2018-06-30T08:49:58Z</time>
      </trkpt>
      <trkpt lat="45.91571" lon="4.77607">
        <ele>174</ele>
        <time>2018-06-30T08:49:59Z</time>
      </trkpt>
      <trkpt lat="45.91568" lon="4.77613">
        <ele>174</ele>
        <time>2018-06-30T08:50:00Z</time>
      </trkpt>
      <trkpt lat="45.91564" lon="4.7762">
        <ele>174</ele>
        <time>2018-06-30T08:50:01Z</time>
      </trkpt>
      <trkpt lat="45.91561" lon="4.77625">
        <ele>174</ele>
        <time>2018-06-30T08:50:02Z</time>
      </trkpt>
      <trkpt lat="45.91557" lon="4.77629">
        <ele>174</ele>
        <time>2018-06-30T08:50:03Z</time>
      </trkpt>
      <trkpt lat="45.91553" lon="4.77634">
        <ele>174</ele>
        <time>2018-06-30T08:50:04Z</time>
      </trkpt>
      <trkpt lat="45.9155" lon="4.7764">
        <ele>174</ele>
        <time>2018-06-30T08:50:05Z</time>
      </trkpt>
      <trkpt lat="45.91544" lon="4.77644">
        <ele>174</ele>
        <time>2018-06-30T08:50:06Z</time>
      </trkpt>
      <trkpt lat="45.91539" lon="4.77652">
        <ele>174</ele>
        <time>2018-06-30T08:50:08Z</time>
      </trkpt>
      <trkpt lat="45.91534" lon="4.77657">
        <ele>174</ele>
        <time>2018-06-30T08:50:09Z</time>
      </trkpt>
      <trkpt lat="45.91529" lon="4.77664">
        <ele>174</ele>
        <time>2018-06-30T08:50:11Z</time>
      </trkpt>
      <trkpt lat="45.91526" lon="4.77669">
        <ele>175</ele>
        <time>2018-06-30T08:50:12Z</time>
      </trkpt>
      <trkpt lat="45.91521" lon="4.77679">
        <ele>175</ele>
        <time>2018-06-30T08:50:14Z</time>
      </trkpt>
      <trkpt lat="45.91518" lon="4.77683">
        <ele>176</ele>
        <time>2018-06-30T08:50:15Z</time>
      </trkpt>
      <trkpt lat="45.91513" lon="4.77693">
        <ele>176</ele>
        <time>2018-06-30T08:50:17Z</time>
      </trkpt>
      <trkpt lat="45.91509" lon="4.77697">
        <ele>176</ele>
        <time>2018-06-30T08:50:18Z</time>
      </trkpt>
      <trkpt lat="45.91502" lon="4.77696">
        <ele>176</ele>
        <time>2018-06-30T08:50:20Z</time>
      </trkpt>
      <trkpt lat="45.91498" lon="4.77697">
        <ele>177</ele>
        <time>2018-06-30T08:50:21Z</time>
      </trkpt>
      <trkpt lat="45.9149" lon="4.77697">
        <ele>177</ele>
        <time>2018-06-30T08:50:23Z</time>
      </trkpt>
      <trkpt lat="45.91483" lon="4.77698">
        <ele>177</ele>
        <time>2018-06-30T08:50:24Z</time>
      </trkpt>
      <trkpt lat="45.91478" lon="4.77701">
        <ele>177</ele>
        <time>2018-06-30T08:50:25Z</time>
      </trkpt>
      <trkpt lat="45.91473" lon="4.77701">
        <ele>177</ele>
        <time>2018-06-30T08:50:26Z</time>
      </trkpt>
      <trkpt lat="45.91465" lon="4.77701">
        <ele>177</ele>
        <time>2018-06-30T08:50:28Z</time>
      </trkpt>
      <trkpt lat="45.91461" lon="4.77702">
        <ele>177</ele>
        <time>2018-06-30T08:50:29Z</time>
      </trkpt>
      <trkpt lat="45.91457" lon="4.77703">
        <ele>177</ele>
        <time>2018-06-30T08:50:30Z</time>
      </trkpt>
      <trkpt lat="45.91452" lon="4.77705">
        <ele>177</ele>
        <time>2018-06-30T08:50:31Z</time>
      </trkpt>
      <trkpt lat="45.91446" lon="4.77706">
        <ele>177</ele>
        <time>2018-06-30T08:50:33Z</time>
      </trkpt>
      <trkpt lat="45.91442" lon="4.77707">
        <ele>177</ele>
        <time>2018-06-30T08:50:34Z</time>
      </trkpt>
      <trkpt lat="45.91433" lon="4.77708">
        <ele>177</ele>
        <time>2018-06-30T08:50:36Z</time>
      </trkpt>
      <trkpt lat="45.91429" lon="4.77709">
        <ele>177</ele>
        <time>2018-06-30T08:50:37Z</time>
      </trkpt>
      <trkpt lat="45.91421" lon="4.7771">
        <ele>177</ele>
        <time>2018-06-30T08:50:40Z</time>
      </trkpt>
      <trkpt lat="45.91414" lon="4.77711">
        <ele>177</ele>
        <time>2018-06-30T08:50:41Z</time>
      </trkpt>
      <trkpt lat="45.91407" lon="4.77712">
        <ele>177</ele>
        <time>2018-06-30T08:50:43Z</time>
      </trkpt>
      <trkpt lat="45.91403" lon="4.77714">
        <ele>177</ele>
        <time>2018-06-30T08:50:44Z</time>
      </trkpt>
      <trkpt lat="45.91399" lon="4.77716">
        <ele>177</ele>
        <time>2018-06-30T08:50:45Z</time>
      </trkpt>
      <trkpt lat="45.91393" lon="4.77717">
        <ele>177</ele>
        <time>2018-06-30T08:50:46Z</time>
      </trkpt>
      <trkpt lat="45.91388" lon="4.77718">
        <ele>177</ele>
        <time>2018-06-30T08:50:47Z</time>
      </trkpt>
      <trkpt lat="45.91383" lon="4.77719">
        <ele>176</ele>
        <time>2018-06-30T08:50:48Z</time>
      </trkpt>
      <trkpt lat="45.91374" lon="4.77717">
        <ele>176</ele>
        <time>2018-06-30T08:50:50Z</time>
      </trkpt>
      <trkpt lat="45.91369" lon="4.77716">
        <ele>176</ele>
        <time>2018-06-30T08:50:51Z</time>
      </trkpt>
      <trkpt lat="45.91364" lon="4.77717">
        <ele>176</ele>
        <time>2018-06-30T08:50:52Z</time>
      </trkpt>
      <trkpt lat="45.91359" lon="4.77716">
        <ele>176</ele>
        <time>2018-06-30T08:50:53Z</time>
      </trkpt>
      <trkpt lat="45.91355" lon="4.77716">
        <ele>176</ele>
        <time>2018-06-30T08:50:54Z</time>
      </trkpt>
      <trkpt lat="45.9135" lon="4.77714">
        <ele>176</ele>
        <time>2018-06-30T08:50:55Z</time>
      </trkpt>
      <trkpt lat="45.91344" lon="4.77714">
        <ele>176</ele>
        <time>2018-06-30T08:50:56Z</time>
      </trkpt>
      <trkpt lat="45.91338" lon="4.77714">
        <ele>176</ele>
        <time>2018-06-30T08:50:57Z</time>
      </trkpt>
      <trkpt lat="45.91333" lon="4.77713">
        <ele>176</ele>
        <time>2018-06-30T08:50:58Z</time>
      </trkpt>
      <trkpt lat="45.91328" lon="4.77712">
        <ele>176</ele>
        <time>2018-06-30T08:50:59Z</time>
      </trkpt>
      <trkpt lat="45.91324" lon="4.7771">
        <ele>176</ele>
        <time>2018-06-30T08:51:00Z</time>
      </trkpt>
      <trkpt lat="45.91319" lon="4.77709">
        <ele>176</ele>
        <time>2018-06-30T08:51:01Z</time>
      </trkpt>
      <trkpt lat="45.91313" lon="4.77708">
        <ele>176</ele>
        <time>2018-06-30T08:51:02Z</time>
      </trkpt>
      <trkpt lat="45.91309" lon="4.77705">
        <ele>176</ele>
        <time>2018-06-30T08:51:03Z</time>
      </trkpt>
      <trkpt lat="45.91304" lon="4.77703">
        <ele>176</ele>
        <time>2018-06-30T08:51:04Z</time>
      </trkpt>
      <trkpt lat="45.91299" lon="4.777">
        <ele>176</ele>
        <time>2018-06-30T08:51:05Z</time>
      </trkpt>
      <trkpt lat="45.91294" lon="4.77697">
        <ele>176</ele>
        <time>2018-06-30T08:51:06Z</time>
      </trkpt>
      <trkpt lat="45.9129" lon="4.77694">
        <ele>176</ele>
        <time>2018-06-30T08:51:07Z</time>
      </trkpt>
      <trkpt lat="45.91285" lon="4.77691">
        <ele>176</ele>
        <time>2018-06-30T08:51:08Z</time>
      </trkpt>
      <trkpt lat="45.9128" lon="4.77687">
        <ele>176</ele>
        <time>2018-06-30T08:51:09Z</time>
      </trkpt>
      <trkpt lat="45.91275" lon="4.77685">
        <ele>176</ele>
        <time>2018-06-30T08:51:10Z</time>
      </trkpt>
      <trkpt lat="45.9127" lon="4.77682">
        <ele>176</ele>
        <time>2018-06-30T08:51:11Z</time>
      </trkpt>
      <trkpt lat="45.91265" lon="4.7768">
        <ele>176</ele>
        <time>2018-06-30T08:51:12Z</time>
      </trkpt>
      <trkpt lat="45.9126" lon="4.77679">
        <ele>175</ele>
        <time>2018-06-30T08:51:13Z</time>
      </trkpt>
      <trkpt lat="45.91255" lon="4.77677">
        <ele>175</ele>
        <time>2018-06-30T08:51:14Z</time>
      </trkpt>
      <trkpt lat="45.9125" lon="4.77677">
        <ele>176</ele>
        <time>2018-06-30T08:51:15Z</time>
      </trkpt>
      <trkpt lat="45.91244" lon="4.77679">
        <ele>176</ele>
        <time>2018-06-30T08:51:16Z</time>
      </trkpt>
      <trkpt lat="45.91239" lon="4.77681">
        <ele>176</ele>
        <time>2018-06-30T08:51:17Z</time>
      </trkpt>
      <trkpt lat="45.91235" lon="4.77681">
        <ele>176</ele>
        <time>2018-06-30T08:51:18Z</time>
      </trkpt>
      <trkpt lat="45.91229" lon="4.77682">
        <ele>176</ele>
        <time>2018-06-30T08:51:19Z</time>
      </trkpt>
      <trkpt lat="45.91224" lon="4.77684">
        <ele>176</ele>
        <time>2018-06-30T08:51:20Z</time>
      </trkpt>
      <trkpt lat="45.9122" lon="4.77685">
        <ele>176</ele>
        <time>2018-06-30T08:51:21Z</time>
      </trkpt>
      <trkpt lat="45.91214" lon="4.77686">
        <ele>176</ele>
        <time>2018-06-30T08:51:22Z</time>
      </trkpt>
      <trkpt lat="45.91209" lon="4.77688">
        <ele>176</ele>
        <time>2018-06-30T08:51:23Z</time>
      </trkpt>
      <trkpt lat="45.91205" lon="4.77689">
        <ele>176</ele>
        <time>2018-06-30T08:51:24Z</time>
      </trkpt>
      <trkpt lat="45.91199" lon="4.77691">
        <ele>176</ele>
        <time>2018-06-30T08:51:25Z</time>
      </trkpt>
      <trkpt lat="45.91194" lon="4.77694">
        <ele>176</ele>
        <time>2018-06-30T08:51:26Z</time>
      </trkpt>
      <trkpt lat="45.91189" lon="4.77695">
        <ele>176</ele>
        <time>2018-06-30T08:51:27Z</time>
      </trkpt>
      <trkpt lat="45.91181" lon="4.77698">
        <ele>176</ele>
        <time>2018-06-30T08:51:29Z</time>
      </trkpt>
      <trkpt lat="45.91176" lon="4.777">
        <ele>176</ele>
        <time>2018-06-30T08:51:30Z</time>
      </trkpt>
      <trkpt lat="45.91171" lon="4.77701">
        <ele>176</ele>
        <time>2018-06-30T08:51:31Z</time>
      </trkpt>
      <trkpt lat="45.91167" lon="4.77703">
        <ele>177</ele>
        <time>2018-06-30T08:51:32Z</time>
      </trkpt>
      <trkpt lat="45.91161" lon="4.77705">
        <ele>177</ele>
        <time>2018-06-30T08:51:33Z</time>
      </trkpt>
      <trkpt lat="45.91156" lon="4.77707">
        <ele>177</ele>
        <time>2018-06-30T08:51:34Z</time>
      </trkpt>
      <trkpt lat="45.91148" lon="4.7771">
        <ele>177</ele>
        <time>2018-06-30T08:51:36Z</time>
      </trkpt>
      <trkpt lat="45.91141" lon="4.77713">
        <ele>177</ele>
        <time>2018-06-30T08:51:37Z</time>
      </trkpt>
      <trkpt lat="45.91136" lon="4.77715">
        <ele>177</ele>
        <time>2018-06-30T08:51:38Z</time>
      </trkpt>
      <trkpt lat="45.91132" lon="4.77716">
        <ele>177</ele>
        <time>2018-06-30T08:51:39Z</time>
      </trkpt>
      <trkpt lat="45.91125" lon="4.77718">
        <ele>177</ele>
        <time>2018-06-30T08:51:40Z</time>
      </trkpt>
      <trkpt lat="45.91121" lon="4.7772">
        <ele>177</ele>
        <time>2018-06-30T08:51:41Z</time>
      </trkpt>
      <trkpt lat="45.91117" lon="4.77723">
        <ele>178</ele>
        <time>2018-06-30T08:51:42Z</time>
      </trkpt>
      <trkpt lat="45.91112" lon="4.77727">
        <ele>178</ele>
        <time>2018-06-30T08:51:43Z</time>
      </trkpt>
      <trkpt lat="45.91107" lon="4.7773">
        <ele>178</ele>
        <time>2018-06-30T08:51:44Z</time>
      </trkpt>
      <trkpt lat="45.91103" lon="4.77734">
        <ele>178</ele>
        <time>2018-06-30T08:51:45Z</time>
      </trkpt>
      <trkpt lat="45.91101" lon="4.77738">
        <ele>178</ele>
        <time>2018-06-30T08:51:46Z</time>
      </trkpt>
      <trkpt lat="45.91093" lon="4.77743">
        <ele>178</ele>
        <time>2018-06-30T08:51:47Z</time>
      </trkpt>
      <trkpt lat="45.91085" lon="4.77748">
        <ele>179</ele>
        <time>2018-06-30T08:51:49Z</time>
      </trkpt>
      <trkpt lat="45.91081" lon="4.7775">
        <ele>179</ele>
        <time>2018-06-30T08:51:50Z</time>
      </trkpt>
      <trkpt lat="45.91076" lon="4.77753">
        <ele>179</ele>
        <time>2018-06-30T08:51:51Z</time>
      </trkpt>
      <trkpt lat="45.91071" lon="4.77756">
        <ele>179</ele>
        <time>2018-06-30T08:51:52Z</time>
      </trkpt>
      <trkpt lat="45.91066" lon="4.77759">
        <ele>178</ele>
        <time>2018-06-30T08:51:53Z</time>
      </trkpt>
      <trkpt lat="45.91061" lon="4.77761">
        <ele>178</ele>
        <time>2018-06-30T08:51:54Z</time>
      </trkpt>
      <trkpt lat="45.91056" lon="4.77764">
        <ele>178</ele>
        <time>2018-06-30T08:51:55Z</time>
      </trkpt>
      <trkpt lat="45.91051" lon="4.77766">
        <ele>178</ele>
        <time>2018-06-30T08:51:56Z</time>
      </trkpt>
      <trkpt lat="45.91045" lon="4.77769">
        <ele>178</ele>
        <time>2018-06-30T08:51:57Z</time>
      </trkpt>
      <trkpt lat="45.91039" lon="4.77772">
        <ele>178</ele>
        <time>2018-06-30T08:51:58Z</time>
      </trkpt>
      <trkpt lat="45.91034" lon="4.77774">
        <ele>178</ele>
        <time>2018-06-30T08:51:59Z</time>
      </trkpt>
      <trkpt lat="45.91027" lon="4.77776">
        <ele>178</ele>
        <time>2018-06-30T08:52:00Z</time>
      </trkpt>
      <trkpt lat="45.91022" lon="4.77779">
        <ele>178</ele>
        <time>2018-06-30T08:52:01Z</time>
      </trkpt>
      <trkpt lat="45.91015" lon="4.77782">
        <ele>178</ele>
        <time>2018-06-30T08:52:02Z</time>
      </trkpt>
      <trkpt lat="45.91008" lon="4.77787">
        <ele>178</ele>
        <time>2018-06-30T08:52:03Z</time>
      </trkpt>
      <trkpt lat="45.91004" lon="4.77788">
        <ele>178</ele>
        <time>2018-06-30T08:52:04Z</time>
      </trkpt>
      <trkpt lat="45.90995" lon="4.7779">
        <ele>177</ele>
        <time>2018-06-30T08:52:06Z</time>
      </trkpt>
      <trkpt lat="45.90989" lon="4.77793">
        <ele>177</ele>
        <time>2018-06-30T08:52:07Z</time>
      </trkpt>
      <trkpt lat="45.90981" lon="4.77788">
        <ele>177</ele>
        <time>2018-06-30T08:52:09Z</time>
      </trkpt>
      <trkpt lat="45.90977" lon="4.77789">
        <ele>177</ele>
        <time>2018-06-30T08:52:10Z</time>
      </trkpt>
      <trkpt lat="45.90968" lon="4.77787">
        <ele>177</ele>
        <time>2018-06-30T08:52:12Z</time>
      </trkpt>
      <trkpt lat="45.90964" lon="4.77786">
        <ele>177</ele>
        <time>2018-06-30T08:52:13Z</time>
      </trkpt>
      <trkpt lat="45.90956" lon="4.7778">
        <ele>177</ele>
        <time>2018-06-30T08:52:15Z</time>
      </trkpt>
      <trkpt lat="45.90953" lon="4.77776">
        <ele>177</ele>
        <time>2018-06-30T08:52:16Z</time>
      </trkpt>
      <trkpt lat="45.90949" lon="4.77773">
        <ele>177</ele>
        <time>2018-06-30T08:52:17Z</time>
      </trkpt>
      <trkpt lat="45.90943" lon="4.77771">
        <ele>177</ele>
        <time>2018-06-30T08:52:18Z</time>
      </trkpt>
      <trkpt lat="45.90935" lon="4.77768">
        <ele>177</ele>
        <time>2018-06-30T08:52:20Z</time>
      </trkpt>
      <trkpt lat="45.90931" lon="4.77765">
        <ele>177</ele>
        <time>2018-06-30T08:52:21Z</time>
      </trkpt>
      <trkpt lat="45.90927" lon="4.77762">
        <ele>177</ele>
        <time>2018-06-30T08:52:22Z</time>
      </trkpt>
      <trkpt lat="45.90924" lon="4.77758">
        <ele>176</ele>
        <time>2018-06-30T08:52:23Z</time>
      </trkpt>
      <trkpt lat="45.9092" lon="4.77754">
        <ele>176</ele>
        <time>2018-06-30T08:52:24Z</time>
      </trkpt>
      <trkpt lat="45.90916" lon="4.77749">
        <ele>176</ele>
        <time>2018-06-30T08:52:25Z</time>
      </trkpt>
      <trkpt lat="45.90913" lon="4.77744">
        <ele>176</ele>
        <time>2018-06-30T08:52:26Z</time>
      </trkpt>
      <trkpt lat="45.90909" lon="4.7774">
        <ele>177</ele>
        <time>2018-06-30T08:52:27Z</time>
      </trkpt>
      <trkpt lat="45.90906" lon="4.77736">
        <ele>177</ele>
        <time>2018-06-30T08:52:28Z</time>
      </trkpt>
      <trkpt lat="45.90902" lon="4.77731">
        <ele>177</ele>
        <time>2018-06-30T08:52:29Z</time>
      </trkpt>
      <trkpt lat="45.90898" lon="4.77727">
        <ele>177</ele>
        <time>2018-06-30T08:52:30Z</time>
      </trkpt>
      <trkpt lat="45.90896" lon="4.77722">
        <ele>177</ele>
        <time>2018-06-30T08:52:31Z</time>
      </trkpt>
      <trkpt lat="45.90889" lon="4.77714">
        <ele>177</ele>
        <time>2018-06-30T08:52:33Z</time>
      </trkpt>
      <trkpt lat="45.90886" lon="4.77711">
        <ele>177</ele>
        <time>2018-06-30T08:52:34Z</time>
      </trkpt>
      <trkpt lat="45.9088" lon="4.77704">
        <ele>177</ele>
        <time>2018-06-30T08:52:36Z</time>
      </trkpt>
      <trkpt lat="45.90876" lon="4.77701">
        <ele>177</ele>
        <time>2018-06-30T08:52:37Z</time>
      </trkpt>
      <trkpt lat="45.90874" lon="4.77699">
        <ele>178</ele>
        <time>2018-06-30T08:52:38Z</time>
      </trkpt>
      <trkpt lat="45.90868" lon="4.77693">
        <ele>178</ele>
        <time>2018-06-30T08:52:39Z</time>
      </trkpt>
      <trkpt lat="45.9086" lon="4.77689">
        <ele>178</ele>
        <time>2018-06-30T08:52:43Z</time>
      </trkpt>
      <trkpt lat="45.90853" lon="4.77685">
        <ele>178</ele>
        <time>2018-06-30T08:52:44Z</time>
      </trkpt>
      <trkpt lat="45.90847" lon="4.7768">
        <ele>178</ele>
        <time>2018-06-30T08:52:46Z</time>
      </trkpt>
      <trkpt lat="45.90843" lon="4.77678">
        <ele>178</ele>
        <time>2018-06-30T08:52:47Z</time>
      </trkpt>
      <trkpt lat="45.90835" lon="4.77675">
        <ele>179</ele>
        <time>2018-06-30T08:52:49Z</time>
      </trkpt>
      <trkpt lat="45.90831" lon="4.77674">
        <ele>179</ele>
        <time>2018-06-30T08:52:50Z</time>
      </trkpt>
      <trkpt lat="45.90823" lon="4.77672">
        <ele>179</ele>
        <time>2018-06-30T08:52:52Z</time>
      </trkpt>
      <trkpt lat="45.90819" lon="4.77671">
        <ele>179</ele>
        <time>2018-06-30T08:52:53Z</time>
      </trkpt>
      <trkpt lat="45.90811" lon="4.77668">
        <ele>179</ele>
        <time>2018-06-30T08:52:55Z</time>
      </trkpt>
      <trkpt lat="45.90807" lon="4.77667">
        <ele>179</ele>
        <time>2018-06-30T08:52:56Z</time>
      </trkpt>
      <trkpt lat="45.90799" lon="4.77663">
        <ele>179</ele>
        <time>2018-06-30T08:52:58Z</time>
      </trkpt>
      <trkpt lat="45.90795" lon="4.77662">
        <ele>179</ele>
        <time>2018-06-30T08:52:59Z</time>
      </trkpt>
      <trkpt lat="45.90791" lon="4.7766">
        <ele>179</ele>
        <time>2018-06-30T08:53:00Z</time>
      </trkpt>
      <trkpt lat="45.90786" lon="4.7766">
        <ele>179</ele>
        <time>2018-06-30T08:53:01Z</time>
      </trkpt>
      <trkpt lat="45.90779" lon="4.77656">
        <ele>180</ele>
        <time>2018-06-30T08:53:03Z</time>
      </trkpt>
      <trkpt lat="45.90775" lon="4.77653">
        <ele>180</ele>
        <time>2018-06-30T08:53:04Z</time>
      </trkpt>
      <trkpt lat="45.90768" lon="4.77649">
        <ele>180</ele>
        <time>2018-06-30T08:53:06Z</time>
      </trkpt>
      <trkpt lat="45.90764" lon="4.77646">
        <ele>180</ele>
        <time>2018-06-30T08:53:07Z</time>
      </trkpt>
      <trkpt lat="45.9076" lon="4.77643">
        <ele>180</ele>
        <time>2018-06-30T08:53:08Z</time>
      </trkpt>
      <trkpt lat="45.90755" lon="4.77642">
        <ele>180</ele>
        <time>2018-06-30T08:53:09Z</time>
      </trkpt>
      <trkpt lat="45.9075" lon="4.77642">
        <ele>180</ele>
        <time>2018-06-30T08:53:10Z</time>
      </trkpt>
      <trkpt lat="45.90745" lon="4.77642">
        <ele>180</ele>
        <time>2018-06-30T08:53:11Z</time>
      </trkpt>
      <trkpt lat="45.9074" lon="4.77642">
        <ele>180</ele>
        <time>2018-06-30T08:53:12Z</time>
      </trkpt>
      <trkpt lat="45.90735" lon="4.77641">
        <ele>180</ele>
        <time>2018-06-30T08:53:13Z</time>
      </trkpt>
      <trkpt lat="45.9073" lon="4.77641">
        <ele>180</ele>
        <time>2018-06-30T08:53:14Z</time>
      </trkpt>
      <trkpt lat="45.90724" lon="4.77639">
        <ele>180</ele>
        <time>2018-06-30T08:53:15Z</time>
      </trkpt>
      <trkpt lat="45.90719" lon="4.77637">
        <ele>179</ele>
        <time>2018-06-30T08:53:16Z</time>
      </trkpt>
      <trkpt lat="45.90711" lon="4.77638">
        <ele>179</ele>
        <time>2018-06-30T08:53:17Z</time>
      </trkpt>
      <trkpt lat="45.90706" lon="4.77637">
        <ele>179</ele>
        <time>2018-06-30T08:53:18Z</time>
      </trkpt>
      <trkpt lat="45.90697" lon="4.77638">
        <ele>179</ele>
        <time>2018-06-30T08:53:19Z</time>
      </trkpt>
      <trkpt lat="45.9069" lon="4.77637">
        <ele>179</ele>
        <time>2018-06-30T08:53:20Z</time>
      </trkpt>
      <trkpt lat="45.90682" lon="4.77636">
        <ele>179</ele>
        <time>2018-06-30T08:53:21Z</time>
      </trkpt>
      <trkpt lat="45.90676" lon="4.77634">
        <ele>179</ele>
        <time>2018-06-30T08:53:22Z</time>
      </trkpt>
      <trkpt lat="45.90669" lon="4.77633">
        <ele>179</ele>
        <time>2018-06-30T08:53:23Z</time>
      </trkpt>
      <trkpt lat="45.90663" lon="4.77632">
        <ele>179</ele>
        <time>2018-06-30T08:53:24Z</time>
      </trkpt>
      <trkpt lat="45.90657" lon="4.7763">
        <ele>179</ele>
        <time>2018-06-30T08:53:25Z</time>
      </trkpt>
      <trkpt lat="45.90651" lon="4.77629">
        <ele>179</ele>
        <time>2018-06-30T08:53:26Z</time>
      </trkpt>
      <trkpt lat="45.90644" lon="4.77629">
        <ele>179</ele>
        <time>2018-06-30T08:53:27Z</time>
      </trkpt>
      <trkpt lat="45.90638" lon="4.77629">
        <ele>179</ele>
        <time>2018-06-30T08:53:28Z</time>
      </trkpt>
      <trkpt lat="45.90632" lon="4.77628">
        <ele>179</ele>
        <time>2018-06-30T08:53:29Z</time>
      </trkpt>
      <trkpt lat="45.90625" lon="4.77629">
        <ele>179</ele>
        <time>2018-06-30T08:53:30Z</time>
      </trkpt>
      <trkpt lat="45.90618" lon="4.77629">
        <ele>179</ele>
        <time>2018-06-30T08:53:31Z</time>
      </trkpt>
      <trkpt lat="45.90611" lon="4.77629">
        <ele>179</ele>
        <time>2018-06-30T08:53:32Z</time>
      </trkpt>
      <trkpt lat="45.90605" lon="4.77629">
        <ele>179</ele>
        <time>2018-06-30T08:53:33Z</time>
      </trkpt>
      <trkpt lat="45.90598" lon="4.77629">
        <ele>179</ele>
        <time>2018-06-30T08:53:34Z</time>
      </trkpt>
      <trkpt lat="45.90591" lon="4.77629">
        <ele>179</ele>
        <time>2018-06-30T08:53:35Z</time>
      </trkpt>
      <trkpt lat="45.90584" lon="4.77631">
        <ele>179</ele>
        <time>2018-06-30T08:53:36Z</time>
      </trkpt>
      <trkpt lat="45.90577" lon="4.77631">
        <ele>178</ele>
        <time>2018-06-30T08:53:37Z</time>
      </trkpt>
      <trkpt lat="45.9057" lon="4.77633">
        <ele>178</ele>
        <time>2018-06-30T08:53:38Z</time>
      </trkpt>
      <trkpt lat="45.90563" lon="4.77633">
        <ele>178</ele>
        <time>2018-06-30T08:53:39Z</time>
      </trkpt>
      <trkpt lat="45.90556" lon="4.77634">
        <ele>178</ele>
        <time>2018-06-30T08:53:40Z</time>
      </trkpt>
      <trkpt lat="45.90549" lon="4.77634">
        <ele>178</ele>
        <time>2018-06-30T08:53:41Z</time>
      </trkpt>
      <trkpt lat="45.90543" lon="4.77636">
        <ele>178</ele>
        <time>2018-06-30T08:53:42Z</time>
      </trkpt>
      <trkpt lat="45.90537" lon="4.77636">
        <ele>178</ele>
        <time>2018-06-30T08:53:43Z</time>
      </trkpt>
      <trkpt lat="45.90531" lon="4.77636">
        <ele>178</ele>
        <time>2018-06-30T08:53:44Z</time>
      </trkpt>
      <trkpt lat="45.90525" lon="4.77636">
        <ele>178</ele>
        <time>2018-06-30T08:53:45Z</time>
      </trkpt>
      <trkpt lat="45.90519" lon="4.77637">
        <ele>178</ele>
        <time>2018-06-30T08:53:46Z</time>
      </trkpt>
      <trkpt lat="45.90514" lon="4.77638">
        <ele>178</ele>
        <time>2018-06-30T08:53:47Z</time>
      </trkpt>
      <trkpt lat="45.90507" lon="4.77639">
        <ele>178</ele>
        <time>2018-06-30T08:53:48Z</time>
      </trkpt>
      <trkpt lat="45.90502" lon="4.7764">
        <ele>178</ele>
        <time>2018-06-30T08:53:49Z</time>
      </trkpt>
      <trkpt lat="45.90496" lon="4.77641">
        <ele>179</ele>
        <time>2018-06-30T08:53:50Z</time>
      </trkpt>
      <trkpt lat="45.9049" lon="4.77641">
        <ele>179</ele>
        <time>2018-06-30T08:53:51Z</time>
      </trkpt>
      <trkpt lat="45.90484" lon="4.77642">
        <ele>179</ele>
        <time>2018-06-30T08:53:52Z</time>
      </trkpt>
      <trkpt lat="45.90478" lon="4.77643">
        <ele>179</ele>
        <time>2018-06-30T08:53:53Z</time>
      </trkpt>
      <trkpt lat="45.90473" lon="4.77643">
        <ele>179</ele>
        <time>2018-06-30T08:53:54Z</time>
      </trkpt>
      <trkpt lat="45.90469" lon="4.77644">
        <ele>179</ele>
        <time>2018-06-30T08:53:55Z</time>
      </trkpt>
      <trkpt lat="45.90464" lon="4.77644">
        <ele>179</ele>
        <time>2018-06-30T08:53:56Z</time>
      </trkpt>
      <trkpt lat="45.90459" lon="4.77645">
        <ele>179</ele>
        <time>2018-06-30T08:53:57Z</time>
      </trkpt>
      <trkpt lat="45.90455" lon="4.77646">
        <ele>179</ele>
        <time>2018-06-30T08:53:58Z</time>
      </trkpt>
      <trkpt lat="45.9045" lon="4.77648">
        <ele>179</ele>
        <time>2018-06-30T08:53:59Z</time>
      </trkpt>
      <trkpt lat="45.90444" lon="4.77649">
        <ele>179</ele>
        <time>2018-06-30T08:54:00Z</time>
      </trkpt>
      <trkpt lat="45.9044" lon="4.77648">
        <ele>180</ele>
        <time>2018-06-30T08:54:01Z</time>
      </trkpt>
      <trkpt lat="45.90434" lon="4.77649">
        <ele>180</ele>
        <time>2018-06-30T08:54:02Z</time>
      </trkpt>
      <trkpt lat="45.90429" lon="4.7765">
        <ele>180</ele>
        <time>2018-06-30T08:54:03Z</time>
      </trkpt>
      <trkpt lat="45.90423" lon="4.77651">
        <ele>180</ele>
        <time>2018-06-30T08:54:04Z</time>
      </trkpt>
      <trkpt lat="45.90417" lon="4.77653">
        <ele>180</ele>
        <time>2018-06-30T08:54:05Z</time>
      </trkpt>
      <trkpt lat="45.90411" lon="4.77655">
        <ele>181</ele>
        <time>2018-06-30T08:54:06Z</time>
      </trkpt>
      <trkpt lat="45.90406" lon="4.77656">
        <ele>181</ele>
        <time>2018-06-30T08:54:07Z</time>
      </trkpt>
      <trkpt lat="45.904" lon="4.77656">
        <ele>181</ele>
        <time>2018-06-30T08:54:08Z</time>
      </trkpt>
      <trkpt lat="45.9039" lon="4.77658">
        <ele>181</ele>
        <time>2018-06-30T08:54:09Z</time>
      </trkpt>
      <trkpt lat="45.90386" lon="4.77658">
        <ele>181</ele>
        <time>2018-06-30T08:54:10Z</time>
      </trkpt>
      <trkpt lat="45.9038" lon="4.77659">
        <ele>181</ele>
        <time>2018-06-30T08:54:11Z</time>
      </trkpt>
      <trkpt lat="45.90374" lon="4.7766">
        <ele>181</ele>
        <time>2018-06-30T08:54:12Z</time>
      </trkpt>
      <trkpt lat="45.90369" lon="4.77661">
        <ele>181</ele>
        <time>2018-06-30T08:54:13Z</time>
      </trkpt>
      <trkpt lat="45.9036" lon="4.77663">
        <ele>181</ele>
        <time>2018-06-30T08:54:15Z</time>
      </trkpt>
      <trkpt lat="45.90355" lon="4.77664">
        <ele>181</ele>
        <time>2018-06-30T08:54:16Z</time>
      </trkpt>
      <trkpt lat="45.90351" lon="4.77665">
        <ele>181</ele>
        <time>2018-06-30T08:54:17Z</time>
      </trkpt>
      <trkpt lat="45.90346" lon="4.77665">
        <ele>181</ele>
        <time>2018-06-30T08:54:18Z</time>
      </trkpt>
      <trkpt lat="45.90341" lon="4.77667">
        <ele>182</ele>
        <time>2018-06-30T08:54:19Z</time>
      </trkpt>
      <trkpt lat="45.90336" lon="4.77667">
        <ele>182</ele>
        <time>2018-06-30T08:54:20Z</time>
      </trkpt>
      <trkpt lat="45.90332" lon="4.77667">
        <ele>182</ele>
        <time>2018-06-30T08:54:21Z</time>
      </trkpt>
      <trkpt lat="45.90327" lon="4.77667">
        <ele>182</ele>
        <time>2018-06-30T08:54:22Z</time>
      </trkpt>
      <trkpt lat="45.90321" lon="4.77668">
        <ele>182</ele>
        <time>2018-06-30T08:54:23Z</time>
      </trkpt>
      <trkpt lat="45.90316" lon="4.7767">
        <ele>182</ele>
        <time>2018-06-30T08:54:24Z</time>
      </trkpt>
      <trkpt lat="45.90311" lon="4.77671">
        <ele>182</ele>
        <time>2018-06-30T08:54:25Z</time>
      </trkpt>
      <trkpt lat="45.90306" lon="4.77671">
        <ele>182</ele>
        <time>2018-06-30T08:54:26Z</time>
      </trkpt>
      <trkpt lat="45.903" lon="4.77672">
        <ele>182</ele>
        <time>2018-06-30T08:54:27Z</time>
      </trkpt>
      <trkpt lat="45.90293" lon="4.77672">
        <ele>182</ele>
        <time>2018-06-30T08:54:28Z</time>
      </trkpt>
      <trkpt lat="45.90288" lon="4.77672">
        <ele>182</ele>
        <time>2018-06-30T08:54:29Z</time>
      </trkpt>
      <trkpt lat="45.90283" lon="4.77672">
        <ele>182</ele>
        <time>2018-06-30T08:54:30Z</time>
      </trkpt>
      <trkpt lat="45.90277" lon="4.77674">
        <ele>182</ele>
        <time>2018-06-30T08:54:31Z</time>
      </trkpt>
      <trkpt lat="45.90271" lon="4.77674">
        <ele>182</ele>
        <time>2018-06-30T08:54:32Z</time>
      </trkpt>
      <trkpt lat="45.90267" lon="4.77673">
        <ele>182</ele>
        <time>2018-06-30T08:54:33Z</time>
      </trkpt>
      <trkpt lat="45.90262" lon="4.77673">
        <ele>182</ele>
        <time>2018-06-30T08:54:34Z</time>
      </trkpt>
      <trkpt lat="45.90258" lon="4.77672">
        <ele>182</ele>
        <time>2018-06-30T08:54:35Z</time>
      </trkpt>
      <trkpt lat="45.90253" lon="4.77671">
        <ele>182</ele>
        <time>2018-06-30T08:54:36Z</time>
      </trkpt>
      <trkpt lat="45.90248" lon="4.77671">
        <ele>182</ele>
        <time>2018-06-30T08:54:37Z</time>
      </trkpt>
      <trkpt lat="45.90243" lon="4.77671">
        <ele>183</ele>
        <time>2018-06-30T08:54:38Z</time>
      </trkpt>
      <trkpt lat="45.90235" lon="4.7767">
        <ele>183</ele>
        <time>2018-06-30T08:54:40Z</time>
      </trkpt>
      <trkpt lat="45.9023" lon="4.7767">
        <ele>183</ele>
        <time>2018-06-30T08:54:41Z</time>
      </trkpt>
      <trkpt lat="45.90225" lon="4.7767">
        <ele>184</ele>
        <time>2018-06-30T08:54:42Z</time>
      </trkpt>
      <trkpt lat="45.9022" lon="4.77669">
        <ele>184</ele>
        <time>2018-06-30T08:54:43Z</time>
      </trkpt>
      <trkpt lat="45.90214" lon="4.77671">
        <ele>184</ele>
        <time>2018-06-30T08:54:44Z</time>
      </trkpt>
      <trkpt lat="45.9021" lon="4.77671">
        <ele>184</ele>
        <time>2018-06-30T08:54:45Z</time>
      </trkpt>
      <trkpt lat="45.90205" lon="4.77671">
        <ele>184</ele>
        <time>2018-06-30T08:54:46Z</time>
      </trkpt>
      <trkpt lat="45.902" lon="4.7767">
        <ele>184</ele>
        <time>2018-06-30T08:54:47Z</time>
      </trkpt>
      <trkpt lat="45.90196" lon="4.7767">
        <ele>184</ele>
        <time>2018-06-30T08:54:48Z</time>
      </trkpt>
      <trkpt lat="45.90191" lon="4.7767">
        <ele>185</ele>
        <time>2018-06-30T08:54:49Z</time>
      </trkpt>
      <trkpt lat="45.90187" lon="4.7767">
        <ele>185</ele>
        <time>2018-06-30T08:54:50Z</time>
      </trkpt>
      <trkpt lat="45.90181" lon="4.77671">
        <ele>185</ele>
        <time>2018-06-30T08:54:51Z</time>
      </trkpt>
      <trkpt lat="45.90172" lon="4.77671">
        <ele>185</ele>
        <time>2018-06-30T08:54:53Z</time>
      </trkpt>
      <trkpt lat="45.90169" lon="4.77671">
        <ele>185</ele>
        <time>2018-06-30T08:54:54Z</time>
      </trkpt>
      <trkpt lat="45.90164" lon="4.77671">
        <ele>185</ele>
        <time>2018-06-30T08:54:55Z</time>
      </trkpt>
      <trkpt lat="45.90159" lon="4.7767">
        <ele>185</ele>
        <time>2018-06-30T08:54:56Z</time>
      </trkpt>
      <trkpt lat="45.90151" lon="4.77669">
        <ele>185</ele>
        <time>2018-06-30T08:54:58Z</time>
      </trkpt>
      <trkpt lat="45.90147" lon="4.77669">
        <ele>185</ele>
        <time>2018-06-30T08:54:59Z</time>
      </trkpt>
      <trkpt lat="45.90142" lon="4.7767">
        <ele>185</ele>
        <time>2018-06-30T08:55:00Z</time>
      </trkpt>
      <trkpt lat="45.90136" lon="4.7767">
        <ele>185</ele>
        <time>2018-06-30T08:55:01Z</time>
      </trkpt>
      <trkpt lat="45.9013" lon="4.77669">
        <ele>185</ele>
        <time>2018-06-30T08:55:02Z</time>
      </trkpt>
      <trkpt lat="45.90125" lon="4.7767">
        <ele>184</ele>
        <time>2018-06-30T08:55:03Z</time>
      </trkpt>
      <trkpt lat="45.90121" lon="4.77671">
        <ele>184</ele>
        <time>2018-06-30T08:55:04Z</time>
      </trkpt>
      <trkpt lat="45.90116" lon="4.7767">
        <ele>184</ele>
        <time>2018-06-30T08:55:05Z</time>
      </trkpt>
      <trkpt lat="45.90107" lon="4.7767">
        <ele>184</ele>
        <time>2018-06-30T08:55:07Z</time>
      </trkpt>
      <trkpt lat="45.90102" lon="4.77669">
        <ele>184</ele>
        <time>2018-06-30T08:55:08Z</time>
      </trkpt>
      <trkpt lat="45.90097" lon="4.77669">
        <ele>184</ele>
        <time>2018-06-30T08:55:09Z</time>
      </trkpt>
      <trkpt lat="45.90092" lon="4.77669">
        <ele>184</ele>
        <time>2018-06-30T08:55:10Z</time>
      </trkpt>
      <trkpt lat="45.90085" lon="4.77669">
        <ele>183</ele>
        <time>2018-06-30T08:55:11Z</time>
      </trkpt>
      <trkpt lat="45.9008" lon="4.77669">
        <ele>183</ele>
        <time>2018-06-30T08:55:12Z</time>
      </trkpt>
      <trkpt lat="45.90076" lon="4.77667">
        <ele>183</ele>
        <time>2018-06-30T08:55:13Z</time>
      </trkpt>
      <trkpt lat="45.9007" lon="4.77667">
        <ele>184</ele>
        <time>2018-06-30T08:55:14Z</time>
      </trkpt>
      <trkpt lat="45.90065" lon="4.77668">
        <ele>184</ele>
        <time>2018-06-30T08:55:15Z</time>
      </trkpt>
      <trkpt lat="45.9006" lon="4.77668">
        <ele>184</ele>
        <time>2018-06-30T08:55:16Z</time>
      </trkpt>
      <trkpt lat="45.90051" lon="4.77668">
        <ele>184</ele>
        <time>2018-06-30T08:55:18Z</time>
      </trkpt>
      <trkpt lat="45.90047" lon="4.77668">
        <ele>185</ele>
        <time>2018-06-30T08:55:19Z</time>
      </trkpt>
      <trkpt lat="45.90039" lon="4.77666">
        <ele>184</ele>
        <time>2018-06-30T08:55:21Z</time>
      </trkpt>
      <trkpt lat="45.90034" lon="4.77666">
        <ele>184</ele>
        <time>2018-06-30T08:55:22Z</time>
      </trkpt>
      <trkpt lat="45.90029" lon="4.77667">
        <ele>184</ele>
        <time>2018-06-30T08:55:23Z</time>
      </trkpt>
      <trkpt lat="45.90024" lon="4.77666">
        <ele>184</ele>
        <time>2018-06-30T08:55:24Z</time>
      </trkpt>
      <trkpt lat="45.9002" lon="4.77668">
        <ele>185</ele>
        <time>2018-06-30T08:55:25Z</time>
      </trkpt>
      <trkpt lat="45.90014" lon="4.77667">
        <ele>185</ele>
        <time>2018-06-30T08:55:26Z</time>
      </trkpt>
      <trkpt lat="45.90009" lon="4.77667">
        <ele>186</ele>
        <time>2018-06-30T08:55:27Z</time>
      </trkpt>
      <trkpt lat="45.90003" lon="4.77668">
        <ele>186</ele>
        <time>2018-06-30T08:55:28Z</time>
      </trkpt>
      <trkpt lat="45.89995" lon="4.77668">
        <ele>186</ele>
        <time>2018-06-30T08:55:30Z</time>
      </trkpt>
      <trkpt lat="45.89991" lon="4.77668">
        <ele>186</ele>
        <time>2018-06-30T08:55:31Z</time>
      </trkpt>
      <trkpt lat="45.89983" lon="4.77666">
        <ele>185</ele>
        <time>2018-06-30T08:55:33Z</time>
      </trkpt>
      <trkpt lat="45.89979" lon="4.77665">
        <ele>185</ele>
        <time>2018-06-30T08:55:34Z</time>
      </trkpt>
      <trkpt lat="45.89972" lon="4.77662">
        <ele>185</ele>
        <time>2018-06-30T08:55:36Z</time>
      </trkpt>
      <trkpt lat="45.89968" lon="4.77661">
        <ele>185</ele>
        <time>2018-06-30T08:55:37Z</time>
      </trkpt>
      <trkpt lat="45.89962" lon="4.77661">
        <ele>185</ele>
        <time>2018-06-30T08:55:38Z</time>
      </trkpt>
      <trkpt lat="45.89957" lon="4.77661">
        <ele>185</ele>
        <time>2018-06-30T08:55:39Z</time>
      </trkpt>
      <trkpt lat="45.89952" lon="4.77661">
        <ele>185</ele>
        <time>2018-06-30T08:55:40Z</time>
      </trkpt>
      <trkpt lat="45.89947" lon="4.77661">
        <ele>185</ele>
        <time>2018-06-30T08:55:41Z</time>
      </trkpt>
      <trkpt lat="45.89942" lon="4.77661">
        <ele>185</ele>
        <time>2018-06-30T08:55:42Z</time>
      </trkpt>
      <trkpt lat="45.89938" lon="4.7766">
        <ele>186</ele>
        <time>2018-06-30T08:55:43Z</time>
      </trkpt>
      <trkpt lat="45.89934" lon="4.7766">
        <ele>186</ele>
        <time>2018-06-30T08:55:44Z</time>
      </trkpt>
      <trkpt lat="45.89928" lon="4.7766">
        <ele>186</ele>
        <time>2018-06-30T08:55:45Z</time>
      </trkpt>
      <trkpt lat="45.89923" lon="4.77662">
        <ele>186</ele>
        <time>2018-06-30T08:55:46Z</time>
      </trkpt>
      <trkpt lat="45.89917" lon="4.77662">
        <ele>187</ele>
        <time>2018-06-30T08:55:47Z</time>
      </trkpt>
      <trkpt lat="45.89909" lon="4.77661">
        <ele>186</ele>
        <time>2018-06-30T08:55:49Z</time>
      </trkpt>
      <trkpt lat="45.89904" lon="4.77661">
        <ele>186</ele>
        <time>2018-06-30T08:55:50Z</time>
      </trkpt>
      <trkpt lat="45.89895" lon="4.77661">
        <ele>186</ele>
        <time>2018-06-30T08:55:52Z</time>
      </trkpt>
      <trkpt lat="45.89889" lon="4.77661">
        <ele>186</ele>
        <time>2018-06-30T08:55:53Z</time>
      </trkpt>
      <trkpt lat="45.89884" lon="4.7766">
        <ele>186</ele>
        <time>2018-06-30T08:55:54Z</time>
      </trkpt>
      <trkpt lat="45.8988" lon="4.7766">
        <ele>186</ele>
        <time>2018-06-30T08:55:55Z</time>
      </trkpt>
      <trkpt lat="45.89875" lon="4.77659">
        <ele>186</ele>
        <time>2018-06-30T08:55:56Z</time>
      </trkpt>
      <trkpt lat="45.8987" lon="4.77659">
        <ele>186</ele>
        <time>2018-06-30T08:55:57Z</time>
      </trkpt>
      <trkpt lat="45.89862" lon="4.7766">
        <ele>187</ele>
        <time>2018-06-30T08:55:59Z</time>
      </trkpt>
      <trkpt lat="45.89858" lon="4.7766">
        <ele>187</ele>
        <time>2018-06-30T08:56:00Z</time>
      </trkpt>
      <trkpt lat="45.89849" lon="4.7766">
        <ele>187</ele>
        <time>2018-06-30T08:56:02Z</time>
      </trkpt>
      <trkpt lat="45.89845" lon="4.77659">
        <ele>187</ele>
        <time>2018-06-30T08:56:03Z</time>
      </trkpt>
      <trkpt lat="45.89836" lon="4.7766">
        <ele>188</ele>
        <time>2018-06-30T08:56:05Z</time>
      </trkpt>
      <trkpt lat="45.89833" lon="4.77659">
        <ele>189</ele>
        <time>2018-06-30T08:56:06Z</time>
      </trkpt>
      <trkpt lat="45.89827" lon="4.77659">
        <ele>189</ele>
        <time>2018-06-30T08:56:08Z</time>
      </trkpt>
      <trkpt lat="45.89822" lon="4.77658">
        <ele>188</ele>
        <time>2018-06-30T08:56:09Z</time>
      </trkpt>
      <trkpt lat="45.89814" lon="4.77657">
        <ele>188</ele>
        <time>2018-06-30T08:56:11Z</time>
      </trkpt>
      <trkpt lat="45.8981" lon="4.77656">
        <ele>188</ele>
        <time>2018-06-30T08:56:12Z</time>
      </trkpt>
      <trkpt lat="45.89802" lon="4.77656">
        <ele>188</ele>
        <time>2018-06-30T08:56:14Z</time>
      </trkpt>
      <trkpt lat="45.89799" lon="4.77656">
        <ele>188</ele>
        <time>2018-06-30T08:56:15Z</time>
      </trkpt>
      <trkpt lat="45.89792" lon="4.77656">
        <ele>189</ele>
        <time>2018-06-30T08:56:18Z</time>
      </trkpt>
      <trkpt lat="45.89789" lon="4.77657">
        <ele>189</ele>
        <time>2018-06-30T08:56:19Z</time>
      </trkpt>
      <trkpt lat="45.89781" lon="4.77657">
        <ele>189</ele>
        <time>2018-06-30T08:56:22Z</time>
      </trkpt>
      <trkpt lat="45.89777" lon="4.77657">
        <ele>189</ele>
        <time>2018-06-30T08:56:23Z</time>
      </trkpt>
      <trkpt lat="45.89774" lon="4.77657">
        <ele>189</ele>
        <time>2018-06-30T08:56:24Z</time>
      </trkpt>
      <trkpt lat="45.89765" lon="4.77656">
        <ele>190</ele>
        <time>2018-06-30T08:56:25Z</time>
      </trkpt>
      <trkpt lat="45.89757" lon="4.77654">
        <ele>190</ele>
        <time>2018-06-30T08:56:27Z</time>
      </trkpt>
      <trkpt lat="45.89753" lon="4.77653">
        <ele>190</ele>
        <time>2018-06-30T08:56:28Z</time>
      </trkpt>
      <trkpt lat="45.89745" lon="4.77651">
        <ele>191</ele>
        <time>2018-06-30T08:56:30Z</time>
      </trkpt>
      <trkpt lat="45.89741" lon="4.77651">
        <ele>191</ele>
        <time>2018-06-30T08:56:31Z</time>
      </trkpt>
      <trkpt lat="45.89733" lon="4.77649">
        <ele>191</ele>
        <time>2018-06-30T08:56:33Z</time>
      </trkpt>
      <trkpt lat="45.8973" lon="4.77648">
        <ele>190</ele>
        <time>2018-06-30T08:56:34Z</time>
      </trkpt>
      <trkpt lat="45.89721" lon="4.77647">
        <ele>190</ele>
        <time>2018-06-30T08:56:36Z</time>
      </trkpt>
      <trkpt lat="45.89717" lon="4.77646">
        <ele>190</ele>
        <time>2018-06-30T08:56:37Z</time>
      </trkpt>
      <trkpt lat="45.89712" lon="4.77645">
        <ele>190</ele>
        <time>2018-06-30T08:56:38Z</time>
      </trkpt>
      <trkpt lat="45.89707" lon="4.77645">
        <ele>190</ele>
        <time>2018-06-30T08:56:39Z</time>
      </trkpt>
      <trkpt lat="45.89699" lon="4.77644">
        <ele>190</ele>
        <time>2018-06-30T08:56:41Z</time>
      </trkpt>
      <trkpt lat="45.89694" lon="4.77643">
        <ele>190</ele>
        <time>2018-06-30T08:56:42Z</time>
      </trkpt>
      <trkpt lat="45.89686" lon="4.7764">
        <ele>190</ele>
        <time>2018-06-30T08:56:45Z</time>
      </trkpt>
      <trkpt lat="45.89679" lon="4.77638">
        <ele>190</ele>
        <time>2018-06-30T08:56:46Z</time>
      </trkpt>
      <trkpt lat="45.89671" lon="4.77639">
        <ele>190</ele>
        <time>2018-06-30T08:56:48Z</time>
      </trkpt>
      <trkpt lat="45.89667" lon="4.77637">
        <ele>190</ele>
        <time>2018-06-30T08:56:49Z</time>
      </trkpt>
      <trkpt lat="45.89662" lon="4.77636">
        <ele>190</ele>
        <time>2018-06-30T08:56:50Z</time>
      </trkpt>
      <trkpt lat="45.89658" lon="4.77634">
        <ele>190</ele>
        <time>2018-06-30T08:56:51Z</time>
      </trkpt>
      <trkpt lat="45.89652" lon="4.77634">
        <ele>190</ele>
        <time>2018-06-30T08:56:52Z</time>
      </trkpt>
      <trkpt lat="45.89647" lon="4.77634">
        <ele>190</ele>
        <time>2018-06-30T08:56:53Z</time>
      </trkpt>
      <trkpt lat="45.89639" lon="4.77633">
        <ele>190</ele>
        <time>2018-06-30T08:56:55Z</time>
      </trkpt>
      <trkpt lat="45.89635" lon="4.77632">
        <ele>190</ele>
        <time>2018-06-30T08:56:56Z</time>
      </trkpt>
      <trkpt lat="45.89631" lon="4.77632">
        <ele>190</ele>
        <time>2018-06-30T08:56:57Z</time>
      </trkpt>
      <trkpt lat="45.89624" lon="4.77632">
        <ele>191</ele>
        <time>2018-06-30T08:56:58Z</time>
      </trkpt>
      <trkpt lat="45.8962" lon="4.77631">
        <ele>191</ele>
        <time>2018-06-30T08:56:59Z</time>
      </trkpt>
      <trkpt lat="45.89615" lon="4.77631">
        <ele>191</ele>
        <time>2018-06-30T08:57:00Z</time>
      </trkpt>
      <trkpt lat="45.89609" lon="4.7763">
        <ele>191</ele>
        <time>2018-06-30T08:57:01Z</time>
      </trkpt>
      <trkpt lat="45.89605" lon="4.77629">
        <ele>191</ele>
        <time>2018-06-30T08:57:02Z</time>
      </trkpt>
      <trkpt lat="45.89601" lon="4.77627">
        <ele>191</ele>
        <time>2018-06-30T08:57:03Z</time>
      </trkpt>
      <trkpt lat="45.89596" lon="4.77626">
        <ele>191</ele>
        <time>2018-06-30T08:57:04Z</time>
      </trkpt>
      <trkpt lat="45.89592" lon="4.77625">
        <ele>191</ele>
        <time>2018-06-30T08:57:05Z</time>
      </trkpt>
      <trkpt lat="45.89586" lon="4.77625">
        <ele>191</ele>
        <time>2018-06-30T08:57:06Z</time>
      </trkpt>
      <trkpt lat="45.89581" lon="4.77624">
        <ele>192</ele>
        <time>2018-06-30T08:57:07Z</time>
      </trkpt>
      <trkpt lat="45.89576" lon="4.77622">
        <ele>192</ele>
        <time>2018-06-30T08:57:08Z</time>
      </trkpt>
      <trkpt lat="45.89571" lon="4.77621">
        <ele>192</ele>
        <time>2018-06-30T08:57:09Z</time>
      </trkpt>
      <trkpt lat="45.89565" lon="4.7762">
        <ele>192</ele>
        <time>2018-06-30T08:57:10Z</time>
      </trkpt>
      <trkpt lat="45.89561" lon="4.77619">
        <ele>192</ele>
        <time>2018-06-30T08:57:11Z</time>
      </trkpt>
      <trkpt lat="45.89556" lon="4.77619">
        <ele>192</ele>
        <time>2018-06-30T08:57:12Z</time>
      </trkpt>
      <trkpt lat="45.89551" lon="4.77618">
        <ele>192</ele>
        <time>2018-06-30T08:57:13Z</time>
      </trkpt>
      <trkpt lat="45.89546" lon="4.77618">
        <ele>192</ele>
        <time>2018-06-30T08:57:14Z</time>
      </trkpt>
      <trkpt lat="45.89541" lon="4.77616">
        <ele>192</ele>
        <time>2018-06-30T08:57:15Z</time>
      </trkpt>
      <trkpt lat="45.89536" lon="4.77616">
        <ele>192</ele>
        <time>2018-06-30T08:57:16Z</time>
      </trkpt>
      <trkpt lat="45.89531" lon="4.77613">
        <ele>192</ele>
        <time>2018-06-30T08:57:17Z</time>
      </trkpt>
      <trkpt lat="45.89525" lon="4.77613">
        <ele>192</ele>
        <time>2018-06-30T08:57:18Z</time>
      </trkpt>
      <trkpt lat="45.89519" lon="4.77612">
        <ele>192</ele>
        <time>2018-06-30T08:57:19Z</time>
      </trkpt>
      <trkpt lat="45.89514" lon="4.7761">
        <ele>192</ele>
        <time>2018-06-30T08:57:20Z</time>
      </trkpt>
      <trkpt lat="45.89509" lon="4.77609">
        <ele>192</ele>
        <time>2018-06-30T08:57:21Z</time>
      </trkpt>
      <trkpt lat="45.89502" lon="4.77607">
        <ele>192</ele>
        <time>2018-06-30T08:57:22Z</time>
      </trkpt>
      <trkpt lat="45.89498" lon="4.77605">
        <ele>193</ele>
        <time>2018-06-30T08:57:23Z</time>
      </trkpt>
      <trkpt lat="45.89493" lon="4.77604">
        <ele>193</ele>
        <time>2018-06-30T08:57:24Z</time>
      </trkpt>
      <trkpt lat="45.89486" lon="4.77602">
        <ele>193</ele>
        <time>2018-06-30T08:57:25Z</time>
      </trkpt>
      <trkpt lat="45.89481" lon="4.77601">
        <ele>193</ele>
        <time>2018-06-30T08:57:26Z</time>
      </trkpt>
      <trkpt lat="45.89475" lon="4.776">
        <ele>193</ele>
        <time>2018-06-30T08:57:27Z</time>
      </trkpt>
      <trkpt lat="45.89469" lon="4.77598">
        <ele>193</ele>
        <time>2018-06-30T08:57:28Z</time>
      </trkpt>
      <trkpt lat="45.89463" lon="4.77597">
        <ele>193</ele>
        <time>2018-06-30T08:57:29Z</time>
      </trkpt>
      <trkpt lat="45.89458" lon="4.77595">
        <ele>193</ele>
        <time>2018-06-30T08:57:30Z</time>
      </trkpt>
      <trkpt lat="45.89453" lon="4.77593">
        <ele>193</ele>
        <time>2018-06-30T08:57:31Z</time>
      </trkpt>
      <trkpt lat="45.89448" lon="4.77592">
        <ele>193</ele>
        <time>2018-06-30T08:57:32Z</time>
      </trkpt>
      <trkpt lat="45.89443" lon="4.7759">
        <ele>193</ele>
        <time>2018-06-30T08:57:33Z</time>
      </trkpt>
      <trkpt lat="45.89438" lon="4.77588">
        <ele>193</ele>
        <time>2018-06-30T08:57:34Z</time>
      </trkpt>
      <trkpt lat="45.89432" lon="4.77585">
        <ele>194</ele>
        <time>2018-06-30T08:57:35Z</time>
      </trkpt>
      <trkpt lat="45.89427" lon="4.77583">
        <ele>194</ele>
        <time>2018-06-30T08:57:36Z</time>
      </trkpt>
      <trkpt lat="45.89421" lon="4.77581">
        <ele>194</ele>
        <time>2018-06-30T08:57:37Z</time>
      </trkpt>
      <trkpt lat="45.89415" lon="4.77579">
        <ele>194</ele>
        <time>2018-06-30T08:57:38Z</time>
      </trkpt>
      <trkpt lat="45.89408" lon="4.77578">
        <ele>194</ele>
        <time>2018-06-30T08:57:39Z</time>
      </trkpt>
      <trkpt lat="45.89402" lon="4.77575">
        <ele>194</ele>
        <time>2018-06-30T08:57:40Z</time>
      </trkpt>
      <trkpt lat="45.89397" lon="4.77573">
        <ele>194</ele>
        <time>2018-06-30T08:57:41Z</time>
      </trkpt>
      <trkpt lat="45.89391" lon="4.77571">
        <ele>194</ele>
        <time>2018-06-30T08:57:42Z</time>
      </trkpt>
      <trkpt lat="45.89385" lon="4.77568">
        <ele>194</ele>
        <time>2018-06-30T08:57:43Z</time>
      </trkpt>
      <trkpt lat="45.89381" lon="4.77566">
        <ele>194</ele>
        <time>2018-06-30T08:57:44Z</time>
      </trkpt>
      <trkpt lat="45.89376" lon="4.77564">
        <ele>194</ele>
        <time>2018-06-30T08:57:45Z</time>
      </trkpt>
      <trkpt lat="45.89371" lon="4.77561">
        <ele>194</ele>
        <time>2018-06-30T08:57:46Z</time>
      </trkpt>
      <trkpt lat="45.89366" lon="4.77559">
        <ele>194</ele>
        <time>2018-06-30T08:57:47Z</time>
      </trkpt>
      <trkpt lat="45.89361" lon="4.77557">
        <ele>194</ele>
        <time>2018-06-30T08:57:48Z</time>
      </trkpt>
      <trkpt lat="45.89356" lon="4.77554">
        <ele>194</ele>
        <time>2018-06-30T08:57:49Z</time>
      </trkpt>
      <trkpt lat="45.89347" lon="4.77554">
        <ele>194</ele>
        <time>2018-06-30T08:57:50Z</time>
      </trkpt>
      <trkpt lat="45.89341" lon="4.77553">
        <ele>194</ele>
        <time>2018-06-30T08:57:51Z</time>
      </trkpt>
      <trkpt lat="45.89335" lon="4.77551">
        <ele>194</ele>
        <time>2018-06-30T08:57:52Z</time>
      </trkpt>
      <trkpt lat="45.89328" lon="4.7755">
        <ele>194</ele>
        <time>2018-06-30T08:57:53Z</time>
      </trkpt>
      <trkpt lat="45.89323" lon="4.77548">
        <ele>194</ele>
        <time>2018-06-30T08:57:54Z</time>
      </trkpt>
      <trkpt lat="45.89318" lon="4.77545">
        <ele>194</ele>
        <time>2018-06-30T08:57:55Z</time>
      </trkpt>
      <trkpt lat="45.89313" lon="4.77542">
        <ele>194</ele>
        <time>2018-06-30T08:57:56Z</time>
      </trkpt>
      <trkpt lat="45.89308" lon="4.77539">
        <ele>194</ele>
        <time>2018-06-30T08:57:57Z</time>
      </trkpt>
      <trkpt lat="45.89303" lon="4.77537">
        <ele>194</ele>
        <time>2018-06-30T08:57:58Z</time>
      </trkpt>
      <trkpt lat="45.89296" lon="4.77536">
        <ele>194</ele>
        <time>2018-06-30T08:57:59Z</time>
      </trkpt>
      <trkpt lat="45.89291" lon="4.77535">
        <ele>193</ele>
        <time>2018-06-30T08:58:00Z</time>
      </trkpt>
      <trkpt lat="45.89286" lon="4.77533">
        <ele>193</ele>
        <time>2018-06-30T08:58:01Z</time>
      </trkpt>
      <trkpt lat="45.8928" lon="4.77531">
        <ele>193</ele>
        <time>2018-06-30T08:58:02Z</time>
      </trkpt>
      <trkpt lat="45.89275" lon="4.77529">
        <ele>193</ele>
        <time>2018-06-30T08:58:03Z</time>
      </trkpt>
      <trkpt lat="45.89269" lon="4.77528">
        <ele>193</ele>
        <time>2018-06-30T08:58:04Z</time>
      </trkpt>
      <trkpt lat="45.89264" lon="4.77527">
        <ele>193</ele>
        <time>2018-06-30T08:58:05Z</time>
      </trkpt>
      <trkpt lat="45.89259" lon="4.77526">
        <ele>193</ele>
        <time>2018-06-30T08:58:06Z</time>
      </trkpt>
      <trkpt lat="45.89253" lon="4.77526">
        <ele>193</ele>
        <time>2018-06-30T08:58:07Z</time>
      </trkpt>
      <trkpt lat="45.89247" lon="4.77527">
        <ele>193</ele>
        <time>2018-06-30T08:58:08Z</time>
      </trkpt>
      <trkpt lat="45.89243" lon="4.77528">
        <ele>193</ele>
        <time>2018-06-30T08:58:09Z</time>
      </trkpt>
      <trkpt lat="45.89238" lon="4.77528">
        <ele>193</ele>
        <time>2018-06-30T08:58:10Z</time>
      </trkpt>
      <trkpt lat="45.89233" lon="4.7753">
        <ele>194</ele>
        <time>2018-06-30T08:58:11Z</time>
      </trkpt>
      <trkpt lat="45.89228" lon="4.7753">
        <ele>194</ele>
        <time>2018-06-30T08:58:12Z</time>
      </trkpt>
      <trkpt lat="45.89224" lon="4.7753">
        <ele>194</ele>
        <time>2018-06-30T08:58:13Z</time>
      </trkpt>
      <trkpt lat="45.89216" lon="4.77532">
        <ele>194</ele>
        <time>2018-06-30T08:58:14Z</time>
      </trkpt>
      <trkpt lat="45.89211" lon="4.77533">
        <ele>194</ele>
        <time>2018-06-30T08:58:15Z</time>
      </trkpt>
      <trkpt lat="45.89206" lon="4.77535">
        <ele>194</ele>
        <time>2018-06-30T08:58:16Z</time>
      </trkpt>
      <trkpt lat="45.892" lon="4.77536">
        <ele>194</ele>
        <time>2018-06-30T08:58:17Z</time>
      </trkpt>
      <trkpt lat="45.89194" lon="4.77537">
        <ele>194</ele>
        <time>2018-06-30T08:58:18Z</time>
      </trkpt>
      <trkpt lat="45.89189" lon="4.77538">
        <ele>194</ele>
        <time>2018-06-30T08:58:19Z</time>
      </trkpt>
      <trkpt lat="45.89184" lon="4.77539">
        <ele>194</ele>
        <time>2018-06-30T08:58:20Z</time>
      </trkpt>
      <trkpt lat="45.89178" lon="4.77541">
        <ele>194</ele>
        <time>2018-06-30T08:58:21Z</time>
      </trkpt>
      <trkpt lat="45.89172" lon="4.77541">
        <ele>194</ele>
        <time>2018-06-30T08:58:22Z</time>
      </trkpt>
      <trkpt lat="45.89168" lon="4.77542">
        <ele>194</ele>
        <time>2018-06-30T08:58:23Z</time>
      </trkpt>
      <trkpt lat="45.89163" lon="4.77543">
        <ele>195</ele>
        <time>2018-06-30T08:58:24Z</time>
      </trkpt>
      <trkpt lat="45.89158" lon="4.77545">
        <ele>195</ele>
        <time>2018-06-30T08:58:25Z</time>
      </trkpt>
      <trkpt lat="45.89154" lon="4.77546">
        <ele>195</ele>
        <time>2018-06-30T08:58:26Z</time>
      </trkpt>
      <trkpt lat="45.89148" lon="4.77547">
        <ele>195</ele>
        <time>2018-06-30T08:58:27Z</time>
      </trkpt>
      <trkpt lat="45.89143" lon="4.77547">
        <ele>195</ele>
        <time>2018-06-30T08:58:28Z</time>
      </trkpt>
      <trkpt lat="45.89135" lon="4.77549">
        <ele>195</ele>
        <time>2018-06-30T08:58:30Z</time>
      </trkpt>
      <trkpt lat="45.8913" lon="4.77551">
        <ele>195</ele>
        <time>2018-06-30T08:58:31Z</time>
      </trkpt>
      <trkpt lat="45.89123" lon="4.77555">
        <ele>195</ele>
        <time>2018-06-30T08:58:32Z</time>
      </trkpt>
      <trkpt lat="45.89117" lon="4.77558">
        <ele>195</ele>
        <time>2018-06-30T08:58:33Z</time>
      </trkpt>
      <trkpt lat="45.89113" lon="4.77559">
        <ele>195</ele>
        <time>2018-06-30T08:58:34Z</time>
      </trkpt>
      <trkpt lat="45.89108" lon="4.77561">
        <ele>195</ele>
        <time>2018-06-30T08:58:35Z</time>
      </trkpt>
      <trkpt lat="45.89102" lon="4.77564">
        <ele>196</ele>
        <time>2018-06-30T08:58:36Z</time>
      </trkpt>
      <trkpt lat="45.89098" lon="4.77567">
        <ele>196</ele>
        <time>2018-06-30T08:58:37Z</time>
      </trkpt>
      <trkpt lat="45.89094" lon="4.77572">
        <ele>196</ele>
        <time>2018-06-30T08:58:38Z</time>
      </trkpt>
      <trkpt lat="45.89089" lon="4.77575">
        <ele>196</ele>
        <time>2018-06-30T08:58:39Z</time>
      </trkpt>
      <trkpt lat="45.89084" lon="4.77579">
        <ele>196</ele>
        <time>2018-06-30T08:58:40Z</time>
      </trkpt>
      <trkpt lat="45.8908" lon="4.77583">
        <ele>196</ele>
        <time>2018-06-30T08:58:41Z</time>
      </trkpt>
      <trkpt lat="45.89076" lon="4.77587">
        <ele>196</ele>
        <time>2018-06-30T08:58:42Z</time>
      </trkpt>
      <trkpt lat="45.89072" lon="4.7759">
        <ele>196</ele>
        <time>2018-06-30T08:58:43Z</time>
      </trkpt>
      <trkpt lat="45.89068" lon="4.77592">
        <ele>196</ele>
        <time>2018-06-30T08:58:44Z</time>
      </trkpt>
      <trkpt lat="45.89063" lon="4.77595">
        <ele>196</ele>
        <time>2018-06-30T08:58:45Z</time>
      </trkpt>
      <trkpt lat="45.89059" lon="4.77599">
        <ele>197</ele>
        <time>2018-06-30T08:58:46Z</time>
      </trkpt>
      <trkpt lat="45.89054" lon="4.77602">
        <ele>197</ele>
        <time>2018-06-30T08:58:47Z</time>
      </trkpt>
      <trkpt lat="45.89047" lon="4.77608">
        <ele>197</ele>
        <time>2018-06-30T08:58:49Z</time>
      </trkpt>
      <trkpt lat="45.89043" lon="4.77613">
        <ele>197</ele>
        <time>2018-06-30T08:58:50Z</time>
      </trkpt>
      <trkpt lat="45.89038" lon="4.77617">
        <ele>197</ele>
        <time>2018-06-30T08:58:51Z</time>
      </trkpt>
      <trkpt lat="45.89034" lon="4.77621">
        <ele>197</ele>
        <time>2018-06-30T08:58:52Z</time>
      </trkpt>
      <trkpt lat="45.8903" lon="4.77624">
        <ele>197</ele>
        <time>2018-06-30T08:58:53Z</time>
      </trkpt>
      <trkpt lat="45.89026" lon="4.77628">
        <ele>197</ele>
        <time>2018-06-30T08:58:54Z</time>
      </trkpt>
      <trkpt lat="45.89021" lon="4.77632">
        <ele>197</ele>
        <time>2018-06-30T08:58:55Z</time>
      </trkpt>
      <trkpt lat="45.89017" lon="4.77637">
        <ele>197</ele>
        <time>2018-06-30T08:58:56Z</time>
      </trkpt>
      <trkpt lat="45.89013" lon="4.7764">
        <ele>197</ele>
        <time>2018-06-30T08:58:57Z</time>
      </trkpt>
      <trkpt lat="45.89008" lon="4.77644">
        <ele>197</ele>
        <time>2018-06-30T08:58:58Z</time>
      </trkpt>
      <trkpt lat="45.89001" lon="4.77648">
        <ele>197</ele>
        <time>2018-06-30T08:59:00Z</time>
      </trkpt>
      <trkpt lat="45.88997" lon="4.77652">
        <ele>198</ele>
        <time>2018-06-30T08:59:01Z</time>
      </trkpt>
      <trkpt lat="45.8899" lon="4.77658">
        <ele>198</ele>
        <time>2018-06-30T08:59:03Z</time>
      </trkpt>
      <trkpt lat="45.88986" lon="4.77661">
        <ele>198</ele>
        <time>2018-06-30T08:59:04Z</time>
      </trkpt>
      <trkpt lat="45.88982" lon="4.77664">
        <ele>198</ele>
        <time>2018-06-30T08:59:05Z</time>
      </trkpt>
      <trkpt lat="45.88978" lon="4.77667">
        <ele>198</ele>
        <time>2018-06-30T08:59:06Z</time>
      </trkpt>
      <trkpt lat="45.88974" lon="4.77671">
        <ele>198</ele>
        <time>2018-06-30T08:59:07Z</time>
      </trkpt>
      <trkpt lat="45.88969" lon="4.77674">
        <ele>198</ele>
        <time>2018-06-30T08:59:08Z</time>
      </trkpt>
      <trkpt lat="45.88961" lon="4.77679">
        <ele>198</ele>
        <time>2018-06-30T08:59:10Z</time>
      </trkpt>
      <trkpt lat="45.88956" lon="4.77682">
        <ele>199</ele>
        <time>2018-06-30T08:59:11Z</time>
      </trkpt>
      <trkpt lat="45.88951" lon="4.77686">
        <ele>199</ele>
        <time>2018-06-30T08:59:12Z</time>
      </trkpt>
      <trkpt lat="45.88947" lon="4.77687">
        <ele>199</ele>
        <time>2018-06-30T08:59:13Z</time>
      </trkpt>
      <trkpt lat="45.88942" lon="4.7769">
        <ele>199</ele>
        <time>2018-06-30T08:59:14Z</time>
      </trkpt>
      <trkpt lat="45.88938" lon="4.77691">
        <ele>199</ele>
        <time>2018-06-30T08:59:15Z</time>
      </trkpt>
      <trkpt lat="45.8893" lon="4.77693">
        <ele>199</ele>
        <time>2018-06-30T08:59:17Z</time>
      </trkpt>
      <trkpt lat="45.88926" lon="4.77695">
        <ele>199</ele>
        <time>2018-06-30T08:59:18Z</time>
      </trkpt>
      <trkpt lat="45.88919" lon="4.77697">
        <ele>199</ele>
        <time>2018-06-30T08:59:20Z</time>
      </trkpt>
      <trkpt lat="45.88915" lon="4.77698">
        <ele>200</ele>
        <time>2018-06-30T08:59:21Z</time>
      </trkpt>
      <trkpt lat="45.88907" lon="4.77697">
        <ele>200</ele>
        <time>2018-06-30T08:59:23Z</time>
      </trkpt>
      <trkpt lat="45.88904" lon="4.77698">
        <ele>200</ele>
        <time>2018-06-30T08:59:24Z</time>
      </trkpt>
      <trkpt lat="45.88899" lon="4.77699">
        <ele>200</ele>
        <time>2018-06-30T08:59:25Z</time>
      </trkpt>
      <trkpt lat="45.88895" lon="4.77699">
        <ele>200</ele>
        <time>2018-06-30T08:59:26Z</time>
      </trkpt>
      <trkpt lat="45.8889" lon="4.777">
        <ele>200</ele>
        <time>2018-06-30T08:59:27Z</time>
      </trkpt>
      <trkpt lat="45.88885" lon="4.77699">
        <ele>200</ele>
        <time>2018-06-30T08:59:28Z</time>
      </trkpt>
      <trkpt lat="45.88877" lon="4.77699">
        <ele>200</ele>
        <time>2018-06-30T08:59:30Z</time>
      </trkpt>
      <trkpt lat="45.88873" lon="4.77699">
        <ele>201</ele>
        <time>2018-06-30T08:59:31Z</time>
      </trkpt>
      <trkpt lat="45.88866" lon="4.77701">
        <ele>201</ele>
        <time>2018-06-30T08:59:33Z</time>
      </trkpt>
      <trkpt lat="45.88861" lon="4.77701">
        <ele>201</ele>
        <time>2018-06-30T08:59:34Z</time>
      </trkpt>
      <trkpt lat="45.88857" lon="4.77701">
        <ele>201</ele>
        <time>2018-06-30T08:59:35Z</time>
      </trkpt>
      <trkpt lat="45.88852" lon="4.77702">
        <ele>201</ele>
        <time>2018-06-30T08:59:36Z</time>
      </trkpt>
      <trkpt lat="45.88847" lon="4.77702">
        <ele>201</ele>
        <time>2018-06-30T08:59:37Z</time>
      </trkpt>
      <trkpt lat="45.88843" lon="4.77703">
        <ele>201</ele>
        <time>2018-06-30T08:59:38Z</time>
      </trkpt>
      <trkpt lat="45.88834" lon="4.77703">
        <ele>201</ele>
        <time>2018-06-30T08:59:40Z</time>
      </trkpt>
      <trkpt lat="45.8883" lon="4.77703">
        <ele>201</ele>
        <time>2018-06-30T08:59:41Z</time>
      </trkpt>
      <trkpt lat="45.88821" lon="4.77706">
        <ele>202</ele>
        <time>2018-06-30T08:59:43Z</time>
      </trkpt>
      <trkpt lat="45.88816" lon="4.77706">
        <ele>202</ele>
        <time>2018-06-30T08:59:44Z</time>
      </trkpt>
      <trkpt lat="45.88811" lon="4.77706">
        <ele>202</ele>
        <time>2018-06-30T08:59:45Z</time>
      </trkpt>
      <trkpt lat="45.88806" lon="4.77707">
        <ele>202</ele>
        <time>2018-06-30T08:59:46Z</time>
      </trkpt>
      <trkpt lat="45.88801" lon="4.77708">
        <ele>202</ele>
        <time>2018-06-30T08:59:47Z</time>
      </trkpt>
      <trkpt lat="45.88796" lon="4.77709">
        <ele>202</ele>
        <time>2018-06-30T08:59:48Z</time>
      </trkpt>
      <trkpt lat="45.8879" lon="4.77708">
        <ele>202</ele>
        <time>2018-06-30T08:59:49Z</time>
      </trkpt>
      <trkpt lat="45.88785" lon="4.77709">
        <ele>202</ele>
        <time>2018-06-30T08:59:50Z</time>
      </trkpt>
      <trkpt lat="45.8878" lon="4.77709">
        <ele>202</ele>
        <time>2018-06-30T08:59:51Z</time>
      </trkpt>
      <trkpt lat="45.88774" lon="4.77708">
        <ele>202</ele>
        <time>2018-06-30T08:59:52Z</time>
      </trkpt>
      <trkpt lat="45.8877" lon="4.77709">
        <ele>202</ele>
        <time>2018-06-30T08:59:53Z</time>
      </trkpt>
      <trkpt lat="45.88764" lon="4.77709">
        <ele>202</ele>
        <time>2018-06-30T08:59:54Z</time>
      </trkpt>
      <trkpt lat="45.88757" lon="4.77712">
        <ele>202</ele>
        <time>2018-06-30T08:59:56Z</time>
      </trkpt>
      <trkpt lat="45.88751" lon="4.77714">
        <ele>202</ele>
        <time>2018-06-30T08:59:57Z</time>
      </trkpt>
      <trkpt lat="45.88745" lon="4.77715">
        <ele>203</ele>
        <time>2018-06-30T08:59:58Z</time>
      </trkpt>
      <trkpt lat="45.8874" lon="4.77717">
        <ele>203</ele>
        <time>2018-06-30T08:59:59Z</time>
      </trkpt>
      <trkpt lat="45.88735" lon="4.77717">
        <ele>203</ele>
        <time>2018-06-30T09:00:00Z</time>
      </trkpt>
      <trkpt lat="45.8873" lon="4.77718">
        <ele>203</ele>
        <time>2018-06-30T09:00:01Z</time>
      </trkpt>
      <trkpt lat="45.88719" lon="4.77717">
        <ele>203</ele>
        <time>2018-06-30T09:00:03Z</time>
      </trkpt>
      <trkpt lat="45.88714" lon="4.77718">
        <ele>203</ele>
        <time>2018-06-30T09:00:04Z</time>
      </trkpt>
      <trkpt lat="45.88709" lon="4.77718">
        <ele>203</ele>
        <time>2018-06-30T09:00:05Z</time>
      </trkpt>
      <trkpt lat="45.88704" lon="4.77718">
        <ele>203</ele>
        <time>2018-06-30T09:00:06Z</time>
      </trkpt>
      <trkpt lat="45.88699" lon="4.77718">
        <ele>203</ele>
        <time>2018-06-30T09:00:07Z</time>
      </trkpt>
      <trkpt lat="45.88694" lon="4.77718">
        <ele>203</ele>
        <time>2018-06-30T09:00:08Z</time>
      </trkpt>
      <trkpt lat="45.8869" lon="4.77718">
        <ele>203</ele>
        <time>2018-06-30T09:00:09Z</time>
      </trkpt>
      <trkpt lat="45.88685" lon="4.77717">
        <ele>203</ele>
        <time>2018-06-30T09:00:10Z</time>
      </trkpt>
      <trkpt lat="45.8868" lon="4.77717">
        <ele>203</ele>
        <time>2018-06-30T09:00:11Z</time>
      </trkpt>
      <trkpt lat="45.88675" lon="4.77717">
        <ele>203</ele>
        <time>2018-06-30T09:00:12Z</time>
      </trkpt>
      <trkpt lat="45.8867" lon="4.77715">
        <ele>203</ele>
        <time>2018-06-30T09:00:13Z</time>
      </trkpt>
      <trkpt lat="45.88665" lon="4.77715">
        <ele>203</ele>
        <time>2018-06-30T09:00:14Z</time>
      </trkpt>
      <trkpt lat="45.88659" lon="4.77714">
        <ele>203</ele>
        <time>2018-06-30T09:00:15Z</time>
      </trkpt>
      <trkpt lat="45.88653" lon="4.77713">
        <ele>203</ele>
        <time>2018-06-30T09:00:16Z</time>
      </trkpt>
      <trkpt lat="45.88647" lon="4.77712">
        <ele>203</ele>
        <time>2018-06-30T09:00:17Z</time>
      </trkpt>
      <trkpt lat="45.88641" lon="4.77711">
        <ele>203</ele>
        <time>2018-06-30T09:00:18Z</time>
      </trkpt>
      <trkpt lat="45.88636" lon="4.77711">
        <ele>203</ele>
        <time>2018-06-30T09:00:19Z</time>
      </trkpt>
      <trkpt lat="45.8863" lon="4.7771">
        <ele>203</ele>
        <time>2018-06-30T09:00:20Z</time>
      </trkpt>
      <trkpt lat="45.88625" lon="4.77708">
        <ele>203</ele>
        <time>2018-06-30T09:00:21Z</time>
      </trkpt>
      <trkpt lat="45.8862" lon="4.77709">
        <ele>203</ele>
        <time>2018-06-30T09:00:22Z</time>
      </trkpt>
      <trkpt lat="45.88614" lon="4.77707">
        <ele>203</ele>
        <time>2018-06-30T09:00:23Z</time>
      </trkpt>
      <trkpt lat="45.88609" lon="4.77706">
        <ele>203</ele>
        <time>2018-06-30T09:00:24Z</time>
      </trkpt>
      <trkpt lat="45.88602" lon="4.77706">
        <ele>203</ele>
        <time>2018-06-30T09:00:25Z</time>
      </trkpt>
      <trkpt lat="45.88597" lon="4.77705">
        <ele>203</ele>
        <time>2018-06-30T09:00:26Z</time>
      </trkpt>
      <trkpt lat="45.88591" lon="4.77704">
        <ele>203</ele>
        <time>2018-06-30T09:00:27Z</time>
      </trkpt>
      <trkpt lat="45.88586" lon="4.77704">
        <ele>203</ele>
        <time>2018-06-30T09:00:28Z</time>
      </trkpt>
      <trkpt lat="45.88582" lon="4.77702">
        <ele>204</ele>
        <time>2018-06-30T09:00:29Z</time>
      </trkpt>
      <trkpt lat="45.88577" lon="4.77701">
        <ele>204</ele>
        <time>2018-06-30T09:00:30Z</time>
      </trkpt>
      <trkpt lat="45.88571" lon="4.77699">
        <ele>204</ele>
        <time>2018-06-30T09:00:31Z</time>
      </trkpt>
      <trkpt lat="45.88563" lon="4.77697">
        <ele>204</ele>
        <time>2018-06-30T09:00:33Z</time>
      </trkpt>
      <trkpt lat="45.88558" lon="4.77696">
        <ele>204</ele>
        <time>2018-06-30T09:00:34Z</time>
      </trkpt>
      <trkpt lat="45.88554" lon="4.77694">
        <ele>204</ele>
        <time>2018-06-30T09:00:35Z</time>
      </trkpt>
      <trkpt lat="45.8855" lon="4.77693">
        <ele>204</ele>
        <time>2018-06-30T09:00:36Z</time>
      </trkpt>
      <trkpt lat="45.88545" lon="4.77691">
        <ele>204</ele>
        <time>2018-06-30T09:00:37Z</time>
      </trkpt>
      <trkpt lat="45.8854" lon="4.7769">
        <ele>204</ele>
        <time>2018-06-30T09:00:38Z</time>
      </trkpt>
      <trkpt lat="45.88535" lon="4.77688">
        <ele>204</ele>
        <time>2018-06-30T09:00:39Z</time>
      </trkpt>
      <trkpt lat="45.8853" lon="4.77688">
        <ele>204</ele>
        <time>2018-06-30T09:00:40Z</time>
      </trkpt>
      <trkpt lat="45.88526" lon="4.77688">
        <ele>204</ele>
        <time>2018-06-30T09:00:41Z</time>
      </trkpt>
      <trkpt lat="45.88521" lon="4.77687">
        <ele>204</ele>
        <time>2018-06-30T09:00:42Z</time>
      </trkpt>
      <trkpt lat="45.88513" lon="4.77687">
        <ele>205</ele>
        <time>2018-06-30T09:00:44Z</time>
      </trkpt>
      <trkpt lat="45.88509" lon="4.77686">
        <ele>205</ele>
        <time>2018-06-30T09:00:45Z</time>
      </trkpt>
      <trkpt lat="45.88501" lon="4.77687">
        <ele>205</ele>
        <time>2018-06-30T09:00:46Z</time>
      </trkpt>
      <trkpt lat="45.88497" lon="4.77685">
        <ele>206</ele>
        <time>2018-06-30T09:00:47Z</time>
      </trkpt>
      <trkpt lat="45.88492" lon="4.77685">
        <ele>206</ele>
        <time>2018-06-30T09:00:48Z</time>
      </trkpt>
      <trkpt lat="45.88488" lon="4.77684">
        <ele>206</ele>
        <time>2018-06-30T09:00:49Z</time>
      </trkpt>
      <trkpt lat="45.88485" lon="4.7768">
        <ele>206</ele>
        <time>2018-06-30T09:00:50Z</time>
      </trkpt>
      <trkpt lat="45.8848" lon="4.77678">
        <ele>206</ele>
        <time>2018-06-30T09:00:51Z</time>
      </trkpt>
      <trkpt lat="45.88474" lon="4.77675">
        <ele>206</ele>
        <time>2018-06-30T09:00:53Z</time>
      </trkpt>
      <trkpt lat="45.8847" lon="4.77674">
        <ele>206</ele>
        <time>2018-06-30T09:00:54Z</time>
      </trkpt>
      <trkpt lat="45.88461" lon="4.77671">
        <ele>206</ele>
        <time>2018-06-30T09:00:56Z</time>
      </trkpt>
      <trkpt lat="45.88456" lon="4.7767">
        <ele>206</ele>
        <time>2018-06-30T09:00:57Z</time>
      </trkpt>
      <trkpt lat="45.88451" lon="4.77669">
        <ele>206</ele>
        <time>2018-06-30T09:00:58Z</time>
      </trkpt>
      <trkpt lat="45.88447" lon="4.77669">
        <ele>206</ele>
        <time>2018-06-30T09:00:59Z</time>
      </trkpt>
      <trkpt lat="45.88442" lon="4.77668">
        <ele>206</ele>
        <time>2018-06-30T09:01:00Z</time>
      </trkpt>
      <trkpt lat="45.88438" lon="4.77667">
        <ele>206</ele>
        <time>2018-06-30T09:01:01Z</time>
      </trkpt>
      <trkpt lat="45.88433" lon="4.77665">
        <ele>206</ele>
        <time>2018-06-30T09:01:02Z</time>
      </trkpt>
      <trkpt lat="45.88428" lon="4.77666">
        <ele>206</ele>
        <time>2018-06-30T09:01:03Z</time>
      </trkpt>
      <trkpt lat="45.88424" lon="4.77665">
        <ele>206</ele>
        <time>2018-06-30T09:01:04Z</time>
      </trkpt>
      <trkpt lat="45.88418" lon="4.77664">
        <ele>206</ele>
        <time>2018-06-30T09:01:05Z</time>
      </trkpt>
      <trkpt lat="45.88413" lon="4.77663">
        <ele>206</ele>
        <time>2018-06-30T09:01:06Z</time>
      </trkpt>
      <trkpt lat="45.88408" lon="4.77662">
        <ele>206</ele>
        <time>2018-06-30T09:01:07Z</time>
      </trkpt>
      <trkpt lat="45.884" lon="4.7766">
        <ele>207</ele>
        <time>2018-06-30T09:01:09Z</time>
      </trkpt>
      <trkpt lat="45.88396" lon="4.77658">
        <ele>207</ele>
        <time>2018-06-30T09:01:10Z</time>
      </trkpt>
      <trkpt lat="45.88387" lon="4.77656">
        <ele>207</ele>
        <time>2018-06-30T09:01:12Z</time>
      </trkpt>
      <trkpt lat="45.88383" lon="4.77655">
        <ele>207</ele>
        <time>2018-06-30T09:01:13Z</time>
      </trkpt>
      <trkpt lat="45.88374" lon="4.77654">
        <ele>207</ele>
        <time>2018-06-30T09:01:15Z</time>
      </trkpt>
      <trkpt lat="45.8837" lon="4.77653">
        <ele>207</ele>
        <time>2018-06-30T09:01:16Z</time>
      </trkpt>
      <trkpt lat="45.88361" lon="4.77652">
        <ele>208</ele>
        <time>2018-06-30T09:01:18Z</time>
      </trkpt>
      <trkpt lat="45.88356" lon="4.77651">
        <ele>208</ele>
        <time>2018-06-30T09:01:19Z</time>
      </trkpt>
      <trkpt lat="45.88352" lon="4.77651">
        <ele>208</ele>
        <time>2018-06-30T09:01:20Z</time>
      </trkpt>
      <trkpt lat="45.88347" lon="4.77651">
        <ele>208</ele>
        <time>2018-06-30T09:01:21Z</time>
      </trkpt>
      <trkpt lat="45.88338" lon="4.77649">
        <ele>208</ele>
        <time>2018-06-30T09:01:23Z</time>
      </trkpt>
      <trkpt lat="45.88333" lon="4.77648">
        <ele>208</ele>
        <time>2018-06-30T09:01:24Z</time>
      </trkpt>
      <trkpt lat="45.88329" lon="4.77649">
        <ele>209</ele>
        <time>2018-06-30T09:01:25Z</time>
      </trkpt>
      <trkpt lat="45.88324" lon="4.77649">
        <ele>209</ele>
        <time>2018-06-30T09:01:26Z</time>
      </trkpt>
      <trkpt lat="45.88315" lon="4.7765">
        <ele>209</ele>
        <time>2018-06-30T09:01:28Z</time>
      </trkpt>
      <trkpt lat="45.88311" lon="4.7765">
        <ele>209</ele>
        <time>2018-06-30T09:01:29Z</time>
      </trkpt>
      <trkpt lat="45.88306" lon="4.77651">
        <ele>209</ele>
        <time>2018-06-30T09:01:30Z</time>
      </trkpt>
      <trkpt lat="45.88301" lon="4.77651">
        <ele>209</ele>
        <time>2018-06-30T09:01:31Z</time>
      </trkpt>
      <trkpt lat="45.88296" lon="4.77651">
        <ele>209</ele>
        <time>2018-06-30T09:01:32Z</time>
      </trkpt>
      <trkpt lat="45.88292" lon="4.77653">
        <ele>209</ele>
        <time>2018-06-30T09:01:33Z</time>
      </trkpt>
      <trkpt lat="45.88288" lon="4.77653">
        <ele>209</ele>
        <time>2018-06-30T09:01:34Z</time>
      </trkpt>
      <trkpt lat="45.88282" lon="4.77656">
        <ele>210</ele>
        <time>2018-06-30T09:01:35Z</time>
      </trkpt>
      <trkpt lat="45.88274" lon="4.77657">
        <ele>210</ele>
        <time>2018-06-30T09:01:37Z</time>
      </trkpt>
      <trkpt lat="45.8827" lon="4.77657">
        <ele>210</ele>
        <time>2018-06-30T09:01:38Z</time>
      </trkpt>
      <trkpt lat="45.88265" lon="4.77658">
        <ele>210</ele>
        <time>2018-06-30T09:01:39Z</time>
      </trkpt>
      <trkpt lat="45.8826" lon="4.77658">
        <ele>210</ele>
        <time>2018-06-30T09:01:40Z</time>
      </trkpt>
      <trkpt lat="45.88255" lon="4.77657">
        <ele>210</ele>
        <time>2018-06-30T09:01:41Z</time>
      </trkpt>
      <trkpt lat="45.8825" lon="4.77658">
        <ele>211</ele>
        <time>2018-06-30T09:01:42Z</time>
      </trkpt>
      <trkpt lat="45.88245" lon="4.77659">
        <ele>211</ele>
        <time>2018-06-30T09:01:43Z</time>
      </trkpt>
      <trkpt lat="45.8824" lon="4.77659">
        <ele>211</ele>
        <time>2018-06-30T09:01:44Z</time>
      </trkpt>
      <trkpt lat="45.88235" lon="4.77659">
        <ele>211</ele>
        <time>2018-06-30T09:01:45Z</time>
      </trkpt>
      <trkpt lat="45.8823" lon="4.77659">
        <ele>211</ele>
        <time>2018-06-30T09:01:46Z</time>
      </trkpt>
      <trkpt lat="45.88226" lon="4.7766">
        <ele>211</ele>
        <time>2018-06-30T09:01:47Z</time>
      </trkpt>
      <trkpt lat="45.8822" lon="4.77662">
        <ele>211</ele>
        <time>2018-06-30T09:01:48Z</time>
      </trkpt>
      <trkpt lat="45.88215" lon="4.77663">
        <ele>211</ele>
        <time>2018-06-30T09:01:49Z</time>
      </trkpt>
      <trkpt lat="45.8821" lon="4.77663">
        <ele>211</ele>
        <time>2018-06-30T09:01:50Z</time>
      </trkpt>
      <trkpt lat="45.88206" lon="4.77664">
        <ele>211</ele>
        <time>2018-06-30T09:01:51Z</time>
      </trkpt>
      <trkpt lat="45.88201" lon="4.77664">
        <ele>211</ele>
        <time>2018-06-30T09:01:52Z</time>
      </trkpt>
      <trkpt lat="45.88196" lon="4.77665">
        <ele>211</ele>
        <time>2018-06-30T09:01:53Z</time>
      </trkpt>
      <trkpt lat="45.88191" lon="4.77663">
        <ele>212</ele>
        <time>2018-06-30T09:01:54Z</time>
      </trkpt>
      <trkpt lat="45.88187" lon="4.77665">
        <ele>212</ele>
        <time>2018-06-30T09:01:55Z</time>
      </trkpt>
      <trkpt lat="45.88182" lon="4.77664">
        <ele>212</ele>
        <time>2018-06-30T09:01:56Z</time>
      </trkpt>
      <trkpt lat="45.88173" lon="4.77665">
        <ele>212</ele>
        <time>2018-06-30T09:01:58Z</time>
      </trkpt>
      <trkpt lat="45.88168" lon="4.77666">
        <ele>212</ele>
        <time>2018-06-30T09:01:59Z</time>
      </trkpt>
      <trkpt lat="45.88163" lon="4.77667">
        <ele>212</ele>
        <time>2018-06-30T09:02:00Z</time>
      </trkpt>
      <trkpt lat="45.88158" lon="4.77667">
        <ele>213</ele>
        <time>2018-06-30T09:02:01Z</time>
      </trkpt>
      <trkpt lat="45.88153" lon="4.77667">
        <ele>213</ele>
        <time>2018-06-30T09:02:02Z</time>
      </trkpt>
      <trkpt lat="45.88148" lon="4.77668">
        <ele>213</ele>
        <time>2018-06-30T09:02:03Z</time>
      </trkpt>
      <trkpt lat="45.88144" lon="4.77668">
        <ele>213</ele>
        <time>2018-06-30T09:02:04Z</time>
      </trkpt>
      <trkpt lat="45.88138" lon="4.77669">
        <ele>213</ele>
        <time>2018-06-30T09:02:05Z</time>
      </trkpt>
      <trkpt lat="45.8813" lon="4.77671">
        <ele>214</ele>
        <time>2018-06-30T09:02:07Z</time>
      </trkpt>
      <trkpt lat="45.88125" lon="4.77672">
        <ele>214</ele>
        <time>2018-06-30T09:02:08Z</time>
      </trkpt>
      <trkpt lat="45.88121" lon="4.77674">
        <ele>214</ele>
        <time>2018-06-30T09:02:09Z</time>
      </trkpt>
      <trkpt lat="45.88116" lon="4.77675">
        <ele>214</ele>
        <time>2018-06-30T09:02:10Z</time>
      </trkpt>
      <trkpt lat="45.88111" lon="4.77676">
        <ele>214</ele>
        <time>2018-06-30T09:02:11Z</time>
      </trkpt>
      <trkpt lat="45.88106" lon="4.77677">
        <ele>214</ele>
        <time>2018-06-30T09:02:12Z</time>
      </trkpt>
      <trkpt lat="45.88098" lon="4.77679">
        <ele>214</ele>
        <time>2018-06-30T09:02:14Z</time>
      </trkpt>
      <trkpt lat="45.88093" lon="4.77679">
        <ele>214</ele>
        <time>2018-06-30T09:02:15Z</time>
      </trkpt>
      <trkpt lat="45.88084" lon="4.77681">
        <ele>215</ele>
        <time>2018-06-30T09:02:17Z</time>
      </trkpt>
      <trkpt lat="45.8808" lon="4.77681">
        <ele>215</ele>
        <time>2018-06-30T09:02:18Z</time>
      </trkpt>
      <trkpt lat="45.88075" lon="4.77683">
        <ele>215</ele>
        <time>2018-06-30T09:02:19Z</time>
      </trkpt>
      <trkpt lat="45.88071" lon="4.77684">
        <ele>215</ele>
        <time>2018-06-30T09:02:20Z</time>
      </trkpt>
      <trkpt lat="45.88066" lon="4.77685">
        <ele>216</ele>
        <time>2018-06-30T09:02:21Z</time>
      </trkpt>
      <trkpt lat="45.88061" lon="4.77684">
        <ele>216</ele>
        <time>2018-06-30T09:02:22Z</time>
      </trkpt>
      <trkpt lat="45.88052" lon="4.77683">
        <ele>216</ele>
        <time>2018-06-30T09:02:24Z</time>
      </trkpt>
      <trkpt lat="45.88048" lon="4.77684">
        <ele>216</ele>
        <time>2018-06-30T09:02:25Z</time>
      </trkpt>
      <trkpt lat="45.88043" lon="4.77686">
        <ele>216</ele>
        <time>2018-06-30T09:02:26Z</time>
      </trkpt>
      <trkpt lat="45.88039" lon="4.77687">
        <ele>216</ele>
        <time>2018-06-30T09:02:27Z</time>
      </trkpt>
      <trkpt lat="45.8803" lon="4.77689">
        <ele>216</ele>
        <time>2018-06-30T09:02:29Z</time>
      </trkpt>
      <trkpt lat="45.88026" lon="4.7769">
        <ele>216</ele>
        <time>2018-06-30T09:02:30Z</time>
      </trkpt>
      <trkpt lat="45.88019" lon="4.77694">
        <ele>216</ele>
        <time>2018-06-30T09:02:31Z</time>
      </trkpt>
      <trkpt lat="45.88016" lon="4.77694">
        <ele>216</ele>
        <time>2018-06-30T09:02:32Z</time>
      </trkpt>
      <trkpt lat="45.88011" lon="4.77694">
        <ele>216</ele>
        <time>2018-06-30T09:02:33Z</time>
      </trkpt>
      <trkpt lat="45.88006" lon="4.77693">
        <ele>216</ele>
        <time>2018-06-30T09:02:34Z</time>
      </trkpt>
      <trkpt lat="45.88001" lon="4.77694">
        <ele>216</ele>
        <time>2018-06-30T09:02:35Z</time>
      </trkpt>
      <trkpt lat="45.87997" lon="4.77694">
        <ele>217</ele>
        <time>2018-06-30T09:02:36Z</time>
      </trkpt>
      <trkpt lat="45.87992" lon="4.77693">
        <ele>217</ele>
        <time>2018-06-30T09:02:37Z</time>
      </trkpt>
      <trkpt lat="45.87988" lon="4.77692">
        <ele>217</ele>
        <time>2018-06-30T09:02:38Z</time>
      </trkpt>
      <trkpt lat="45.87979" lon="4.77691">
        <ele>218</ele>
        <time>2018-06-30T09:02:40Z</time>
      </trkpt>
      <trkpt lat="45.87974" lon="4.77687">
        <ele>218</ele>
        <time>2018-06-30T09:02:41Z</time>
      </trkpt>
      <trkpt lat="45.8797" lon="4.77683">
        <ele>218</ele>
        <time>2018-06-30T09:02:42Z</time>
      </trkpt>
      <trkpt lat="45.87967" lon="4.77677">
        <ele>218</ele>
        <time>2018-06-30T09:02:43Z</time>
      </trkpt>
      <trkpt lat="45.87959" lon="4.77671">
        <ele>218</ele>
        <time>2018-06-30T09:02:45Z</time>
      </trkpt>
      <trkpt lat="45.87954" lon="4.77669">
        <ele>218</ele>
        <time>2018-06-30T09:02:46Z</time>
      </trkpt>
      <trkpt lat="45.87945" lon="4.77664">
        <ele>218</ele>
        <time>2018-06-30T09:02:48Z</time>
      </trkpt>
      <trkpt lat="45.87942" lon="4.77662">
        <ele>219</ele>
        <time>2018-06-30T09:02:49Z</time>
      </trkpt>
      <trkpt lat="45.87938" lon="4.77657">
        <ele>219</ele>
        <time>2018-06-30T09:02:50Z</time>
      </trkpt>
      <trkpt lat="45.87934" lon="4.77654">
        <ele>219</ele>
        <time>2018-06-30T09:02:51Z</time>
      </trkpt>
      <trkpt lat="45.8793" lon="4.7765">
        <ele>219</ele>
        <time>2018-06-30T09:02:52Z</time>
      </trkpt>
      <trkpt lat="45.87925" lon="4.77646">
        <ele>219</ele>
        <time>2018-06-30T09:02:53Z</time>
      </trkpt>
      <trkpt lat="45.87921" lon="4.77642">
        <ele>219</ele>
        <time>2018-06-30T09:02:54Z</time>
      </trkpt>
      <trkpt lat="45.87917" lon="4.77638">
        <ele>219</ele>
        <time>2018-06-30T09:02:55Z</time>
      </trkpt>
      <trkpt lat="45.87913" lon="4.77634">
        <ele>221</ele>
        <time>2018-06-30T09:02:56Z</time>
      </trkpt>
      <trkpt lat="45.87908" lon="4.77631">
        <ele>221</ele>
        <time>2018-06-30T09:02:57Z</time>
      </trkpt>
      <trkpt lat="45.87905" lon="4.77627">
        <ele>221</ele>
        <time>2018-06-30T09:02:58Z</time>
      </trkpt>
      <trkpt lat="45.879" lon="4.77624">
        <ele>221</ele>
        <time>2018-06-30T09:02:59Z</time>
      </trkpt>
      <trkpt lat="45.87896" lon="4.7762">
        <ele>221</ele>
        <time>2018-06-30T09:03:00Z</time>
      </trkpt>
      <trkpt lat="45.87891" lon="4.77617">
        <ele>221</ele>
        <time>2018-06-30T09:03:01Z</time>
      </trkpt>
      <trkpt lat="45.87887" lon="4.77614">
        <ele>221</ele>
        <time>2018-06-30T09:03:02Z</time>
      </trkpt>
      <trkpt lat="45.87883" lon="4.77611">
        <ele>221</ele>
        <time>2018-06-30T09:03:03Z</time>
      </trkpt>
      <trkpt lat="45.87879" lon="4.77608">
        <ele>221</ele>
        <time>2018-06-30T09:03:04Z</time>
      </trkpt>
      <trkpt lat="45.87874" lon="4.77604">
        <ele>221</ele>
        <time>2018-06-30T09:03:05Z</time>
      </trkpt>
      <trkpt lat="45.8787" lon="4.77601">
        <ele>221</ele>
        <time>2018-06-30T09:03:06Z</time>
      </trkpt>
      <trkpt lat="45.87866" lon="4.77596">
        <ele>221</ele>
        <time>2018-06-30T09:03:07Z</time>
      </trkpt>
      <trkpt lat="45.87862" lon="4.77592">
        <ele>221</ele>
        <time>2018-06-30T09:03:08Z</time>
      </trkpt>
      <trkpt lat="45.87858" lon="4.77587">
        <ele>221</ele>
        <time>2018-06-30T09:03:09Z</time>
      </trkpt>
      <trkpt lat="45.87854" lon="4.77583">
        <ele>221</ele>
        <time>2018-06-30T09:03:10Z</time>
      </trkpt>
      <trkpt lat="45.87849" lon="4.7758">
        <ele>221</ele>
        <time>2018-06-30T09:03:11Z</time>
      </trkpt>
      <trkpt lat="45.87845" lon="4.77576">
        <ele>221</ele>
        <time>2018-06-30T09:03:12Z</time>
      </trkpt>
      <trkpt lat="45.87841" lon="4.77573">
        <ele>221</ele>
        <time>2018-06-30T09:03:13Z</time>
      </trkpt>
      <trkpt lat="45.87836" lon="4.7757">
        <ele>221</ele>
        <time>2018-06-30T09:03:14Z</time>
      </trkpt>
      <trkpt lat="45.87832" lon="4.77567">
        <ele>222</ele>
        <time>2018-06-30T09:03:15Z</time>
      </trkpt>
      <trkpt lat="45.87828" lon="4.77563">
        <ele>222</ele>
        <time>2018-06-30T09:03:16Z</time>
      </trkpt>
      <trkpt lat="45.87823" lon="4.77559">
        <ele>223</ele>
        <time>2018-06-30T09:03:17Z</time>
      </trkpt>
      <trkpt lat="45.8782" lon="4.77556">
        <ele>223</ele>
        <time>2018-06-30T09:03:18Z</time>
      </trkpt>
      <trkpt lat="45.87815" lon="4.77552">
        <ele>223</ele>
        <time>2018-06-30T09:03:19Z</time>
      </trkpt>
      <trkpt lat="45.87808" lon="4.77546">
        <ele>223</ele>
        <time>2018-06-30T09:03:21Z</time>
      </trkpt>
      <trkpt lat="45.87803" lon="4.77542">
        <ele>223</ele>
        <time>2018-06-30T09:03:22Z</time>
      </trkpt>
      <trkpt lat="45.87796" lon="4.77536">
        <ele>223</ele>
        <time>2018-06-30T09:03:24Z</time>
      </trkpt>
      <trkpt lat="45.87792" lon="4.77533">
        <ele>223</ele>
        <time>2018-06-30T09:03:25Z</time>
      </trkpt>
      <trkpt lat="45.87784" lon="4.77528">
        <ele>223</ele>
        <time>2018-06-30T09:03:27Z</time>
      </trkpt>
      <trkpt lat="45.8778" lon="4.77524">
        <ele>223</ele>
        <time>2018-06-30T09:03:28Z</time>
      </trkpt>
      <trkpt lat="45.87773" lon="4.77519">
        <ele>223</ele>
        <time>2018-06-30T09:03:30Z</time>
      </trkpt>
      <trkpt lat="45.8777" lon="4.77517">
        <ele>223</ele>
        <time>2018-06-30T09:03:31Z</time>
      </trkpt>
      <trkpt lat="45.87763" lon="4.77511">
        <ele>223</ele>
        <time>2018-06-30T09:03:33Z</time>
      </trkpt>
      <trkpt lat="45.8776" lon="4.77509">
        <ele>224</ele>
        <time>2018-06-30T09:03:34Z</time>
      </trkpt>
      <trkpt lat="45.87756" lon="4.77506">
        <ele>224</ele>
        <time>2018-06-30T09:03:35Z</time>
      </trkpt>
      <trkpt lat="45.87751" lon="4.77504">
        <ele>224</ele>
        <time>2018-06-30T09:03:36Z</time>
      </trkpt>
      <trkpt lat="45.87745" lon="4.77499">
        <ele>224</ele>
        <time>2018-06-30T09:03:38Z</time>
      </trkpt>
      <trkpt lat="45.87741" lon="4.77497">
        <ele>225</ele>
        <time>2018-06-30T09:03:39Z</time>
      </trkpt>
      <trkpt lat="45.87733" lon="4.77493">
        <ele>225</ele>
        <time>2018-06-30T09:03:41Z</time>
      </trkpt>
      <trkpt lat="45.87729" lon="4.77491">
        <ele>225</ele>
        <time>2018-06-30T09:03:42Z</time>
      </trkpt>
      <trkpt lat="45.87721" lon="4.77488">
        <ele>226</ele>
        <time>2018-06-30T09:03:44Z</time>
      </trkpt>
      <trkpt lat="45.87717" lon="4.77488">
        <ele>226</ele>
        <time>2018-06-30T09:03:45Z</time>
      </trkpt>
      <trkpt lat="45.87708" lon="4.77487">
        <ele>226</ele>
        <time>2018-06-30T09:03:47Z</time>
      </trkpt>
      <trkpt lat="45.87704" lon="4.77488">
        <ele>227</ele>
        <time>2018-06-30T09:03:48Z</time>
      </trkpt>
      <trkpt lat="45.87696" lon="4.77488">
        <ele>227</ele>
        <time>2018-06-30T09:03:50Z</time>
      </trkpt>
      <trkpt lat="45.87692" lon="4.77488">
        <ele>227</ele>
        <time>2018-06-30T09:03:51Z</time>
      </trkpt>
      <trkpt lat="45.87684" lon="4.77487">
        <ele>227</ele>
        <time>2018-06-30T09:03:53Z</time>
      </trkpt>
      <trkpt lat="45.8768" lon="4.77487">
        <ele>228</ele>
        <time>2018-06-30T09:03:54Z</time>
      </trkpt>
      <trkpt lat="45.87672" lon="4.77487">
        <ele>228</ele>
        <time>2018-06-30T09:03:56Z</time>
      </trkpt>
      <trkpt lat="45.87668" lon="4.77487">
        <ele>228</ele>
        <time>2018-06-30T09:03:57Z</time>
      </trkpt>
      <trkpt lat="45.87661" lon="4.77488">
        <ele>230</ele>
        <time>2018-06-30T09:03:59Z</time>
      </trkpt>
      <trkpt lat="45.87657" lon="4.77489">
        <ele>230</ele>
        <time>2018-06-30T09:04:00Z</time>
      </trkpt>
      <trkpt lat="45.87649" lon="4.7749">
        <ele>230</ele>
        <time>2018-06-30T09:04:02Z</time>
      </trkpt>
      <trkpt lat="45.87645" lon="4.77491">
        <ele>230</ele>
        <time>2018-06-30T09:04:03Z</time>
      </trkpt>
      <trkpt lat="45.87638" lon="4.77492">
        <ele>230</ele>
        <time>2018-06-30T09:04:06Z</time>
      </trkpt>
      <trkpt lat="45.87631" lon="4.77493">
        <ele>231</ele>
        <time>2018-06-30T09:04:07Z</time>
      </trkpt>
      <trkpt lat="45.87623" lon="4.77495">
        <ele>231</ele>
        <time>2018-06-30T09:04:10Z</time>
      </trkpt>
      <trkpt lat="45.87621" lon="4.77495">
        <ele>231</ele>
        <time>2018-06-30T09:04:11Z</time>
      </trkpt>
      <trkpt lat="45.87613" lon="4.77496">
        <ele>231</ele>
        <time>2018-06-30T09:04:12Z</time>
      </trkpt>
      <trkpt lat="45.87611" lon="4.77496">
        <ele>231</ele>
        <time>2018-06-30T09:04:13Z</time>
      </trkpt>
      <trkpt lat="45.87603" lon="4.77497">
        <ele>231</ele>
        <time>2018-06-30T09:04:16Z</time>
      </trkpt>
      <trkpt lat="45.87601" lon="4.77498">
        <ele>231</ele>
        <time>2018-06-30T09:04:17Z</time>
      </trkpt>
      <trkpt lat="45.87594" lon="4.775">
        <ele>232</ele>
        <time>2018-06-30T09:04:19Z</time>
      </trkpt>
      <trkpt lat="45.87584" lon="4.77501">
        <ele>232</ele>
        <time>2018-06-30T09:04:20Z</time>
      </trkpt>
      <trkpt lat="45.87577" lon="4.77502">
        <ele>232</ele>
        <time>2018-06-30T09:04:23Z</time>
      </trkpt>
      <trkpt lat="45.87574" lon="4.77503">
        <ele>232</ele>
        <time>2018-06-30T09:04:24Z</time>
      </trkpt>
      <trkpt lat="45.87571" lon="4.77503">
        <ele>232</ele>
        <time>2018-06-30T09:04:25Z</time>
      </trkpt>
      <trkpt lat="45.87562" lon="4.77502">
        <ele>232</ele>
        <time>2018-06-30T09:04:26Z</time>
      </trkpt>
      <trkpt lat="45.87557" lon="4.77499">
        <ele>233</ele>
        <time>2018-06-30T09:04:28Z</time>
      </trkpt>
      <trkpt lat="45.87553" lon="4.77495">
        <ele>233</ele>
        <time>2018-06-30T09:04:29Z</time>
      </trkpt>
      <trkpt lat="45.87547" lon="4.77489">
        <ele>233</ele>
        <time>2018-06-30T09:04:31Z</time>
      </trkpt>
      <trkpt lat="45.87545" lon="4.77485">
        <ele>233</ele>
        <time>2018-06-30T09:04:32Z</time>
      </trkpt>
      <trkpt lat="45.87541" lon="4.77479">
        <ele>233</ele>
        <time>2018-06-30T09:04:34Z</time>
      </trkpt>
      <trkpt lat="45.87537" lon="4.77473">
        <ele>233</ele>
        <time>2018-06-30T09:04:35Z</time>
      </trkpt>
      <trkpt lat="45.87532" lon="4.77465">
        <ele>233</ele>
        <time>2018-06-30T09:04:37Z</time>
      </trkpt>
      <trkpt lat="45.8753" lon="4.77461">
        <ele>233</ele>
        <time>2018-06-30T09:04:38Z</time>
      </trkpt>
      <trkpt lat="45.87525" lon="4.77453">
        <ele>233</ele>
        <time>2018-06-30T09:04:40Z</time>
      </trkpt>
      <trkpt lat="45.87522" lon="4.77448">
        <ele>233</ele>
        <time>2018-06-30T09:04:41Z</time>
      </trkpt>
      <trkpt lat="45.87516" lon="4.77438">
        <ele>233</ele>
        <time>2018-06-30T09:04:43Z</time>
      </trkpt>
      <trkpt lat="45.87513" lon="4.77433">
        <ele>233</ele>
        <time>2018-06-30T09:04:44Z</time>
      </trkpt>
      <trkpt lat="45.87507" lon="4.77424">
        <ele>233</ele>
        <time>2018-06-30T09:04:46Z</time>
      </trkpt>
      <trkpt lat="45.87504" lon="4.77418">
        <ele>233</ele>
        <time>2018-06-30T09:04:47Z</time>
      </trkpt>
      <trkpt lat="45.87501" lon="4.77414">
        <ele>233</ele>
        <time>2018-06-30T09:04:48Z</time>
      </trkpt>
      <trkpt lat="45.87497" lon="4.77409">
        <ele>234</ele>
        <time>2018-06-30T09:04:49Z</time>
      </trkpt>
      <trkpt lat="45.87494" lon="4.77405">
        <ele>234</ele>
        <time>2018-06-30T09:04:50Z</time>
      </trkpt>
      <trkpt lat="45.8749" lon="4.77398">
        <ele>235</ele>
        <time>2018-06-30T09:04:51Z</time>
      </trkpt>
      <trkpt lat="45.87487" lon="4.77387">
        <ele>235</ele>
        <time>2018-06-30T09:04:53Z</time>
      </trkpt>
      <trkpt lat="45.87485" lon="4.77381">
        <ele>235</ele>
        <time>2018-06-30T09:04:54Z</time>
      </trkpt>
      <trkpt lat="45.87484" lon="4.77374">
        <ele>235</ele>
        <time>2018-06-30T09:04:55Z</time>
      </trkpt>
      <trkpt lat="45.87484" lon="4.77368">
        <ele>235</ele>
        <time>2018-06-30T09:04:56Z</time>
      </trkpt>
      <trkpt lat="45.8748" lon="4.77357">
        <ele>235</ele>
        <time>2018-06-30T09:04:58Z</time>
      </trkpt>
      <trkpt lat="45.87478" lon="4.77351">
        <ele>235</ele>
        <time>2018-06-30T09:04:59Z</time>
      </trkpt>
      <trkpt lat="45.87475" lon="4.7734">
        <ele>235</ele>
        <time>2018-06-30T09:05:01Z</time>
      </trkpt>
      <trkpt lat="45.87473" lon="4.77334">
        <ele>235</ele>
        <time>2018-06-30T09:05:02Z</time>
      </trkpt>
      <trkpt lat="45.87473" lon="4.77322">
        <ele>235</ele>
        <time>2018-06-30T09:05:04Z</time>
      </trkpt>
      <trkpt lat="45.87471" lon="4.77316">
        <ele>235</ele>
        <time>2018-06-30T09:05:05Z</time>
      </trkpt>
      <trkpt lat="45.87471" lon="4.77309">
        <ele>235</ele>
        <time>2018-06-30T09:05:06Z</time>
      </trkpt>
      <trkpt lat="45.87468" lon="4.77302">
        <ele>235</ele>
        <time>2018-06-30T09:05:07Z</time>
      </trkpt>
      <trkpt lat="45.87466" lon="4.77295">
        <ele>235</ele>
        <time>2018-06-30T09:05:08Z</time>
      </trkpt>
      <trkpt lat="45.87465" lon="4.77289">
        <ele>235</ele>
        <time>2018-06-30T09:05:09Z</time>
      </trkpt>
      <trkpt lat="45.87462" lon="4.77278">
        <ele>235</ele>
        <time>2018-06-30T09:05:11Z</time>
      </trkpt>
      <trkpt lat="45.8746" lon="4.77274">
        <ele>235</ele>
        <time>2018-06-30T09:05:12Z</time>
      </trkpt>
      <trkpt lat="45.87455" lon="4.77265">
        <ele>235</ele>
        <time>2018-06-30T09:05:14Z</time>
      </trkpt>
      <trkpt lat="45.87453" lon="4.77259">
        <ele>235</ele>
        <time>2018-06-30T09:05:15Z</time>
      </trkpt>
      <trkpt lat="45.87449" lon="4.77255">
        <ele>235</ele>
        <time>2018-06-30T09:05:16Z</time>
      </trkpt>
      <trkpt lat="45.87446" lon="4.7725">
        <ele>235</ele>
        <time>2018-06-30T09:05:17Z</time>
      </trkpt>
      <trkpt lat="45.8744" lon="4.77242">
        <ele>235</ele>
        <time>2018-06-30T09:05:19Z</time>
      </trkpt>
      <trkpt lat="45.87436" lon="4.77238">
        <ele>235</ele>
        <time>2018-06-30T09:05:20Z</time>
      </trkpt>
      <trkpt lat="45.87429" lon="4.77231">
        <ele>235</ele>
        <time>2018-06-30T09:05:22Z</time>
      </trkpt>
      <trkpt lat="45.87425" lon="4.77229">
        <ele>235</ele>
        <time>2018-06-30T09:05:23Z</time>
      </trkpt>
      <trkpt lat="45.87421" lon="4.77226">
        <ele>235</ele>
        <time>2018-06-30T09:05:24Z</time>
      </trkpt>
      <trkpt lat="45.87416" lon="4.77224">
        <ele>238</ele>
        <time>2018-06-30T09:05:25Z</time>
      </trkpt>
      <trkpt lat="45.87408" lon="4.77219">
        <ele>238</ele>
        <time>2018-06-30T09:05:27Z</time>
      </trkpt>
      <trkpt lat="45.87404" lon="4.77217">
        <ele>238</ele>
        <time>2018-06-30T09:05:28Z</time>
      </trkpt>
      <trkpt lat="45.874" lon="4.77218">
        <ele>238</ele>
        <time>2018-06-30T09:05:29Z</time>
      </trkpt>
      <trkpt lat="45.87395" lon="4.77216">
        <ele>239</ele>
        <time>2018-06-30T09:05:30Z</time>
      </trkpt>
      <trkpt lat="45.8739" lon="4.77215">
        <ele>239</ele>
        <time>2018-06-30T09:05:31Z</time>
      </trkpt>
      <trkpt lat="45.87385" lon="4.77215">
        <ele>239</ele>
        <time>2018-06-30T09:05:32Z</time>
      </trkpt>
      <trkpt lat="45.87379" lon="4.77215">
        <ele>239</ele>
        <time>2018-06-30T09:05:33Z</time>
      </trkpt>
      <trkpt lat="45.87373" lon="4.77214">
        <ele>239</ele>
        <time>2018-06-30T09:05:34Z</time>
      </trkpt>
      <trkpt lat="45.87364" lon="4.77214">
        <ele>240</ele>
        <time>2018-06-30T09:05:36Z</time>
      </trkpt>
      <trkpt lat="45.87359" lon="4.77216">
        <ele>240</ele>
        <time>2018-06-30T09:05:37Z</time>
      </trkpt>
      <trkpt lat="45.8735" lon="4.77218">
        <ele>240</ele>
        <time>2018-06-30T09:05:39Z</time>
      </trkpt>
      <trkpt lat="45.87344" lon="4.77218">
        <ele>240</ele>
        <time>2018-06-30T09:05:40Z</time>
      </trkpt>
      <trkpt lat="45.87335" lon="4.77218">
        <ele>241</ele>
        <time>2018-06-30T09:05:42Z</time>
      </trkpt>
      <trkpt lat="45.8733" lon="4.7722">
        <ele>243</ele>
        <time>2018-06-30T09:05:43Z</time>
      </trkpt>
      <trkpt lat="45.87325" lon="4.7722">
        <ele>243</ele>
        <time>2018-06-30T09:05:44Z</time>
      </trkpt>
      <trkpt lat="45.87321" lon="4.77221">
        <ele>244</ele>
        <time>2018-06-30T09:05:45Z</time>
      </trkpt>
      <trkpt lat="45.87312" lon="4.7722">
        <ele>244</ele>
        <time>2018-06-30T09:05:47Z</time>
      </trkpt>
      <trkpt lat="45.87307" lon="4.77221">
        <ele>244</ele>
        <time>2018-06-30T09:05:48Z</time>
      </trkpt>
      <trkpt lat="45.87302" lon="4.7722">
        <ele>244</ele>
        <time>2018-06-30T09:05:49Z</time>
      </trkpt>
      <trkpt lat="45.87297" lon="4.77218">
        <ele>244</ele>
        <time>2018-06-30T09:05:50Z</time>
      </trkpt>
      <trkpt lat="45.87293" lon="4.77216">
        <ele>244</ele>
        <time>2018-06-30T09:05:51Z</time>
      </trkpt>
      <trkpt lat="45.87289" lon="4.77211">
        <ele>244</ele>
        <time>2018-06-30T09:05:52Z</time>
      </trkpt>
      <trkpt lat="45.87286" lon="4.77206">
        <ele>244</ele>
        <time>2018-06-30T09:05:53Z</time>
      </trkpt>
      <trkpt lat="45.87282" lon="4.77202">
        <ele>244</ele>
        <time>2018-06-30T09:05:54Z</time>
      </trkpt>
      <trkpt lat="45.87279" lon="4.77196">
        <ele>244</ele>
        <time>2018-06-30T09:05:55Z</time>
      </trkpt>
      <trkpt lat="45.87278" lon="4.7719">
        <ele>244</ele>
        <time>2018-06-30T09:05:56Z</time>
      </trkpt>
      <trkpt lat="45.87276" lon="4.77183">
        <ele>244</ele>
        <time>2018-06-30T09:05:57Z</time>
      </trkpt>
      <trkpt lat="45.87275" lon="4.77176">
        <ele>244</ele>
        <time>2018-06-30T09:05:58Z</time>
      </trkpt>
      <trkpt lat="45.87274" lon="4.77168">
        <ele>244</ele>
        <time>2018-06-30T09:05:59Z</time>
      </trkpt>
      <trkpt lat="45.87273" lon="4.77161">
        <ele>242</ele>
        <time>2018-06-30T09:06:00Z</time>
      </trkpt>
      <trkpt lat="45.87273" lon="4.77154">
        <ele>242</ele>
        <time>2018-06-30T09:06:01Z</time>
      </trkpt>
      <trkpt lat="45.87271" lon="4.77146">
        <ele>241</ele>
        <time>2018-06-30T09:06:02Z</time>
      </trkpt>
      <trkpt lat="45.87271" lon="4.77143">
        <ele>241</ele>
        <time>2018-06-30T09:06:03Z</time>
      </trkpt>
      <trkpt lat="45.87267" lon="4.77133">
        <ele>241</ele>
        <time>2018-06-30T09:06:04Z</time>
      </trkpt>
      <trkpt lat="45.87266" lon="4.77125">
        <ele>241</ele>
        <time>2018-06-30T09:06:05Z</time>
      </trkpt>
      <trkpt lat="45.87268" lon="4.77118">
        <ele>240</ele>
        <time>2018-06-30T09:06:06Z</time>
      </trkpt>
      <trkpt lat="45.87268" lon="4.7711">
        <ele>240</ele>
        <time>2018-06-30T09:06:07Z</time>
      </trkpt>
      <trkpt lat="45.87269" lon="4.77103">
        <ele>240</ele>
        <time>2018-06-30T09:06:08Z</time>
      </trkpt>
      <trkpt lat="45.87268" lon="4.77096">
        <ele>240</ele>
        <time>2018-06-30T09:06:09Z</time>
      </trkpt>
      <trkpt lat="45.87268" lon="4.77088">
        <ele>240</ele>
        <time>2018-06-30T09:06:10Z</time>
      </trkpt>
      <trkpt lat="45.87267" lon="4.7708">
        <ele>239</ele>
        <time>2018-06-30T09:06:11Z</time>
      </trkpt>
      <trkpt lat="45.87266" lon="4.77073">
        <ele>239</ele>
        <time>2018-06-30T09:06:12Z</time>
      </trkpt>
      <trkpt lat="45.87268" lon="4.77064">
        <ele>239</ele>
        <time>2018-06-30T09:06:13Z</time>
      </trkpt>
      <trkpt lat="45.87267" lon="4.77056">
        <ele>239</ele>
        <time>2018-06-30T09:06:14Z</time>
      </trkpt>
      <trkpt lat="45.87267" lon="4.77048">
        <ele>239</ele>
        <time>2018-06-30T09:06:15Z</time>
      </trkpt>
      <trkpt lat="45.87267" lon="4.77039">
        <ele>239</ele>
        <time>2018-06-30T09:06:16Z</time>
      </trkpt>
      <trkpt lat="45.87267" lon="4.77032">
        <ele>239</ele>
        <time>2018-06-30T09:06:17Z</time>
      </trkpt>
      <trkpt lat="45.87267" lon="4.77024">
        <ele>239</ele>
        <time>2018-06-30T09:06:18Z</time>
      </trkpt>
      <trkpt lat="45.87266" lon="4.77017">
        <ele>239</ele>
        <time>2018-06-30T09:06:19Z</time>
      </trkpt>
      <trkpt lat="45.87265" lon="4.77009">
        <ele>239</ele>
        <time>2018-06-30T09:06:20Z</time>
      </trkpt>
      <trkpt lat="45.87266" lon="4.77002">
        <ele>239</ele>
        <time>2018-06-30T09:06:21Z</time>
      </trkpt>
      <trkpt lat="45.87266" lon="4.76994">
        <ele>240</ele>
        <time>2018-06-30T09:06:22Z</time>
      </trkpt>
      <trkpt lat="45.87264" lon="4.76983">
        <ele>240</ele>
        <time>2018-06-30T09:06:24Z</time>
      </trkpt>
      <trkpt lat="45.87265" lon="4.76975">
        <ele>240</ele>
        <time>2018-06-30T09:06:25Z</time>
      </trkpt>
      <trkpt lat="45.87265" lon="4.76967">
        <ele>240</ele>
        <time>2018-06-30T09:06:26Z</time>
      </trkpt>
      <trkpt lat="45.87264" lon="4.7696">
        <ele>240</ele>
        <time>2018-06-30T09:06:27Z</time>
      </trkpt>
      <trkpt lat="45.87264" lon="4.76952">
        <ele>240</ele>
        <time>2018-06-30T09:06:28Z</time>
      </trkpt>
      <trkpt lat="45.87263" lon="4.76943">
        <ele>241</ele>
        <time>2018-06-30T09:06:29Z</time>
      </trkpt>
      <trkpt lat="45.87263" lon="4.76935">
        <ele>241</ele>
        <time>2018-06-30T09:06:30Z</time>
      </trkpt>
      <trkpt lat="45.87263" lon="4.76928">
        <ele>241</ele>
        <time>2018-06-30T09:06:31Z</time>
      </trkpt>
      <trkpt lat="45.87264" lon="4.76919">
        <ele>241</ele>
        <time>2018-06-30T09:06:32Z</time>
      </trkpt>
      <trkpt lat="45.87265" lon="4.76907">
        <ele>241</ele>
        <time>2018-06-30T09:06:33Z</time>
      </trkpt>
      <trkpt lat="45.87267" lon="4.76897">
        <ele>240</ele>
        <time>2018-06-30T09:06:34Z</time>
      </trkpt>
      <trkpt lat="45.87271" lon="4.76889">
        <ele>240</ele>
        <time>2018-06-30T09:06:35Z</time>
      </trkpt>
      <trkpt lat="45.87269" lon="4.76878">
        <ele>240</ele>
        <time>2018-06-30T09:06:36Z</time>
      </trkpt>
      <trkpt lat="45.87269" lon="4.76868">
        <ele>239</ele>
        <time>2018-06-30T09:06:37Z</time>
      </trkpt>
      <trkpt lat="45.8727" lon="4.76859">
        <ele>239</ele>
        <time>2018-06-30T09:06:38Z</time>
      </trkpt>
      <trkpt lat="45.8727" lon="4.76849">
        <ele>239</ele>
        <time>2018-06-30T09:06:39Z</time>
      </trkpt>
      <trkpt lat="45.87269" lon="4.7684">
        <ele>239</ele>
        <time>2018-06-30T09:06:40Z</time>
      </trkpt>
      <trkpt lat="45.87268" lon="4.76832">
        <ele>237</ele>
        <time>2018-06-30T09:06:41Z</time>
      </trkpt>
      <trkpt lat="45.87268" lon="4.76822">
        <ele>237</ele>
        <time>2018-06-30T09:06:42Z</time>
      </trkpt>
      <trkpt lat="45.87267" lon="4.76811">
        <ele>237</ele>
        <time>2018-06-30T09:06:43Z</time>
      </trkpt>
      <trkpt lat="45.87267" lon="4.76802">
        <ele>236</ele>
        <time>2018-06-30T09:06:44Z</time>
      </trkpt>
      <trkpt lat="45.87267" lon="4.76793">
        <ele>236</ele>
        <time>2018-06-30T09:06:45Z</time>
      </trkpt>
      <trkpt lat="45.87267" lon="4.76784">
        <ele>236</ele>
        <time>2018-06-30T09:06:46Z</time>
      </trkpt>
      <trkpt lat="45.87265" lon="4.76775">
        <ele>236</ele>
        <time>2018-06-30T09:06:47Z</time>
      </trkpt>
      <trkpt lat="45.87266" lon="4.76765">
        <ele>236</ele>
        <time>2018-06-30T09:06:48Z</time>
      </trkpt>
      <trkpt lat="45.87265" lon="4.76757">
        <ele>236</ele>
        <time>2018-06-30T09:06:49Z</time>
      </trkpt>
      <trkpt lat="45.87265" lon="4.76748">
        <ele>235</ele>
        <time>2018-06-30T09:06:50Z</time>
      </trkpt>
      <trkpt lat="45.87264" lon="4.76742">
        <ele>235</ele>
        <time>2018-06-30T09:06:51Z</time>
      </trkpt>
      <trkpt lat="45.87263" lon="4.76731">
        <ele>235</ele>
        <time>2018-06-30T09:06:52Z</time>
      </trkpt>
      <trkpt lat="45.87264" lon="4.76721">
        <ele>234</ele>
        <time>2018-06-30T09:06:53Z</time>
      </trkpt>
      <trkpt lat="45.87264" lon="4.7671">
        <ele>234</ele>
        <time>2018-06-30T09:06:54Z</time>
      </trkpt>
      <trkpt lat="45.87263" lon="4.76701">
        <ele>234</ele>
        <time>2018-06-30T09:06:55Z</time>
      </trkpt>
      <trkpt lat="45.87262" lon="4.7669">
        <ele>234</ele>
        <time>2018-06-30T09:06:56Z</time>
      </trkpt>
      <trkpt lat="45.87261" lon="4.76682">
        <ele>234</ele>
        <time>2018-06-30T09:06:57Z</time>
      </trkpt>
      <trkpt lat="45.87261" lon="4.76673">
        <ele>234</ele>
        <time>2018-06-30T09:06:58Z</time>
      </trkpt>
      <trkpt lat="45.87261" lon="4.76664">
        <ele>235</ele>
        <time>2018-06-30T09:06:59Z</time>
      </trkpt>
      <trkpt lat="45.87258" lon="4.76656">
        <ele>234</ele>
        <time>2018-06-30T09:07:00Z</time>
      </trkpt>
      <trkpt lat="45.87258" lon="4.76648">
        <ele>234</ele>
        <time>2018-06-30T09:07:01Z</time>
      </trkpt>
      <trkpt lat="45.87258" lon="4.76639">
        <ele>234</ele>
        <time>2018-06-30T09:07:02Z</time>
      </trkpt>
      <trkpt lat="45.87258" lon="4.76632">
        <ele>234</ele>
        <time>2018-06-30T09:07:03Z</time>
      </trkpt>
      <trkpt lat="45.87258" lon="4.76624">
        <ele>234</ele>
        <time>2018-06-30T09:07:04Z</time>
      </trkpt>
      <trkpt lat="45.87258" lon="4.76615">
        <ele>234</ele>
        <time>2018-06-30T09:07:05Z</time>
      </trkpt>
      <trkpt lat="45.87257" lon="4.76606">
        <ele>235</ele>
        <time>2018-06-30T09:07:06Z</time>
      </trkpt>
      <trkpt lat="45.87256" lon="4.76596">
        <ele>235</ele>
        <time>2018-06-30T09:07:07Z</time>
      </trkpt>
      <trkpt lat="45.87255" lon="4.76588">
        <ele>235</ele>
        <time>2018-06-30T09:07:08Z</time>
      </trkpt>
      <trkpt lat="45.87255" lon="4.76579">
        <ele>236</ele>
        <time>2018-06-30T09:07:09Z</time>
      </trkpt>
      <trkpt lat="45.87254" lon="4.76571">
        <ele>236</ele>
        <time>2018-06-30T09:07:10Z</time>
      </trkpt>
      <trkpt lat="45.87254" lon="4.76563">
        <ele>236</ele>
        <time>2018-06-30T09:07:11Z</time>
      </trkpt>
      <trkpt lat="45.87254" lon="4.76555">
        <ele>235</ele>
        <time>2018-06-30T09:07:12Z</time>
      </trkpt>
      <trkpt lat="45.87254" lon="4.76547">
        <ele>236</ele>
        <time>2018-06-30T09:07:13Z</time>
      </trkpt>
      <trkpt lat="45.87252" lon="4.76539">
        <ele>236</ele>
        <time>2018-06-30T09:07:14Z</time>
      </trkpt>
      <trkpt lat="45.87252" lon="4.76531">
        <ele>236</ele>
        <time>2018-06-30T09:07:15Z</time>
      </trkpt>
      <trkpt lat="45.87252" lon="4.76522">
        <ele>236</ele>
        <time>2018-06-30T09:07:16Z</time>
      </trkpt>
      <trkpt lat="45.87252" lon="4.76513">
        <ele>236</ele>
        <time>2018-06-30T09:07:17Z</time>
      </trkpt>
      <trkpt lat="45.87251" lon="4.76504">
        <ele>237</ele>
        <time>2018-06-30T09:07:18Z</time>
      </trkpt>
      <trkpt lat="45.87251" lon="4.76496">
        <ele>237</ele>
        <time>2018-06-30T09:07:19Z</time>
      </trkpt>
      <trkpt lat="45.8725" lon="4.76489">
        <ele>236</ele>
        <time>2018-06-30T09:07:20Z</time>
      </trkpt>
      <trkpt lat="45.87253" lon="4.7648">
        <ele>236</ele>
        <time>2018-06-30T09:07:21Z</time>
      </trkpt>
      <trkpt lat="45.87253" lon="4.76473">
        <ele>236</ele>
        <time>2018-06-30T09:07:22Z</time>
      </trkpt>
      <trkpt lat="45.87252" lon="4.76465">
        <ele>235</ele>
        <time>2018-06-30T09:07:23Z</time>
      </trkpt>
      <trkpt lat="45.87253" lon="4.76457">
        <ele>235</ele>
        <time>2018-06-30T09:07:24Z</time>
      </trkpt>
      <trkpt lat="45.87252" lon="4.76449">
        <ele>235</ele>
        <time>2018-06-30T09:07:25Z</time>
      </trkpt>
      <trkpt lat="45.87252" lon="4.76441">
        <ele>235</ele>
        <time>2018-06-30T09:07:26Z</time>
      </trkpt>
      <trkpt lat="45.87248" lon="4.76431">
        <ele>237</ele>
        <time>2018-06-30T09:07:27Z</time>
      </trkpt>
      <trkpt lat="45.87248" lon="4.76422">
        <ele>237</ele>
        <time>2018-06-30T09:07:28Z</time>
      </trkpt>
      <trkpt lat="45.87249" lon="4.76413">
        <ele>236</ele>
        <time>2018-06-30T09:07:29Z</time>
      </trkpt>
      <trkpt lat="45.87249" lon="4.76403">
        <ele>237</ele>
        <time>2018-06-30T09:07:30Z</time>
      </trkpt>
      <trkpt lat="45.87249" lon="4.76393">
        <ele>237</ele>
        <time>2018-06-30T09:07:31Z</time>
      </trkpt>
      <trkpt lat="45.87249" lon="4.76384">
        <ele>237</ele>
        <time>2018-06-30T09:07:32Z</time>
      </trkpt>
      <trkpt lat="45.87247" lon="4.76375">
        <ele>237</ele>
        <time>2018-06-30T09:07:33Z</time>
      </trkpt>
      <trkpt lat="45.87247" lon="4.76366">
        <ele>236</ele>
        <time>2018-06-30T09:07:34Z</time>
      </trkpt>
      <trkpt lat="45.87246" lon="4.76357">
        <ele>236</ele>
        <time>2018-06-30T09:07:35Z</time>
      </trkpt>
      <trkpt lat="45.87246" lon="4.76348">
        <ele>236</ele>
        <time>2018-06-30T09:07:36Z</time>
      </trkpt>
      <trkpt lat="45.87246" lon="4.76338">
        <ele>235</ele>
        <time>2018-06-30T09:07:37Z</time>
      </trkpt>
      <trkpt lat="45.87248" lon="4.7633">
        <ele>234</ele>
        <time>2018-06-30T09:07:38Z</time>
      </trkpt>
      <trkpt lat="45.87248" lon="4.76321">
        <ele>235</ele>
        <time>2018-06-30T09:07:39Z</time>
      </trkpt>
      <trkpt lat="45.87247" lon="4.76313">
        <ele>235</ele>
        <time>2018-06-30T09:07:40Z</time>
      </trkpt>
      <trkpt lat="45.87247" lon="4.76303">
        <ele>236</ele>
        <time>2018-06-30T09:07:41Z</time>
      </trkpt>
      <trkpt lat="45.87246" lon="4.76294">
        <ele>236</ele>
        <time>2018-06-30T09:07:42Z</time>
      </trkpt>
      <trkpt lat="45.87245" lon="4.76285">
        <ele>236</ele>
        <time>2018-06-30T09:07:43Z</time>
      </trkpt>
      <trkpt lat="45.87245" lon="4.76277">
        <ele>236</ele>
        <time>2018-06-30T09:07:44Z</time>
      </trkpt>
      <trkpt lat="45.87246" lon="4.76267">
        <ele>236</ele>
        <time>2018-06-30T09:07:45Z</time>
      </trkpt>
      <trkpt lat="45.87245" lon="4.76259">
        <ele>235</ele>
        <time>2018-06-30T09:07:46Z</time>
      </trkpt>
      <trkpt lat="45.87247" lon="4.76248">
        <ele>235</ele>
        <time>2018-06-30T09:07:47Z</time>
      </trkpt>
      <trkpt lat="45.87246" lon="4.7624">
        <ele>235</ele>
        <time>2018-06-30T09:07:48Z</time>
      </trkpt>
      <trkpt lat="45.87243" lon="4.76231">
        <ele>235</ele>
        <time>2018-06-30T09:07:49Z</time>
      </trkpt>
      <trkpt lat="45.87243" lon="4.76223">
        <ele>235</ele>
        <time>2018-06-30T09:07:50Z</time>
      </trkpt>
      <trkpt lat="45.87242" lon="4.76214">
        <ele>234</ele>
        <time>2018-06-30T09:07:51Z</time>
      </trkpt>
      <trkpt lat="45.87242" lon="4.76206">
        <ele>234</ele>
        <time>2018-06-30T09:07:52Z</time>
      </trkpt>
      <trkpt lat="45.87242" lon="4.76197">
        <ele>234</ele>
        <time>2018-06-30T09:07:53Z</time>
      </trkpt>
      <trkpt lat="45.87241" lon="4.76186">
        <ele>234</ele>
        <time>2018-06-30T09:07:54Z</time>
      </trkpt>
      <trkpt lat="45.8724" lon="4.76177">
        <ele>233</ele>
        <time>2018-06-30T09:07:55Z</time>
      </trkpt>
      <trkpt lat="45.87241" lon="4.76167">
        <ele>233</ele>
        <time>2018-06-30T09:07:56Z</time>
      </trkpt>
      <trkpt lat="45.8724" lon="4.76157">
        <ele>232</ele>
        <time>2018-06-30T09:07:57Z</time>
      </trkpt>
      <trkpt lat="45.8724" lon="4.76148">
        <ele>232</ele>
        <time>2018-06-30T09:07:58Z</time>
      </trkpt>
      <trkpt lat="45.87239" lon="4.76139">
        <ele>232</ele>
        <time>2018-06-30T09:07:59Z</time>
      </trkpt>
      <trkpt lat="45.87239" lon="4.7613">
        <ele>232</ele>
        <time>2018-06-30T09:08:00Z</time>
      </trkpt>
      <trkpt lat="45.87239" lon="4.76121">
        <ele>232</ele>
        <time>2018-06-30T09:08:01Z</time>
      </trkpt>
      <trkpt lat="45.87239" lon="4.76112">
        <ele>232</ele>
        <time>2018-06-30T09:08:02Z</time>
      </trkpt>
      <trkpt lat="45.87238" lon="4.76103">
        <ele>232</ele>
        <time>2018-06-30T09:08:03Z</time>
      </trkpt>
      <trkpt lat="45.87237" lon="4.76095">
        <ele>231</ele>
        <time>2018-06-30T09:08:04Z</time>
      </trkpt>
      <trkpt lat="45.87236" lon="4.76086">
        <ele>231</ele>
        <time>2018-06-30T09:08:05Z</time>
      </trkpt>
      <trkpt lat="45.87237" lon="4.76077">
        <ele>230</ele>
        <time>2018-06-30T09:08:06Z</time>
      </trkpt>
      <trkpt lat="45.87236" lon="4.76066">
        <ele>230</ele>
        <time>2018-06-30T09:08:07Z</time>
      </trkpt>
      <trkpt lat="45.87236" lon="4.76057">
        <ele>230</ele>
        <time>2018-06-30T09:08:08Z</time>
      </trkpt>
      <trkpt lat="45.87236" lon="4.76048">
        <ele>230</ele>
        <time>2018-06-30T09:08:09Z</time>
      </trkpt>
      <trkpt lat="45.87235" lon="4.76039">
        <ele>230</ele>
        <time>2018-06-30T09:08:10Z</time>
      </trkpt>
      <trkpt lat="45.87234" lon="4.7603">
        <ele>230</ele>
        <time>2018-06-30T09:08:11Z</time>
      </trkpt>
      <trkpt lat="45.87234" lon="4.7602">
        <ele>230</ele>
        <time>2018-06-30T09:08:12Z</time>
      </trkpt>
      <trkpt lat="45.87234" lon="4.76011">
        <ele>229</ele>
        <time>2018-06-30T09:08:13Z</time>
      </trkpt>
      <trkpt lat="45.87233" lon="4.76001">
        <ele>229</ele>
        <time>2018-06-30T09:08:14Z</time>
      </trkpt>
      <trkpt lat="45.87233" lon="4.75991">
        <ele>228</ele>
        <time>2018-06-30T09:08:15Z</time>
      </trkpt>
      <trkpt lat="45.87231" lon="4.7598">
        <ele>228</ele>
        <time>2018-06-30T09:08:16Z</time>
      </trkpt>
      <trkpt lat="45.8723" lon="4.7597">
        <ele>228</ele>
        <time>2018-06-30T09:08:17Z</time>
      </trkpt>
      <trkpt lat="45.87228" lon="4.75959">
        <ele>228</ele>
        <time>2018-06-30T09:08:18Z</time>
      </trkpt>
      <trkpt lat="45.87227" lon="4.75948">
        <ele>228</ele>
        <time>2018-06-30T09:08:19Z</time>
      </trkpt>
      <trkpt lat="45.87226" lon="4.75937">
        <ele>228</ele>
        <time>2018-06-30T09:08:20Z</time>
      </trkpt>
      <trkpt lat="45.87227" lon="4.75927">
        <ele>228</ele>
        <time>2018-06-30T09:08:21Z</time>
      </trkpt>
      <trkpt lat="45.87226" lon="4.75916">
        <ele>227</ele>
        <time>2018-06-30T09:08:22Z</time>
      </trkpt>
      <trkpt lat="45.87225" lon="4.75905">
        <ele>227</ele>
        <time>2018-06-30T09:08:23Z</time>
      </trkpt>
      <trkpt lat="45.87224" lon="4.75893">
        <ele>227</ele>
        <time>2018-06-30T09:08:24Z</time>
      </trkpt>
      <trkpt lat="45.87222" lon="4.75882">
        <ele>226</ele>
        <time>2018-06-30T09:08:25Z</time>
      </trkpt>
      <trkpt lat="45.87221" lon="4.7587">
        <ele>226</ele>
        <time>2018-06-30T09:08:26Z</time>
      </trkpt>
      <trkpt lat="45.8722" lon="4.75859">
        <ele>226</ele>
        <time>2018-06-30T09:08:27Z</time>
      </trkpt>
      <trkpt lat="45.87218" lon="4.75847">
        <ele>226</ele>
        <time>2018-06-30T09:08:28Z</time>
      </trkpt>
      <trkpt lat="45.87217" lon="4.75836">
        <ele>226</ele>
        <time>2018-06-30T09:08:29Z</time>
      </trkpt>
      <trkpt lat="45.87215" lon="4.75825">
        <ele>225</ele>
        <time>2018-06-30T09:08:30Z</time>
      </trkpt>
      <trkpt lat="45.87212" lon="4.75814">
        <ele>224</ele>
        <time>2018-06-30T09:08:31Z</time>
      </trkpt>
      <trkpt lat="45.87209" lon="4.75803">
        <ele>224</ele>
        <time>2018-06-30T09:08:32Z</time>
      </trkpt>
      <trkpt lat="45.87207" lon="4.75792">
        <ele>224</ele>
        <time>2018-06-30T09:08:33Z</time>
      </trkpt>
      <trkpt lat="45.87202" lon="4.75781">
        <ele>224</ele>
        <time>2018-06-30T09:08:34Z</time>
      </trkpt>
      <trkpt lat="45.87197" lon="4.7577">
        <ele>224</ele>
        <time>2018-06-30T09:08:35Z</time>
      </trkpt>
      <trkpt lat="45.87193" lon="4.75759">
        <ele>224</ele>
        <time>2018-06-30T09:08:36Z</time>
      </trkpt>
      <trkpt lat="45.87191" lon="4.75749">
        <ele>223</ele>
        <time>2018-06-30T09:08:37Z</time>
      </trkpt>
      <trkpt lat="45.87188" lon="4.7574">
        <ele>223</ele>
        <time>2018-06-30T09:08:38Z</time>
      </trkpt>
      <trkpt lat="45.87184" lon="4.7573">
        <ele>223</ele>
        <time>2018-06-30T09:08:39Z</time>
      </trkpt>
      <trkpt lat="45.87182" lon="4.75721">
        <ele>223</ele>
        <time>2018-06-30T09:08:40Z</time>
      </trkpt>
      <trkpt lat="45.8718" lon="4.75712">
        <ele>223</ele>
        <time>2018-06-30T09:08:41Z</time>
      </trkpt>
      <trkpt lat="45.87179" lon="4.75703">
        <ele>223</ele>
        <time>2018-06-30T09:08:42Z</time>
      </trkpt>
      <trkpt lat="45.87177" lon="4.75695">
        <ele>223</ele>
        <time>2018-06-30T09:08:43Z</time>
      </trkpt>
      <trkpt lat="45.87176" lon="4.75686">
        <ele>223</ele>
        <time>2018-06-30T09:08:44Z</time>
      </trkpt>
      <trkpt lat="45.87175" lon="4.75679">
        <ele>223</ele>
        <time>2018-06-30T09:08:45Z</time>
      </trkpt>
      <trkpt lat="45.87174" lon="4.75671">
        <ele>223</ele>
        <time>2018-06-30T09:08:46Z</time>
      </trkpt>
      <trkpt lat="45.87176" lon="4.75662">
        <ele>223</ele>
        <time>2018-06-30T09:08:47Z</time>
      </trkpt>
      <trkpt lat="45.87176" lon="4.75653">
        <ele>222</ele>
        <time>2018-06-30T09:08:48Z</time>
      </trkpt>
      <trkpt lat="45.87176" lon="4.75644">
        <ele>222</ele>
        <time>2018-06-30T09:08:49Z</time>
      </trkpt>
      <trkpt lat="45.87175" lon="4.75634">
        <ele>222</ele>
        <time>2018-06-30T09:08:50Z</time>
      </trkpt>
      <trkpt lat="45.87175" lon="4.75625">
        <ele>222</ele>
        <time>2018-06-30T09:08:51Z</time>
      </trkpt>
      <trkpt lat="45.87176" lon="4.75615">
        <ele>222</ele>
        <time>2018-06-30T09:08:52Z</time>
      </trkpt>
      <trkpt lat="45.87175" lon="4.75607">
        <ele>222</ele>
        <time>2018-06-30T09:08:53Z</time>
      </trkpt>
      <trkpt lat="45.87175" lon="4.75598">
        <ele>222</ele>
        <time>2018-06-30T09:08:54Z</time>
      </trkpt>
      <trkpt lat="45.87177" lon="4.75591">
        <ele>222</ele>
        <time>2018-06-30T09:08:55Z</time>
      </trkpt>
      <trkpt lat="45.87176" lon="4.75582">
        <ele>223</ele>
        <time>2018-06-30T09:08:56Z</time>
      </trkpt>
      <trkpt lat="45.87176" lon="4.75573">
        <ele>222</ele>
        <time>2018-06-30T09:08:57Z</time>
      </trkpt>
      <trkpt lat="45.87178" lon="4.75563">
        <ele>222</ele>
        <time>2018-06-30T09:08:58Z</time>
      </trkpt>
      <trkpt lat="45.87178" lon="4.75554">
        <ele>222</ele>
        <time>2018-06-30T09:08:59Z</time>
      </trkpt>
      <trkpt lat="45.87178" lon="4.75545">
        <ele>222</ele>
        <time>2018-06-30T09:09:00Z</time>
      </trkpt>
      <trkpt lat="45.87178" lon="4.75536">
        <ele>222</ele>
        <time>2018-06-30T09:09:01Z</time>
      </trkpt>
      <trkpt lat="45.87178" lon="4.75527">
        <ele>222</ele>
        <time>2018-06-30T09:09:02Z</time>
      </trkpt>
      <trkpt lat="45.87178" lon="4.75518">
        <ele>222</ele>
        <time>2018-06-30T09:09:03Z</time>
      </trkpt>
      <trkpt lat="45.87178" lon="4.75509">
        <ele>222</ele>
        <time>2018-06-30T09:09:04Z</time>
      </trkpt>
      <trkpt lat="45.87179" lon="4.75501">
        <ele>223</ele>
        <time>2018-06-30T09:09:05Z</time>
      </trkpt>
      <trkpt lat="45.87179" lon="4.75492">
        <ele>223</ele>
        <time>2018-06-30T09:09:06Z</time>
      </trkpt>
      <trkpt lat="45.87183" lon="4.75485">
        <ele>222</ele>
        <time>2018-06-30T09:09:07Z</time>
      </trkpt>
      <trkpt lat="45.87183" lon="4.75476">
        <ele>222</ele>
        <time>2018-06-30T09:09:08Z</time>
      </trkpt>
      <trkpt lat="45.87181" lon="4.75468">
        <ele>222</ele>
        <time>2018-06-30T09:09:09Z</time>
      </trkpt>
      <trkpt lat="45.87181" lon="4.75459">
        <ele>222</ele>
        <time>2018-06-30T09:09:10Z</time>
      </trkpt>
      <trkpt lat="45.8718" lon="4.7545">
        <ele>222</ele>
        <time>2018-06-30T09:09:11Z</time>
      </trkpt>
      <trkpt lat="45.8718" lon="4.75441">
        <ele>222</ele>
        <time>2018-06-30T09:09:12Z</time>
      </trkpt>
      <trkpt lat="45.87178" lon="4.75432">
        <ele>222</ele>
        <time>2018-06-30T09:09:13Z</time>
      </trkpt>
      <trkpt lat="45.8718" lon="4.75424">
        <ele>223</ele>
        <time>2018-06-30T09:09:14Z</time>
      </trkpt>
      <trkpt lat="45.87179" lon="4.75415">
        <ele>223</ele>
        <time>2018-06-30T09:09:15Z</time>
      </trkpt>
      <trkpt lat="45.87177" lon="4.75406">
        <ele>223</ele>
        <time>2018-06-30T09:09:16Z</time>
      </trkpt>
      <trkpt lat="45.87177" lon="4.75396">
        <ele>223</ele>
        <time>2018-06-30T09:09:17Z</time>
      </trkpt>
      <trkpt lat="45.87176" lon="4.75387">
        <ele>223</ele>
        <time>2018-06-30T09:09:18Z</time>
      </trkpt>
      <trkpt lat="45.87174" lon="4.75378">
        <ele>223</ele>
        <time>2018-06-30T09:09:19Z</time>
      </trkpt>
      <trkpt lat="45.87173" lon="4.75371">
        <ele>223</ele>
        <time>2018-06-30T09:09:20Z</time>
      </trkpt>
      <trkpt lat="45.87172" lon="4.75363">
        <ele>223</ele>
        <time>2018-06-30T09:09:21Z</time>
      </trkpt>
      <trkpt lat="45.87172" lon="4.75356">
        <ele>223</ele>
        <time>2018-06-30T09:09:22Z</time>
      </trkpt>
      <trkpt lat="45.87171" lon="4.75349">
        <ele>223</ele>
        <time>2018-06-30T09:09:23Z</time>
      </trkpt>
      <trkpt lat="45.87171" lon="4.75342">
        <ele>224</ele>
        <time>2018-06-30T09:09:24Z</time>
      </trkpt>
      <trkpt lat="45.87171" lon="4.75335">
        <ele>224</ele>
        <time>2018-06-30T09:09:25Z</time>
      </trkpt>
      <trkpt lat="45.8717" lon="4.75328">
        <ele>224</ele>
        <time>2018-06-30T09:09:26Z</time>
      </trkpt>
      <trkpt lat="45.87167" lon="4.75322">
        <ele>224</ele>
        <time>2018-06-30T09:09:27Z</time>
      </trkpt>
      <trkpt lat="45.87167" lon="4.75314">
        <ele>224</ele>
        <time>2018-06-30T09:09:28Z</time>
      </trkpt>
      <trkpt lat="45.87166" lon="4.75306">
        <ele>224</ele>
        <time>2018-06-30T09:09:29Z</time>
      </trkpt>
      <trkpt lat="45.87166" lon="4.75299">
        <ele>224</ele>
        <time>2018-06-30T09:09:30Z</time>
      </trkpt>
      <trkpt lat="45.87164" lon="4.75292">
        <ele>224</ele>
        <time>2018-06-30T09:09:31Z</time>
      </trkpt>
      <trkpt lat="45.87163" lon="4.75284">
        <ele>224</ele>
        <time>2018-06-30T09:09:32Z</time>
      </trkpt>
      <trkpt lat="45.87163" lon="4.75277">
        <ele>224</ele>
        <time>2018-06-30T09:09:33Z</time>
      </trkpt>
      <trkpt lat="45.87162" lon="4.75269">
        <ele>224</ele>
        <time>2018-06-30T09:09:34Z</time>
      </trkpt>
      <trkpt lat="45.87161" lon="4.7526">
        <ele>224</ele>
        <time>2018-06-30T09:09:35Z</time>
      </trkpt>
      <trkpt lat="45.8716" lon="4.75253">
        <ele>224</ele>
        <time>2018-06-30T09:09:36Z</time>
      </trkpt>
      <trkpt lat="45.87158" lon="4.75245">
        <ele>224</ele>
        <time>2018-06-30T09:09:37Z</time>
      </trkpt>
      <trkpt lat="45.87156" lon="4.75237">
        <ele>224</ele>
        <time>2018-06-30T09:09:38Z</time>
      </trkpt>
      <trkpt lat="45.87154" lon="4.75228">
        <ele>224</ele>
        <time>2018-06-30T09:09:39Z</time>
      </trkpt>
      <trkpt lat="45.87153" lon="4.75221">
        <ele>225</ele>
        <time>2018-06-30T09:09:40Z</time>
      </trkpt>
      <trkpt lat="45.87151" lon="4.75212">
        <ele>225</ele>
        <time>2018-06-30T09:09:41Z</time>
      </trkpt>
      <trkpt lat="45.87149" lon="4.75204">
        <ele>225</ele>
        <time>2018-06-30T09:09:42Z</time>
      </trkpt>
      <trkpt lat="45.87146" lon="4.75196">
        <ele>225</ele>
        <time>2018-06-30T09:09:43Z</time>
      </trkpt>
      <trkpt lat="45.87146" lon="4.75188">
        <ele>225</ele>
        <time>2018-06-30T09:09:44Z</time>
      </trkpt>
      <trkpt lat="45.87145" lon="4.7518">
        <ele>225</ele>
        <time>2018-06-30T09:09:45Z</time>
      </trkpt>
      <trkpt lat="45.87143" lon="4.75173">
        <ele>225</ele>
        <time>2018-06-30T09:09:46Z</time>
      </trkpt>
      <trkpt lat="45.8714" lon="4.75166">
        <ele>225</ele>
        <time>2018-06-30T09:09:47Z</time>
      </trkpt>
      <trkpt lat="45.87139" lon="4.75159">
        <ele>225</ele>
        <time>2018-06-30T09:09:48Z</time>
      </trkpt>
      <trkpt lat="45.87137" lon="4.75152">
        <ele>225</ele>
        <time>2018-06-30T09:09:49Z</time>
      </trkpt>
      <trkpt lat="45.87136" lon="4.75145">
        <ele>225</ele>
        <time>2018-06-30T09:09:50Z</time>
      </trkpt>
      <trkpt lat="45.87134" lon="4.75137">
        <ele>225</ele>
        <time>2018-06-30T09:09:51Z</time>
      </trkpt>
      <trkpt lat="45.87134" lon="4.75129">
        <ele>225</ele>
        <time>2018-06-30T09:09:52Z</time>
      </trkpt>
      <trkpt lat="45.87133" lon="4.75122">
        <ele>225</ele>
        <time>2018-06-30T09:09:53Z</time>
      </trkpt>
      <trkpt lat="45.87131" lon="4.75115">
        <ele>225</ele>
        <time>2018-06-30T09:09:54Z</time>
      </trkpt>
      <trkpt lat="45.87129" lon="4.75107">
        <ele>225</ele>
        <time>2018-06-30T09:09:55Z</time>
      </trkpt>
      <trkpt lat="45.87127" lon="4.75099">
        <ele>225</ele>
        <time>2018-06-30T09:09:56Z</time>
      </trkpt>
      <trkpt lat="45.87126" lon="4.75091">
        <ele>225</ele>
        <time>2018-06-30T09:09:57Z</time>
      </trkpt>
      <trkpt lat="45.87125" lon="4.75084">
        <ele>225</ele>
        <time>2018-06-30T09:09:58Z</time>
      </trkpt>
      <trkpt lat="45.87124" lon="4.75076">
        <ele>225</ele>
        <time>2018-06-30T09:09:59Z</time>
      </trkpt>
      <trkpt lat="45.87126" lon="4.75069">
        <ele>225</ele>
        <time>2018-06-30T09:10:00Z</time>
      </trkpt>
      <trkpt lat="45.87125" lon="4.75061">
        <ele>225</ele>
        <time>2018-06-30T09:10:01Z</time>
      </trkpt>
      <trkpt lat="45.87124" lon="4.75054">
        <ele>225</ele>
        <time>2018-06-30T09:10:02Z</time>
      </trkpt>
      <trkpt lat="45.87124" lon="4.75046">
        <ele>225</ele>
        <time>2018-06-30T09:10:03Z</time>
      </trkpt>
      <trkpt lat="45.87123" lon="4.75039">
        <ele>226</ele>
        <time>2018-06-30T09:10:04Z</time>
      </trkpt>
      <trkpt lat="45.87121" lon="4.75031">
        <ele>226</ele>
        <time>2018-06-30T09:10:05Z</time>
      </trkpt>
      <trkpt lat="45.87121" lon="4.75024">
        <ele>226</ele>
        <time>2018-06-30T09:10:06Z</time>
      </trkpt>
      <trkpt lat="45.87121" lon="4.75017">
        <ele>226</ele>
        <time>2018-06-30T09:10:07Z</time>
      </trkpt>
      <trkpt lat="45.87121" lon="4.75009">
        <ele>226</ele>
        <time>2018-06-30T09:10:08Z</time>
      </trkpt>
      <trkpt lat="45.87121" lon="4.75002">
        <ele>226</ele>
        <time>2018-06-30T09:10:09Z</time>
      </trkpt>
      <trkpt lat="45.8712" lon="4.74995">
        <ele>226</ele>
        <time>2018-06-30T09:10:10Z</time>
      </trkpt>
      <trkpt lat="45.8712" lon="4.74988">
        <ele>226</ele>
        <time>2018-06-30T09:10:11Z</time>
      </trkpt>
      <trkpt lat="45.87121" lon="4.74981">
        <ele>226</ele>
        <time>2018-06-30T09:10:12Z</time>
      </trkpt>
      <trkpt lat="45.87123" lon="4.74974">
        <ele>226</ele>
        <time>2018-06-30T09:10:13Z</time>
      </trkpt>
      <trkpt lat="45.87124" lon="4.74968">
        <ele>226</ele>
        <time>2018-06-30T09:10:14Z</time>
      </trkpt>
      <trkpt lat="45.87125" lon="4.74961">
        <ele>226</ele>
        <time>2018-06-30T09:10:15Z</time>
      </trkpt>
      <trkpt lat="45.87128" lon="4.74951">
        <ele>226</ele>
        <time>2018-06-30T09:10:18Z</time>
      </trkpt>
      <trkpt lat="45.87129" lon="4.74948">
        <ele>226</ele>
        <time>2018-06-30T09:10:19Z</time>
      </trkpt>
      <trkpt lat="45.87135" lon="4.74942">
        <ele>226</ele>
        <time>2018-06-30T09:10:20Z</time>
      </trkpt>
      <trkpt lat="45.87138" lon="4.74938">
        <ele>226</ele>
        <time>2018-06-30T09:10:21Z</time>
      </trkpt>
      <trkpt lat="45.87141" lon="4.74932">
        <ele>226</ele>
        <time>2018-06-30T09:10:22Z</time>
      </trkpt>
      <trkpt lat="45.87142" lon="4.74925">
        <ele>226</ele>
        <time>2018-06-30T09:10:23Z</time>
      </trkpt>
      <trkpt lat="45.87141" lon="4.74918">
        <ele>226</ele>
        <time>2018-06-30T09:10:24Z</time>
      </trkpt>
      <trkpt lat="45.8714" lon="4.74911">
        <ele>225</ele>
        <time>2018-06-30T09:10:25Z</time>
      </trkpt>
      <trkpt lat="45.87137" lon="4.74904">
        <ele>225</ele>
        <time>2018-06-30T09:10:26Z</time>
      </trkpt>
      <trkpt lat="45.87134" lon="4.74898">
        <ele>225</ele>
        <time>2018-06-30T09:10:27Z</time>
      </trkpt>
      <trkpt lat="45.87132" lon="4.74892">
        <ele>225</ele>
        <time>2018-06-30T09:10:28Z</time>
      </trkpt>
      <trkpt lat="45.8713" lon="4.74884">
        <ele>225</ele>
        <time>2018-06-30T09:10:29Z</time>
      </trkpt>
      <trkpt lat="45.87128" lon="4.74876">
        <ele>225</ele>
        <time>2018-06-30T09:10:30Z</time>
      </trkpt>
      <trkpt lat="45.87128" lon="4.74868">
        <ele>225</ele>
        <time>2018-06-30T09:10:31Z</time>
      </trkpt>
      <trkpt lat="45.87129" lon="4.7486">
        <ele>225</ele>
        <time>2018-06-30T09:10:32Z</time>
      </trkpt>
      <trkpt lat="45.87129" lon="4.74853">
        <ele>224</ele>
        <time>2018-06-30T09:10:33Z</time>
      </trkpt>
      <trkpt lat="45.8713" lon="4.74844">
        <ele>224</ele>
        <time>2018-06-30T09:10:34Z</time>
      </trkpt>
      <trkpt lat="45.87129" lon="4.74834">
        <ele>224</ele>
        <time>2018-06-30T09:10:35Z</time>
      </trkpt>
      <trkpt lat="45.87129" lon="4.74826">
        <ele>223</ele>
        <time>2018-06-30T09:10:36Z</time>
      </trkpt>
      <trkpt lat="45.87129" lon="4.74816">
        <ele>223</ele>
        <time>2018-06-30T09:10:37Z</time>
      </trkpt>
      <trkpt lat="45.87129" lon="4.74806">
        <ele>222</ele>
        <time>2018-06-30T09:10:38Z</time>
      </trkpt>
      <trkpt lat="45.87131" lon="4.74796">
        <ele>222</ele>
        <time>2018-06-30T09:10:39Z</time>
      </trkpt>
      <trkpt lat="45.87131" lon="4.74788">
        <ele>222</ele>
        <time>2018-06-30T09:10:40Z</time>
      </trkpt>
      <trkpt lat="45.87129" lon="4.74779">
        <ele>222</ele>
        <time>2018-06-30T09:10:41Z</time>
      </trkpt>
      <trkpt lat="45.87129" lon="4.7477">
        <ele>222</ele>
        <time>2018-06-30T09:10:42Z</time>
      </trkpt>
      <trkpt lat="45.87126" lon="4.7476">
        <ele>222</ele>
        <time>2018-06-30T09:10:43Z</time>
      </trkpt>
      <trkpt lat="45.87125" lon="4.7475">
        <ele>221</ele>
        <time>2018-06-30T09:10:44Z</time>
      </trkpt>
      <trkpt lat="45.87125" lon="4.7474">
        <ele>221</ele>
        <time>2018-06-30T09:10:45Z</time>
      </trkpt>
      <trkpt lat="45.87124" lon="4.7473">
        <ele>221</ele>
        <time>2018-06-30T09:10:46Z</time>
      </trkpt>
      <trkpt lat="45.87123" lon="4.74722">
        <ele>221</ele>
        <time>2018-06-30T09:10:47Z</time>
      </trkpt>
      <trkpt lat="45.87124" lon="4.74712">
        <ele>221</ele>
        <time>2018-06-30T09:10:48Z</time>
      </trkpt>
      <trkpt lat="45.87123" lon="4.74702">
        <ele>221</ele>
        <time>2018-06-30T09:10:49Z</time>
      </trkpt>
      <trkpt lat="45.87123" lon="4.74693">
        <ele>221</ele>
        <time>2018-06-30T09:10:50Z</time>
      </trkpt>
      <trkpt lat="45.87123" lon="4.74683">
        <ele>221</ele>
        <time>2018-06-30T09:10:51Z</time>
      </trkpt>
      <trkpt lat="45.87123" lon="4.74674">
        <ele>221</ele>
        <time>2018-06-30T09:10:52Z</time>
      </trkpt>
      <trkpt lat="45.87123" lon="4.74664">
        <ele>222</ele>
        <time>2018-06-30T09:10:53Z</time>
      </trkpt>
      <trkpt lat="45.87122" lon="4.74653">
        <ele>222</ele>
        <time>2018-06-30T09:10:54Z</time>
      </trkpt>
      <trkpt lat="45.87122" lon="4.74643">
        <ele>222</ele>
        <time>2018-06-30T09:10:55Z</time>
      </trkpt>
      <trkpt lat="45.87121" lon="4.74633">
        <ele>222</ele>
        <time>2018-06-30T09:10:56Z</time>
      </trkpt>
      <trkpt lat="45.8712" lon="4.74624">
        <ele>222</ele>
        <time>2018-06-30T09:10:57Z</time>
      </trkpt>
      <trkpt lat="45.87119" lon="4.74614">
        <ele>222</ele>
        <time>2018-06-30T09:10:58Z</time>
      </trkpt>
      <trkpt lat="45.87118" lon="4.74603">
        <ele>222</ele>
        <time>2018-06-30T09:10:59Z</time>
      </trkpt>
      <trkpt lat="45.87117" lon="4.74593">
        <ele>222</ele>
        <time>2018-06-30T09:11:00Z</time>
      </trkpt>
      <trkpt lat="45.87115" lon="4.74583">
        <ele>221</ele>
        <time>2018-06-30T09:11:01Z</time>
      </trkpt>
      <trkpt lat="45.87114" lon="4.74574">
        <ele>220</ele>
        <time>2018-06-30T09:11:02Z</time>
      </trkpt>
      <trkpt lat="45.87111" lon="4.74566">
        <ele>220</ele>
        <time>2018-06-30T09:11:03Z</time>
      </trkpt>
      <trkpt lat="45.87109" lon="4.7456">
        <ele>220</ele>
        <time>2018-06-30T09:11:04Z</time>
      </trkpt>
      <trkpt lat="45.87107" lon="4.74553">
        <ele>220</ele>
        <time>2018-06-30T09:11:05Z</time>
      </trkpt>
      <trkpt lat="45.87105" lon="4.74543">
        <ele>220</ele>
        <time>2018-06-30T09:11:07Z</time>
      </trkpt>
      <trkpt lat="45.87107" lon="4.74538">
        <ele>220</ele>
        <time>2018-06-30T09:11:08Z</time>
      </trkpt>
      <trkpt lat="45.87112" lon="4.74528">
        <ele>220</ele>
        <time>2018-06-30T09:11:10Z</time>
      </trkpt>
      <trkpt lat="45.87114" lon="4.74523">
        <ele>219</ele>
        <time>2018-06-30T09:11:11Z</time>
      </trkpt>
      <trkpt lat="45.87117" lon="4.74511">
        <ele>219</ele>
        <time>2018-06-30T09:11:13Z</time>
      </trkpt>
      <trkpt lat="45.87117" lon="4.74503">
        <ele>219</ele>
        <time>2018-06-30T09:11:14Z</time>
      </trkpt>
      <trkpt lat="45.87115" lon="4.74494">
        <ele>218</ele>
        <time>2018-06-30T09:11:15Z</time>
      </trkpt>
      <trkpt lat="45.87113" lon="4.74485">
        <ele>218</ele>
        <time>2018-06-30T09:11:16Z</time>
      </trkpt>
      <trkpt lat="45.87111" lon="4.74476">
        <ele>218</ele>
        <time>2018-06-30T09:11:17Z</time>
      </trkpt>
      <trkpt lat="45.87108" lon="4.74468">
        <ele>218</ele>
        <time>2018-06-30T09:11:18Z</time>
      </trkpt>
      <trkpt lat="45.87107" lon="4.74458">
        <ele>218</ele>
        <time>2018-06-30T09:11:19Z</time>
      </trkpt>
      <trkpt lat="45.87105" lon="4.7445">
        <ele>218</ele>
        <time>2018-06-30T09:11:20Z</time>
      </trkpt>
      <trkpt lat="45.87103" lon="4.74442">
        <ele>218</ele>
        <time>2018-06-30T09:11:21Z</time>
      </trkpt>
      <trkpt lat="45.87101" lon="4.74433">
        <ele>218</ele>
        <time>2018-06-30T09:11:22Z</time>
      </trkpt>
      <trkpt lat="45.87099" lon="4.74425">
        <ele>218</ele>
        <time>2018-06-30T09:11:23Z</time>
      </trkpt>
      <trkpt lat="45.87097" lon="4.74416">
        <ele>218</ele>
        <time>2018-06-30T09:11:24Z</time>
      </trkpt>
      <trkpt lat="45.87096" lon="4.74408">
        <ele>218</ele>
        <time>2018-06-30T09:11:25Z</time>
      </trkpt>
      <trkpt lat="45.87095" lon="4.744">
        <ele>218</ele>
        <time>2018-06-30T09:11:26Z</time>
      </trkpt>
      <trkpt lat="45.87094" lon="4.74393">
        <ele>218</ele>
        <time>2018-06-30T09:11:27Z</time>
      </trkpt>
      <trkpt lat="45.87091" lon="4.74386">
        <ele>218</ele>
        <time>2018-06-30T09:11:28Z</time>
      </trkpt>
      <trkpt lat="45.8709" lon="4.74378">
        <ele>218</ele>
        <time>2018-06-30T09:11:29Z</time>
      </trkpt>
      <trkpt lat="45.87088" lon="4.7437">
        <ele>218</ele>
        <time>2018-06-30T09:11:30Z</time>
      </trkpt>
      <trkpt lat="45.87086" lon="4.74362">
        <ele>218</ele>
        <time>2018-06-30T09:11:31Z</time>
      </trkpt>
      <trkpt lat="45.87085" lon="4.74355">
        <ele>218</ele>
        <time>2018-06-30T09:11:32Z</time>
      </trkpt>
      <trkpt lat="45.87085" lon="4.74348">
        <ele>218</ele>
        <time>2018-06-30T09:11:33Z</time>
      </trkpt>
      <trkpt lat="45.87084" lon="4.74339">
        <ele>219</ele>
        <time>2018-06-30T09:11:34Z</time>
      </trkpt>
      <trkpt lat="45.87082" lon="4.74329">
        <ele>219</ele>
        <time>2018-06-30T09:11:35Z</time>
      </trkpt>
      <trkpt lat="45.8708" lon="4.7432">
        <ele>218</ele>
        <time>2018-06-30T09:11:36Z</time>
      </trkpt>
      <trkpt lat="45.87079" lon="4.74311">
        <ele>218</ele>
        <time>2018-06-30T09:11:37Z</time>
      </trkpt>
      <trkpt lat="45.87077" lon="4.74301">
        <ele>218</ele>
        <time>2018-06-30T09:11:38Z</time>
      </trkpt>
      <trkpt lat="45.87077" lon="4.7429">
        <ele>217</ele>
        <time>2018-06-30T09:11:39Z</time>
      </trkpt>
      <trkpt lat="45.87075" lon="4.7428">
        <ele>217</ele>
        <time>2018-06-30T09:11:40Z</time>
      </trkpt>
      <trkpt lat="45.87076" lon="4.7427">
        <ele>216</ele>
        <time>2018-06-30T09:11:41Z</time>
      </trkpt>
      <trkpt lat="45.87075" lon="4.7426">
        <ele>216</ele>
        <time>2018-06-30T09:11:42Z</time>
      </trkpt>
      <trkpt lat="45.87074" lon="4.7425">
        <ele>215</ele>
        <time>2018-06-30T09:11:43Z</time>
      </trkpt>
      <trkpt lat="45.87076" lon="4.7424">
        <ele>214</ele>
        <time>2018-06-30T09:11:44Z</time>
      </trkpt>
      <trkpt lat="45.87076" lon="4.74229">
        <ele>214</ele>
        <time>2018-06-30T09:11:45Z</time>
      </trkpt>
      <trkpt lat="45.87075" lon="4.74218">
        <ele>214</ele>
        <time>2018-06-30T09:11:46Z</time>
      </trkpt>
      <trkpt lat="45.87075" lon="4.74207">
        <ele>213</ele>
        <time>2018-06-30T09:11:47Z</time>
      </trkpt>
      <trkpt lat="45.87074" lon="4.74195">
        <ele>213</ele>
        <time>2018-06-30T09:11:48Z</time>
      </trkpt>
      <trkpt lat="45.87074" lon="4.74184">
        <ele>213</ele>
        <time>2018-06-30T09:11:49Z</time>
      </trkpt>
      <trkpt lat="45.87073" lon="4.74173">
        <ele>212</ele>
        <time>2018-06-30T09:11:50Z</time>
      </trkpt>
      <trkpt lat="45.8707" lon="4.7416">
        <ele>212</ele>
        <time>2018-06-30T09:11:51Z</time>
      </trkpt>
      <trkpt lat="45.87071" lon="4.7415">
        <ele>212</ele>
        <time>2018-06-30T09:11:52Z</time>
      </trkpt>
      <trkpt lat="45.87068" lon="4.7414">
        <ele>212</ele>
        <time>2018-06-30T09:11:53Z</time>
      </trkpt>
      <trkpt lat="45.8707" lon="4.7413">
        <ele>212</ele>
        <time>2018-06-30T09:11:54Z</time>
      </trkpt>
      <trkpt lat="45.8707" lon="4.74122">
        <ele>212</ele>
        <time>2018-06-30T09:11:55Z</time>
      </trkpt>
      <trkpt lat="45.8707" lon="4.74114">
        <ele>212</ele>
        <time>2018-06-30T09:11:56Z</time>
      </trkpt>
      <trkpt lat="45.87069" lon="4.74104">
        <ele>212</ele>
        <time>2018-06-30T09:11:57Z</time>
      </trkpt>
      <trkpt lat="45.87068" lon="4.74097">
        <ele>212</ele>
        <time>2018-06-30T09:11:58Z</time>
      </trkpt>
      <trkpt lat="45.87069" lon="4.74087">
        <ele>212</ele>
        <time>2018-06-30T09:11:59Z</time>
      </trkpt>
      <trkpt lat="45.87069" lon="4.7408">
        <ele>213</ele>
        <time>2018-06-30T09:12:00Z</time>
      </trkpt>
      <trkpt lat="45.87068" lon="4.74072">
        <ele>214</ele>
        <time>2018-06-30T09:12:01Z</time>
      </trkpt>
      <trkpt lat="45.8707" lon="4.74064">
        <ele>214</ele>
        <time>2018-06-30T09:12:02Z</time>
      </trkpt>
      <trkpt lat="45.8707" lon="4.74056">
        <ele>214</ele>
        <time>2018-06-30T09:12:03Z</time>
      </trkpt>
      <trkpt lat="45.87071" lon="4.7405">
        <ele>214</ele>
        <time>2018-06-30T09:12:04Z</time>
      </trkpt>
      <trkpt lat="45.87071" lon="4.74043">
        <ele>215</ele>
        <time>2018-06-30T09:12:05Z</time>
      </trkpt>
      <trkpt lat="45.87071" lon="4.74035">
        <ele>215</ele>
        <time>2018-06-30T09:12:06Z</time>
      </trkpt>
      <trkpt lat="45.87071" lon="4.74028">
        <ele>215</ele>
        <time>2018-06-30T09:12:07Z</time>
      </trkpt>
      <trkpt lat="45.87071" lon="4.74021">
        <ele>215</ele>
        <time>2018-06-30T09:12:08Z</time>
      </trkpt>
      <trkpt lat="45.87072" lon="4.74012">
        <ele>216</ele>
        <time>2018-06-30T09:12:09Z</time>
      </trkpt>
      <trkpt lat="45.87072" lon="4.74004">
        <ele>216</ele>
        <time>2018-06-30T09:12:10Z</time>
      </trkpt>
      <trkpt lat="45.87071" lon="4.73997">
        <ele>217</ele>
        <time>2018-06-30T09:12:11Z</time>
      </trkpt>
      <trkpt lat="45.87071" lon="4.73989">
        <ele>217</ele>
        <time>2018-06-30T09:12:12Z</time>
      </trkpt>
      <trkpt lat="45.87074" lon="4.73981">
        <ele>217</ele>
        <time>2018-06-30T09:12:13Z</time>
      </trkpt>
      <trkpt lat="45.87074" lon="4.73974">
        <ele>217</ele>
        <time>2018-06-30T09:12:14Z</time>
      </trkpt>
      <trkpt lat="45.87073" lon="4.73967">
        <ele>217</ele>
        <time>2018-06-30T09:12:15Z</time>
      </trkpt>
      <trkpt lat="45.87072" lon="4.73954">
        <ele>218</ele>
        <time>2018-06-30T09:12:17Z</time>
      </trkpt>
      <trkpt lat="45.87073" lon="4.73948">
        <ele>218</ele>
        <time>2018-06-30T09:12:18Z</time>
      </trkpt>
      <trkpt lat="45.87072" lon="4.73941">
        <ele>218</ele>
        <time>2018-06-30T09:12:19Z</time>
      </trkpt>
      <trkpt lat="45.87072" lon="4.73935">
        <ele>218</ele>
        <time>2018-06-30T09:12:20Z</time>
      </trkpt>
      <trkpt lat="45.87072" lon="4.73929">
        <ele>218</ele>
        <time>2018-06-30T09:12:21Z</time>
      </trkpt>
      <trkpt lat="45.87072" lon="4.73921">
        <ele>218</ele>
        <time>2018-06-30T09:12:22Z</time>
      </trkpt>
      <trkpt lat="45.87073" lon="4.73914">
        <ele>218</ele>
        <time>2018-06-30T09:12:23Z</time>
      </trkpt>
      <trkpt lat="45.87073" lon="4.73906">
        <ele>218</ele>
        <time>2018-06-30T09:12:24Z</time>
      </trkpt>
      <trkpt lat="45.87073" lon="4.73899">
        <ele>218</ele>
        <time>2018-06-30T09:12:25Z</time>
      </trkpt>
      <trkpt lat="45.87072" lon="4.73891">
        <ele>218</ele>
        <time>2018-06-30T09:12:26Z</time>
      </trkpt>
      <trkpt lat="45.87071" lon="4.73883">
        <ele>218</ele>
        <time>2018-06-30T09:12:27Z</time>
      </trkpt>
      <trkpt lat="45.87071" lon="4.73873">
        <ele>218</ele>
        <time>2018-06-30T09:12:28Z</time>
      </trkpt>
      <trkpt lat="45.87072" lon="4.73864">
        <ele>218</ele>
        <time>2018-06-30T09:12:29Z</time>
      </trkpt>
      <trkpt lat="45.87071" lon="4.73856">
        <ele>218</ele>
        <time>2018-06-30T09:12:30Z</time>
      </trkpt>
      <trkpt lat="45.87072" lon="4.73847">
        <ele>218</ele>
        <time>2018-06-30T09:12:31Z</time>
      </trkpt>
      <trkpt lat="45.87072" lon="4.73838">
        <ele>217</ele>
        <time>2018-06-30T09:12:32Z</time>
      </trkpt>
      <trkpt lat="45.87072" lon="4.73829">
        <ele>217</ele>
        <time>2018-06-30T09:12:33Z</time>
      </trkpt>
      <trkpt lat="45.87071" lon="4.7382">
        <ele>217</ele>
        <time>2018-06-30T09:12:34Z</time>
      </trkpt>
      <trkpt lat="45.87071" lon="4.73811">
        <ele>217</ele>
        <time>2018-06-30T09:12:35Z</time>
      </trkpt>
      <trkpt lat="45.87071" lon="4.73802">
        <ele>217</ele>
        <time>2018-06-30T09:12:36Z</time>
      </trkpt>
      <trkpt lat="45.87072" lon="4.73791">
        <ele>217</ele>
        <time>2018-06-30T09:12:37Z</time>
      </trkpt>
      <trkpt lat="45.87072" lon="4.7378">
        <ele>217</ele>
        <time>2018-06-30T09:12:38Z</time>
      </trkpt>
      <trkpt lat="45.87073" lon="4.7377">
        <ele>217</ele>
        <time>2018-06-30T09:12:39Z</time>
      </trkpt>
      <trkpt lat="45.87074" lon="4.73761">
        <ele>216</ele>
        <time>2018-06-30T09:12:40Z</time>
      </trkpt>
      <trkpt lat="45.87075" lon="4.73751">
        <ele>216</ele>
        <time>2018-06-30T09:12:41Z</time>
      </trkpt>
      <trkpt lat="45.87075" lon="4.73741">
        <ele>216</ele>
        <time>2018-06-30T09:12:42Z</time>
      </trkpt>
      <trkpt lat="45.87076" lon="4.73733">
        <ele>216</ele>
        <time>2018-06-30T09:12:43Z</time>
      </trkpt>
      <trkpt lat="45.87077" lon="4.73723">
        <ele>217</ele>
        <time>2018-06-30T09:12:44Z</time>
      </trkpt>
      <trkpt lat="45.87077" lon="4.73716">
        <ele>217</ele>
        <time>2018-06-30T09:12:45Z</time>
      </trkpt>
      <trkpt lat="45.87079" lon="4.73707">
        <ele>217</ele>
        <time>2018-06-30T09:12:46Z</time>
      </trkpt>
      <trkpt lat="45.8708" lon="4.73698">
        <ele>217</ele>
        <time>2018-06-30T09:12:47Z</time>
      </trkpt>
      <trkpt lat="45.87081" lon="4.73688">
        <ele>217</ele>
        <time>2018-06-30T09:12:48Z</time>
      </trkpt>
      <trkpt lat="45.87081" lon="4.7368">
        <ele>217</ele>
        <time>2018-06-30T09:12:49Z</time>
      </trkpt>
      <trkpt lat="45.87082" lon="4.73672">
        <ele>216</ele>
        <time>2018-06-30T09:12:50Z</time>
      </trkpt>
      <trkpt lat="45.87083" lon="4.73662">
        <ele>216</ele>
        <time>2018-06-30T09:12:51Z</time>
      </trkpt>
      <trkpt lat="45.87083" lon="4.73651">
        <ele>216</ele>
        <time>2018-06-30T09:12:52Z</time>
      </trkpt>
      <trkpt lat="45.87085" lon="4.73641">
        <ele>214</ele>
        <time>2018-06-30T09:12:53Z</time>
      </trkpt>
      <trkpt lat="45.87087" lon="4.73631">
        <ele>214</ele>
        <time>2018-06-30T09:12:54Z</time>
      </trkpt>
      <trkpt lat="45.87088" lon="4.7362">
        <ele>214</ele>
        <time>2018-06-30T09:12:55Z</time>
      </trkpt>
      <trkpt lat="45.8709" lon="4.73609">
        <ele>214</ele>
        <time>2018-06-30T09:12:56Z</time>
      </trkpt>
      <trkpt lat="45.87092" lon="4.73599">
        <ele>214</ele>
        <time>2018-06-30T09:12:57Z</time>
      </trkpt>
      <trkpt lat="45.87092" lon="4.73588">
        <ele>214</ele>
        <time>2018-06-30T09:12:58Z</time>
      </trkpt>
      <trkpt lat="45.87094" lon="4.73577">
        <ele>214</ele>
        <time>2018-06-30T09:12:59Z</time>
      </trkpt>
      <trkpt lat="45.87095" lon="4.73566">
        <ele>213</ele>
        <time>2018-06-30T09:13:00Z</time>
      </trkpt>
      <trkpt lat="45.87097" lon="4.73556">
        <ele>213</ele>
        <time>2018-06-30T09:13:01Z</time>
      </trkpt>
      <trkpt lat="45.87098" lon="4.73545">
        <ele>213</ele>
        <time>2018-06-30T09:13:02Z</time>
      </trkpt>
      <trkpt lat="45.87098" lon="4.73535">
        <ele>213</ele>
        <time>2018-06-30T09:13:03Z</time>
      </trkpt>
      <trkpt lat="45.87099" lon="4.73524">
        <ele>213</ele>
        <time>2018-06-30T09:13:04Z</time>
      </trkpt>
      <trkpt lat="45.87099" lon="4.73514">
        <ele>213</ele>
        <time>2018-06-30T09:13:05Z</time>
      </trkpt>
      <trkpt lat="45.871" lon="4.73504">
        <ele>213</ele>
        <time>2018-06-30T09:13:06Z</time>
      </trkpt>
      <trkpt lat="45.871" lon="4.73492">
        <ele>213</ele>
        <time>2018-06-30T09:13:07Z</time>
      </trkpt>
      <trkpt lat="45.87101" lon="4.73481">
        <ele>212</ele>
        <time>2018-06-30T09:13:08Z</time>
      </trkpt>
      <trkpt lat="45.87101" lon="4.7347">
        <ele>212</ele>
        <time>2018-06-30T09:13:09Z</time>
      </trkpt>
      <trkpt lat="45.87102" lon="4.73459">
        <ele>212</ele>
        <time>2018-06-30T09:13:10Z</time>
      </trkpt>
      <trkpt lat="45.87103" lon="4.73448">
        <ele>212</ele>
        <time>2018-06-30T09:13:11Z</time>
      </trkpt>
      <trkpt lat="45.87104" lon="4.73437">
        <ele>212</ele>
        <time>2018-06-30T09:13:12Z</time>
      </trkpt>
      <trkpt lat="45.87104" lon="4.73425">
        <ele>212</ele>
        <time>2018-06-30T09:13:13Z</time>
      </trkpt>
      <trkpt lat="45.87105" lon="4.73413">
        <ele>212</ele>
        <time>2018-06-30T09:13:14Z</time>
      </trkpt>
      <trkpt lat="45.87105" lon="4.73402">
        <ele>212</ele>
        <time>2018-06-30T09:13:15Z</time>
      </trkpt>
      <trkpt lat="45.87105" lon="4.7339">
        <ele>211</ele>
        <time>2018-06-30T09:13:16Z</time>
      </trkpt>
      <trkpt lat="45.87106" lon="4.73379">
        <ele>211</ele>
        <time>2018-06-30T09:13:17Z</time>
      </trkpt>
      <trkpt lat="45.87106" lon="4.73367">
        <ele>211</ele>
        <time>2018-06-30T09:13:18Z</time>
      </trkpt>
      <trkpt lat="45.87107" lon="4.73355">
        <ele>211</ele>
        <time>2018-06-30T09:13:19Z</time>
      </trkpt>
      <trkpt lat="45.87109" lon="4.73343">
        <ele>211</ele>
        <time>2018-06-30T09:13:20Z</time>
      </trkpt>
      <trkpt lat="45.87109" lon="4.73331">
        <ele>209</ele>
        <time>2018-06-30T09:13:21Z</time>
      </trkpt>
      <trkpt lat="45.87111" lon="4.73319">
        <ele>209</ele>
        <time>2018-06-30T09:13:22Z</time>
      </trkpt>
      <trkpt lat="45.87114" lon="4.73307">
        <ele>209</ele>
        <time>2018-06-30T09:13:23Z</time>
      </trkpt>
      <trkpt lat="45.87116" lon="4.73295">
        <ele>208</ele>
        <time>2018-06-30T09:13:24Z</time>
      </trkpt>
      <trkpt lat="45.87118" lon="4.73283">
        <ele>208</ele>
        <time>2018-06-30T09:13:25Z</time>
      </trkpt>
      <trkpt lat="45.8712" lon="4.73273">
        <ele>208</ele>
        <time>2018-06-30T09:13:26Z</time>
      </trkpt>
      <trkpt lat="45.87124" lon="4.73261">
        <ele>208</ele>
        <time>2018-06-30T09:13:27Z</time>
      </trkpt>
      <trkpt lat="45.87123" lon="4.73248">
        <ele>207</ele>
        <time>2018-06-30T09:13:28Z</time>
      </trkpt>
      <trkpt lat="45.87127" lon="4.73235">
        <ele>206</ele>
        <time>2018-06-30T09:13:29Z</time>
      </trkpt>
      <trkpt lat="45.87133" lon="4.73224">
        <ele>206</ele>
        <time>2018-06-30T09:13:30Z</time>
      </trkpt>
      <trkpt lat="45.87136" lon="4.73213">
        <ele>206</ele>
        <time>2018-06-30T09:13:31Z</time>
      </trkpt>
      <trkpt lat="45.87141" lon="4.73202">
        <ele>206</ele>
        <time>2018-06-30T09:13:32Z</time>
      </trkpt>
      <trkpt lat="45.87145" lon="4.7319">
        <ele>205</ele>
        <time>2018-06-30T09:13:33Z</time>
      </trkpt>
      <trkpt lat="45.8715" lon="4.73179">
        <ele>205</ele>
        <time>2018-06-30T09:13:34Z</time>
      </trkpt>
      <trkpt lat="45.87154" lon="4.73167">
        <ele>204</ele>
        <time>2018-06-30T09:13:35Z</time>
      </trkpt>
      <trkpt lat="45.87157" lon="4.73155">
        <ele>204</ele>
        <time>2018-06-30T09:13:36Z</time>
      </trkpt>
      <trkpt lat="45.87159" lon="4.73143">
        <ele>204</ele>
        <time>2018-06-30T09:13:37Z</time>
      </trkpt>
      <trkpt lat="45.87161" lon="4.73131">
        <ele>204</ele>
        <time>2018-06-30T09:13:38Z</time>
      </trkpt>
      <trkpt lat="45.87163" lon="4.7312">
        <ele>204</ele>
        <time>2018-06-30T09:13:39Z</time>
      </trkpt>
      <trkpt lat="45.87164" lon="4.73109">
        <ele>204</ele>
        <time>2018-06-30T09:13:40Z</time>
      </trkpt>
      <trkpt lat="45.87165" lon="4.73097">
        <ele>204</ele>
        <time>2018-06-30T09:13:41Z</time>
      </trkpt>
      <trkpt lat="45.87166" lon="4.73086">
        <ele>203</ele>
        <time>2018-06-30T09:13:42Z</time>
      </trkpt>
      <trkpt lat="45.87166" lon="4.73074">
        <ele>204</ele>
        <time>2018-06-30T09:13:43Z</time>
      </trkpt>
      <trkpt lat="45.87166" lon="4.73064">
        <ele>204</ele>
        <time>2018-06-30T09:13:44Z</time>
      </trkpt>
      <trkpt lat="45.87166" lon="4.73054">
        <ele>205</ele>
        <time>2018-06-30T09:13:45Z</time>
      </trkpt>
      <trkpt lat="45.87168" lon="4.73045">
        <ele>201</ele>
        <time>2018-06-30T09:13:46Z</time>
      </trkpt>
      <trkpt lat="45.87166" lon="4.73033">
        <ele>205</ele>
        <time>2018-06-30T09:13:47Z</time>
      </trkpt>
      <trkpt lat="45.87166" lon="4.73023">
        <ele>205</ele>
        <time>2018-06-30T09:13:48Z</time>
      </trkpt>
      <trkpt lat="45.87167" lon="4.73012">
        <ele>203</ele>
        <time>2018-06-30T09:13:49Z</time>
      </trkpt>
      <trkpt lat="45.87167" lon="4.73002">
        <ele>204</ele>
        <time>2018-06-30T09:13:50Z</time>
      </trkpt>
      <trkpt lat="45.87167" lon="4.72992">
        <ele>203</ele>
        <time>2018-06-30T09:13:51Z</time>
      </trkpt>
      <trkpt lat="45.87168" lon="4.72981">
        <ele>202</ele>
        <time>2018-06-30T09:13:52Z</time>
      </trkpt>
      <trkpt lat="45.87169" lon="4.7297">
        <ele>202</ele>
        <time>2018-06-30T09:13:53Z</time>
      </trkpt>
      <trkpt lat="45.87169" lon="4.7296">
        <ele>201</ele>
        <time>2018-06-30T09:13:54Z</time>
      </trkpt>
      <trkpt lat="45.87169" lon="4.72949">
        <ele>202</ele>
        <time>2018-06-30T09:13:55Z</time>
      </trkpt>
      <trkpt lat="45.87168" lon="4.72939">
        <ele>202</ele>
        <time>2018-06-30T09:13:56Z</time>
      </trkpt>
      <trkpt lat="45.87167" lon="4.72928">
        <ele>203</ele>
        <time>2018-06-30T09:13:57Z</time>
      </trkpt>
      <trkpt lat="45.87168" lon="4.72917">
        <ele>204</ele>
        <time>2018-06-30T09:13:58Z</time>
      </trkpt>
      <trkpt lat="45.87169" lon="4.72906">
        <ele>202</ele>
        <time>2018-06-30T09:13:59Z</time>
      </trkpt>
      <trkpt lat="45.87169" lon="4.72895">
        <ele>201</ele>
        <time>2018-06-30T09:14:00Z</time>
      </trkpt>
      <trkpt lat="45.8717" lon="4.72884">
        <ele>201</ele>
        <time>2018-06-30T09:14:01Z</time>
      </trkpt>
      <trkpt lat="45.8717" lon="4.72873">
        <ele>200</ele>
        <time>2018-06-30T09:14:02Z</time>
      </trkpt>
      <trkpt lat="45.87169" lon="4.7286">
        <ele>200</ele>
        <time>2018-06-30T09:14:03Z</time>
      </trkpt>
      <trkpt lat="45.87169" lon="4.72849">
        <ele>201</ele>
        <time>2018-06-30T09:14:04Z</time>
      </trkpt>
      <trkpt lat="45.8717" lon="4.72837">
        <ele>201</ele>
        <time>2018-06-30T09:14:05Z</time>
      </trkpt>
      <trkpt lat="45.8717" lon="4.72825">
        <ele>201</ele>
        <time>2018-06-30T09:14:06Z</time>
      </trkpt>
      <trkpt lat="45.8717" lon="4.72813">
        <ele>200</ele>
        <time>2018-06-30T09:14:07Z</time>
      </trkpt>
      <trkpt lat="45.8717" lon="4.72801">
        <ele>199</ele>
        <time>2018-06-30T09:14:08Z</time>
      </trkpt>
      <trkpt lat="45.8717" lon="4.72789">
        <ele>199</ele>
        <time>2018-06-30T09:14:09Z</time>
      </trkpt>
      <trkpt lat="45.8717" lon="4.72777">
        <ele>199</ele>
        <time>2018-06-30T09:14:10Z</time>
      </trkpt>
      <trkpt lat="45.8717" lon="4.72763">
        <ele>200</ele>
        <time>2018-06-30T09:14:11Z</time>
      </trkpt>
      <trkpt lat="45.87169" lon="4.7275">
        <ele>201</ele>
        <time>2018-06-30T09:14:12Z</time>
      </trkpt>
      <trkpt lat="45.87169" lon="4.72738">
        <ele>200</ele>
        <time>2018-06-30T09:14:13Z</time>
      </trkpt>
      <trkpt lat="45.87171" lon="4.72724">
        <ele>199</ele>
        <time>2018-06-30T09:14:14Z</time>
      </trkpt>
      <trkpt lat="45.87173" lon="4.72713">
        <ele>199</ele>
        <time>2018-06-30T09:14:15Z</time>
      </trkpt>
      <trkpt lat="45.87176" lon="4.72701">
        <ele>199</ele>
        <time>2018-06-30T09:14:16Z</time>
      </trkpt>
      <trkpt lat="45.87179" lon="4.72688">
        <ele>199</ele>
        <time>2018-06-30T09:14:17Z</time>
      </trkpt>
      <trkpt lat="45.87182" lon="4.72676">
        <ele>199</ele>
        <time>2018-06-30T09:14:18Z</time>
      </trkpt>
      <trkpt lat="45.87186" lon="4.72665">
        <ele>199</ele>
        <time>2018-06-30T09:14:19Z</time>
      </trkpt>
      <trkpt lat="45.87189" lon="4.72654">
        <ele>199</ele>
        <time>2018-06-30T09:14:20Z</time>
      </trkpt>
      <trkpt lat="45.87192" lon="4.72642">
        <ele>199</ele>
        <time>2018-06-30T09:14:21Z</time>
      </trkpt>
      <trkpt lat="45.87197" lon="4.72633">
        <ele>199</ele>
        <time>2018-06-30T09:14:22Z</time>
      </trkpt>
      <trkpt lat="45.872" lon="4.72622">
        <ele>199</ele>
        <time>2018-06-30T09:14:23Z</time>
      </trkpt>
      <trkpt lat="45.87204" lon="4.72609">
        <ele>199</ele>
        <time>2018-06-30T09:14:24Z</time>
      </trkpt>
      <trkpt lat="45.87206" lon="4.72598">
        <ele>199</ele>
        <time>2018-06-30T09:14:25Z</time>
      </trkpt>
      <trkpt lat="45.87208" lon="4.72585">
        <ele>199</ele>
        <time>2018-06-30T09:14:26Z</time>
      </trkpt>
      <trkpt lat="45.87209" lon="4.72572">
        <ele>199</ele>
        <time>2018-06-30T09:14:27Z</time>
      </trkpt>
      <trkpt lat="45.8721" lon="4.72559">
        <ele>198</ele>
        <time>2018-06-30T09:14:28Z</time>
      </trkpt>
      <trkpt lat="45.87209" lon="4.72546">
        <ele>198</ele>
        <time>2018-06-30T09:14:29Z</time>
      </trkpt>
      <trkpt lat="45.8721" lon="4.72535">
        <ele>198</ele>
        <time>2018-06-30T09:14:30Z</time>
      </trkpt>
      <trkpt lat="45.87208" lon="4.72523">
        <ele>198</ele>
        <time>2018-06-30T09:14:31Z</time>
      </trkpt>
      <trkpt lat="45.87205" lon="4.72512">
        <ele>198</ele>
        <time>2018-06-30T09:14:32Z</time>
      </trkpt>
      <trkpt lat="45.87203" lon="4.725">
        <ele>196</ele>
        <time>2018-06-30T09:14:33Z</time>
      </trkpt>
      <trkpt lat="45.87201" lon="4.72489">
        <ele>195</ele>
        <time>2018-06-30T09:14:34Z</time>
      </trkpt>
      <trkpt lat="45.87197" lon="4.72478">
        <ele>195</ele>
        <time>2018-06-30T09:14:35Z</time>
      </trkpt>
      <trkpt lat="45.87194" lon="4.72468">
        <ele>195</ele>
        <time>2018-06-30T09:14:36Z</time>
      </trkpt>
      <trkpt lat="45.8719" lon="4.72459">
        <ele>195</ele>
        <time>2018-06-30T09:14:37Z</time>
      </trkpt>
      <trkpt lat="45.87186" lon="4.72449">
        <ele>194</ele>
        <time>2018-06-30T09:14:38Z</time>
      </trkpt>
      <trkpt lat="45.87184" lon="4.7244">
        <ele>194</ele>
        <time>2018-06-30T09:14:39Z</time>
      </trkpt>
      <trkpt lat="45.8718" lon="4.72432">
        <ele>194</ele>
        <time>2018-06-30T09:14:40Z</time>
      </trkpt>
      <trkpt lat="45.87177" lon="4.72423">
        <ele>194</ele>
        <time>2018-06-30T09:14:41Z</time>
      </trkpt>
      <trkpt lat="45.87173" lon="4.72413">
        <ele>193</ele>
        <time>2018-06-30T09:14:42Z</time>
      </trkpt>
      <trkpt lat="45.87168" lon="4.72403">
        <ele>192</ele>
        <time>2018-06-30T09:14:43Z</time>
      </trkpt>
      <trkpt lat="45.87164" lon="4.72394">
        <ele>197</ele>
        <time>2018-06-30T09:14:44Z</time>
      </trkpt>
      <trkpt lat="45.8716" lon="4.72385">
        <ele>197</ele>
        <time>2018-06-30T09:14:45Z</time>
      </trkpt>
      <trkpt lat="45.87156" lon="4.72376">
        <ele>197</ele>
        <time>2018-06-30T09:14:46Z</time>
      </trkpt>
      <trkpt lat="45.87153" lon="4.72366">
        <ele>197</ele>
        <time>2018-06-30T09:14:47Z</time>
      </trkpt>
      <trkpt lat="45.87149" lon="4.72356">
        <ele>196</ele>
        <time>2018-06-30T09:14:48Z</time>
      </trkpt>
      <trkpt lat="45.87145" lon="4.72347">
        <ele>196</ele>
        <time>2018-06-30T09:14:49Z</time>
      </trkpt>
      <trkpt lat="45.87141" lon="4.72337">
        <ele>196</ele>
        <time>2018-06-30T09:14:50Z</time>
      </trkpt>
      <trkpt lat="45.87137" lon="4.72327">
        <ele>195</ele>
        <time>2018-06-30T09:14:51Z</time>
      </trkpt>
      <trkpt lat="45.87133" lon="4.72318">
        <ele>196</ele>
        <time>2018-06-30T09:14:52Z</time>
      </trkpt>
      <trkpt lat="45.87128" lon="4.72309">
        <ele>196</ele>
        <time>2018-06-30T09:14:53Z</time>
      </trkpt>
      <trkpt lat="45.87124" lon="4.723">
        <ele>196</ele>
        <time>2018-06-30T09:14:54Z</time>
      </trkpt>
      <trkpt lat="45.87119" lon="4.72291">
        <ele>196</ele>
        <time>2018-06-30T09:14:55Z</time>
      </trkpt>
      <trkpt lat="45.87113" lon="4.72283">
        <ele>197</ele>
        <time>2018-06-30T09:14:56Z</time>
      </trkpt>
      <trkpt lat="45.87107" lon="4.72275">
        <ele>197</ele>
        <time>2018-06-30T09:14:57Z</time>
      </trkpt>
      <trkpt lat="45.87102" lon="4.72269">
        <ele>197</ele>
        <time>2018-06-30T09:14:58Z</time>
      </trkpt>
      <trkpt lat="45.87096" lon="4.72261">
        <ele>198</ele>
        <time>2018-06-30T09:14:59Z</time>
      </trkpt>
      <trkpt lat="45.87091" lon="4.72255">
        <ele>198</ele>
        <time>2018-06-30T09:15:00Z</time>
      </trkpt>
      <trkpt lat="45.87087" lon="4.72249">
        <ele>198</ele>
        <time>2018-06-30T09:15:01Z</time>
      </trkpt>
      <trkpt lat="45.87082" lon="4.72242">
        <ele>199</ele>
        <time>2018-06-30T09:15:02Z</time>
      </trkpt>
      <trkpt lat="45.87076" lon="4.72236">
        <ele>200</ele>
        <time>2018-06-30T09:15:03Z</time>
      </trkpt>
      <trkpt lat="45.8707" lon="4.72229">
        <ele>200</ele>
        <time>2018-06-30T09:15:04Z</time>
      </trkpt>
      <trkpt lat="45.87064" lon="4.72224">
        <ele>200</ele>
        <time>2018-06-30T09:15:05Z</time>
      </trkpt>
      <trkpt lat="45.87058" lon="4.72218">
        <ele>200</ele>
        <time>2018-06-30T09:15:06Z</time>
      </trkpt>
      <trkpt lat="45.87051" lon="4.72212">
        <ele>200</ele>
        <time>2018-06-30T09:15:07Z</time>
      </trkpt>
      <trkpt lat="45.87045" lon="4.72207">
        <ele>200</ele>
        <time>2018-06-30T09:15:08Z</time>
      </trkpt>
      <trkpt lat="45.87039" lon="4.72203">
        <ele>201</ele>
        <time>2018-06-30T09:15:09Z</time>
      </trkpt>
      <trkpt lat="45.87033" lon="4.72196">
        <ele>201</ele>
        <time>2018-06-30T09:15:10Z</time>
      </trkpt>
      <trkpt lat="45.87026" lon="4.72194">
        <ele>201</ele>
        <time>2018-06-30T09:15:11Z</time>
      </trkpt>
      <trkpt lat="45.87018" lon="4.72192">
        <ele>201</ele>
        <time>2018-06-30T09:15:12Z</time>
      </trkpt>
      <trkpt lat="45.87013" lon="4.72189">
        <ele>201</ele>
        <time>2018-06-30T09:15:13Z</time>
      </trkpt>
      <trkpt lat="45.87007" lon="4.72185">
        <ele>201</ele>
        <time>2018-06-30T09:15:14Z</time>
      </trkpt>
      <trkpt lat="45.87001" lon="4.72181">
        <ele>201</ele>
        <time>2018-06-30T09:15:15Z</time>
      </trkpt>
      <trkpt lat="45.86995" lon="4.72177">
        <ele>205</ele>
        <time>2018-06-30T09:15:16Z</time>
      </trkpt>
      <trkpt lat="45.86989" lon="4.72173">
        <ele>206</ele>
        <time>2018-06-30T09:15:17Z</time>
      </trkpt>
      <trkpt lat="45.86983" lon="4.72168">
        <ele>207</ele>
        <time>2018-06-30T09:15:18Z</time>
      </trkpt>
      <trkpt lat="45.86978" lon="4.72164">
        <ele>201</ele>
        <time>2018-06-30T09:15:19Z</time>
      </trkpt>
      <trkpt lat="45.86972" lon="4.7216">
        <ele>201</ele>
        <time>2018-06-30T09:15:20Z</time>
      </trkpt>
      <trkpt lat="45.86966" lon="4.72156">
        <ele>201</ele>
        <time>2018-06-30T09:15:21Z</time>
      </trkpt>
      <trkpt lat="45.86959" lon="4.72151">
        <ele>201</ele>
        <time>2018-06-30T09:15:22Z</time>
      </trkpt>
      <trkpt lat="45.86953" lon="4.72147">
        <ele>201</ele>
        <time>2018-06-30T09:15:23Z</time>
      </trkpt>
      <trkpt lat="45.86947" lon="4.72143">
        <ele>201</ele>
        <time>2018-06-30T09:15:24Z</time>
      </trkpt>
      <trkpt lat="45.86941" lon="4.72138">
        <ele>201</ele>
        <time>2018-06-30T09:15:25Z</time>
      </trkpt>
      <trkpt lat="45.86935" lon="4.72135">
        <ele>201</ele>
        <time>2018-06-30T09:15:26Z</time>
      </trkpt>
      <trkpt lat="45.86929" lon="4.72133">
        <ele>201</ele>
        <time>2018-06-30T09:15:27Z</time>
      </trkpt>
      <trkpt lat="45.86923" lon="4.7213">
        <ele>201</ele>
        <time>2018-06-30T09:15:28Z</time>
      </trkpt>
      <trkpt lat="45.86917" lon="4.72127">
        <ele>200</ele>
        <time>2018-06-30T09:15:29Z</time>
      </trkpt>
      <trkpt lat="45.86911" lon="4.72125">
        <ele>202</ele>
        <time>2018-06-30T09:15:30Z</time>
      </trkpt>
      <trkpt lat="45.86904" lon="4.72123">
        <ele>202</ele>
        <time>2018-06-30T09:15:31Z</time>
      </trkpt>
      <trkpt lat="45.86898" lon="4.72122">
        <ele>202</ele>
        <time>2018-06-30T09:15:32Z</time>
      </trkpt>
      <trkpt lat="45.86892" lon="4.7212">
        <ele>202</ele>
        <time>2018-06-30T09:15:33Z</time>
      </trkpt>
      <trkpt lat="45.86885" lon="4.72118">
        <ele>202</ele>
        <time>2018-06-30T09:15:34Z</time>
      </trkpt>
      <trkpt lat="45.8688" lon="4.72115">
        <ele>201</ele>
        <time>2018-06-30T09:15:35Z</time>
      </trkpt>
      <trkpt lat="45.86874" lon="4.72113">
        <ele>201</ele>
        <time>2018-06-30T09:15:36Z</time>
      </trkpt>
      <trkpt lat="45.86868" lon="4.7211">
        <ele>201</ele>
        <time>2018-06-30T09:15:37Z</time>
      </trkpt>
      <trkpt lat="45.86863" lon="4.72108">
        <ele>201</ele>
        <time>2018-06-30T09:15:38Z</time>
      </trkpt>
      <trkpt lat="45.86856" lon="4.72105">
        <ele>200</ele>
        <time>2018-06-30T09:15:39Z</time>
      </trkpt>
      <trkpt lat="45.86851" lon="4.72103">
        <ele>199</ele>
        <time>2018-06-30T09:15:40Z</time>
      </trkpt>
      <trkpt lat="45.86845" lon="4.721">
        <ele>199</ele>
        <time>2018-06-30T09:15:41Z</time>
      </trkpt>
      <trkpt lat="45.8684" lon="4.72098">
        <ele>198</ele>
        <time>2018-06-30T09:15:42Z</time>
      </trkpt>
      <trkpt lat="45.86834" lon="4.72095">
        <ele>197</ele>
        <time>2018-06-30T09:15:43Z</time>
      </trkpt>
      <trkpt lat="45.86829" lon="4.72094">
        <ele>198</ele>
        <time>2018-06-30T09:15:44Z</time>
      </trkpt>
      <trkpt lat="45.86823" lon="4.72091">
        <ele>198</ele>
        <time>2018-06-30T09:15:45Z</time>
      </trkpt>
      <trkpt lat="45.86817" lon="4.7209">
        <ele>199</ele>
        <time>2018-06-30T09:15:46Z</time>
      </trkpt>
      <trkpt lat="45.8681" lon="4.72088">
        <ele>200</ele>
        <time>2018-06-30T09:15:47Z</time>
      </trkpt>
      <trkpt lat="45.86804" lon="4.72084">
        <ele>200</ele>
        <time>2018-06-30T09:15:48Z</time>
      </trkpt>
      <trkpt lat="45.86799" lon="4.7208">
        <ele>194</ele>
        <time>2018-06-30T09:15:49Z</time>
      </trkpt>
      <trkpt lat="45.86792" lon="4.72077">
        <ele>194</ele>
        <time>2018-06-30T09:15:50Z</time>
      </trkpt>
      <trkpt lat="45.86786" lon="4.72074">
        <ele>194</ele>
        <time>2018-06-30T09:15:51Z</time>
      </trkpt>
      <trkpt lat="45.8678" lon="4.72071">
        <ele>194</ele>
        <time>2018-06-30T09:15:52Z</time>
      </trkpt>
      <trkpt lat="45.86775" lon="4.72068">
        <ele>195</ele>
        <time>2018-06-30T09:15:53Z</time>
      </trkpt>
      <trkpt lat="45.86768" lon="4.72066">
        <ele>195</ele>
        <time>2018-06-30T09:15:54Z</time>
      </trkpt>
      <trkpt lat="45.86762" lon="4.72064">
        <ele>195</ele>
        <time>2018-06-30T09:15:55Z</time>
      </trkpt>
      <trkpt lat="45.86756" lon="4.72062">
        <ele>195</ele>
        <time>2018-06-30T09:15:56Z</time>
      </trkpt>
      <trkpt lat="45.8675" lon="4.7206">
        <ele>195</ele>
        <time>2018-06-30T09:15:57Z</time>
      </trkpt>
      <trkpt lat="45.86745" lon="4.72057">
        <ele>197</ele>
        <time>2018-06-30T09:15:58Z</time>
      </trkpt>
      <trkpt lat="45.86742" lon="4.72054">
        <ele>197</ele>
        <time>2018-06-30T09:15:59Z</time>
      </trkpt>
      <trkpt lat="45.86736" lon="4.72052">
        <ele>197</ele>
        <time>2018-06-30T09:16:00Z</time>
      </trkpt>
      <trkpt lat="45.8673" lon="4.72049">
        <ele>197</ele>
        <time>2018-06-30T09:16:01Z</time>
      </trkpt>
      <trkpt lat="45.86725" lon="4.72045">
        <ele>197</ele>
        <time>2018-06-30T09:16:02Z</time>
      </trkpt>
      <trkpt lat="45.86719" lon="4.72041">
        <ele>197</ele>
        <time>2018-06-30T09:16:03Z</time>
      </trkpt>
      <trkpt lat="45.86714" lon="4.72038">
        <ele>197</ele>
        <time>2018-06-30T09:16:04Z</time>
      </trkpt>
      <trkpt lat="45.8671" lon="4.72036">
        <ele>197</ele>
        <time>2018-06-30T09:16:05Z</time>
      </trkpt>
      <trkpt lat="45.86704" lon="4.72032">
        <ele>197</ele>
        <time>2018-06-30T09:16:06Z</time>
      </trkpt>
      <trkpt lat="45.86699" lon="4.72029">
        <ele>197</ele>
        <time>2018-06-30T09:16:07Z</time>
      </trkpt>
      <trkpt lat="45.86695" lon="4.72025">
        <ele>197</ele>
        <time>2018-06-30T09:16:08Z</time>
      </trkpt>
      <trkpt lat="45.8669" lon="4.72021">
        <ele>197</ele>
        <time>2018-06-30T09:16:09Z</time>
      </trkpt>
      <trkpt lat="45.86685" lon="4.72016">
        <ele>196</ele>
        <time>2018-06-30T09:16:10Z</time>
      </trkpt>
      <trkpt lat="45.8668" lon="4.72013">
        <ele>196</ele>
        <time>2018-06-30T09:16:11Z</time>
      </trkpt>
      <trkpt lat="45.86674" lon="4.72009">
        <ele>196</ele>
        <time>2018-06-30T09:16:12Z</time>
      </trkpt>
      <trkpt lat="45.86669" lon="4.72005">
        <ele>195</ele>
        <time>2018-06-30T09:16:13Z</time>
      </trkpt>
      <trkpt lat="45.86664" lon="4.72001">
        <ele>195</ele>
        <time>2018-06-30T09:16:14Z</time>
      </trkpt>
      <trkpt lat="45.86659" lon="4.71996">
        <ele>195</ele>
        <time>2018-06-30T09:16:15Z</time>
      </trkpt>
      <trkpt lat="45.86654" lon="4.71992">
        <ele>195</ele>
        <time>2018-06-30T09:16:16Z</time>
      </trkpt>
      <trkpt lat="45.86648" lon="4.71987">
        <ele>195</ele>
        <time>2018-06-30T09:16:17Z</time>
      </trkpt>
      <trkpt lat="45.86643" lon="4.71983">
        <ele>195</ele>
        <time>2018-06-30T09:16:18Z</time>
      </trkpt>
      <trkpt lat="45.86637" lon="4.71978">
        <ele>195</ele>
        <time>2018-06-30T09:16:19Z</time>
      </trkpt>
      <trkpt lat="45.86632" lon="4.71974">
        <ele>195</ele>
        <time>2018-06-30T09:16:20Z</time>
      </trkpt>
      <trkpt lat="45.86628" lon="4.7197">
        <ele>195</ele>
        <time>2018-06-30T09:16:21Z</time>
      </trkpt>
      <trkpt lat="45.86623" lon="4.71966">
        <ele>195</ele>
        <time>2018-06-30T09:16:22Z</time>
      </trkpt>
      <trkpt lat="45.86617" lon="4.71961">
        <ele>195</ele>
        <time>2018-06-30T09:16:23Z</time>
      </trkpt>
      <trkpt lat="45.86611" lon="4.71957">
        <ele>194</ele>
        <time>2018-06-30T09:16:24Z</time>
      </trkpt>
      <trkpt lat="45.86606" lon="4.71952">
        <ele>194</ele>
        <time>2018-06-30T09:16:25Z</time>
      </trkpt>
      <trkpt lat="45.866" lon="4.71948">
        <ele>194</ele>
        <time>2018-06-30T09:16:26Z</time>
      </trkpt>
      <trkpt lat="45.86595" lon="4.71943">
        <ele>194</ele>
        <time>2018-06-30T09:16:27Z</time>
      </trkpt>
      <trkpt lat="45.86589" lon="4.71939">
        <ele>194</ele>
        <time>2018-06-30T09:16:28Z</time>
      </trkpt>
      <trkpt lat="45.86585" lon="4.71936">
        <ele>194</ele>
        <time>2018-06-30T09:16:29Z</time>
      </trkpt>
      <trkpt lat="45.86579" lon="4.71932">
        <ele>195</ele>
        <time>2018-06-30T09:16:30Z</time>
      </trkpt>
      <trkpt lat="45.86574" lon="4.71927">
        <ele>195</ele>
        <time>2018-06-30T09:16:31Z</time>
      </trkpt>
      <trkpt lat="45.86569" lon="4.71923">
        <ele>195</ele>
        <time>2018-06-30T09:16:32Z</time>
      </trkpt>
      <trkpt lat="45.86563" lon="4.71919">
        <ele>195</ele>
        <time>2018-06-30T09:16:33Z</time>
      </trkpt>
      <trkpt lat="45.86557" lon="4.71914">
        <ele>195</ele>
        <time>2018-06-30T09:16:34Z</time>
      </trkpt>
      <trkpt lat="45.86552" lon="4.7191">
        <ele>195</ele>
        <time>2018-06-30T09:16:35Z</time>
      </trkpt>
      <trkpt lat="45.86545" lon="4.71906">
        <ele>195</ele>
        <time>2018-06-30T09:16:36Z</time>
      </trkpt>
      <trkpt lat="45.8654" lon="4.71902">
        <ele>195</ele>
        <time>2018-06-30T09:16:37Z</time>
      </trkpt>
      <trkpt lat="45.86534" lon="4.71898">
        <ele>195</ele>
        <time>2018-06-30T09:16:38Z</time>
      </trkpt>
      <trkpt lat="45.86529" lon="4.71893">
        <ele>195</ele>
        <time>2018-06-30T09:16:39Z</time>
      </trkpt>
      <trkpt lat="45.86524" lon="4.71889">
        <ele>195</ele>
        <time>2018-06-30T09:16:40Z</time>
      </trkpt>
      <trkpt lat="45.86518" lon="4.71885">
        <ele>195</ele>
        <time>2018-06-30T09:16:41Z</time>
      </trkpt>
      <trkpt lat="45.86513" lon="4.71881">
        <ele>195</ele>
        <time>2018-06-30T09:16:42Z</time>
      </trkpt>
      <trkpt lat="45.86506" lon="4.71877">
        <ele>195</ele>
        <time>2018-06-30T09:16:43Z</time>
      </trkpt>
      <trkpt lat="45.865" lon="4.71872">
        <ele>195</ele>
        <time>2018-06-30T09:16:44Z</time>
      </trkpt>
      <trkpt lat="45.86495" lon="4.71868">
        <ele>198</ele>
        <time>2018-06-30T09:16:45Z</time>
      </trkpt>
      <trkpt lat="45.86488" lon="4.71864">
        <ele>198</ele>
        <time>2018-06-30T09:16:46Z</time>
      </trkpt>
      <trkpt lat="45.86483" lon="4.7186">
        <ele>199</ele>
        <time>2018-06-30T09:16:47Z</time>
      </trkpt>
      <trkpt lat="45.8648" lon="4.71855">
        <ele>198</ele>
        <time>2018-06-30T09:16:48Z</time>
      </trkpt>
      <trkpt lat="45.86474" lon="4.71852">
        <ele>199</ele>
        <time>2018-06-30T09:16:49Z</time>
      </trkpt>
      <trkpt lat="45.86468" lon="4.71847">
        <ele>199</ele>
        <time>2018-06-30T09:16:50Z</time>
      </trkpt>
      <trkpt lat="45.86463" lon="4.71844">
        <ele>199</ele>
        <time>2018-06-30T09:16:51Z</time>
      </trkpt>
      <trkpt lat="45.86457" lon="4.71839">
        <ele>200</ele>
        <time>2018-06-30T09:16:52Z</time>
      </trkpt>
      <trkpt lat="45.86452" lon="4.71835">
        <ele>200</ele>
        <time>2018-06-30T09:16:53Z</time>
      </trkpt>
      <trkpt lat="45.86448" lon="4.71832">
        <ele>197</ele>
        <time>2018-06-30T09:16:54Z</time>
      </trkpt>
      <trkpt lat="45.86443" lon="4.71828">
        <ele>198</ele>
        <time>2018-06-30T09:16:55Z</time>
      </trkpt>
      <trkpt lat="45.86437" lon="4.71824">
        <ele>198</ele>
        <time>2018-06-30T09:16:56Z</time>
      </trkpt>
      <trkpt lat="45.86432" lon="4.7182">
        <ele>198</ele>
        <time>2018-06-30T09:16:57Z</time>
      </trkpt>
      <trkpt lat="45.86427" lon="4.71815">
        <ele>198</ele>
        <time>2018-06-30T09:16:58Z</time>
      </trkpt>
      <trkpt lat="45.86421" lon="4.7181">
        <ele>198</ele>
        <time>2018-06-30T09:16:59Z</time>
      </trkpt>
      <trkpt lat="45.86416" lon="4.71806">
        <ele>200</ele>
        <time>2018-06-30T09:17:00Z</time>
      </trkpt>
      <trkpt lat="45.86411" lon="4.71802">
        <ele>199</ele>
        <time>2018-06-30T09:17:01Z</time>
      </trkpt>
      <trkpt lat="45.86406" lon="4.71797">
        <ele>199</ele>
        <time>2018-06-30T09:17:02Z</time>
      </trkpt>
      <trkpt lat="45.864" lon="4.71793">
        <ele>199</ele>
        <time>2018-06-30T09:17:03Z</time>
      </trkpt>
      <trkpt lat="45.86395" lon="4.71789">
        <ele>198</ele>
        <time>2018-06-30T09:17:04Z</time>
      </trkpt>
      <trkpt lat="45.8639" lon="4.71784">
        <ele>198</ele>
        <time>2018-06-30T09:17:05Z</time>
      </trkpt>
      <trkpt lat="45.86385" lon="4.7178">
        <ele>198</ele>
        <time>2018-06-30T09:17:06Z</time>
      </trkpt>
      <trkpt lat="45.8638" lon="4.71776">
        <ele>198</ele>
        <time>2018-06-30T09:17:07Z</time>
      </trkpt>
      <trkpt lat="45.86375" lon="4.71771">
        <ele>198</ele>
        <time>2018-06-30T09:17:08Z</time>
      </trkpt>
      <trkpt lat="45.8637" lon="4.71767">
        <ele>198</ele>
        <time>2018-06-30T09:17:09Z</time>
      </trkpt>
      <trkpt lat="45.86365" lon="4.71763">
        <ele>198</ele>
        <time>2018-06-30T09:17:10Z</time>
      </trkpt>
      <trkpt lat="45.8636" lon="4.7176">
        <ele>198</ele>
        <time>2018-06-30T09:17:11Z</time>
      </trkpt>
      <trkpt lat="45.86355" lon="4.71755">
        <ele>197</ele>
        <time>2018-06-30T09:17:12Z</time>
      </trkpt>
      <trkpt lat="45.8635" lon="4.71751">
        <ele>197</ele>
        <time>2018-06-30T09:17:13Z</time>
      </trkpt>
      <trkpt lat="45.86344" lon="4.71747">
        <ele>195</ele>
        <time>2018-06-30T09:17:14Z</time>
      </trkpt>
      <trkpt lat="45.86339" lon="4.71744">
        <ele>195</ele>
        <time>2018-06-30T09:17:15Z</time>
      </trkpt>
      <trkpt lat="45.86334" lon="4.7174">
        <ele>195</ele>
        <time>2018-06-30T09:17:16Z</time>
      </trkpt>
      <trkpt lat="45.86329" lon="4.71736">
        <ele>196</ele>
        <time>2018-06-30T09:17:17Z</time>
      </trkpt>
      <trkpt lat="45.86324" lon="4.71731">
        <ele>196</ele>
        <time>2018-06-30T09:17:18Z</time>
      </trkpt>
      <trkpt lat="45.86318" lon="4.71727">
        <ele>196</ele>
        <time>2018-06-30T09:17:19Z</time>
      </trkpt>
      <trkpt lat="45.86314" lon="4.71723">
        <ele>196</ele>
        <time>2018-06-30T09:17:20Z</time>
      </trkpt>
      <trkpt lat="45.86309" lon="4.71719">
        <ele>196</ele>
        <time>2018-06-30T09:17:21Z</time>
      </trkpt>
      <trkpt lat="45.86305" lon="4.71715">
        <ele>196</ele>
        <time>2018-06-30T09:17:22Z</time>
      </trkpt>
      <trkpt lat="45.863" lon="4.71711">
        <ele>195</ele>
        <time>2018-06-30T09:17:23Z</time>
      </trkpt>
      <trkpt lat="45.86295" lon="4.71707">
        <ele>195</ele>
        <time>2018-06-30T09:17:24Z</time>
      </trkpt>
      <trkpt lat="45.86289" lon="4.71703">
        <ele>195</ele>
        <time>2018-06-30T09:17:25Z</time>
      </trkpt>
      <trkpt lat="45.86285" lon="4.717">
        <ele>195</ele>
        <time>2018-06-30T09:17:26Z</time>
      </trkpt>
      <trkpt lat="45.86278" lon="4.71696">
        <ele>195</ele>
        <time>2018-06-30T09:17:27Z</time>
      </trkpt>
      <trkpt lat="45.86273" lon="4.71692">
        <ele>195</ele>
        <time>2018-06-30T09:17:28Z</time>
      </trkpt>
      <trkpt lat="45.86268" lon="4.71688">
        <ele>195</ele>
        <time>2018-06-30T09:17:29Z</time>
      </trkpt>
      <trkpt lat="45.86262" lon="4.71684">
        <ele>195</ele>
        <time>2018-06-30T09:17:30Z</time>
      </trkpt>
      <trkpt lat="45.86259" lon="4.7168">
        <ele>195</ele>
        <time>2018-06-30T09:17:31Z</time>
      </trkpt>
      <trkpt lat="45.86254" lon="4.71676">
        <ele>195</ele>
        <time>2018-06-30T09:17:32Z</time>
      </trkpt>
      <trkpt lat="45.86248" lon="4.71672">
        <ele>195</ele>
        <time>2018-06-30T09:17:33Z</time>
      </trkpt>
      <trkpt lat="45.86244" lon="4.71668">
        <ele>195</ele>
        <time>2018-06-30T09:17:34Z</time>
      </trkpt>
      <trkpt lat="45.86239" lon="4.71664">
        <ele>195</ele>
        <time>2018-06-30T09:17:35Z</time>
      </trkpt>
      <trkpt lat="45.86231" lon="4.71661">
        <ele>195</ele>
        <time>2018-06-30T09:17:36Z</time>
      </trkpt>
      <trkpt lat="45.86228" lon="4.71658">
        <ele>195</ele>
        <time>2018-06-30T09:17:37Z</time>
      </trkpt>
      <trkpt lat="45.86221" lon="4.71653">
        <ele>195</ele>
        <time>2018-06-30T09:17:38Z</time>
      </trkpt>
      <trkpt lat="45.86216" lon="4.71648">
        <ele>195</ele>
        <time>2018-06-30T09:17:39Z</time>
      </trkpt>
      <trkpt lat="45.86212" lon="4.71642">
        <ele>195</ele>
        <time>2018-06-30T09:17:40Z</time>
      </trkpt>
      <trkpt lat="45.86209" lon="4.71634">
        <ele>195</ele>
        <time>2018-06-30T09:17:41Z</time>
      </trkpt>
      <trkpt lat="45.86207" lon="4.71627">
        <ele>195</ele>
        <time>2018-06-30T09:17:42Z</time>
      </trkpt>
      <trkpt lat="45.86205" lon="4.7162">
        <ele>195</ele>
        <time>2018-06-30T09:17:43Z</time>
      </trkpt>
      <trkpt lat="45.86202" lon="4.71614">
        <ele>195</ele>
        <time>2018-06-30T09:17:44Z</time>
      </trkpt>
      <trkpt lat="45.862" lon="4.71607">
        <ele>195</ele>
        <time>2018-06-30T09:17:45Z</time>
      </trkpt>
      <trkpt lat="45.86196" lon="4.71602">
        <ele>195</ele>
        <time>2018-06-30T09:17:46Z</time>
      </trkpt>
      <trkpt lat="45.86192" lon="4.71596">
        <ele>195</ele>
        <time>2018-06-30T09:17:47Z</time>
      </trkpt>
      <trkpt lat="45.86188" lon="4.7159">
        <ele>195</ele>
        <time>2018-06-30T09:17:48Z</time>
      </trkpt>
      <trkpt lat="45.86184" lon="4.71584">
        <ele>196</ele>
        <time>2018-06-30T09:17:49Z</time>
      </trkpt>
      <trkpt lat="45.8618" lon="4.71577">
        <ele>196</ele>
        <time>2018-06-30T09:17:50Z</time>
      </trkpt>
      <trkpt lat="45.86176" lon="4.71571">
        <ele>195</ele>
        <time>2018-06-30T09:17:51Z</time>
      </trkpt>
      <trkpt lat="45.86172" lon="4.71564">
        <ele>195</ele>
        <time>2018-06-30T09:17:52Z</time>
      </trkpt>
      <trkpt lat="45.86168" lon="4.71557">
        <ele>195</ele>
        <time>2018-06-30T09:17:53Z</time>
      </trkpt>
      <trkpt lat="45.86164" lon="4.7155">
        <ele>196</ele>
        <time>2018-06-30T09:17:54Z</time>
      </trkpt>
      <trkpt lat="45.86161" lon="4.71543">
        <ele>196</ele>
        <time>2018-06-30T09:17:55Z</time>
      </trkpt>
      <trkpt lat="45.86158" lon="4.71538">
        <ele>195</ele>
        <time>2018-06-30T09:17:56Z</time>
      </trkpt>
      <trkpt lat="45.86155" lon="4.71531">
        <ele>195</ele>
        <time>2018-06-30T09:17:57Z</time>
      </trkpt>
      <trkpt lat="45.86152" lon="4.71525">
        <ele>195</ele>
        <time>2018-06-30T09:17:58Z</time>
      </trkpt>
      <trkpt lat="45.8615" lon="4.71519">
        <ele>195</ele>
        <time>2018-06-30T09:17:59Z</time>
      </trkpt>
      <trkpt lat="45.86145" lon="4.71512">
        <ele>195</ele>
        <time>2018-06-30T09:18:00Z</time>
      </trkpt>
      <trkpt lat="45.86142" lon="4.71505">
        <ele>195</ele>
        <time>2018-06-30T09:18:01Z</time>
      </trkpt>
      <trkpt lat="45.86138" lon="4.71495">
        <ele>195</ele>
        <time>2018-06-30T09:18:03Z</time>
      </trkpt>
      <trkpt lat="45.86135" lon="4.7149">
        <ele>195</ele>
        <time>2018-06-30T09:18:04Z</time>
      </trkpt>
      <trkpt lat="45.86131" lon="4.71485">
        <ele>195</ele>
        <time>2018-06-30T09:18:05Z</time>
      </trkpt>
      <trkpt lat="45.86129" lon="4.71479">
        <ele>195</ele>
        <time>2018-06-30T09:18:06Z</time>
      </trkpt>
      <trkpt lat="45.86126" lon="4.71474">
        <ele>195</ele>
        <time>2018-06-30T09:18:07Z</time>
      </trkpt>
      <trkpt lat="45.86125" lon="4.71467">
        <ele>195</ele>
        <time>2018-06-30T09:18:08Z</time>
      </trkpt>
      <trkpt lat="45.86123" lon="4.71461">
        <ele>195</ele>
        <time>2018-06-30T09:18:09Z</time>
      </trkpt>
      <trkpt lat="45.86122" lon="4.71452">
        <ele>195</ele>
        <time>2018-06-30T09:18:10Z</time>
      </trkpt>
      <trkpt lat="45.86121" lon="4.71445">
        <ele>195</ele>
        <time>2018-06-30T09:18:11Z</time>
      </trkpt>
      <trkpt lat="45.8612" lon="4.71438">
        <ele>195</ele>
        <time>2018-06-30T09:18:12Z</time>
      </trkpt>
      <trkpt lat="45.8612" lon="4.71431">
        <ele>195</ele>
        <time>2018-06-30T09:18:13Z</time>
      </trkpt>
      <trkpt lat="45.86118" lon="4.71423">
        <ele>195</ele>
        <time>2018-06-30T09:18:14Z</time>
      </trkpt>
      <trkpt lat="45.86118" lon="4.71416">
        <ele>196</ele>
        <time>2018-06-30T09:18:15Z</time>
      </trkpt>
      <trkpt lat="45.86118" lon="4.7141">
        <ele>196</ele>
        <time>2018-06-30T09:18:16Z</time>
      </trkpt>
      <trkpt lat="45.86117" lon="4.71404">
        <ele>196</ele>
        <time>2018-06-30T09:18:17Z</time>
      </trkpt>
      <trkpt lat="45.86116" lon="4.71397">
        <ele>196</ele>
        <time>2018-06-30T09:18:18Z</time>
      </trkpt>
      <trkpt lat="45.86115" lon="4.7139">
        <ele>196</ele>
        <time>2018-06-30T09:18:19Z</time>
      </trkpt>
      <trkpt lat="45.86114" lon="4.71382">
        <ele>196</ele>
        <time>2018-06-30T09:18:20Z</time>
      </trkpt>
      <trkpt lat="45.86114" lon="4.7137">
        <ele>196</ele>
        <time>2018-06-30T09:18:22Z</time>
      </trkpt>
      <trkpt lat="45.86114" lon="4.71363">
        <ele>196</ele>
        <time>2018-06-30T09:18:23Z</time>
      </trkpt>
      <trkpt lat="45.86114" lon="4.71357">
        <ele>196</ele>
        <time>2018-06-30T09:18:24Z</time>
      </trkpt>
      <trkpt lat="45.86112" lon="4.71349">
        <ele>196</ele>
        <time>2018-06-30T09:18:25Z</time>
      </trkpt>
      <trkpt lat="45.86109" lon="4.71342">
        <ele>196</ele>
        <time>2018-06-30T09:18:26Z</time>
      </trkpt>
      <trkpt lat="45.86109" lon="4.71335">
        <ele>196</ele>
        <time>2018-06-30T09:18:27Z</time>
      </trkpt>
      <trkpt lat="45.86106" lon="4.71328">
        <ele>197</ele>
        <time>2018-06-30T09:18:28Z</time>
      </trkpt>
      <trkpt lat="45.86104" lon="4.71321">
        <ele>197</ele>
        <time>2018-06-30T09:18:29Z</time>
      </trkpt>
      <trkpt lat="45.86103" lon="4.71313">
        <ele>197</ele>
        <time>2018-06-30T09:18:30Z</time>
      </trkpt>
      <trkpt lat="45.86102" lon="4.71306">
        <ele>197</ele>
        <time>2018-06-30T09:18:31Z</time>
      </trkpt>
      <trkpt lat="45.86101" lon="4.713">
        <ele>197</ele>
        <time>2018-06-30T09:18:32Z</time>
      </trkpt>
      <trkpt lat="45.861" lon="4.71293">
        <ele>197</ele>
        <time>2018-06-30T09:18:33Z</time>
      </trkpt>
      <trkpt lat="45.86099" lon="4.71281">
        <ele>197</ele>
        <time>2018-06-30T09:18:35Z</time>
      </trkpt>
      <trkpt lat="45.86096" lon="4.71275">
        <ele>197</ele>
        <time>2018-06-30T09:18:36Z</time>
      </trkpt>
      <trkpt lat="45.86094" lon="4.71266">
        <ele>197</ele>
        <time>2018-06-30T09:18:38Z</time>
      </trkpt>
      <trkpt lat="45.86091" lon="4.71262">
        <ele>197</ele>
        <time>2018-06-30T09:18:39Z</time>
      </trkpt>
      <trkpt lat="45.86087" lon="4.71254">
        <ele>198</ele>
        <time>2018-06-30T09:18:41Z</time>
      </trkpt>
      <trkpt lat="45.86085" lon="4.71249">
        <ele>198</ele>
        <time>2018-06-30T09:18:42Z</time>
      </trkpt>
      <trkpt lat="45.86083" lon="4.71242">
        <ele>198</ele>
        <time>2018-06-30T09:18:43Z</time>
      </trkpt>
      <trkpt lat="45.86083" lon="4.71236">
        <ele>198</ele>
        <time>2018-06-30T09:18:44Z</time>
      </trkpt>
      <trkpt lat="45.86083" lon="4.71228">
        <ele>198</ele>
        <time>2018-06-30T09:18:45Z</time>
      </trkpt>
      <trkpt lat="45.86084" lon="4.71221">
        <ele>197</ele>
        <time>2018-06-30T09:18:46Z</time>
      </trkpt>
      <trkpt lat="45.86086" lon="4.71213">
        <ele>197</ele>
        <time>2018-06-30T09:18:47Z</time>
      </trkpt>
      <trkpt lat="45.86086" lon="4.71202">
        <ele>197</ele>
        <time>2018-06-30T09:18:48Z</time>
      </trkpt>
      <trkpt lat="45.86087" lon="4.71194">
        <ele>197</ele>
        <time>2018-06-30T09:18:49Z</time>
      </trkpt>
      <trkpt lat="45.86088" lon="4.71187">
        <ele>197</ele>
        <time>2018-06-30T09:18:50Z</time>
      </trkpt>
      <trkpt lat="45.86088" lon="4.7118">
        <ele>197</ele>
        <time>2018-06-30T09:18:51Z</time>
      </trkpt>
      <trkpt lat="45.86089" lon="4.71172">
        <ele>198</ele>
        <time>2018-06-30T09:18:52Z</time>
      </trkpt>
      <trkpt lat="45.86089" lon="4.71164">
        <ele>198</ele>
        <time>2018-06-30T09:18:53Z</time>
      </trkpt>
      <trkpt lat="45.86089" lon="4.71156">
        <ele>197</ele>
        <time>2018-06-30T09:18:54Z</time>
      </trkpt>
      <trkpt lat="45.86087" lon="4.71146">
        <ele>197</ele>
        <time>2018-06-30T09:18:55Z</time>
      </trkpt>
      <trkpt lat="45.86085" lon="4.71139">
        <ele>197</ele>
        <time>2018-06-30T09:18:56Z</time>
      </trkpt>
      <trkpt lat="45.86084" lon="4.71135">
        <ele>197</ele>
        <time>2018-06-30T09:18:57Z</time>
      </trkpt>
      <trkpt lat="45.86078" lon="4.71132">
        <ele>197</ele>
        <time>2018-06-30T09:18:58Z</time>
      </trkpt>
      <trkpt lat="45.86072" lon="4.71122">
        <ele>197</ele>
        <time>2018-06-30T09:19:00Z</time>
      </trkpt>
      <trkpt lat="45.8607" lon="4.7112">
        <ele>197</ele>
        <time>2018-06-30T09:19:01Z</time>
      </trkpt>
      <trkpt lat="45.86066" lon="4.71117">
        <ele>197</ele>
        <time>2018-06-30T09:19:02Z</time>
      </trkpt>
      <trkpt lat="45.86062" lon="4.71113">
        <ele>197</ele>
        <time>2018-06-30T09:19:03Z</time>
      </trkpt>
      <trkpt lat="45.86058" lon="4.7111">
        <ele>197</ele>
        <time>2018-06-30T09:19:04Z</time>
      </trkpt>
      <trkpt lat="45.86054" lon="4.71105">
        <ele>197</ele>
        <time>2018-06-30T09:19:05Z</time>
      </trkpt>
      <trkpt lat="45.8605" lon="4.71099">
        <ele>197</ele>
        <time>2018-06-30T09:19:06Z</time>
      </trkpt>
      <trkpt lat="45.86046" lon="4.71093">
        <ele>197</ele>
        <time>2018-06-30T09:19:07Z</time>
      </trkpt>
      <trkpt lat="45.86043" lon="4.71086">
        <ele>197</ele>
        <time>2018-06-30T09:19:08Z</time>
      </trkpt>
      <trkpt lat="45.86042" lon="4.71079">
        <ele>196</ele>
        <time>2018-06-30T09:19:09Z</time>
      </trkpt>
      <trkpt lat="45.8604" lon="4.71071">
        <ele>197</ele>
        <time>2018-06-30T09:19:10Z</time>
      </trkpt>
      <trkpt lat="45.86039" lon="4.71063">
        <ele>197</ele>
        <time>2018-06-30T09:19:11Z</time>
      </trkpt>
      <trkpt lat="45.86038" lon="4.71055">
        <ele>197</ele>
        <time>2018-06-30T09:19:12Z</time>
      </trkpt>
      <trkpt lat="45.86036" lon="4.71047">
        <ele>197</ele>
        <time>2018-06-30T09:19:13Z</time>
      </trkpt>
      <trkpt lat="45.86035" lon="4.7104">
        <ele>197</ele>
        <time>2018-06-30T09:19:14Z</time>
      </trkpt>
      <trkpt lat="45.86034" lon="4.71033">
        <ele>197</ele>
        <time>2018-06-30T09:19:15Z</time>
      </trkpt>
      <trkpt lat="45.86031" lon="4.71027">
        <ele>197</ele>
        <time>2018-06-30T09:19:16Z</time>
      </trkpt>
      <trkpt lat="45.86029" lon="4.71021">
        <ele>197</ele>
        <time>2018-06-30T09:19:17Z</time>
      </trkpt>
      <trkpt lat="45.86026" lon="4.71015">
        <ele>197</ele>
        <time>2018-06-30T09:19:18Z</time>
      </trkpt>
      <trkpt lat="45.86022" lon="4.7101">
        <ele>197</ele>
        <time>2018-06-30T09:19:19Z</time>
      </trkpt>
      <trkpt lat="45.86019" lon="4.71005">
        <ele>197</ele>
        <time>2018-06-30T09:19:20Z</time>
      </trkpt>
      <trkpt lat="45.86016" lon="4.71">
        <ele>197</ele>
        <time>2018-06-30T09:19:21Z</time>
      </trkpt>
      <trkpt lat="45.86011" lon="4.70995">
        <ele>197</ele>
        <time>2018-06-30T09:19:22Z</time>
      </trkpt>
      <trkpt lat="45.86006" lon="4.70991">
        <ele>197</ele>
        <time>2018-06-30T09:19:23Z</time>
      </trkpt>
      <trkpt lat="45.86002" lon="4.70986">
        <ele>197</ele>
        <time>2018-06-30T09:19:24Z</time>
      </trkpt>
      <trkpt lat="45.85998" lon="4.70983">
        <ele>197</ele>
        <time>2018-06-30T09:19:25Z</time>
      </trkpt>
      <trkpt lat="45.85993" lon="4.7098">
        <ele>197</ele>
        <time>2018-06-30T09:19:26Z</time>
      </trkpt>
      <trkpt lat="45.85988" lon="4.70977">
        <ele>197</ele>
        <time>2018-06-30T09:19:27Z</time>
      </trkpt>
      <trkpt lat="45.85983" lon="4.70976">
        <ele>197</ele>
        <time>2018-06-30T09:19:28Z</time>
      </trkpt>
      <trkpt lat="45.85978" lon="4.70973">
        <ele>197</ele>
        <time>2018-06-30T09:19:29Z</time>
      </trkpt>
      <trkpt lat="45.85973" lon="4.70971">
        <ele>197</ele>
        <time>2018-06-30T09:19:30Z</time>
      </trkpt>
      <trkpt lat="45.85968" lon="4.70969">
        <ele>197</ele>
        <time>2018-06-30T09:19:31Z</time>
      </trkpt>
      <trkpt lat="45.85963" lon="4.70968">
        <ele>197</ele>
        <time>2018-06-30T09:19:32Z</time>
      </trkpt>
      <trkpt lat="45.85957" lon="4.70969">
        <ele>197</ele>
        <time>2018-06-30T09:19:33Z</time>
      </trkpt>
      <trkpt lat="45.8595" lon="4.7097">
        <ele>197</ele>
        <time>2018-06-30T09:19:34Z</time>
      </trkpt>
      <trkpt lat="45.85944" lon="4.7097">
        <ele>197</ele>
        <time>2018-06-30T09:19:35Z</time>
      </trkpt>
      <trkpt lat="45.85938" lon="4.70964">
        <ele>197</ele>
        <time>2018-06-30T09:19:37Z</time>
      </trkpt>
      <trkpt lat="45.85937" lon="4.70958">
        <ele>197</ele>
        <time>2018-06-30T09:19:38Z</time>
      </trkpt>
      <trkpt lat="45.85938" lon="4.70956">
        <ele>197</ele>
        <time>2018-06-30T09:19:39Z</time>
      </trkpt>
      <trkpt lat="45.85942" lon="4.70948">
        <ele>197</ele>
        <time>2018-06-30T09:19:40Z</time>
      </trkpt>
      <trkpt lat="45.85945" lon="4.7094">
        <ele>197</ele>
        <time>2018-06-30T09:19:41Z</time>
      </trkpt>
      <trkpt lat="45.85947" lon="4.70932">
        <ele>197</ele>
        <time>2018-06-30T09:19:42Z</time>
      </trkpt>
      <trkpt lat="45.85949" lon="4.70925">
        <ele>197</ele>
        <time>2018-06-30T09:19:43Z</time>
      </trkpt>
      <trkpt lat="45.8595" lon="4.70919">
        <ele>197</ele>
        <time>2018-06-30T09:19:44Z</time>
      </trkpt>
      <trkpt lat="45.85951" lon="4.70907">
        <ele>197</ele>
        <time>2018-06-30T09:19:46Z</time>
      </trkpt>
      <trkpt lat="45.85953" lon="4.709">
        <ele>197</ele>
        <time>2018-06-30T09:19:47Z</time>
      </trkpt>
      <trkpt lat="45.85954" lon="4.70893">
        <ele>197</ele>
        <time>2018-06-30T09:19:48Z</time>
      </trkpt>
      <trkpt lat="45.85954" lon="4.70886">
        <ele>197</ele>
        <time>2018-06-30T09:19:49Z</time>
      </trkpt>
      <trkpt lat="45.85955" lon="4.70878">
        <ele>197</ele>
        <time>2018-06-30T09:19:50Z</time>
      </trkpt>
      <trkpt lat="45.85956" lon="4.7087">
        <ele>196</ele>
        <time>2018-06-30T09:19:51Z</time>
      </trkpt>
      <trkpt lat="45.85957" lon="4.70862">
        <ele>196</ele>
        <time>2018-06-30T09:19:52Z</time>
      </trkpt>
      <trkpt lat="45.8596" lon="4.70852">
        <ele>196</ele>
        <time>2018-06-30T09:19:53Z</time>
      </trkpt>
      <trkpt lat="45.8596" lon="4.70844">
        <ele>196</ele>
        <time>2018-06-30T09:19:54Z</time>
      </trkpt>
      <trkpt lat="45.85962" lon="4.70834">
        <ele>196</ele>
        <time>2018-06-30T09:19:55Z</time>
      </trkpt>
      <trkpt lat="45.8596" lon="4.70827">
        <ele>196</ele>
        <time>2018-06-30T09:19:56Z</time>
      </trkpt>
      <trkpt lat="45.8596" lon="4.70819">
        <ele>195</ele>
        <time>2018-06-30T09:19:57Z</time>
      </trkpt>
      <trkpt lat="45.85959" lon="4.7081">
        <ele>195</ele>
        <time>2018-06-30T09:19:58Z</time>
      </trkpt>
      <trkpt lat="45.85957" lon="4.70803">
        <ele>195</ele>
        <time>2018-06-30T09:19:59Z</time>
      </trkpt>
      <trkpt lat="45.85955" lon="4.70795">
        <ele>195</ele>
        <time>2018-06-30T09:20:00Z</time>
      </trkpt>
      <trkpt lat="45.85955" lon="4.70788">
        <ele>195</ele>
        <time>2018-06-30T09:20:01Z</time>
      </trkpt>
      <trkpt lat="45.85955" lon="4.70781">
        <ele>195</ele>
        <time>2018-06-30T09:20:02Z</time>
      </trkpt>
      <trkpt lat="45.85955" lon="4.70772">
        <ele>195</ele>
        <time>2018-06-30T09:20:03Z</time>
      </trkpt>
      <trkpt lat="45.85956" lon="4.70765">
        <ele>195</ele>
        <time>2018-06-30T09:20:04Z</time>
      </trkpt>
      <trkpt lat="45.85955" lon="4.70757">
        <ele>195</ele>
        <time>2018-06-30T09:20:05Z</time>
      </trkpt>
      <trkpt lat="45.85955" lon="4.70749">
        <ele>194</ele>
        <time>2018-06-30T09:20:06Z</time>
      </trkpt>
      <trkpt lat="45.85955" lon="4.70741">
        <ele>194</ele>
        <time>2018-06-30T09:20:07Z</time>
      </trkpt>
      <trkpt lat="45.85956" lon="4.70733">
        <ele>194</ele>
        <time>2018-06-30T09:20:08Z</time>
      </trkpt>
      <trkpt lat="45.85956" lon="4.70726">
        <ele>194</ele>
        <time>2018-06-30T09:20:09Z</time>
      </trkpt>
      <trkpt lat="45.85957" lon="4.70718">
        <ele>194</ele>
        <time>2018-06-30T09:20:10Z</time>
      </trkpt>
      <trkpt lat="45.85958" lon="4.70709">
        <ele>194</ele>
        <time>2018-06-30T09:20:11Z</time>
      </trkpt>
      <trkpt lat="45.85959" lon="4.70701">
        <ele>194</ele>
        <time>2018-06-30T09:20:12Z</time>
      </trkpt>
      <trkpt lat="45.85959" lon="4.70693">
        <ele>194</ele>
        <time>2018-06-30T09:20:13Z</time>
      </trkpt>
      <trkpt lat="45.85959" lon="4.70685">
        <ele>194</ele>
        <time>2018-06-30T09:20:14Z</time>
      </trkpt>
      <trkpt lat="45.85957" lon="4.70677">
        <ele>194</ele>
        <time>2018-06-30T09:20:15Z</time>
      </trkpt>
      <trkpt lat="45.85957" lon="4.7067">
        <ele>194</ele>
        <time>2018-06-30T09:20:16Z</time>
      </trkpt>
      <trkpt lat="45.85954" lon="4.70664">
        <ele>194</ele>
        <time>2018-06-30T09:20:17Z</time>
      </trkpt>
      <trkpt lat="45.85952" lon="4.70657">
        <ele>194</ele>
        <time>2018-06-30T09:20:18Z</time>
      </trkpt>
      <trkpt lat="45.8595" lon="4.70651">
        <ele>194</ele>
        <time>2018-06-30T09:20:19Z</time>
      </trkpt>
      <trkpt lat="45.85946" lon="4.70646">
        <ele>194</ele>
        <time>2018-06-30T09:20:20Z</time>
      </trkpt>
      <trkpt lat="45.85942" lon="4.7064">
        <ele>194</ele>
        <time>2018-06-30T09:20:21Z</time>
      </trkpt>
      <trkpt lat="45.85938" lon="4.70633">
        <ele>194</ele>
        <time>2018-06-30T09:20:22Z</time>
      </trkpt>
      <trkpt lat="45.85934" lon="4.70626">
        <ele>194</ele>
        <time>2018-06-30T09:20:23Z</time>
      </trkpt>
      <trkpt lat="45.85931" lon="4.7062">
        <ele>194</ele>
        <time>2018-06-30T09:20:24Z</time>
      </trkpt>
      <trkpt lat="45.85927" lon="4.70614">
        <ele>194</ele>
        <time>2018-06-30T09:20:25Z</time>
      </trkpt>
      <trkpt lat="45.85924" lon="4.70607">
        <ele>194</ele>
        <time>2018-06-30T09:20:26Z</time>
      </trkpt>
      <trkpt lat="45.8592" lon="4.70602">
        <ele>194</ele>
        <time>2018-06-30T09:20:27Z</time>
      </trkpt>
      <trkpt lat="45.85917" lon="4.70596">
        <ele>195</ele>
        <time>2018-06-30T09:20:28Z</time>
      </trkpt>
      <trkpt lat="45.85913" lon="4.70591">
        <ele>195</ele>
        <time>2018-06-30T09:20:29Z</time>
      </trkpt>
      <trkpt lat="45.8591" lon="4.70586">
        <ele>195</ele>
        <time>2018-06-30T09:20:30Z</time>
      </trkpt>
      <trkpt lat="45.85906" lon="4.70583">
        <ele>195</ele>
        <time>2018-06-30T09:20:31Z</time>
      </trkpt>
      <trkpt lat="45.85901" lon="4.7058">
        <ele>195</ele>
        <time>2018-06-30T09:20:32Z</time>
      </trkpt>
      <trkpt lat="45.85894" lon="4.70578">
        <ele>195</ele>
        <time>2018-06-30T09:20:33Z</time>
      </trkpt>
      <trkpt lat="45.85889" lon="4.70577">
        <ele>195</ele>
        <time>2018-06-30T09:20:34Z</time>
      </trkpt>
      <trkpt lat="45.85882" lon="4.70575">
        <ele>195</ele>
        <time>2018-06-30T09:20:35Z</time>
      </trkpt>
      <trkpt lat="45.85876" lon="4.70574">
        <ele>195</ele>
        <time>2018-06-30T09:20:36Z</time>
      </trkpt>
      <trkpt lat="45.85871" lon="4.70573">
        <ele>195</ele>
        <time>2018-06-30T09:20:37Z</time>
      </trkpt>
      <trkpt lat="45.85866" lon="4.70571">
        <ele>195</ele>
        <time>2018-06-30T09:20:38Z</time>
      </trkpt>
      <trkpt lat="45.85861" lon="4.7057">
        <ele>195</ele>
        <time>2018-06-30T09:20:39Z</time>
      </trkpt>
      <trkpt lat="45.85855" lon="4.70567">
        <ele>195</ele>
        <time>2018-06-30T09:20:40Z</time>
      </trkpt>
      <trkpt lat="45.85852" lon="4.70567">
        <ele>195</ele>
        <time>2018-06-30T09:20:41Z</time>
      </trkpt>
      <trkpt lat="45.85844" lon="4.7056">
        <ele>195</ele>
        <time>2018-06-30T09:20:43Z</time>
      </trkpt>
      <trkpt lat="45.8584" lon="4.70558">
        <ele>195</ele>
        <time>2018-06-30T09:20:44Z</time>
      </trkpt>
      <trkpt lat="45.85834" lon="4.70556">
        <ele>195</ele>
        <time>2018-06-30T09:20:45Z</time>
      </trkpt>
      <trkpt lat="45.85828" lon="4.70554">
        <ele>195</ele>
        <time>2018-06-30T09:20:46Z</time>
      </trkpt>
      <trkpt lat="45.85823" lon="4.70553">
        <ele>195</ele>
        <time>2018-06-30T09:20:47Z</time>
      </trkpt>
      <trkpt lat="45.85817" lon="4.70552">
        <ele>195</ele>
        <time>2018-06-30T09:20:48Z</time>
      </trkpt>
      <trkpt lat="45.85813" lon="4.70549">
        <ele>195</ele>
        <time>2018-06-30T09:20:49Z</time>
      </trkpt>
      <trkpt lat="45.85808" lon="4.70547">
        <ele>195</ele>
        <time>2018-06-30T09:20:50Z</time>
      </trkpt>
      <trkpt lat="45.85803" lon="4.70545">
        <ele>195</ele>
        <time>2018-06-30T09:20:51Z</time>
      </trkpt>
      <trkpt lat="45.85799" lon="4.70544">
        <ele>195</ele>
        <time>2018-06-30T09:20:52Z</time>
      </trkpt>
      <trkpt lat="45.85794" lon="4.70542">
        <ele>195</ele>
        <time>2018-06-30T09:20:53Z</time>
      </trkpt>
      <trkpt lat="45.85789" lon="4.70539">
        <ele>196</ele>
        <time>2018-06-30T09:20:54Z</time>
      </trkpt>
      <trkpt lat="45.85785" lon="4.70536">
        <ele>196</ele>
        <time>2018-06-30T09:20:55Z</time>
      </trkpt>
      <trkpt lat="45.85781" lon="4.70533">
        <ele>196</ele>
        <time>2018-06-30T09:20:56Z</time>
      </trkpt>
      <trkpt lat="45.85776" lon="4.70529">
        <ele>196</ele>
        <time>2018-06-30T09:20:57Z</time>
      </trkpt>
      <trkpt lat="45.85772" lon="4.70526">
        <ele>196</ele>
        <time>2018-06-30T09:20:58Z</time>
      </trkpt>
      <trkpt lat="45.85768" lon="4.70522">
        <ele>196</ele>
        <time>2018-06-30T09:20:59Z</time>
      </trkpt>
      <trkpt lat="45.85764" lon="4.7052">
        <ele>196</ele>
        <time>2018-06-30T09:21:00Z</time>
      </trkpt>
      <trkpt lat="45.85759" lon="4.70516">
        <ele>196</ele>
        <time>2018-06-30T09:21:01Z</time>
      </trkpt>
      <trkpt lat="45.85755" lon="4.70513">
        <ele>196</ele>
        <time>2018-06-30T09:21:02Z</time>
      </trkpt>
      <trkpt lat="45.85748" lon="4.70508">
        <ele>196</ele>
        <time>2018-06-30T09:21:04Z</time>
      </trkpt>
      <trkpt lat="45.85745" lon="4.70504">
        <ele>196</ele>
        <time>2018-06-30T09:21:05Z</time>
      </trkpt>
      <trkpt lat="45.85741" lon="4.70499">
        <ele>196</ele>
        <time>2018-06-30T09:21:08Z</time>
      </trkpt>
      <trkpt lat="45.85737" lon="4.70492">
        <ele>196</ele>
        <time>2018-06-30T09:21:09Z</time>
      </trkpt>
      <trkpt lat="45.85732" lon="4.70483">
        <ele>196</ele>
        <time>2018-06-30T09:21:11Z</time>
      </trkpt>
      <trkpt lat="45.85729" lon="4.70477">
        <ele>196</ele>
        <time>2018-06-30T09:21:12Z</time>
      </trkpt>
      <trkpt lat="45.85726" lon="4.70465">
        <ele>196</ele>
        <time>2018-06-30T09:21:14Z</time>
      </trkpt>
      <trkpt lat="45.85725" lon="4.70458">
        <ele>196</ele>
        <time>2018-06-30T09:21:15Z</time>
      </trkpt>
      <trkpt lat="45.85724" lon="4.70451">
        <ele>196</ele>
        <time>2018-06-30T09:21:16Z</time>
      </trkpt>
      <trkpt lat="45.85724" lon="4.70444">
        <ele>196</ele>
        <time>2018-06-30T09:21:17Z</time>
      </trkpt>
      <trkpt lat="45.85723" lon="4.70436">
        <ele>196</ele>
        <time>2018-06-30T09:21:18Z</time>
      </trkpt>
      <trkpt lat="45.8572" lon="4.70428">
        <ele>196</ele>
        <time>2018-06-30T09:21:19Z</time>
      </trkpt>
      <trkpt lat="45.85719" lon="4.7042">
        <ele>196</ele>
        <time>2018-06-30T09:21:20Z</time>
      </trkpt>
      <trkpt lat="45.85718" lon="4.70413">
        <ele>196</ele>
        <time>2018-06-30T09:21:21Z</time>
      </trkpt>
      <trkpt lat="45.85717" lon="4.70405">
        <ele>196</ele>
        <time>2018-06-30T09:21:22Z</time>
      </trkpt>
      <trkpt lat="45.85716" lon="4.70397">
        <ele>196</ele>
        <time>2018-06-30T09:21:23Z</time>
      </trkpt>
      <trkpt lat="45.85715" lon="4.70389">
        <ele>196</ele>
        <time>2018-06-30T09:21:24Z</time>
      </trkpt>
      <trkpt lat="45.85714" lon="4.7038">
        <ele>196</ele>
        <time>2018-06-30T09:21:25Z</time>
      </trkpt>
      <trkpt lat="45.85713" lon="4.70372">
        <ele>196</ele>
        <time>2018-06-30T09:21:26Z</time>
      </trkpt>
      <trkpt lat="45.85712" lon="4.70363">
        <ele>196</ele>
        <time>2018-06-30T09:21:27Z</time>
      </trkpt>
      <trkpt lat="45.85712" lon="4.70355">
        <ele>196</ele>
        <time>2018-06-30T09:21:28Z</time>
      </trkpt>
      <trkpt lat="45.85711" lon="4.70347">
        <ele>196</ele>
        <time>2018-06-30T09:21:29Z</time>
      </trkpt>
      <trkpt lat="45.85711" lon="4.70338">
        <ele>196</ele>
        <time>2018-06-30T09:21:30Z</time>
      </trkpt>
      <trkpt lat="45.8571" lon="4.7033">
        <ele>197</ele>
        <time>2018-06-30T09:21:31Z</time>
      </trkpt>
      <trkpt lat="45.8571" lon="4.70321">
        <ele>197</ele>
        <time>2018-06-30T09:21:32Z</time>
      </trkpt>
      <trkpt lat="45.85709" lon="4.70313">
        <ele>197</ele>
        <time>2018-06-30T09:21:33Z</time>
      </trkpt>
      <trkpt lat="45.85709" lon="4.70304">
        <ele>197</ele>
        <time>2018-06-30T09:21:34Z</time>
      </trkpt>
      <trkpt lat="45.85708" lon="4.70295">
        <ele>197</ele>
        <time>2018-06-30T09:21:35Z</time>
      </trkpt>
      <trkpt lat="45.85707" lon="4.70288">
        <ele>197</ele>
        <time>2018-06-30T09:21:36Z</time>
      </trkpt>
      <trkpt lat="45.85706" lon="4.70279">
        <ele>197</ele>
        <time>2018-06-30T09:21:37Z</time>
      </trkpt>
      <trkpt lat="45.85705" lon="4.70271">
        <ele>197</ele>
        <time>2018-06-30T09:21:38Z</time>
      </trkpt>
      <trkpt lat="45.85703" lon="4.70262">
        <ele>197</ele>
        <time>2018-06-30T09:21:39Z</time>
      </trkpt>
      <trkpt lat="45.85703" lon="4.70255">
        <ele>197</ele>
        <time>2018-06-30T09:21:40Z</time>
      </trkpt>
      <trkpt lat="45.85701" lon="4.70247">
        <ele>197</ele>
        <time>2018-06-30T09:21:41Z</time>
      </trkpt>
      <trkpt lat="45.857" lon="4.70238">
        <ele>197</ele>
        <time>2018-06-30T09:21:42Z</time>
      </trkpt>
      <trkpt lat="45.85698" lon="4.7023">
        <ele>197</ele>
        <time>2018-06-30T09:21:43Z</time>
      </trkpt>
      <trkpt lat="45.85697" lon="4.70221">
        <ele>197</ele>
        <time>2018-06-30T09:21:44Z</time>
      </trkpt>
      <trkpt lat="45.85696" lon="4.70213">
        <ele>197</ele>
        <time>2018-06-30T09:21:45Z</time>
      </trkpt>
      <trkpt lat="45.85691" lon="4.70205">
        <ele>197</ele>
        <time>2018-06-30T09:21:46Z</time>
      </trkpt>
      <trkpt lat="45.85688" lon="4.70197">
        <ele>197</ele>
        <time>2018-06-30T09:21:47Z</time>
      </trkpt>
      <trkpt lat="45.85689" lon="4.7019">
        <ele>197</ele>
        <time>2018-06-30T09:21:48Z</time>
      </trkpt>
      <trkpt lat="45.85688" lon="4.70182">
        <ele>197</ele>
        <time>2018-06-30T09:21:49Z</time>
      </trkpt>
      <trkpt lat="45.85686" lon="4.70174">
        <ele>197</ele>
        <time>2018-06-30T09:21:50Z</time>
      </trkpt>
      <trkpt lat="45.85683" lon="4.70167">
        <ele>197</ele>
        <time>2018-06-30T09:21:51Z</time>
      </trkpt>
      <trkpt lat="45.85682" lon="4.70159">
        <ele>197</ele>
        <time>2018-06-30T09:21:52Z</time>
      </trkpt>
      <trkpt lat="45.85681" lon="4.70151">
        <ele>197</ele>
        <time>2018-06-30T09:21:53Z</time>
      </trkpt>
      <trkpt lat="45.85679" lon="4.70144">
        <ele>197</ele>
        <time>2018-06-30T09:21:54Z</time>
      </trkpt>
      <trkpt lat="45.85677" lon="4.70137">
        <ele>197</ele>
        <time>2018-06-30T09:21:55Z</time>
      </trkpt>
      <trkpt lat="45.85676" lon="4.70128">
        <ele>197</ele>
        <time>2018-06-30T09:21:56Z</time>
      </trkpt>
      <trkpt lat="45.85678" lon="4.7012">
        <ele>197</ele>
        <time>2018-06-30T09:21:57Z</time>
      </trkpt>
      <trkpt lat="45.85678" lon="4.70111">
        <ele>197</ele>
        <time>2018-06-30T09:21:58Z</time>
      </trkpt>
      <trkpt lat="45.85678" lon="4.70103">
        <ele>196</ele>
        <time>2018-06-30T09:21:59Z</time>
      </trkpt>
      <trkpt lat="45.85679" lon="4.70094">
        <ele>196</ele>
        <time>2018-06-30T09:22:00Z</time>
      </trkpt>
      <trkpt lat="45.85679" lon="4.70087">
        <ele>196</ele>
        <time>2018-06-30T09:22:01Z</time>
      </trkpt>
      <trkpt lat="45.85681" lon="4.70079">
        <ele>196</ele>
        <time>2018-06-30T09:22:02Z</time>
      </trkpt>
      <trkpt lat="45.85682" lon="4.70073">
        <ele>196</ele>
        <time>2018-06-30T09:22:03Z</time>
      </trkpt>
      <trkpt lat="45.85684" lon="4.70067">
        <ele>196</ele>
        <time>2018-06-30T09:22:04Z</time>
      </trkpt>
      <trkpt lat="45.85685" lon="4.70061">
        <ele>195</ele>
        <time>2018-06-30T09:22:05Z</time>
      </trkpt>
      <trkpt lat="45.85687" lon="4.70055">
        <ele>195</ele>
        <time>2018-06-30T09:22:06Z</time>
      </trkpt>
      <trkpt lat="45.85688" lon="4.70049">
        <ele>195</ele>
        <time>2018-06-30T09:22:07Z</time>
      </trkpt>
      <trkpt lat="45.85691" lon="4.70042">
        <ele>195</ele>
        <time>2018-06-30T09:22:08Z</time>
      </trkpt>
      <trkpt lat="45.85692" lon="4.70034">
        <ele>195</ele>
        <time>2018-06-30T09:22:09Z</time>
      </trkpt>
      <trkpt lat="45.85693" lon="4.70028">
        <ele>195</ele>
        <time>2018-06-30T09:22:10Z</time>
      </trkpt>
      <trkpt lat="45.85695" lon="4.70019">
        <ele>195</ele>
        <time>2018-06-30T09:22:11Z</time>
      </trkpt>
      <trkpt lat="45.85696" lon="4.70011">
        <ele>195</ele>
        <time>2018-06-30T09:22:12Z</time>
      </trkpt>
      <trkpt lat="45.85694" lon="4.70002">
        <ele>195</ele>
        <time>2018-06-30T09:22:13Z</time>
      </trkpt>
      <trkpt lat="45.85693" lon="4.69993">
        <ele>195</ele>
        <time>2018-06-30T09:22:14Z</time>
      </trkpt>
      <trkpt lat="45.8569" lon="4.69983">
        <ele>195</ele>
        <time>2018-06-30T09:22:15Z</time>
      </trkpt>
      <trkpt lat="45.85687" lon="4.69972">
        <ele>195</ele>
        <time>2018-06-30T09:22:16Z</time>
      </trkpt>
      <trkpt lat="45.85685" lon="4.69963">
        <ele>195</ele>
        <time>2018-06-30T09:22:17Z</time>
      </trkpt>
      <trkpt lat="45.85683" lon="4.69954">
        <ele>195</ele>
        <time>2018-06-30T09:22:18Z</time>
      </trkpt>
      <trkpt lat="45.85679" lon="4.69945">
        <ele>195</ele>
        <time>2018-06-30T09:22:19Z</time>
      </trkpt>
      <trkpt lat="45.85676" lon="4.69937">
        <ele>195</ele>
        <time>2018-06-30T09:22:20Z</time>
      </trkpt>
      <trkpt lat="45.85674" lon="4.69929">
        <ele>195</ele>
        <time>2018-06-30T09:22:21Z</time>
      </trkpt>
      <trkpt lat="45.85671" lon="4.69921">
        <ele>195</ele>
        <time>2018-06-30T09:22:22Z</time>
      </trkpt>
      <trkpt lat="45.85669" lon="4.69912">
        <ele>195</ele>
        <time>2018-06-30T09:22:23Z</time>
      </trkpt>
      <trkpt lat="45.85667" lon="4.69903">
        <ele>195</ele>
        <time>2018-06-30T09:22:24Z</time>
      </trkpt>
      <trkpt lat="45.85666" lon="4.69892">
        <ele>195</ele>
        <time>2018-06-30T09:22:25Z</time>
      </trkpt>
      <trkpt lat="45.85663" lon="4.69883">
        <ele>195</ele>
        <time>2018-06-30T09:22:26Z</time>
      </trkpt>
      <trkpt lat="45.85662" lon="4.69875">
        <ele>195</ele>
        <time>2018-06-30T09:22:27Z</time>
      </trkpt>
      <trkpt lat="45.85661" lon="4.69866">
        <ele>195</ele>
        <time>2018-06-30T09:22:28Z</time>
      </trkpt>
      <trkpt lat="45.8566" lon="4.69858">
        <ele>195</ele>
        <time>2018-06-30T09:22:29Z</time>
      </trkpt>
      <trkpt lat="45.85659" lon="4.69849">
        <ele>195</ele>
        <time>2018-06-30T09:22:30Z</time>
      </trkpt>
      <trkpt lat="45.85658" lon="4.69842">
        <ele>195</ele>
        <time>2018-06-30T09:22:31Z</time>
      </trkpt>
      <trkpt lat="45.85657" lon="4.69835">
        <ele>195</ele>
        <time>2018-06-30T09:22:32Z</time>
      </trkpt>
      <trkpt lat="45.85657" lon="4.69827">
        <ele>195</ele>
        <time>2018-06-30T09:22:33Z</time>
      </trkpt>
      <trkpt lat="45.85657" lon="4.6982">
        <ele>195</ele>
        <time>2018-06-30T09:22:34Z</time>
      </trkpt>
      <trkpt lat="45.85658" lon="4.69813">
        <ele>195</ele>
        <time>2018-06-30T09:22:35Z</time>
      </trkpt>
      <trkpt lat="45.85658" lon="4.69805">
        <ele>195</ele>
        <time>2018-06-30T09:22:36Z</time>
      </trkpt>
      <trkpt lat="45.85657" lon="4.69797">
        <ele>195</ele>
        <time>2018-06-30T09:22:37Z</time>
      </trkpt>
      <trkpt lat="45.85656" lon="4.69788">
        <ele>195</ele>
        <time>2018-06-30T09:22:38Z</time>
      </trkpt>
      <trkpt lat="45.85655" lon="4.69781">
        <ele>195</ele>
        <time>2018-06-30T09:22:39Z</time>
      </trkpt>
      <trkpt lat="45.85654" lon="4.69773">
        <ele>195</ele>
        <time>2018-06-30T09:22:40Z</time>
      </trkpt>
      <trkpt lat="45.85654" lon="4.69765">
        <ele>195</ele>
        <time>2018-06-30T09:22:41Z</time>
      </trkpt>
      <trkpt lat="45.85654" lon="4.69758">
        <ele>195</ele>
        <time>2018-06-30T09:22:42Z</time>
      </trkpt>
      <trkpt lat="45.85654" lon="4.69749">
        <ele>195</ele>
        <time>2018-06-30T09:22:43Z</time>
      </trkpt>
      <trkpt lat="45.85652" lon="4.69743">
        <ele>195</ele>
        <time>2018-06-30T09:22:44Z</time>
      </trkpt>
      <trkpt lat="45.85651" lon="4.69735">
        <ele>195</ele>
        <time>2018-06-30T09:22:45Z</time>
      </trkpt>
      <trkpt lat="45.8565" lon="4.69727">
        <ele>195</ele>
        <time>2018-06-30T09:22:46Z</time>
      </trkpt>
      <trkpt lat="45.85649" lon="4.69719">
        <ele>196</ele>
        <time>2018-06-30T09:22:47Z</time>
      </trkpt>
      <trkpt lat="45.85648" lon="4.6971">
        <ele>196</ele>
        <time>2018-06-30T09:22:48Z</time>
      </trkpt>
      <trkpt lat="45.85648" lon="4.69701">
        <ele>196</ele>
        <time>2018-06-30T09:22:49Z</time>
      </trkpt>
      <trkpt lat="45.85647" lon="4.69691">
        <ele>196</ele>
        <time>2018-06-30T09:22:50Z</time>
      </trkpt>
      <trkpt lat="45.85646" lon="4.69682">
        <ele>196</ele>
        <time>2018-06-30T09:22:51Z</time>
      </trkpt>
      <trkpt lat="45.85645" lon="4.69674">
        <ele>196</ele>
        <time>2018-06-30T09:22:52Z</time>
      </trkpt>
      <trkpt lat="45.85645" lon="4.69665">
        <ele>197</ele>
        <time>2018-06-30T09:22:53Z</time>
      </trkpt>
      <trkpt lat="45.85644" lon="4.69656">
        <ele>197</ele>
        <time>2018-06-30T09:22:54Z</time>
      </trkpt>
      <trkpt lat="45.85645" lon="4.69647">
        <ele>197</ele>
        <time>2018-06-30T09:22:55Z</time>
      </trkpt>
      <trkpt lat="45.85644" lon="4.69638">
        <ele>197</ele>
        <time>2018-06-30T09:22:56Z</time>
      </trkpt>
      <trkpt lat="45.85643" lon="4.69629">
        <ele>197</ele>
        <time>2018-06-30T09:22:57Z</time>
      </trkpt>
      <trkpt lat="45.85642" lon="4.69619">
        <ele>197</ele>
        <time>2018-06-30T09:22:58Z</time>
      </trkpt>
      <trkpt lat="45.85642" lon="4.69611">
        <ele>197</ele>
        <time>2018-06-30T09:22:59Z</time>
      </trkpt>
      <trkpt lat="45.85641" lon="4.69601">
        <ele>197</ele>
        <time>2018-06-30T09:23:00Z</time>
      </trkpt>
      <trkpt lat="45.8564" lon="4.69592">
        <ele>197</ele>
        <time>2018-06-30T09:23:01Z</time>
      </trkpt>
      <trkpt lat="45.8564" lon="4.69584">
        <ele>197</ele>
        <time>2018-06-30T09:23:02Z</time>
      </trkpt>
      <trkpt lat="45.85639" lon="4.69574">
        <ele>198</ele>
        <time>2018-06-30T09:23:03Z</time>
      </trkpt>
      <trkpt lat="45.85638" lon="4.69564">
        <ele>198</ele>
        <time>2018-06-30T09:23:04Z</time>
      </trkpt>
      <trkpt lat="45.85636" lon="4.69555">
        <ele>198</ele>
        <time>2018-06-30T09:23:05Z</time>
      </trkpt>
      <trkpt lat="45.85635" lon="4.69545">
        <ele>198</ele>
        <time>2018-06-30T09:23:06Z</time>
      </trkpt>
      <trkpt lat="45.85634" lon="4.69535">
        <ele>198</ele>
        <time>2018-06-30T09:23:07Z</time>
      </trkpt>
      <trkpt lat="45.85633" lon="4.69526">
        <ele>198</ele>
        <time>2018-06-30T09:23:08Z</time>
      </trkpt>
      <trkpt lat="45.85631" lon="4.69516">
        <ele>198</ele>
        <time>2018-06-30T09:23:09Z</time>
      </trkpt>
      <trkpt lat="45.85631" lon="4.69507">
        <ele>198</ele>
        <time>2018-06-30T09:23:10Z</time>
      </trkpt>
      <trkpt lat="45.85631" lon="4.69498">
        <ele>198</ele>
        <time>2018-06-30T09:23:11Z</time>
      </trkpt>
      <trkpt lat="45.85631" lon="4.69488">
        <ele>198</ele>
        <time>2018-06-30T09:23:12Z</time>
      </trkpt>
      <trkpt lat="45.8563" lon="4.69478">
        <ele>198</ele>
        <time>2018-06-30T09:23:13Z</time>
      </trkpt>
      <trkpt lat="45.85629" lon="4.69468">
        <ele>198</ele>
        <time>2018-06-30T09:23:14Z</time>
      </trkpt>
      <trkpt lat="45.85629" lon="4.69457">
        <ele>198</ele>
        <time>2018-06-30T09:23:15Z</time>
      </trkpt>
      <trkpt lat="45.85626" lon="4.69448">
        <ele>198</ele>
        <time>2018-06-30T09:23:16Z</time>
      </trkpt>
      <trkpt lat="45.85625" lon="4.69438">
        <ele>198</ele>
        <time>2018-06-30T09:23:17Z</time>
      </trkpt>
      <trkpt lat="45.85624" lon="4.69428">
        <ele>198</ele>
        <time>2018-06-30T09:23:18Z</time>
      </trkpt>
      <trkpt lat="45.85624" lon="4.69419">
        <ele>198</ele>
        <time>2018-06-30T09:23:19Z</time>
      </trkpt>
      <trkpt lat="45.85623" lon="4.6941">
        <ele>198</ele>
        <time>2018-06-30T09:23:20Z</time>
      </trkpt>
      <trkpt lat="45.85622" lon="4.69401">
        <ele>198</ele>
        <time>2018-06-30T09:23:21Z</time>
      </trkpt>
      <trkpt lat="45.85622" lon="4.69392">
        <ele>198</ele>
        <time>2018-06-30T09:23:22Z</time>
      </trkpt>
      <trkpt lat="45.85621" lon="4.69383">
        <ele>198</ele>
        <time>2018-06-30T09:23:23Z</time>
      </trkpt>
      <trkpt lat="45.85621" lon="4.69375">
        <ele>198</ele>
        <time>2018-06-30T09:23:24Z</time>
      </trkpt>
      <trkpt lat="45.8562" lon="4.69367">
        <ele>198</ele>
        <time>2018-06-30T09:23:25Z</time>
      </trkpt>
      <trkpt lat="45.85619" lon="4.69359">
        <ele>198</ele>
        <time>2018-06-30T09:23:26Z</time>
      </trkpt>
      <trkpt lat="45.85619" lon="4.6935">
        <ele>198</ele>
        <time>2018-06-30T09:23:27Z</time>
      </trkpt>
      <trkpt lat="45.85618" lon="4.69342">
        <ele>198</ele>
        <time>2018-06-30T09:23:28Z</time>
      </trkpt>
      <trkpt lat="45.85616" lon="4.69334">
        <ele>198</ele>
        <time>2018-06-30T09:23:29Z</time>
      </trkpt>
      <trkpt lat="45.85617" lon="4.69323">
        <ele>198</ele>
        <time>2018-06-30T09:23:32Z</time>
      </trkpt>
      <trkpt lat="45.85617" lon="4.6932">
        <ele>198</ele>
        <time>2018-06-30T09:23:33Z</time>
      </trkpt>
      <trkpt lat="45.85616" lon="4.69309">
        <ele>198</ele>
        <time>2018-06-30T09:23:36Z</time>
      </trkpt>
      <trkpt lat="45.85615" lon="4.69306">
        <ele>198</ele>
        <time>2018-06-30T09:23:37Z</time>
      </trkpt>
      <trkpt lat="45.85615" lon="4.69297">
        <ele>198</ele>
        <time>2018-06-30T09:23:39Z</time>
      </trkpt>
      <trkpt lat="45.85615" lon="4.69292">
        <ele>198</ele>
        <time>2018-06-30T09:23:40Z</time>
      </trkpt>
      <trkpt lat="45.85616" lon="4.69279">
        <ele>198</ele>
        <time>2018-06-30T09:23:41Z</time>
      </trkpt>
      <trkpt lat="45.85618" lon="4.69269">
        <ele>198</ele>
        <time>2018-06-30T09:23:43Z</time>
      </trkpt>
      <trkpt lat="45.85615" lon="4.69261">
        <ele>198</ele>
        <time>2018-06-30T09:23:44Z</time>
      </trkpt>
      <trkpt lat="45.85613" lon="4.69254">
        <ele>198</ele>
        <time>2018-06-30T09:23:45Z</time>
      </trkpt>
      <trkpt lat="45.85611" lon="4.69248">
        <ele>199</ele>
        <time>2018-06-30T09:23:46Z</time>
      </trkpt>
      <trkpt lat="45.85607" lon="4.69238">
        <ele>199</ele>
        <time>2018-06-30T09:23:48Z</time>
      </trkpt>
      <trkpt lat="45.85605" lon="4.69231">
        <ele>199</ele>
        <time>2018-06-30T09:23:49Z</time>
      </trkpt>
      <trkpt lat="45.85604" lon="4.69224">
        <ele>199</ele>
        <time>2018-06-30T09:23:50Z</time>
      </trkpt>
      <trkpt lat="45.85601" lon="4.69216">
        <ele>199</ele>
        <time>2018-06-30T09:23:51Z</time>
      </trkpt>
      <trkpt lat="45.85601" lon="4.69208">
        <ele>199</ele>
        <time>2018-06-30T09:23:52Z</time>
      </trkpt>
      <trkpt lat="45.85599" lon="4.69199">
        <ele>199</ele>
        <time>2018-06-30T09:23:53Z</time>
      </trkpt>
      <trkpt lat="45.85599" lon="4.6919">
        <ele>199</ele>
        <time>2018-06-30T09:23:54Z</time>
      </trkpt>
      <trkpt lat="45.85598" lon="4.69181">
        <ele>199</ele>
        <time>2018-06-30T09:23:55Z</time>
      </trkpt>
      <trkpt lat="45.85598" lon="4.69174">
        <ele>199</ele>
        <time>2018-06-30T09:23:56Z</time>
      </trkpt>
      <trkpt lat="45.85597" lon="4.69167">
        <ele>199</ele>
        <time>2018-06-30T09:23:57Z</time>
      </trkpt>
      <trkpt lat="45.85597" lon="4.69158">
        <ele>199</ele>
        <time>2018-06-30T09:23:58Z</time>
      </trkpt>
      <trkpt lat="45.85595" lon="4.69151">
        <ele>199</ele>
        <time>2018-06-30T09:23:59Z</time>
      </trkpt>
      <trkpt lat="45.85595" lon="4.69142">
        <ele>199</ele>
        <time>2018-06-30T09:24:00Z</time>
      </trkpt>
      <trkpt lat="45.85594" lon="4.69135">
        <ele>199</ele>
        <time>2018-06-30T09:24:01Z</time>
      </trkpt>
      <trkpt lat="45.85594" lon="4.69127">
        <ele>198</ele>
        <time>2018-06-30T09:24:02Z</time>
      </trkpt>
      <trkpt lat="45.85594" lon="4.6912">
        <ele>198</ele>
        <time>2018-06-30T09:24:03Z</time>
      </trkpt>
      <trkpt lat="45.85593" lon="4.69113">
        <ele>199</ele>
        <time>2018-06-30T09:24:04Z</time>
      </trkpt>
      <trkpt lat="45.85593" lon="4.69105">
        <ele>199</ele>
        <time>2018-06-30T09:24:05Z</time>
      </trkpt>
      <trkpt lat="45.85594" lon="4.69097">
        <ele>199</ele>
        <time>2018-06-30T09:24:06Z</time>
      </trkpt>
      <trkpt lat="45.85592" lon="4.69088">
        <ele>199</ele>
        <time>2018-06-30T09:24:07Z</time>
      </trkpt>
      <trkpt lat="45.85591" lon="4.69078">
        <ele>199</ele>
        <time>2018-06-30T09:24:08Z</time>
      </trkpt>
      <trkpt lat="45.85589" lon="4.69069">
        <ele>199</ele>
        <time>2018-06-30T09:24:09Z</time>
      </trkpt>
      <trkpt lat="45.85587" lon="4.6906">
        <ele>199</ele>
        <time>2018-06-30T09:24:10Z</time>
      </trkpt>
      <trkpt lat="45.85587" lon="4.69051">
        <ele>199</ele>
        <time>2018-06-30T09:24:11Z</time>
      </trkpt>
      <trkpt lat="45.85586" lon="4.69043">
        <ele>199</ele>
        <time>2018-06-30T09:24:12Z</time>
      </trkpt>
      <trkpt lat="45.85585" lon="4.69034">
        <ele>199</ele>
        <time>2018-06-30T09:24:13Z</time>
      </trkpt>
      <trkpt lat="45.85585" lon="4.69026">
        <ele>199</ele>
        <time>2018-06-30T09:24:14Z</time>
      </trkpt>
      <trkpt lat="45.85584" lon="4.69018">
        <ele>199</ele>
        <time>2018-06-30T09:24:15Z</time>
      </trkpt>
      <trkpt lat="45.85583" lon="4.69011">
        <ele>200</ele>
        <time>2018-06-30T09:24:16Z</time>
      </trkpt>
      <trkpt lat="45.85582" lon="4.69003">
        <ele>200</ele>
        <time>2018-06-30T09:24:17Z</time>
      </trkpt>
      <trkpt lat="45.85582" lon="4.68995">
        <ele>200</ele>
        <time>2018-06-30T09:24:18Z</time>
      </trkpt>
      <trkpt lat="45.85582" lon="4.68987">
        <ele>200</ele>
        <time>2018-06-30T09:24:19Z</time>
      </trkpt>
      <trkpt lat="45.85581" lon="4.68978">
        <ele>200</ele>
        <time>2018-06-30T09:24:20Z</time>
      </trkpt>
      <trkpt lat="45.8558" lon="4.68969">
        <ele>200</ele>
        <time>2018-06-30T09:24:21Z</time>
      </trkpt>
      <trkpt lat="45.8558" lon="4.6896">
        <ele>200</ele>
        <time>2018-06-30T09:24:22Z</time>
      </trkpt>
      <trkpt lat="45.85578" lon="4.6895">
        <ele>200</ele>
        <time>2018-06-30T09:24:23Z</time>
      </trkpt>
      <trkpt lat="45.85578" lon="4.68942">
        <ele>200</ele>
        <time>2018-06-30T09:24:24Z</time>
      </trkpt>
      <trkpt lat="45.85577" lon="4.68934">
        <ele>200</ele>
        <time>2018-06-30T09:24:25Z</time>
      </trkpt>
      <trkpt lat="45.85577" lon="4.68926">
        <ele>200</ele>
        <time>2018-06-30T09:24:26Z</time>
      </trkpt>
      <trkpt lat="45.85576" lon="4.68917">
        <ele>200</ele>
        <time>2018-06-30T09:24:27Z</time>
      </trkpt>
      <trkpt lat="45.85575" lon="4.68908">
        <ele>200</ele>
        <time>2018-06-30T09:24:28Z</time>
      </trkpt>
      <trkpt lat="45.85574" lon="4.68899">
        <ele>200</ele>
        <time>2018-06-30T09:24:29Z</time>
      </trkpt>
      <trkpt lat="45.85575" lon="4.68893">
        <ele>200</ele>
        <time>2018-06-30T09:24:30Z</time>
      </trkpt>
      <trkpt lat="45.85576" lon="4.68885">
        <ele>200</ele>
        <time>2018-06-30T09:24:31Z</time>
      </trkpt>
      <trkpt lat="45.85576" lon="4.68876">
        <ele>200</ele>
        <time>2018-06-30T09:24:32Z</time>
      </trkpt>
      <trkpt lat="45.85575" lon="4.68867">
        <ele>200</ele>
        <time>2018-06-30T09:24:33Z</time>
      </trkpt>
      <trkpt lat="45.85574" lon="4.68858">
        <ele>200</ele>
        <time>2018-06-30T09:24:34Z</time>
      </trkpt>
      <trkpt lat="45.85574" lon="4.6885">
        <ele>200</ele>
        <time>2018-06-30T09:24:35Z</time>
      </trkpt>
      <trkpt lat="45.85574" lon="4.68841">
        <ele>200</ele>
        <time>2018-06-30T09:24:36Z</time>
      </trkpt>
      <trkpt lat="45.85573" lon="4.68833">
        <ele>200</ele>
        <time>2018-06-30T09:24:37Z</time>
      </trkpt>
      <trkpt lat="45.85571" lon="4.68824">
        <ele>200</ele>
        <time>2018-06-30T09:24:38Z</time>
      </trkpt>
      <trkpt lat="45.85571" lon="4.68816">
        <ele>200</ele>
        <time>2018-06-30T09:24:39Z</time>
      </trkpt>
      <trkpt lat="45.85569" lon="4.68807">
        <ele>200</ele>
        <time>2018-06-30T09:24:40Z</time>
      </trkpt>
      <trkpt lat="45.85567" lon="4.68799">
        <ele>200</ele>
        <time>2018-06-30T09:24:41Z</time>
      </trkpt>
      <trkpt lat="45.85567" lon="4.68791">
        <ele>200</ele>
        <time>2018-06-30T09:24:42Z</time>
      </trkpt>
      <trkpt lat="45.85565" lon="4.68783">
        <ele>200</ele>
        <time>2018-06-30T09:24:43Z</time>
      </trkpt>
      <trkpt lat="45.85561" lon="4.68773">
        <ele>200</ele>
        <time>2018-06-30T09:24:44Z</time>
      </trkpt>
      <trkpt lat="45.85561" lon="4.68766">
        <ele>200</ele>
        <time>2018-06-30T09:24:45Z</time>
      </trkpt>
      <trkpt lat="45.85561" lon="4.68759">
        <ele>200</ele>
        <time>2018-06-30T09:24:46Z</time>
      </trkpt>
      <trkpt lat="45.8556" lon="4.68751">
        <ele>200</ele>
        <time>2018-06-30T09:24:47Z</time>
      </trkpt>
      <trkpt lat="45.85559" lon="4.68744">
        <ele>200</ele>
        <time>2018-06-30T09:24:48Z</time>
      </trkpt>
      <trkpt lat="45.85558" lon="4.68735">
        <ele>200</ele>
        <time>2018-06-30T09:24:49Z</time>
      </trkpt>
      <trkpt lat="45.85557" lon="4.68726">
        <ele>200</ele>
        <time>2018-06-30T09:24:50Z</time>
      </trkpt>
      <trkpt lat="45.85557" lon="4.68718">
        <ele>200</ele>
        <time>2018-06-30T09:24:51Z</time>
      </trkpt>
      <trkpt lat="45.85556" lon="4.68709">
        <ele>200</ele>
        <time>2018-06-30T09:24:52Z</time>
      </trkpt>
      <trkpt lat="45.85554" lon="4.68701">
        <ele>200</ele>
        <time>2018-06-30T09:24:53Z</time>
      </trkpt>
      <trkpt lat="45.85553" lon="4.68692">
        <ele>200</ele>
        <time>2018-06-30T09:24:54Z</time>
      </trkpt>
      <trkpt lat="45.85553" lon="4.68684">
        <ele>200</ele>
        <time>2018-06-30T09:24:55Z</time>
      </trkpt>
      <trkpt lat="45.85552" lon="4.68676">
        <ele>200</ele>
        <time>2018-06-30T09:24:56Z</time>
      </trkpt>
      <trkpt lat="45.85551" lon="4.68667">
        <ele>200</ele>
        <time>2018-06-30T09:24:57Z</time>
      </trkpt>
      <trkpt lat="45.8555" lon="4.68659">
        <ele>200</ele>
        <time>2018-06-30T09:24:58Z</time>
      </trkpt>
      <trkpt lat="45.85549" lon="4.68651">
        <ele>201</ele>
        <time>2018-06-30T09:24:59Z</time>
      </trkpt>
      <trkpt lat="45.85548" lon="4.68643">
        <ele>201</ele>
        <time>2018-06-30T09:25:00Z</time>
      </trkpt>
      <trkpt lat="45.85546" lon="4.68635">
        <ele>201</ele>
        <time>2018-06-30T09:25:01Z</time>
      </trkpt>
      <trkpt lat="45.85543" lon="4.68626">
        <ele>201</ele>
        <time>2018-06-30T09:25:02Z</time>
      </trkpt>
      <trkpt lat="45.85542" lon="4.68617">
        <ele>201</ele>
        <time>2018-06-30T09:25:03Z</time>
      </trkpt>
      <trkpt lat="45.85541" lon="4.68608">
        <ele>201</ele>
        <time>2018-06-30T09:25:04Z</time>
      </trkpt>
      <trkpt lat="45.85539" lon="4.68599">
        <ele>201</ele>
        <time>2018-06-30T09:25:05Z</time>
      </trkpt>
      <trkpt lat="45.85538" lon="4.68591">
        <ele>201</ele>
        <time>2018-06-30T09:25:06Z</time>
      </trkpt>
      <trkpt lat="45.8554" lon="4.68582">
        <ele>201</ele>
        <time>2018-06-30T09:25:07Z</time>
      </trkpt>
      <trkpt lat="45.85542" lon="4.68574">
        <ele>201</ele>
        <time>2018-06-30T09:25:08Z</time>
      </trkpt>
      <trkpt lat="45.8554" lon="4.68565">
        <ele>201</ele>
        <time>2018-06-30T09:25:09Z</time>
      </trkpt>
      <trkpt lat="45.8554" lon="4.68556">
        <ele>201</ele>
        <time>2018-06-30T09:25:10Z</time>
      </trkpt>
      <trkpt lat="45.85539" lon="4.68548">
        <ele>201</ele>
        <time>2018-06-30T09:25:11Z</time>
      </trkpt>
      <trkpt lat="45.85538" lon="4.68539">
        <ele>201</ele>
        <time>2018-06-30T09:25:12Z</time>
      </trkpt>
      <trkpt lat="45.85537" lon="4.6853">
        <ele>201</ele>
        <time>2018-06-30T09:25:13Z</time>
      </trkpt>
      <trkpt lat="45.85536" lon="4.68522">
        <ele>201</ele>
        <time>2018-06-30T09:25:14Z</time>
      </trkpt>
      <trkpt lat="45.85536" lon="4.68513">
        <ele>201</ele>
        <time>2018-06-30T09:25:15Z</time>
      </trkpt>
      <trkpt lat="45.85535" lon="4.68504">
        <ele>201</ele>
        <time>2018-06-30T09:25:16Z</time>
      </trkpt>
      <trkpt lat="45.85534" lon="4.68497">
        <ele>200</ele>
        <time>2018-06-30T09:25:17Z</time>
      </trkpt>
      <trkpt lat="45.85533" lon="4.68489">
        <ele>200</ele>
        <time>2018-06-30T09:25:18Z</time>
      </trkpt>
      <trkpt lat="45.8553" lon="4.68481">
        <ele>200</ele>
        <time>2018-06-30T09:25:19Z</time>
      </trkpt>
      <trkpt lat="45.85529" lon="4.68473">
        <ele>200</ele>
        <time>2018-06-30T09:25:20Z</time>
      </trkpt>
      <trkpt lat="45.85528" lon="4.68463">
        <ele>200</ele>
        <time>2018-06-30T09:25:21Z</time>
      </trkpt>
      <trkpt lat="45.85528" lon="4.68454">
        <ele>200</ele>
        <time>2018-06-30T09:25:22Z</time>
      </trkpt>
      <trkpt lat="45.85528" lon="4.68445">
        <ele>200</ele>
        <time>2018-06-30T09:25:23Z</time>
      </trkpt>
      <trkpt lat="45.85527" lon="4.68437">
        <ele>200</ele>
        <time>2018-06-30T09:25:24Z</time>
      </trkpt>
      <trkpt lat="45.85526" lon="4.68428">
        <ele>200</ele>
        <time>2018-06-30T09:25:25Z</time>
      </trkpt>
      <trkpt lat="45.85526" lon="4.6842">
        <ele>200</ele>
        <time>2018-06-30T09:25:26Z</time>
      </trkpt>
      <trkpt lat="45.85525" lon="4.68411">
        <ele>200</ele>
        <time>2018-06-30T09:25:27Z</time>
      </trkpt>
      <trkpt lat="45.85524" lon="4.68402">
        <ele>200</ele>
        <time>2018-06-30T09:25:28Z</time>
      </trkpt>
      <trkpt lat="45.85523" lon="4.68394">
        <ele>200</ele>
        <time>2018-06-30T09:25:29Z</time>
      </trkpt>
      <trkpt lat="45.85523" lon="4.68385">
        <ele>200</ele>
        <time>2018-06-30T09:25:30Z</time>
      </trkpt>
      <trkpt lat="45.85523" lon="4.68377">
        <ele>201</ele>
        <time>2018-06-30T09:25:31Z</time>
      </trkpt>
      <trkpt lat="45.85522" lon="4.68368">
        <ele>201</ele>
        <time>2018-06-30T09:25:32Z</time>
      </trkpt>
      <trkpt lat="45.85521" lon="4.6836">
        <ele>201</ele>
        <time>2018-06-30T09:25:33Z</time>
      </trkpt>
      <trkpt lat="45.85521" lon="4.68352">
        <ele>201</ele>
        <time>2018-06-30T09:25:34Z</time>
      </trkpt>
      <trkpt lat="45.8552" lon="4.68343">
        <ele>201</ele>
        <time>2018-06-30T09:25:35Z</time>
      </trkpt>
      <trkpt lat="45.85519" lon="4.68335">
        <ele>201</ele>
        <time>2018-06-30T09:25:36Z</time>
      </trkpt>
      <trkpt lat="45.85517" lon="4.68326">
        <ele>202</ele>
        <time>2018-06-30T09:25:37Z</time>
      </trkpt>
      <trkpt lat="45.85516" lon="4.68317">
        <ele>202</ele>
        <time>2018-06-30T09:25:38Z</time>
      </trkpt>
      <trkpt lat="45.85515" lon="4.68309">
        <ele>202</ele>
        <time>2018-06-30T09:25:39Z</time>
      </trkpt>
      <trkpt lat="45.85516" lon="4.68301">
        <ele>202</ele>
        <time>2018-06-30T09:25:40Z</time>
      </trkpt>
      <trkpt lat="45.85514" lon="4.68294">
        <ele>202</ele>
        <time>2018-06-30T09:25:41Z</time>
      </trkpt>
      <trkpt lat="45.85513" lon="4.68282">
        <ele>202</ele>
        <time>2018-06-30T09:25:43Z</time>
      </trkpt>
      <trkpt lat="45.85513" lon="4.68276">
        <ele>202</ele>
        <time>2018-06-30T09:25:44Z</time>
      </trkpt>
      <trkpt lat="45.8551" lon="4.68266">
        <ele>202</ele>
        <time>2018-06-30T09:25:47Z</time>
      </trkpt>
      <trkpt lat="45.8551" lon="4.68263">
        <ele>203</ele>
        <time>2018-06-30T09:25:48Z</time>
      </trkpt>
      <trkpt lat="45.85509" lon="4.68251">
        <ele>203</ele>
        <time>2018-06-30T09:25:52Z</time>
      </trkpt>
      <trkpt lat="45.85509" lon="4.68247">
        <ele>203</ele>
        <time>2018-06-30T09:25:53Z</time>
      </trkpt>
      <trkpt lat="45.8551" lon="4.68236">
        <ele>203</ele>
        <time>2018-06-30T09:25:56Z</time>
      </trkpt>
      <trkpt lat="45.85509" lon="4.68222">
        <ele>203</ele>
        <time>2018-06-30T09:25:57Z</time>
      </trkpt>
      <trkpt lat="45.85509" lon="4.68212">
        <ele>203</ele>
        <time>2018-06-30T09:25:59Z</time>
      </trkpt>
      <trkpt lat="45.85509" lon="4.68207">
        <ele>203</ele>
        <time>2018-06-30T09:26:00Z</time>
      </trkpt>
      <trkpt lat="45.85507" lon="4.68196">
        <ele>203</ele>
        <time>2018-06-30T09:26:02Z</time>
      </trkpt>
      <trkpt lat="45.85506" lon="4.6819">
        <ele>203</ele>
        <time>2018-06-30T09:26:03Z</time>
      </trkpt>
      <trkpt lat="45.85505" lon="4.68184">
        <ele>203</ele>
        <time>2018-06-30T09:26:04Z</time>
      </trkpt>
      <trkpt lat="45.85504" lon="4.68177">
        <ele>204</ele>
        <time>2018-06-30T09:26:05Z</time>
      </trkpt>
      <trkpt lat="45.85504" lon="4.6817">
        <ele>204</ele>
        <time>2018-06-30T09:26:06Z</time>
      </trkpt>
      <trkpt lat="45.85503" lon="4.68164">
        <ele>204</ele>
        <time>2018-06-30T09:26:07Z</time>
      </trkpt>
      <trkpt lat="45.85503" lon="4.68152">
        <ele>203</ele>
        <time>2018-06-30T09:26:12Z</time>
      </trkpt>
      <trkpt lat="45.85503" lon="4.6815">
        <ele>203</ele>
        <time>2018-06-30T09:26:13Z</time>
      </trkpt>
      <trkpt lat="45.85502" lon="4.68139">
        <ele>203</ele>
        <time>2018-06-30T09:26:17Z</time>
      </trkpt>
      <trkpt lat="45.85502" lon="4.68135">
        <ele>203</ele>
        <time>2018-06-30T09:26:18Z</time>
      </trkpt>
      <trkpt lat="45.85501" lon="4.68125">
        <ele>203</ele>
        <time>2018-06-30T09:26:21Z</time>
      </trkpt>
      <trkpt lat="45.855" lon="4.68121">
        <ele>203</ele>
        <time>2018-06-30T09:26:22Z</time>
      </trkpt>
      <trkpt lat="45.855" lon="4.68113">
        <ele>204</ele>
        <time>2018-06-30T09:26:24Z</time>
      </trkpt>
      <trkpt lat="45.85499" lon="4.68099">
        <ele>204</ele>
        <time>2018-06-30T09:26:25Z</time>
      </trkpt>
      <trkpt lat="45.85498" lon="4.68089">
        <ele>204</ele>
        <time>2018-06-30T09:26:27Z</time>
      </trkpt>
      <trkpt lat="45.85497" lon="4.68083">
        <ele>204</ele>
        <time>2018-06-30T09:26:28Z</time>
      </trkpt>
      <trkpt lat="45.85496" lon="4.68072">
        <ele>205</ele>
        <time>2018-06-30T09:26:30Z</time>
      </trkpt>
      <trkpt lat="45.85495" lon="4.68066">
        <ele>206</ele>
        <time>2018-06-30T09:26:31Z</time>
      </trkpt>
      <trkpt lat="45.85494" lon="4.6806">
        <ele>206</ele>
        <time>2018-06-30T09:26:32Z</time>
      </trkpt>
      <trkpt lat="45.85493" lon="4.68053">
        <ele>206</ele>
        <time>2018-06-30T09:26:33Z</time>
      </trkpt>
      <trkpt lat="45.85492" lon="4.68041">
        <ele>207</ele>
        <time>2018-06-30T09:26:35Z</time>
      </trkpt>
      <trkpt lat="45.85491" lon="4.68035">
        <ele>207</ele>
        <time>2018-06-30T09:26:36Z</time>
      </trkpt>
      <trkpt lat="45.8549" lon="4.68023">
        <ele>207</ele>
        <time>2018-06-30T09:26:38Z</time>
      </trkpt>
      <trkpt lat="45.85491" lon="4.68016">
        <ele>207</ele>
        <time>2018-06-30T09:26:39Z</time>
      </trkpt>
      <trkpt lat="45.85492" lon="4.6801">
        <ele>207</ele>
        <time>2018-06-30T09:26:40Z</time>
      </trkpt>
      <trkpt lat="45.85495" lon="4.68005">
        <ele>206</ele>
        <time>2018-06-30T09:26:41Z</time>
      </trkpt>
      <trkpt lat="45.85499" lon="4.67999">
        <ele>206</ele>
        <time>2018-06-30T09:26:43Z</time>
      </trkpt>
      <trkpt lat="45.85505" lon="4.67991">
        <ele>206</ele>
        <time>2018-06-30T09:26:44Z</time>
      </trkpt>
      <trkpt lat="45.85512" lon="4.67985">
        <ele>206</ele>
        <time>2018-06-30T09:26:46Z</time>
      </trkpt>
      <trkpt lat="45.85516" lon="4.67982">
        <ele>206</ele>
        <time>2018-06-30T09:26:47Z</time>
      </trkpt>
      <trkpt lat="45.8552" lon="4.67978">
        <ele>206</ele>
        <time>2018-06-30T09:26:48Z</time>
      </trkpt>
      <trkpt lat="45.85525" lon="4.67975">
        <ele>205</ele>
        <time>2018-06-30T09:26:49Z</time>
      </trkpt>
      <trkpt lat="45.85532" lon="4.6797">
        <ele>205</ele>
        <time>2018-06-30T09:26:51Z</time>
      </trkpt>
      <trkpt lat="45.85534" lon="4.67969">
        <ele>205</ele>
        <time>2018-06-30T09:26:52Z</time>
      </trkpt>
      <trkpt lat="45.85539" lon="4.67964">
        <ele>205</ele>
        <time>2018-06-30T09:26:53Z</time>
      </trkpt>
      <trkpt lat="45.85543" lon="4.67961">
        <ele>205</ele>
        <time>2018-06-30T09:26:54Z</time>
      </trkpt>
      <trkpt lat="45.85546" lon="4.67957">
        <ele>205</ele>
        <time>2018-06-30T09:26:55Z</time>
      </trkpt>
      <trkpt lat="45.8555" lon="4.67953">
        <ele>205</ele>
        <time>2018-06-30T09:26:56Z</time>
      </trkpt>
      <trkpt lat="45.85556" lon="4.67945">
        <ele>205</ele>
        <time>2018-06-30T09:26:58Z</time>
      </trkpt>
      <trkpt lat="45.85558" lon="4.67941">
        <ele>205</ele>
        <time>2018-06-30T09:26:59Z</time>
      </trkpt>
      <trkpt lat="45.85566" lon="4.67934">
        <ele>205</ele>
        <time>2018-06-30T09:27:03Z</time>
      </trkpt>
      <trkpt lat="45.85573" lon="4.67933">
        <ele>205</ele>
        <time>2018-06-30T09:27:04Z</time>
      </trkpt>
      <trkpt lat="45.85577" lon="4.67936">
        <ele>205</ele>
        <time>2018-06-30T09:27:05Z</time>
      </trkpt>
      <trkpt lat="45.8558" lon="4.67943">
        <ele>205</ele>
        <time>2018-06-30T09:27:06Z</time>
      </trkpt>
      <trkpt lat="45.85582" lon="4.67951">
        <ele>204</ele>
        <time>2018-06-30T09:27:07Z</time>
      </trkpt>
      <trkpt lat="45.85585" lon="4.67957">
        <ele>203</ele>
        <time>2018-06-30T09:27:08Z</time>
      </trkpt>
      <trkpt lat="45.85587" lon="4.67964">
        <ele>203</ele>
        <time>2018-06-30T09:27:09Z</time>
      </trkpt>
      <trkpt lat="45.8559" lon="4.6797">
        <ele>203</ele>
        <time>2018-06-30T09:27:10Z</time>
      </trkpt>
      <trkpt lat="45.85592" lon="4.67976">
        <ele>203</ele>
        <time>2018-06-30T09:27:11Z</time>
      </trkpt>
      <trkpt lat="45.85595" lon="4.67983">
        <ele>203</ele>
        <time>2018-06-30T09:27:12Z</time>
      </trkpt>
      <trkpt lat="45.85598" lon="4.6799">
        <ele>202</ele>
        <time>2018-06-30T09:27:13Z</time>
      </trkpt>
      <trkpt lat="45.85601" lon="4.67997">
        <ele>202</ele>
        <time>2018-06-30T09:27:14Z</time>
      </trkpt>
      <trkpt lat="45.85603" lon="4.68005">
        <ele>201</ele>
        <time>2018-06-30T09:27:15Z</time>
      </trkpt>
      <trkpt lat="45.85606" lon="4.68011">
        <ele>201</ele>
        <time>2018-06-30T09:27:16Z</time>
      </trkpt>
      <trkpt lat="45.85609" lon="4.68017">
        <ele>201</ele>
        <time>2018-06-30T09:27:17Z</time>
      </trkpt>
      <trkpt lat="45.85612" lon="4.68023">
        <ele>201</ele>
        <time>2018-06-30T09:27:18Z</time>
      </trkpt>
      <trkpt lat="45.85615" lon="4.68032">
        <ele>201</ele>
        <time>2018-06-30T09:27:20Z</time>
      </trkpt>
      <trkpt lat="45.85617" lon="4.68034">
        <ele>201</ele>
        <time>2018-06-30T09:27:21Z</time>
      </trkpt>
      <trkpt lat="45.85619" lon="4.68042">
        <ele>200</ele>
        <time>2018-06-30T09:28:32Z</time>
      </trkpt>
      <trkpt lat="45.85619" lon="4.68042">
        <ele>200</ele>
        <time>2018-06-30T09:28:33Z</time>
      </trkpt>
      <trkpt lat="45.85619" lon="4.68041">
        <ele>200</ele>
        <time>2018-06-30T09:30:07Z</time>
      </trkpt>
      <trkpt lat="45.85619" lon="4.6804">
        <ele>200</ele>
        <time>2018-06-30T09:30:08Z</time>
      </trkpt>
      <trkpt lat="45.85619" lon="4.6804">
        <ele>200</ele>
        <time>2018-06-30T09:30:09Z</time>
      </trkpt>
      <trkpt lat="45.85622" lon="4.6804">
        <ele>201</ele>
        <time>2018-06-30T09:33:06.912Z</time>
      </trkpt>
      <trkpt lat="45.85623" lon="4.68046">
        <ele>200</ele>
        <time>2018-06-30T09:33:09.095Z</time>
      </trkpt>
      <trkpt lat="45.85624" lon="4.68042">
        <ele>200</ele>
        <time>2018-06-30T09:35:04Z</time>
      </trkpt>
      <trkpt lat="45.85615" lon="4.68038">
        <ele>200</ele>
        <time>2018-06-30T09:35:06.407Z</time>
      </trkpt>
      <trkpt lat="45.85624" lon="4.68042">
        <ele>200</ele>
        <time>2018-06-30T09:35:21Z</time>
      </trkpt>
      <trkpt lat="45.85624" lon="4.68042">
        <ele>200</ele>
        <time>2018-06-30T09:35:22Z</time>
      </trkpt>
      <trkpt lat="45.85624" lon="4.68042">
        <ele>200</ele>
        <time>2018-06-30T09:35:27Z</time>
      </trkpt>
      <trkpt lat="45.85597" lon="4.68025">
        <ele>201</ele>
        <time>2018-06-30T09:35:32.433Z</time>
      </trkpt>
      <trkpt lat="45.85606" lon="4.68031">
        <ele>201</ele>
        <time>2018-06-30T09:35:33Z</time>
      </trkpt>
      <trkpt lat="45.85612" lon="4.68034">
        <ele>201</ele>
        <time>2018-06-30T09:35:34Z</time>
      </trkpt>
      <trkpt lat="45.85615" lon="4.68037">
        <ele>201</ele>
        <time>2018-06-30T09:35:35Z</time>
      </trkpt>
      <trkpt lat="45.85623" lon="4.68042">
        <ele>200</ele>
        <time>2018-06-30T09:35:42.88Z</time>
      </trkpt>
      <trkpt lat="45.85623" lon="4.68042">
        <ele>200</ele>
        <time>2018-06-30T09:35:44Z</time>
      </trkpt>
      <trkpt lat="45.85624" lon="4.68043">
        <ele>200</ele>
        <time>2018-06-30T09:35:58.536Z</time>
      </trkpt>
      <trkpt lat="45.85562" lon="4.68005">
        <ele>202</ele>
        <time>2018-06-30T09:36:22.04Z</time>
      </trkpt>
      <trkpt lat="45.85578" lon="4.68015">
        <ele>202</ele>
        <time>2018-06-30T09:36:23Z</time>
      </trkpt>
      <trkpt lat="45.8559" lon="4.68022">
        <ele>201</ele>
        <time>2018-06-30T09:36:24Z</time>
      </trkpt>
      <trkpt lat="45.85599" lon="4.68028">
        <ele>201</ele>
        <time>2018-06-30T09:36:25Z</time>
      </trkpt>
      <trkpt lat="45.85606" lon="4.68032">
        <ele>201</ele>
        <time>2018-06-30T09:36:26Z</time>
      </trkpt>
      <trkpt lat="45.85611" lon="4.68035">
        <ele>201</ele>
        <time>2018-06-30T09:36:27Z</time>
      </trkpt>
      <trkpt lat="45.85619" lon="4.6804">
        <ele>200</ele>
        <time>2018-06-30T09:36:29Z</time>
      </trkpt>
      <trkpt lat="45.8562" lon="4.6804">
        <ele>200</ele>
        <time>2018-06-30T09:36:30Z</time>
      </trkpt>
      <trkpt lat="45.85623" lon="4.68042">
        <ele>200</ele>
        <time>2018-06-30T09:36:41Z</time>
      </trkpt>
      <trkpt lat="45.85599" lon="4.6803">
        <ele>201</ele>
        <time>2018-06-30T09:36:47Z</time>
      </trkpt>
      <trkpt lat="45.85603" lon="4.68029">
        <ele>201</ele>
        <time>2018-06-30T09:36:50Z</time>
      </trkpt>
      <trkpt lat="45.85607" lon="4.68032">
        <ele>201</ele>
        <time>2018-06-30T09:36:51Z</time>
      </trkpt>
      <trkpt lat="45.85614" lon="4.68037">
        <ele>200</ele>
        <time>2018-06-30T09:36:53Z</time>
      </trkpt>
      <trkpt lat="45.85615" lon="4.68038">
        <ele>200</ele>
        <time>2018-06-30T09:36:53.276Z</time>
      </trkpt>
      <trkpt lat="45.8562" lon="4.68041">
        <ele>200</ele>
        <time>2018-06-30T09:37:12Z</time>
      </trkpt>
      <trkpt lat="45.85586" lon="4.6802">
        <ele>201</ele>
        <time>2018-06-30T09:37:17.03Z</time>
      </trkpt>
      <trkpt lat="45.85595" lon="4.68026">
        <ele>201</ele>
        <time>2018-06-30T09:37:18Z</time>
      </trkpt>
      <trkpt lat="45.85601" lon="4.68032">
        <ele>201</ele>
        <time>2018-06-30T09:37:19Z</time>
      </trkpt>
      <trkpt lat="45.85606" lon="4.68036">
        <ele>200</ele>
        <time>2018-06-30T09:37:20Z</time>
      </trkpt>
      <trkpt lat="45.85609" lon="4.6804">
        <ele>200</ele>
        <time>2018-06-30T09:37:21Z</time>
      </trkpt>
      <trkpt lat="45.85611" lon="4.68042">
        <ele>200</ele>
        <time>2018-06-30T09:37:22Z</time>
      </trkpt>
      <trkpt lat="45.85588" lon="4.68103">
        <ele>200</ele>
        <time>2018-06-30T09:37:27.49Z</time>
      </trkpt>
      <trkpt lat="45.85595" lon="4.68089">
        <ele>199</ele>
        <time>2018-06-30T09:37:28Z</time>
      </trkpt>
      <trkpt lat="45.85601" lon="4.68078">
        <ele>200</ele>
        <time>2018-06-30T09:37:29Z</time>
      </trkpt>
      <trkpt lat="45.85605" lon="4.6807">
        <ele>200</ele>
        <time>2018-06-30T09:37:30Z</time>
      </trkpt>
      <trkpt lat="45.8561" lon="4.68062">
        <ele>200</ele>
        <time>2018-06-30T09:37:31Z</time>
      </trkpt>
      <trkpt lat="45.85613" lon="4.68051">
        <ele>200</ele>
        <time>2018-06-30T09:37:34Z</time>
      </trkpt>
      <trkpt lat="45.85614" lon="4.6805">
        <ele>200</ele>
        <time>2018-06-30T09:37:35Z</time>
      </trkpt>
      <trkpt lat="45.8562" lon="4.68057">
        <ele>200</ele>
        <time>2018-06-30T09:38:03Z</time>
      </trkpt>
      <trkpt lat="45.8562" lon="4.68059">
        <ele>200</ele>
        <time>2018-06-30T09:38:04Z</time>
      </trkpt>
      <trkpt lat="45.85626" lon="4.68066">
        <ele>200</ele>
        <time>2018-06-30T09:38:08Z</time>
      </trkpt>
      <trkpt lat="45.85628" lon="4.68068">
        <ele>200</ele>
        <time>2018-06-30T09:38:09Z</time>
      </trkpt>
      <trkpt lat="45.85635" lon="4.68075">
        <ele>200</ele>
        <time>2018-06-30T09:38:12Z</time>
      </trkpt>
      <trkpt lat="45.85641" lon="4.68083">
        <ele>200</ele>
        <time>2018-06-30T09:38:13Z</time>
      </trkpt>
      <trkpt lat="45.85646" lon="4.68091">
        <ele>200</ele>
        <time>2018-06-30T09:38:15Z</time>
      </trkpt>
      <trkpt lat="45.85649" lon="4.68096">
        <ele>200</ele>
        <time>2018-06-30T09:38:16Z</time>
      </trkpt>
      <trkpt lat="45.85655" lon="4.68104">
        <ele>200</ele>
        <time>2018-06-30T09:38:18Z</time>
      </trkpt>
      <trkpt lat="45.85658" lon="4.68108">
        <ele>200</ele>
        <time>2018-06-30T09:38:19Z</time>
      </trkpt>
      <trkpt lat="45.85661" lon="4.68112">
        <ele>200</ele>
        <time>2018-06-30T09:38:20Z</time>
      </trkpt>
      <trkpt lat="45.85665" lon="4.68119">
        <ele>200</ele>
        <time>2018-06-30T09:38:21Z</time>
      </trkpt>
      <trkpt lat="45.85671" lon="4.68127">
        <ele>200</ele>
        <time>2018-06-30T09:38:23Z</time>
      </trkpt>
      <trkpt lat="45.85675" lon="4.68131">
        <ele>200</ele>
        <time>2018-06-30T09:38:24Z</time>
      </trkpt>
      <trkpt lat="45.85682" lon="4.68139">
        <ele>200</ele>
        <time>2018-06-30T09:38:26Z</time>
      </trkpt>
      <trkpt lat="45.85685" lon="4.68144">
        <ele>200</ele>
        <time>2018-06-30T09:38:27Z</time>
      </trkpt>
      <trkpt lat="45.85689" lon="4.68149">
        <ele>200</ele>
        <time>2018-06-30T09:38:28Z</time>
      </trkpt>
      <trkpt lat="45.85694" lon="4.68151">
        <ele>200</ele>
        <time>2018-06-30T09:38:29Z</time>
      </trkpt>
      <trkpt lat="45.85697" lon="4.68156">
        <ele>200</ele>
        <time>2018-06-30T09:38:30Z</time>
      </trkpt>
      <trkpt lat="45.85701" lon="4.6816">
        <ele>200</ele>
        <time>2018-06-30T09:38:31Z</time>
      </trkpt>
      <trkpt lat="45.85706" lon="4.68164">
        <ele>200</ele>
        <time>2018-06-30T09:38:32Z</time>
      </trkpt>
      <trkpt lat="45.85709" lon="4.68169">
        <ele>199</ele>
        <time>2018-06-30T09:38:33Z</time>
      </trkpt>
      <trkpt lat="45.85714" lon="4.68176">
        <ele>199</ele>
        <time>2018-06-30T09:38:34Z</time>
      </trkpt>
      <trkpt lat="45.85718" lon="4.68181">
        <ele>199</ele>
        <time>2018-06-30T09:38:35Z</time>
      </trkpt>
      <trkpt lat="45.85723" lon="4.68186">
        <ele>199</ele>
        <time>2018-06-30T09:38:36Z</time>
      </trkpt>
      <trkpt lat="45.85727" lon="4.6819">
        <ele>199</ele>
        <time>2018-06-30T09:38:37Z</time>
      </trkpt>
      <trkpt lat="45.85731" lon="4.68195">
        <ele>199</ele>
        <time>2018-06-30T09:38:38Z</time>
      </trkpt>
      <trkpt lat="45.85735" lon="4.68199">
        <ele>199</ele>
        <time>2018-06-30T09:38:39Z</time>
      </trkpt>
      <trkpt lat="45.8574" lon="4.68205">
        <ele>199</ele>
        <time>2018-06-30T09:38:40Z</time>
      </trkpt>
      <trkpt lat="45.85742" lon="4.68208">
        <ele>199</ele>
        <time>2018-06-30T09:38:41Z</time>
      </trkpt>
      <trkpt lat="45.85749" lon="4.68214">
        <ele>199</ele>
        <time>2018-06-30T09:38:43Z</time>
      </trkpt>
      <trkpt lat="45.85753" lon="4.68218">
        <ele>201</ele>
        <time>2018-06-30T09:38:44Z</time>
      </trkpt>
      <trkpt lat="45.85758" lon="4.68228">
        <ele>201</ele>
        <time>2018-06-30T09:38:46Z</time>
      </trkpt>
      <trkpt lat="45.85764" lon="4.68232">
        <ele>201</ele>
        <time>2018-06-30T09:38:47Z</time>
      </trkpt>
      <trkpt lat="45.85768" lon="4.68237">
        <ele>201</ele>
        <time>2018-06-30T09:38:48Z</time>
      </trkpt>
      <trkpt lat="45.85772" lon="4.68241">
        <ele>201</ele>
        <time>2018-06-30T09:38:49Z</time>
      </trkpt>
      <trkpt lat="45.85778" lon="4.68251">
        <ele>200</ele>
        <time>2018-06-30T09:38:51Z</time>
      </trkpt>
      <trkpt lat="45.85782" lon="4.68257">
        <ele>200</ele>
        <time>2018-06-30T09:38:52Z</time>
      </trkpt>
      <trkpt lat="45.85786" lon="4.68261">
        <ele>200</ele>
        <time>2018-06-30T09:38:53Z</time>
      </trkpt>
      <trkpt lat="45.8579" lon="4.68266">
        <ele>200</ele>
        <time>2018-06-30T09:38:54Z</time>
      </trkpt>
      <trkpt lat="45.85793" lon="4.68272">
        <ele>201</ele>
        <time>2018-06-30T09:38:55Z</time>
      </trkpt>
      <trkpt lat="45.85796" lon="4.68278">
        <ele>201</ele>
        <time>2018-06-30T09:38:56Z</time>
      </trkpt>
      <trkpt lat="45.858" lon="4.68283">
        <ele>201</ele>
        <time>2018-06-30T09:38:57Z</time>
      </trkpt>
      <trkpt lat="45.85804" lon="4.68289">
        <ele>201</ele>
        <time>2018-06-30T09:38:58Z</time>
      </trkpt>
      <trkpt lat="45.85807" lon="4.68292">
        <ele>201</ele>
        <time>2018-06-30T09:38:59Z</time>
      </trkpt>
      <trkpt lat="45.8581" lon="4.68298">
        <ele>201</ele>
        <time>2018-06-30T09:39:00Z</time>
      </trkpt>
      <trkpt lat="45.85815" lon="4.68305">
        <ele>201</ele>
        <time>2018-06-30T09:39:01Z</time>
      </trkpt>
      <trkpt lat="45.85818" lon="4.6831">
        <ele>200</ele>
        <time>2018-06-30T09:39:02Z</time>
      </trkpt>
      <trkpt lat="45.85822" lon="4.68316">
        <ele>200</ele>
        <time>2018-06-30T09:39:03Z</time>
      </trkpt>
      <trkpt lat="45.85825" lon="4.68322">
        <ele>200</ele>
        <time>2018-06-30T09:39:04Z</time>
      </trkpt>
      <trkpt lat="45.85828" lon="4.68328">
        <ele>200</ele>
        <time>2018-06-30T09:39:05Z</time>
      </trkpt>
      <trkpt lat="45.85831" lon="4.68334">
        <ele>200</ele>
        <time>2018-06-30T09:39:06Z</time>
      </trkpt>
      <trkpt lat="45.85835" lon="4.6834">
        <ele>200</ele>
        <time>2018-06-30T09:39:07Z</time>
      </trkpt>
      <trkpt lat="45.85839" lon="4.68346">
        <ele>201</ele>
        <time>2018-06-30T09:39:08Z</time>
      </trkpt>
      <trkpt lat="45.85841" lon="4.68352">
        <ele>201</ele>
        <time>2018-06-30T09:39:09Z</time>
      </trkpt>
      <trkpt lat="45.85844" lon="4.68359">
        <ele>201</ele>
        <time>2018-06-30T09:39:10Z</time>
      </trkpt>
      <trkpt lat="45.85846" lon="4.68367">
        <ele>201</ele>
        <time>2018-06-30T09:39:11Z</time>
      </trkpt>
      <trkpt lat="45.85846" lon="4.68374">
        <ele>201</ele>
        <time>2018-06-30T09:39:12Z</time>
      </trkpt>
      <trkpt lat="45.85848" lon="4.68382">
        <ele>201</ele>
        <time>2018-06-30T09:39:13Z</time>
      </trkpt>
      <trkpt lat="45.8585" lon="4.68389">
        <ele>201</ele>
        <time>2018-06-30T09:39:14Z</time>
      </trkpt>
      <trkpt lat="45.85853" lon="4.68397">
        <ele>200</ele>
        <time>2018-06-30T09:39:15Z</time>
      </trkpt>
      <trkpt lat="45.85854" lon="4.68405">
        <ele>200</ele>
        <time>2018-06-30T09:39:16Z</time>
      </trkpt>
      <trkpt lat="45.85856" lon="4.68413">
        <ele>200</ele>
        <time>2018-06-30T09:39:17Z</time>
      </trkpt>
      <trkpt lat="45.85859" lon="4.6842">
        <ele>200</ele>
        <time>2018-06-30T09:39:18Z</time>
      </trkpt>
      <trkpt lat="45.8586" lon="4.68427">
        <ele>200</ele>
        <time>2018-06-30T09:39:19Z</time>
      </trkpt>
      <trkpt lat="45.85861" lon="4.68435">
        <ele>200</ele>
        <time>2018-06-30T09:39:20Z</time>
      </trkpt>
      <trkpt lat="45.85864" lon="4.68447">
        <ele>200</ele>
        <time>2018-06-30T09:39:22Z</time>
      </trkpt>
      <trkpt lat="45.85865" lon="4.68454">
        <ele>200</ele>
        <time>2018-06-30T09:39:23Z</time>
      </trkpt>
      <trkpt lat="45.85866" lon="4.68459">
        <ele>200</ele>
        <time>2018-06-30T09:39:24Z</time>
      </trkpt>
      <trkpt lat="45.85868" lon="4.68466">
        <ele>200</ele>
        <time>2018-06-30T09:39:25Z</time>
      </trkpt>
      <trkpt lat="45.8587" lon="4.68479">
        <ele>200</ele>
        <time>2018-06-30T09:39:27Z</time>
      </trkpt>
      <trkpt lat="45.85871" lon="4.68485">
        <ele>200</ele>
        <time>2018-06-30T09:39:28Z</time>
      </trkpt>
      <trkpt lat="45.85872" lon="4.68493">
        <ele>200</ele>
        <time>2018-06-30T09:39:29Z</time>
      </trkpt>
      <trkpt lat="45.85874" lon="4.685">
        <ele>200</ele>
        <time>2018-06-30T09:39:30Z</time>
      </trkpt>
      <trkpt lat="45.85875" lon="4.68508">
        <ele>200</ele>
        <time>2018-06-30T09:39:31Z</time>
      </trkpt>
      <trkpt lat="45.85876" lon="4.68516">
        <ele>200</ele>
        <time>2018-06-30T09:39:32Z</time>
      </trkpt>
      <trkpt lat="45.85879" lon="4.68527">
        <ele>200</ele>
        <time>2018-06-30T09:39:33Z</time>
      </trkpt>
      <trkpt lat="45.8588" lon="4.68535">
        <ele>200</ele>
        <time>2018-06-30T09:39:34Z</time>
      </trkpt>
      <trkpt lat="45.8588" lon="4.68542">
        <ele>200</ele>
        <time>2018-06-30T09:39:35Z</time>
      </trkpt>
      <trkpt lat="45.85881" lon="4.6855">
        <ele>200</ele>
        <time>2018-06-30T09:39:36Z</time>
      </trkpt>
      <trkpt lat="45.85882" lon="4.68557">
        <ele>200</ele>
        <time>2018-06-30T09:39:37Z</time>
      </trkpt>
      <trkpt lat="45.85883" lon="4.68565">
        <ele>200</ele>
        <time>2018-06-30T09:39:38Z</time>
      </trkpt>
      <trkpt lat="45.85884" lon="4.68573">
        <ele>200</ele>
        <time>2018-06-30T09:39:39Z</time>
      </trkpt>
      <trkpt lat="45.85885" lon="4.68581">
        <ele>199</ele>
        <time>2018-06-30T09:39:40Z</time>
      </trkpt>
      <trkpt lat="45.85885" lon="4.6859">
        <ele>199</ele>
        <time>2018-06-30T09:39:41Z</time>
      </trkpt>
      <trkpt lat="45.85886" lon="4.68598">
        <ele>199</ele>
        <time>2018-06-30T09:39:42Z</time>
      </trkpt>
      <trkpt lat="45.85886" lon="4.68606">
        <ele>199</ele>
        <time>2018-06-30T09:39:43Z</time>
      </trkpt>
      <trkpt lat="45.85886" lon="4.68614">
        <ele>199</ele>
        <time>2018-06-30T09:39:44Z</time>
      </trkpt>
      <trkpt lat="45.85887" lon="4.68623">
        <ele>199</ele>
        <time>2018-06-30T09:39:45Z</time>
      </trkpt>
      <trkpt lat="45.85888" lon="4.68631">
        <ele>198</ele>
        <time>2018-06-30T09:39:46Z</time>
      </trkpt>
      <trkpt lat="45.85889" lon="4.6864">
        <ele>198</ele>
        <time>2018-06-30T09:39:47Z</time>
      </trkpt>
      <trkpt lat="45.85889" lon="4.6865">
        <ele>198</ele>
        <time>2018-06-30T09:39:48Z</time>
      </trkpt>
      <trkpt lat="45.85891" lon="4.68658">
        <ele>198</ele>
        <time>2018-06-30T09:39:49Z</time>
      </trkpt>
      <trkpt lat="45.85892" lon="4.68667">
        <ele>198</ele>
        <time>2018-06-30T09:39:50Z</time>
      </trkpt>
      <trkpt lat="45.85892" lon="4.68676">
        <ele>198</ele>
        <time>2018-06-30T09:39:51Z</time>
      </trkpt>
      <trkpt lat="45.85891" lon="4.68685">
        <ele>198</ele>
        <time>2018-06-30T09:39:52Z</time>
      </trkpt>
      <trkpt lat="45.85889" lon="4.68693">
        <ele>198</ele>
        <time>2018-06-30T09:39:53Z</time>
      </trkpt>
      <trkpt lat="45.85888" lon="4.68703">
        <ele>198</ele>
        <time>2018-06-30T09:39:54Z</time>
      </trkpt>
      <trkpt lat="45.85887" lon="4.68712">
        <ele>198</ele>
        <time>2018-06-30T09:39:55Z</time>
      </trkpt>
      <trkpt lat="45.85886" lon="4.68721">
        <ele>198</ele>
        <time>2018-06-30T09:39:56Z</time>
      </trkpt>
      <trkpt lat="45.85884" lon="4.68729">
        <ele>198</ele>
        <time>2018-06-30T09:39:57Z</time>
      </trkpt>
      <trkpt lat="45.85883" lon="4.68737">
        <ele>198</ele>
        <time>2018-06-30T09:39:58Z</time>
      </trkpt>
      <trkpt lat="45.85881" lon="4.68746">
        <ele>198</ele>
        <time>2018-06-30T09:39:59Z</time>
      </trkpt>
      <trkpt lat="45.8588" lon="4.68757">
        <ele>198</ele>
        <time>2018-06-30T09:40:00Z</time>
      </trkpt>
      <trkpt lat="45.85878" lon="4.68766">
        <ele>198</ele>
        <time>2018-06-30T09:40:01Z</time>
      </trkpt>
      <trkpt lat="45.85876" lon="4.68774">
        <ele>198</ele>
        <time>2018-06-30T09:40:02Z</time>
      </trkpt>
      <trkpt lat="45.85875" lon="4.68784">
        <ele>198</ele>
        <time>2018-06-30T09:40:03Z</time>
      </trkpt>
      <trkpt lat="45.85875" lon="4.68793">
        <ele>198</ele>
        <time>2018-06-30T09:40:04Z</time>
      </trkpt>
      <trkpt lat="45.85874" lon="4.68803">
        <ele>198</ele>
        <time>2018-06-30T09:40:05Z</time>
      </trkpt>
      <trkpt lat="45.85872" lon="4.68812">
        <ele>198</ele>
        <time>2018-06-30T09:40:06Z</time>
      </trkpt>
      <trkpt lat="45.85872" lon="4.68822">
        <ele>198</ele>
        <time>2018-06-30T09:40:07Z</time>
      </trkpt>
      <trkpt lat="45.8587" lon="4.68832">
        <ele>198</ele>
        <time>2018-06-30T09:40:08Z</time>
      </trkpt>
      <trkpt lat="45.8587" lon="4.68842">
        <ele>198</ele>
        <time>2018-06-30T09:40:09Z</time>
      </trkpt>
      <trkpt lat="45.85869" lon="4.68852">
        <ele>198</ele>
        <time>2018-06-30T09:40:10Z</time>
      </trkpt>
      <trkpt lat="45.85868" lon="4.68861">
        <ele>198</ele>
        <time>2018-06-30T09:40:11Z</time>
      </trkpt>
      <trkpt lat="45.85867" lon="4.68872">
        <ele>198</ele>
        <time>2018-06-30T09:40:12Z</time>
      </trkpt>
      <trkpt lat="45.85868" lon="4.68881">
        <ele>197</ele>
        <time>2018-06-30T09:40:13Z</time>
      </trkpt>
      <trkpt lat="45.85867" lon="4.68891">
        <ele>197</ele>
        <time>2018-06-30T09:40:14Z</time>
      </trkpt>
      <trkpt lat="45.85866" lon="4.68901">
        <ele>197</ele>
        <time>2018-06-30T09:40:15Z</time>
      </trkpt>
      <trkpt lat="45.85866" lon="4.6891">
        <ele>197</ele>
        <time>2018-06-30T09:40:16Z</time>
      </trkpt>
      <trkpt lat="45.85865" lon="4.6892">
        <ele>197</ele>
        <time>2018-06-30T09:40:17Z</time>
      </trkpt>
      <trkpt lat="45.85864" lon="4.68932">
        <ele>197</ele>
        <time>2018-06-30T09:40:18Z</time>
      </trkpt>
      <trkpt lat="45.85865" lon="4.68941">
        <ele>197</ele>
        <time>2018-06-30T09:40:19Z</time>
      </trkpt>
      <trkpt lat="45.85863" lon="4.68952">
        <ele>197</ele>
        <time>2018-06-30T09:40:20Z</time>
      </trkpt>
      <trkpt lat="45.85863" lon="4.68961">
        <ele>197</ele>
        <time>2018-06-30T09:40:21Z</time>
      </trkpt>
      <trkpt lat="45.85862" lon="4.68972">
        <ele>197</ele>
        <time>2018-06-30T09:40:22Z</time>
      </trkpt>
      <trkpt lat="45.85862" lon="4.68981">
        <ele>197</ele>
        <time>2018-06-30T09:40:23Z</time>
      </trkpt>
      <trkpt lat="45.85864" lon="4.6899">
        <ele>197</ele>
        <time>2018-06-30T09:40:24Z</time>
      </trkpt>
      <trkpt lat="45.85867" lon="4.68998">
        <ele>197</ele>
        <time>2018-06-30T09:40:25Z</time>
      </trkpt>
      <trkpt lat="45.85869" lon="4.69006">
        <ele>197</ele>
        <time>2018-06-30T09:40:26Z</time>
      </trkpt>
      <trkpt lat="45.85871" lon="4.69015">
        <ele>197</ele>
        <time>2018-06-30T09:40:27Z</time>
      </trkpt>
      <trkpt lat="45.85873" lon="4.69024">
        <ele>197</ele>
        <time>2018-06-30T09:40:28Z</time>
      </trkpt>
      <trkpt lat="45.85876" lon="4.69033">
        <ele>198</ele>
        <time>2018-06-30T09:40:29Z</time>
      </trkpt>
      <trkpt lat="45.8588" lon="4.69041">
        <ele>198</ele>
        <time>2018-06-30T09:40:30Z</time>
      </trkpt>
      <trkpt lat="45.85885" lon="4.69046">
        <ele>198</ele>
        <time>2018-06-30T09:40:31Z</time>
      </trkpt>
      <trkpt lat="45.85889" lon="4.69054">
        <ele>198</ele>
        <time>2018-06-30T09:40:32Z</time>
      </trkpt>
      <trkpt lat="45.85893" lon="4.69061">
        <ele>198</ele>
        <time>2018-06-30T09:40:33Z</time>
      </trkpt>
      <trkpt lat="45.85897" lon="4.69067">
        <ele>198</ele>
        <time>2018-06-30T09:40:34Z</time>
      </trkpt>
      <trkpt lat="45.85903" lon="4.69073">
        <ele>198</ele>
        <time>2018-06-30T09:40:35Z</time>
      </trkpt>
      <trkpt lat="45.85907" lon="4.69078">
        <ele>198</ele>
        <time>2018-06-30T09:40:36Z</time>
      </trkpt>
      <trkpt lat="45.85912" lon="4.69082">
        <ele>198</ele>
        <time>2018-06-30T09:40:37Z</time>
      </trkpt>
      <trkpt lat="45.85917" lon="4.69085">
        <ele>198</ele>
        <time>2018-06-30T09:40:38Z</time>
      </trkpt>
      <trkpt lat="45.85924" lon="4.69089">
        <ele>198</ele>
        <time>2018-06-30T09:40:39Z</time>
      </trkpt>
      <trkpt lat="45.85929" lon="4.69092">
        <ele>198</ele>
        <time>2018-06-30T09:40:40Z</time>
      </trkpt>
      <trkpt lat="45.85935" lon="4.69093">
        <ele>197</ele>
        <time>2018-06-30T09:40:41Z</time>
      </trkpt>
      <trkpt lat="45.85941" lon="4.69096">
        <ele>197</ele>
        <time>2018-06-30T09:40:42Z</time>
      </trkpt>
      <trkpt lat="45.85947" lon="4.69097">
        <ele>197</ele>
        <time>2018-06-30T09:40:43Z</time>
      </trkpt>
      <trkpt lat="45.85953" lon="4.69098">
        <ele>197</ele>
        <time>2018-06-30T09:40:44Z</time>
      </trkpt>
      <trkpt lat="45.85959" lon="4.69099">
        <ele>197</ele>
        <time>2018-06-30T09:40:45Z</time>
      </trkpt>
      <trkpt lat="45.85966" lon="4.69099">
        <ele>197</ele>
        <time>2018-06-30T09:40:46Z</time>
      </trkpt>
      <trkpt lat="45.85972" lon="4.69099">
        <ele>197</ele>
        <time>2018-06-30T09:40:47Z</time>
      </trkpt>
      <trkpt lat="45.85978" lon="4.69098">
        <ele>197</ele>
        <time>2018-06-30T09:40:48Z</time>
      </trkpt>
      <trkpt lat="45.85984" lon="4.69099">
        <ele>197</ele>
        <time>2018-06-30T09:40:49Z</time>
      </trkpt>
      <trkpt lat="45.85991" lon="4.69098">
        <ele>196</ele>
        <time>2018-06-30T09:40:50Z</time>
      </trkpt>
      <trkpt lat="45.85998" lon="4.69098">
        <ele>196</ele>
        <time>2018-06-30T09:40:51Z</time>
      </trkpt>
      <trkpt lat="45.86005" lon="4.69097">
        <ele>197</ele>
        <time>2018-06-30T09:40:52Z</time>
      </trkpt>
      <trkpt lat="45.86012" lon="4.69093">
        <ele>197</ele>
        <time>2018-06-30T09:40:53Z</time>
      </trkpt>
      <trkpt lat="45.86019" lon="4.69092">
        <ele>197</ele>
        <time>2018-06-30T09:40:54Z</time>
      </trkpt>
      <trkpt lat="45.86023" lon="4.69095">
        <ele>197</ele>
        <time>2018-06-30T09:40:55Z</time>
      </trkpt>
      <trkpt lat="45.86032" lon="4.69093">
        <ele>197</ele>
        <time>2018-06-30T09:40:56Z</time>
      </trkpt>
      <trkpt lat="45.86037" lon="4.69092">
        <ele>197</ele>
        <time>2018-06-30T09:40:57Z</time>
      </trkpt>
      <trkpt lat="45.86044" lon="4.69093">
        <ele>197</ele>
        <time>2018-06-30T09:40:58Z</time>
      </trkpt>
      <trkpt lat="45.8605" lon="4.69092">
        <ele>197</ele>
        <time>2018-06-30T09:40:59Z</time>
      </trkpt>
      <trkpt lat="45.86056" lon="4.69091">
        <ele>197</ele>
        <time>2018-06-30T09:41:00Z</time>
      </trkpt>
      <trkpt lat="45.86062" lon="4.6909">
        <ele>198</ele>
        <time>2018-06-30T09:41:01Z</time>
      </trkpt>
      <trkpt lat="45.86068" lon="4.6909">
        <ele>198</ele>
        <time>2018-06-30T09:41:02Z</time>
      </trkpt>
      <trkpt lat="45.86074" lon="4.69089">
        <ele>198</ele>
        <time>2018-06-30T09:41:03Z</time>
      </trkpt>
      <trkpt lat="45.86079" lon="4.69088">
        <ele>198</ele>
        <time>2018-06-30T09:41:04Z</time>
      </trkpt>
      <trkpt lat="45.86086" lon="4.69087">
        <ele>199</ele>
        <time>2018-06-30T09:41:05Z</time>
      </trkpt>
      <trkpt lat="45.86092" lon="4.69087">
        <ele>199</ele>
        <time>2018-06-30T09:41:06Z</time>
      </trkpt>
      <trkpt lat="45.86096" lon="4.69087">
        <ele>199</ele>
        <time>2018-06-30T09:41:07Z</time>
      </trkpt>
      <trkpt lat="45.86102" lon="4.69085">
        <ele>200</ele>
        <time>2018-06-30T09:41:08Z</time>
      </trkpt>
      <trkpt lat="45.86107" lon="4.69083">
        <ele>201</ele>
        <time>2018-06-30T09:41:09Z</time>
      </trkpt>
      <trkpt lat="45.86112" lon="4.69083">
        <ele>202</ele>
        <time>2018-06-30T09:41:10Z</time>
      </trkpt>
      <trkpt lat="45.86117" lon="4.69082">
        <ele>202</ele>
        <time>2018-06-30T09:41:11Z</time>
      </trkpt>
      <trkpt lat="45.86122" lon="4.69082">
        <ele>202</ele>
        <time>2018-06-30T09:41:12Z</time>
      </trkpt>
      <trkpt lat="45.86131" lon="4.69081">
        <ele>203</ele>
        <time>2018-06-30T09:41:14Z</time>
      </trkpt>
      <trkpt lat="45.86135" lon="4.69082">
        <ele>203</ele>
        <time>2018-06-30T09:41:15Z</time>
      </trkpt>
      <trkpt lat="45.8614" lon="4.69081">
        <ele>204</ele>
        <time>2018-06-30T09:41:16Z</time>
      </trkpt>
      <trkpt lat="45.86145" lon="4.69081">
        <ele>204</ele>
        <time>2018-06-30T09:41:17Z</time>
      </trkpt>
      <trkpt lat="45.86151" lon="4.69081">
        <ele>204</ele>
        <time>2018-06-30T09:41:20Z</time>
      </trkpt>
      <trkpt lat="45.86154" lon="4.69081">
        <ele>204</ele>
        <time>2018-06-30T09:41:21Z</time>
      </trkpt>
      <trkpt lat="45.86159" lon="4.69081">
        <ele>205</ele>
        <time>2018-06-30T09:41:23Z</time>
      </trkpt>
      <trkpt lat="45.86168" lon="4.69081">
        <ele>206</ele>
        <time>2018-06-30T09:41:24Z</time>
      </trkpt>
      <trkpt lat="45.86176" lon="4.69081">
        <ele>207</ele>
        <time>2018-06-30T09:41:28Z</time>
      </trkpt>
      <trkpt lat="45.86178" lon="4.69081">
        <ele>207</ele>
        <time>2018-06-30T09:41:29Z</time>
      </trkpt>
      <trkpt lat="45.86185" lon="4.69082">
        <ele>208</ele>
        <time>2018-06-30T09:41:32Z</time>
      </trkpt>
      <trkpt lat="45.86188" lon="4.69083">
        <ele>208</ele>
        <time>2018-06-30T09:41:33Z</time>
      </trkpt>
      <trkpt lat="45.86194" lon="4.69083">
        <ele>209</ele>
        <time>2018-06-30T09:41:35Z</time>
      </trkpt>
      <trkpt lat="45.86204" lon="4.69084">
        <ele>208</ele>
        <time>2018-06-30T09:41:36Z</time>
      </trkpt>
      <trkpt lat="45.8621" lon="4.69084">
        <ele>208</ele>
        <time>2018-06-30T09:41:39Z</time>
      </trkpt>
      <trkpt lat="45.86213" lon="4.69084">
        <ele>208</ele>
        <time>2018-06-30T09:41:40Z</time>
      </trkpt>
      <trkpt lat="45.86221" lon="4.69084">
        <ele>209</ele>
        <time>2018-06-30T09:41:43Z</time>
      </trkpt>
      <trkpt lat="45.86223" lon="4.69083">
        <ele>209</ele>
        <time>2018-06-30T09:41:44Z</time>
      </trkpt>
      <trkpt lat="45.86231" lon="4.69083">
        <ele>209</ele>
        <time>2018-06-30T09:41:47Z</time>
      </trkpt>
      <trkpt lat="45.86235" lon="4.69084">
        <ele>209</ele>
        <time>2018-06-30T09:41:48Z</time>
      </trkpt>
      <trkpt lat="45.86241" lon="4.69084">
        <ele>210</ele>
        <time>2018-06-30T09:41:50Z</time>
      </trkpt>
      <trkpt lat="45.86244" lon="4.69084">
        <ele>210</ele>
        <time>2018-06-30T09:41:51Z</time>
      </trkpt>
      <trkpt lat="45.8625" lon="4.69085">
        <ele>211</ele>
        <time>2018-06-30T09:41:53Z</time>
      </trkpt>
      <trkpt lat="45.86254" lon="4.69086">
        <ele>211</ele>
        <time>2018-06-30T09:41:54Z</time>
      </trkpt>
      <trkpt lat="45.8626" lon="4.69088">
        <ele>212</ele>
        <time>2018-06-30T09:41:56Z</time>
      </trkpt>
      <trkpt lat="45.86263" lon="4.69089">
        <ele>212</ele>
        <time>2018-06-30T09:41:57Z</time>
      </trkpt>
      <trkpt lat="45.86269" lon="4.69092">
        <ele>213</ele>
        <time>2018-06-30T09:41:59Z</time>
      </trkpt>
      <trkpt lat="45.86272" lon="4.69093">
        <ele>213</ele>
        <time>2018-06-30T09:42:00Z</time>
      </trkpt>
      <trkpt lat="45.86277" lon="4.69096">
        <ele>213</ele>
        <time>2018-06-30T09:42:02Z</time>
      </trkpt>
      <trkpt lat="45.8628" lon="4.69098">
        <ele>213</ele>
        <time>2018-06-30T09:42:03Z</time>
      </trkpt>
      <trkpt lat="45.86286" lon="4.69101">
        <ele>213</ele>
        <time>2018-06-30T09:42:05Z</time>
      </trkpt>
      <trkpt lat="45.86289" lon="4.69104">
        <ele>213</ele>
        <time>2018-06-30T09:42:06Z</time>
      </trkpt>
      <trkpt lat="45.86295" lon="4.69108">
        <ele>214</ele>
        <time>2018-06-30T09:42:08Z</time>
      </trkpt>
      <trkpt lat="45.86298" lon="4.69111">
        <ele>214</ele>
        <time>2018-06-30T09:42:09Z</time>
      </trkpt>
      <trkpt lat="45.86305" lon="4.69118">
        <ele>214</ele>
        <time>2018-06-30T09:42:12Z</time>
      </trkpt>
      <trkpt lat="45.86308" lon="4.6912">
        <ele>214</ele>
        <time>2018-06-30T09:42:13Z</time>
      </trkpt>
      <trkpt lat="45.86315" lon="4.69127">
        <ele>214</ele>
        <time>2018-06-30T09:42:16Z</time>
      </trkpt>
      <trkpt lat="45.86318" lon="4.6913">
        <ele>214</ele>
        <time>2018-06-30T09:42:17Z</time>
      </trkpt>
      <trkpt lat="45.86322" lon="4.69135">
        <ele>215</ele>
        <time>2018-06-30T09:42:19Z</time>
      </trkpt>
      <trkpt lat="45.86325" lon="4.69138">
        <ele>215</ele>
        <time>2018-06-30T09:42:20Z</time>
      </trkpt>
      <trkpt lat="45.86329" lon="4.69144">
        <ele>215</ele>
        <time>2018-06-30T09:42:22Z</time>
      </trkpt>
      <trkpt lat="45.86331" lon="4.69147">
        <ele>215</ele>
        <time>2018-06-30T09:42:23Z</time>
      </trkpt>
      <trkpt lat="45.86337" lon="4.69157">
        <ele>217</ele>
        <time>2018-06-30T09:42:26Z</time>
      </trkpt>
      <trkpt lat="45.86339" lon="4.6916">
        <ele>217</ele>
        <time>2018-06-30T09:42:27Z</time>
      </trkpt>
      <trkpt lat="45.86343" lon="4.69166">
        <ele>217</ele>
        <time>2018-06-30T09:42:29Z</time>
      </trkpt>
      <trkpt lat="45.86345" lon="4.6917">
        <ele>218</ele>
        <time>2018-06-30T09:42:30Z</time>
      </trkpt>
      <trkpt lat="45.8635" lon="4.69176">
        <ele>218</ele>
        <time>2018-06-30T09:42:32Z</time>
      </trkpt>
      <trkpt lat="45.86351" lon="4.69179">
        <ele>218</ele>
        <time>2018-06-30T09:42:33Z</time>
      </trkpt>
      <trkpt lat="45.86356" lon="4.6919">
        <ele>218</ele>
        <time>2018-06-30T09:42:36Z</time>
      </trkpt>
      <trkpt lat="45.86358" lon="4.69193">
        <ele>218</ele>
        <time>2018-06-30T09:42:37Z</time>
      </trkpt>
      <trkpt lat="45.86362" lon="4.69204">
        <ele>219</ele>
        <time>2018-06-30T09:42:40Z</time>
      </trkpt>
      <trkpt lat="45.86364" lon="4.69207">
        <ele>219</ele>
        <time>2018-06-30T09:42:41Z</time>
      </trkpt>
      <trkpt lat="45.86367" lon="4.69214">
        <ele>219</ele>
        <time>2018-06-30T09:42:43Z</time>
      </trkpt>
      <trkpt lat="45.86372" lon="4.69225">
        <ele>219</ele>
        <time>2018-06-30T09:42:44Z</time>
      </trkpt>
      <trkpt lat="45.86374" lon="4.6923">
        <ele>219</ele>
        <time>2018-06-30T09:42:46Z</time>
      </trkpt>
      <trkpt lat="45.86377" lon="4.69238">
        <ele>219</ele>
        <time>2018-06-30T09:42:47Z</time>
      </trkpt>
      <trkpt lat="45.86379" lon="4.69243">
        <ele>219</ele>
        <time>2018-06-30T09:42:49Z</time>
      </trkpt>
      <trkpt lat="45.86383" lon="4.69251">
        <ele>219</ele>
        <time>2018-06-30T09:42:50Z</time>
      </trkpt>
      <trkpt lat="45.86388" lon="4.69261">
        <ele>219</ele>
        <time>2018-06-30T09:42:52Z</time>
      </trkpt>
      <trkpt lat="45.8639" lon="4.69267">
        <ele>219</ele>
        <time>2018-06-30T09:42:53Z</time>
      </trkpt>
      <trkpt lat="45.86395" lon="4.69277">
        <ele>219</ele>
        <time>2018-06-30T09:42:55Z</time>
      </trkpt>
      <trkpt lat="45.86397" lon="4.69282">
        <ele>219</ele>
        <time>2018-06-30T09:42:56Z</time>
      </trkpt>
      <trkpt lat="45.864" lon="4.69288">
        <ele>219</ele>
        <time>2018-06-30T09:42:57Z</time>
      </trkpt>
      <trkpt lat="45.86403" lon="4.69294">
        <ele>219</ele>
        <time>2018-06-30T09:42:58Z</time>
      </trkpt>
      <trkpt lat="45.86406" lon="4.69299">
        <ele>219</ele>
        <time>2018-06-30T09:42:59Z</time>
      </trkpt>
      <trkpt lat="45.86408" lon="4.69305">
        <ele>219</ele>
        <time>2018-06-30T09:43:00Z</time>
      </trkpt>
      <trkpt lat="45.86411" lon="4.69311">
        <ele>219</ele>
        <time>2018-06-30T09:43:01Z</time>
      </trkpt>
      <trkpt lat="45.86414" lon="4.69318">
        <ele>219</ele>
        <time>2018-06-30T09:43:02Z</time>
      </trkpt>
      <trkpt lat="45.86417" lon="4.69325">
        <ele>219</ele>
        <time>2018-06-30T09:43:03Z</time>
      </trkpt>
      <trkpt lat="45.8642" lon="4.69332">
        <ele>219</ele>
        <time>2018-06-30T09:43:04Z</time>
      </trkpt>
      <trkpt lat="45.86422" lon="4.6934">
        <ele>219</ele>
        <time>2018-06-30T09:43:05Z</time>
      </trkpt>
      <trkpt lat="45.86426" lon="4.69347">
        <ele>219</ele>
        <time>2018-06-30T09:43:06Z</time>
      </trkpt>
      <trkpt lat="45.8643" lon="4.69355">
        <ele>219</ele>
        <time>2018-06-30T09:43:07Z</time>
      </trkpt>
      <trkpt lat="45.86433" lon="4.69362">
        <ele>219</ele>
        <time>2018-06-30T09:43:08Z</time>
      </trkpt>
      <trkpt lat="45.86435" lon="4.69367">
        <ele>219</ele>
        <time>2018-06-30T09:43:09Z</time>
      </trkpt>
      <trkpt lat="45.86438" lon="4.69374">
        <ele>219</ele>
        <time>2018-06-30T09:43:10Z</time>
      </trkpt>
      <trkpt lat="45.86441" lon="4.6938">
        <ele>219</ele>
        <time>2018-06-30T09:43:11Z</time>
      </trkpt>
      <trkpt lat="45.86445" lon="4.69385">
        <ele>219</ele>
        <time>2018-06-30T09:43:12Z</time>
      </trkpt>
      <trkpt lat="45.86448" lon="4.69391">
        <ele>219</ele>
        <time>2018-06-30T09:43:13Z</time>
      </trkpt>
      <trkpt lat="45.86451" lon="4.69397">
        <ele>219</ele>
        <time>2018-06-30T09:43:14Z</time>
      </trkpt>
      <trkpt lat="45.86454" lon="4.69403">
        <ele>219</ele>
        <time>2018-06-30T09:43:15Z</time>
      </trkpt>
      <trkpt lat="45.86458" lon="4.69407">
        <ele>219</ele>
        <time>2018-06-30T09:43:16Z</time>
      </trkpt>
      <trkpt lat="45.86462" lon="4.69412">
        <ele>219</ele>
        <time>2018-06-30T09:43:17Z</time>
      </trkpt>
      <trkpt lat="45.86465" lon="4.69418">
        <ele>218</ele>
        <time>2018-06-30T09:43:18Z</time>
      </trkpt>
      <trkpt lat="45.86468" lon="4.69422">
        <ele>218</ele>
        <time>2018-06-30T09:43:19Z</time>
      </trkpt>
      <trkpt lat="45.86474" lon="4.69427">
        <ele>218</ele>
        <time>2018-06-30T09:43:20Z</time>
      </trkpt>
      <trkpt lat="45.86479" lon="4.69432">
        <ele>218</ele>
        <time>2018-06-30T09:43:21Z</time>
      </trkpt>
      <trkpt lat="45.86483" lon="4.69438">
        <ele>218</ele>
        <time>2018-06-30T09:43:22Z</time>
      </trkpt>
      <trkpt lat="45.86487" lon="4.69444">
        <ele>218</ele>
        <time>2018-06-30T09:43:23Z</time>
      </trkpt>
      <trkpt lat="45.8649" lon="4.6945">
        <ele>218</ele>
        <time>2018-06-30T09:43:24Z</time>
      </trkpt>
      <trkpt lat="45.86493" lon="4.69456">
        <ele>218</ele>
        <time>2018-06-30T09:43:25Z</time>
      </trkpt>
      <trkpt lat="45.86497" lon="4.69462">
        <ele>218</ele>
        <time>2018-06-30T09:43:26Z</time>
      </trkpt>
      <trkpt lat="45.86502" lon="4.69468">
        <ele>219</ele>
        <time>2018-06-30T09:43:27Z</time>
      </trkpt>
      <trkpt lat="45.86504" lon="4.69474">
        <ele>219</ele>
        <time>2018-06-30T09:43:28Z</time>
      </trkpt>
      <trkpt lat="45.86508" lon="4.69479">
        <ele>219</ele>
        <time>2018-06-30T09:43:29Z</time>
      </trkpt>
      <trkpt lat="45.86512" lon="4.69485">
        <ele>219</ele>
        <time>2018-06-30T09:43:30Z</time>
      </trkpt>
      <trkpt lat="45.86515" lon="4.69491">
        <ele>219</ele>
        <time>2018-06-30T09:43:31Z</time>
      </trkpt>
      <trkpt lat="45.86518" lon="4.69497">
        <ele>219</ele>
        <time>2018-06-30T09:43:32Z</time>
      </trkpt>
      <trkpt lat="45.86522" lon="4.69503">
        <ele>219</ele>
        <time>2018-06-30T09:43:33Z</time>
      </trkpt>
      <trkpt lat="45.86525" lon="4.69508">
        <ele>219</ele>
        <time>2018-06-30T09:43:34Z</time>
      </trkpt>
      <trkpt lat="45.86529" lon="4.69515">
        <ele>219</ele>
        <time>2018-06-30T09:43:35Z</time>
      </trkpt>
      <trkpt lat="45.86534" lon="4.69521">
        <ele>219</ele>
        <time>2018-06-30T09:43:36Z</time>
      </trkpt>
      <trkpt lat="45.86537" lon="4.69527">
        <ele>219</ele>
        <time>2018-06-30T09:43:37Z</time>
      </trkpt>
      <trkpt lat="45.86542" lon="4.69534">
        <ele>219</ele>
        <time>2018-06-30T09:43:38Z</time>
      </trkpt>
      <trkpt lat="45.86546" lon="4.69539">
        <ele>219</ele>
        <time>2018-06-30T09:43:39Z</time>
      </trkpt>
      <trkpt lat="45.86549" lon="4.69546">
        <ele>219</ele>
        <time>2018-06-30T09:43:40Z</time>
      </trkpt>
      <trkpt lat="45.86552" lon="4.69553">
        <ele>219</ele>
        <time>2018-06-30T09:43:41Z</time>
      </trkpt>
      <trkpt lat="45.86555" lon="4.69559">
        <ele>219</ele>
        <time>2018-06-30T09:43:42Z</time>
      </trkpt>
      <trkpt lat="45.8656" lon="4.69564">
        <ele>219</ele>
        <time>2018-06-30T09:43:43Z</time>
      </trkpt>
      <trkpt lat="45.86563" lon="4.69569">
        <ele>219</ele>
        <time>2018-06-30T09:43:44Z</time>
      </trkpt>
      <trkpt lat="45.86567" lon="4.69575">
        <ele>219</ele>
        <time>2018-06-30T09:43:45Z</time>
      </trkpt>
      <trkpt lat="45.8657" lon="4.6958">
        <ele>219</ele>
        <time>2018-06-30T09:43:46Z</time>
      </trkpt>
      <trkpt lat="45.86574" lon="4.69586">
        <ele>219</ele>
        <time>2018-06-30T09:43:47Z</time>
      </trkpt>
      <trkpt lat="45.86578" lon="4.69592">
        <ele>219</ele>
        <time>2018-06-30T09:43:48Z</time>
      </trkpt>
      <trkpt lat="45.86582" lon="4.69599">
        <ele>219</ele>
        <time>2018-06-30T09:43:49Z</time>
      </trkpt>
      <trkpt lat="45.86585" lon="4.69605">
        <ele>219</ele>
        <time>2018-06-30T09:43:50Z</time>
      </trkpt>
      <trkpt lat="45.8659" lon="4.69612">
        <ele>219</ele>
        <time>2018-06-30T09:43:51Z</time>
      </trkpt>
      <trkpt lat="45.86595" lon="4.69618">
        <ele>219</ele>
        <time>2018-06-30T09:43:52Z</time>
      </trkpt>
      <trkpt lat="45.86598" lon="4.69625">
        <ele>219</ele>
        <time>2018-06-30T09:43:53Z</time>
      </trkpt>
      <trkpt lat="45.86602" lon="4.69631">
        <ele>219</ele>
        <time>2018-06-30T09:43:54Z</time>
      </trkpt>
      <trkpt lat="45.86606" lon="4.69637">
        <ele>219</ele>
        <time>2018-06-30T09:43:55Z</time>
      </trkpt>
      <trkpt lat="45.86609" lon="4.69643">
        <ele>219</ele>
        <time>2018-06-30T09:43:56Z</time>
      </trkpt>
      <trkpt lat="45.86614" lon="4.69649">
        <ele>219</ele>
        <time>2018-06-30T09:43:57Z</time>
      </trkpt>
      <trkpt lat="45.86618" lon="4.69653">
        <ele>219</ele>
        <time>2018-06-30T09:43:58Z</time>
      </trkpt>
      <trkpt lat="45.86622" lon="4.69659">
        <ele>219</ele>
        <time>2018-06-30T09:43:59Z</time>
      </trkpt>
      <trkpt lat="45.86625" lon="4.69666">
        <ele>218</ele>
        <time>2018-06-30T09:44:00Z</time>
      </trkpt>
      <trkpt lat="45.86629" lon="4.69671">
        <ele>218</ele>
        <time>2018-06-30T09:44:01Z</time>
      </trkpt>
      <trkpt lat="45.86633" lon="4.69677">
        <ele>218</ele>
        <time>2018-06-30T09:44:02Z</time>
      </trkpt>
      <trkpt lat="45.86638" lon="4.69682">
        <ele>218</ele>
        <time>2018-06-30T09:44:03Z</time>
      </trkpt>
      <trkpt lat="45.86642" lon="4.69687">
        <ele>218</ele>
        <time>2018-06-30T09:44:04Z</time>
      </trkpt>
      <trkpt lat="45.86647" lon="4.69692">
        <ele>218</ele>
        <time>2018-06-30T09:44:05Z</time>
      </trkpt>
      <trkpt lat="45.86652" lon="4.69697">
        <ele>218</ele>
        <time>2018-06-30T09:44:06Z</time>
      </trkpt>
      <trkpt lat="45.86657" lon="4.69704">
        <ele>218</ele>
        <time>2018-06-30T09:44:07Z</time>
      </trkpt>
      <trkpt lat="45.86663" lon="4.6971">
        <ele>217</ele>
        <time>2018-06-30T09:44:08Z</time>
      </trkpt>
      <trkpt lat="45.86668" lon="4.69712">
        <ele>217</ele>
        <time>2018-06-30T09:44:09Z</time>
      </trkpt>
      <trkpt lat="45.86671" lon="4.69716">
        <ele>217</ele>
        <time>2018-06-30T09:44:10Z</time>
      </trkpt>
      <trkpt lat="45.86676" lon="4.69721">
        <ele>217</ele>
        <time>2018-06-30T09:44:11Z</time>
      </trkpt>
      <trkpt lat="45.86682" lon="4.69724">
        <ele>217</ele>
        <time>2018-06-30T09:44:12Z</time>
      </trkpt>
      <trkpt lat="45.86687" lon="4.69729">
        <ele>217</ele>
        <time>2018-06-30T09:44:13Z</time>
      </trkpt>
      <trkpt lat="45.86691" lon="4.69733">
        <ele>217</ele>
        <time>2018-06-30T09:44:14Z</time>
      </trkpt>
      <trkpt lat="45.86696" lon="4.69737">
        <ele>217</ele>
        <time>2018-06-30T09:44:15Z</time>
      </trkpt>
      <trkpt lat="45.86701" lon="4.69741">
        <ele>217</ele>
        <time>2018-06-30T09:44:16Z</time>
      </trkpt>
      <trkpt lat="45.86707" lon="4.69747">
        <ele>217</ele>
        <time>2018-06-30T09:44:17Z</time>
      </trkpt>
      <trkpt lat="45.86712" lon="4.69751">
        <ele>217</ele>
        <time>2018-06-30T09:44:18Z</time>
      </trkpt>
      <trkpt lat="45.86717" lon="4.69755">
        <ele>217</ele>
        <time>2018-06-30T09:44:19Z</time>
      </trkpt>
      <trkpt lat="45.86722" lon="4.69758">
        <ele>217</ele>
        <time>2018-06-30T09:44:20Z</time>
      </trkpt>
      <trkpt lat="45.86727" lon="4.69762">
        <ele>217</ele>
        <time>2018-06-30T09:44:21Z</time>
      </trkpt>
      <trkpt lat="45.86731" lon="4.69768">
        <ele>217</ele>
        <time>2018-06-30T09:44:22Z</time>
      </trkpt>
      <trkpt lat="45.86735" lon="4.69774">
        <ele>217</ele>
        <time>2018-06-30T09:44:23Z</time>
      </trkpt>
      <trkpt lat="45.8674" lon="4.69778">
        <ele>217</ele>
        <time>2018-06-30T09:44:24Z</time>
      </trkpt>
      <trkpt lat="45.86744" lon="4.69783">
        <ele>217</ele>
        <time>2018-06-30T09:44:25Z</time>
      </trkpt>
      <trkpt lat="45.86749" lon="4.69788">
        <ele>217</ele>
        <time>2018-06-30T09:44:26Z</time>
      </trkpt>
      <trkpt lat="45.86754" lon="4.69793">
        <ele>217</ele>
        <time>2018-06-30T09:44:27Z</time>
      </trkpt>
      <trkpt lat="45.86759" lon="4.69798">
        <ele>217</ele>
        <time>2018-06-30T09:44:28Z</time>
      </trkpt>
      <trkpt lat="45.86764" lon="4.69803">
        <ele>217</ele>
        <time>2018-06-30T09:44:29Z</time>
      </trkpt>
      <trkpt lat="45.8677" lon="4.69808">
        <ele>217</ele>
        <time>2018-06-30T09:44:30Z</time>
      </trkpt>
      <trkpt lat="45.86776" lon="4.69814">
        <ele>217</ele>
        <time>2018-06-30T09:44:31Z</time>
      </trkpt>
      <trkpt lat="45.86781" lon="4.69819">
        <ele>217</ele>
        <time>2018-06-30T09:44:32Z</time>
      </trkpt>
      <trkpt lat="45.86786" lon="4.69824">
        <ele>217</ele>
        <time>2018-06-30T09:44:33Z</time>
      </trkpt>
      <trkpt lat="45.86792" lon="4.69828">
        <ele>217</ele>
        <time>2018-06-30T09:44:34Z</time>
      </trkpt>
      <trkpt lat="45.86798" lon="4.69833">
        <ele>217</ele>
        <time>2018-06-30T09:44:35Z</time>
      </trkpt>
      <trkpt lat="45.86803" lon="4.69838">
        <ele>217</ele>
        <time>2018-06-30T09:44:36Z</time>
      </trkpt>
      <trkpt lat="45.86809" lon="4.69842">
        <ele>217</ele>
        <time>2018-06-30T09:44:37Z</time>
      </trkpt>
      <trkpt lat="45.86815" lon="4.69847">
        <ele>217</ele>
        <time>2018-06-30T09:44:38Z</time>
      </trkpt>
      <trkpt lat="45.86821" lon="4.69853">
        <ele>217</ele>
        <time>2018-06-30T09:44:39Z</time>
      </trkpt>
      <trkpt lat="45.86827" lon="4.69857">
        <ele>217</ele>
        <time>2018-06-30T09:44:40Z</time>
      </trkpt>
      <trkpt lat="45.86832" lon="4.69862">
        <ele>216</ele>
        <time>2018-06-30T09:44:41Z</time>
      </trkpt>
      <trkpt lat="45.86837" lon="4.69867">
        <ele>217</ele>
        <time>2018-06-30T09:44:42Z</time>
      </trkpt>
      <trkpt lat="45.86842" lon="4.6987">
        <ele>217</ele>
        <time>2018-06-30T09:44:43Z</time>
      </trkpt>
      <trkpt lat="45.86849" lon="4.69874">
        <ele>217</ele>
        <time>2018-06-30T09:44:44Z</time>
      </trkpt>
      <trkpt lat="45.86854" lon="4.6988">
        <ele>217</ele>
        <time>2018-06-30T09:44:45Z</time>
      </trkpt>
      <trkpt lat="45.8686" lon="4.69885">
        <ele>217</ele>
        <time>2018-06-30T09:44:46Z</time>
      </trkpt>
      <trkpt lat="45.86864" lon="4.69892">
        <ele>217</ele>
        <time>2018-06-30T09:44:47Z</time>
      </trkpt>
      <trkpt lat="45.86869" lon="4.69897">
        <ele>217</ele>
        <time>2018-06-30T09:44:48Z</time>
      </trkpt>
      <trkpt lat="45.86875" lon="4.699">
        <ele>217</ele>
        <time>2018-06-30T09:44:49Z</time>
      </trkpt>
      <trkpt lat="45.86881" lon="4.69905">
        <ele>217</ele>
        <time>2018-06-30T09:44:50Z</time>
      </trkpt>
      <trkpt lat="45.86886" lon="4.69909">
        <ele>217</ele>
        <time>2018-06-30T09:44:51Z</time>
      </trkpt>
      <trkpt lat="45.86892" lon="4.69915">
        <ele>217</ele>
        <time>2018-06-30T09:44:52Z</time>
      </trkpt>
      <trkpt lat="45.86897" lon="4.6992">
        <ele>217</ele>
        <time>2018-06-30T09:44:53Z</time>
      </trkpt>
      <trkpt lat="45.86903" lon="4.69925">
        <ele>217</ele>
        <time>2018-06-30T09:44:54Z</time>
      </trkpt>
      <trkpt lat="45.86908" lon="4.6993">
        <ele>217</ele>
        <time>2018-06-30T09:44:55Z</time>
      </trkpt>
      <trkpt lat="45.86914" lon="4.69934">
        <ele>217</ele>
        <time>2018-06-30T09:44:56Z</time>
      </trkpt>
      <trkpt lat="45.86918" lon="4.69939">
        <ele>217</ele>
        <time>2018-06-30T09:44:57Z</time>
      </trkpt>
      <trkpt lat="45.86925" lon="4.69943">
        <ele>217</ele>
        <time>2018-06-30T09:44:58Z</time>
      </trkpt>
      <trkpt lat="45.8693" lon="4.69947">
        <ele>217</ele>
        <time>2018-06-30T09:44:59Z</time>
      </trkpt>
      <trkpt lat="45.86937" lon="4.69951">
        <ele>217</ele>
        <time>2018-06-30T09:45:00Z</time>
      </trkpt>
      <trkpt lat="45.86942" lon="4.69954">
        <ele>217</ele>
        <time>2018-06-30T09:45:01Z</time>
      </trkpt>
      <trkpt lat="45.86946" lon="4.69959">
        <ele>217</ele>
        <time>2018-06-30T09:45:02Z</time>
      </trkpt>
      <trkpt lat="45.86951" lon="4.69963">
        <ele>217</ele>
        <time>2018-06-30T09:45:03Z</time>
      </trkpt>
      <trkpt lat="45.86955" lon="4.69967">
        <ele>217</ele>
        <time>2018-06-30T09:45:04Z</time>
      </trkpt>
      <trkpt lat="45.86959" lon="4.69971">
        <ele>217</ele>
        <time>2018-06-30T09:45:05Z</time>
      </trkpt>
      <trkpt lat="45.86963" lon="4.69976">
        <ele>217</ele>
        <time>2018-06-30T09:45:06Z</time>
      </trkpt>
      <trkpt lat="45.86966" lon="4.69981">
        <ele>217</ele>
        <time>2018-06-30T09:45:07Z</time>
      </trkpt>
      <trkpt lat="45.86968" lon="4.69986">
        <ele>217</ele>
        <time>2018-06-30T09:45:08Z</time>
      </trkpt>
      <trkpt lat="45.86971" lon="4.69992">
        <ele>217</ele>
        <time>2018-06-30T09:45:09Z</time>
      </trkpt>
      <trkpt lat="45.86975" lon="4.69998">
        <ele>217</ele>
        <time>2018-06-30T09:45:10Z</time>
      </trkpt>
      <trkpt lat="45.8698" lon="4.70001">
        <ele>217</ele>
        <time>2018-06-30T09:45:11Z</time>
      </trkpt>
      <trkpt lat="45.86985" lon="4.70002">
        <ele>217</ele>
        <time>2018-06-30T09:45:12Z</time>
      </trkpt>
      <trkpt lat="45.8699" lon="4.70004">
        <ele>217</ele>
        <time>2018-06-30T09:45:13Z</time>
      </trkpt>
      <trkpt lat="45.86996" lon="4.70005">
        <ele>217</ele>
        <time>2018-06-30T09:45:14Z</time>
      </trkpt>
      <trkpt lat="45.87004" lon="4.70003">
        <ele>217</ele>
        <time>2018-06-30T09:45:15Z</time>
      </trkpt>
      <trkpt lat="45.87008" lon="4.70006">
        <ele>217</ele>
        <time>2018-06-30T09:45:16Z</time>
      </trkpt>
      <trkpt lat="45.87013" lon="4.70009">
        <ele>217</ele>
        <time>2018-06-30T09:45:17Z</time>
      </trkpt>
      <trkpt lat="45.87022" lon="4.70008">
        <ele>217</ele>
        <time>2018-06-30T09:45:18Z</time>
      </trkpt>
      <trkpt lat="45.87026" lon="4.70013">
        <ele>217</ele>
        <time>2018-06-30T09:45:19Z</time>
      </trkpt>
      <trkpt lat="45.8703" lon="4.70019">
        <ele>217</ele>
        <time>2018-06-30T09:45:20Z</time>
      </trkpt>
      <trkpt lat="45.87034" lon="4.70025">
        <ele>217</ele>
        <time>2018-06-30T09:45:21Z</time>
      </trkpt>
      <trkpt lat="45.87038" lon="4.70031">
        <ele>217</ele>
        <time>2018-06-30T09:45:22Z</time>
      </trkpt>
      <trkpt lat="45.87042" lon="4.70038">
        <ele>217</ele>
        <time>2018-06-30T09:45:23Z</time>
      </trkpt>
      <trkpt lat="45.87046" lon="4.70045">
        <ele>217</ele>
        <time>2018-06-30T09:45:24Z</time>
      </trkpt>
      <trkpt lat="45.87048" lon="4.70054">
        <ele>217</ele>
        <time>2018-06-30T09:45:25Z</time>
      </trkpt>
      <trkpt lat="45.87052" lon="4.70062">
        <ele>217</ele>
        <time>2018-06-30T09:45:26Z</time>
      </trkpt>
      <trkpt lat="45.87055" lon="4.7007">
        <ele>217</ele>
        <time>2018-06-30T09:45:27Z</time>
      </trkpt>
      <trkpt lat="45.87059" lon="4.70077">
        <ele>217</ele>
        <time>2018-06-30T09:45:28Z</time>
      </trkpt>
      <trkpt lat="45.87063" lon="4.70084">
        <ele>217</ele>
        <time>2018-06-30T09:45:29Z</time>
      </trkpt>
      <trkpt lat="45.87066" lon="4.70091">
        <ele>217</ele>
        <time>2018-06-30T09:45:30Z</time>
      </trkpt>
      <trkpt lat="45.87071" lon="4.70097">
        <ele>217</ele>
        <time>2018-06-30T09:45:31Z</time>
      </trkpt>
      <trkpt lat="45.87074" lon="4.70104">
        <ele>217</ele>
        <time>2018-06-30T09:45:32Z</time>
      </trkpt>
      <trkpt lat="45.87077" lon="4.70111">
        <ele>217</ele>
        <time>2018-06-30T09:45:33Z</time>
      </trkpt>
      <trkpt lat="45.87082" lon="4.70118">
        <ele>217</ele>
        <time>2018-06-30T09:45:34Z</time>
      </trkpt>
      <trkpt lat="45.87085" lon="4.70127">
        <ele>217</ele>
        <time>2018-06-30T09:45:35Z</time>
      </trkpt>
      <trkpt lat="45.87089" lon="4.70134">
        <ele>217</ele>
        <time>2018-06-30T09:45:36Z</time>
      </trkpt>
      <trkpt lat="45.87093" lon="4.70142">
        <ele>217</ele>
        <time>2018-06-30T09:45:37Z</time>
      </trkpt>
      <trkpt lat="45.87098" lon="4.70149">
        <ele>217</ele>
        <time>2018-06-30T09:45:38Z</time>
      </trkpt>
      <trkpt lat="45.87102" lon="4.70155">
        <ele>217</ele>
        <time>2018-06-30T09:45:39Z</time>
      </trkpt>
      <trkpt lat="45.87106" lon="4.70162">
        <ele>217</ele>
        <time>2018-06-30T09:45:40Z</time>
      </trkpt>
      <trkpt lat="45.8711" lon="4.70167">
        <ele>216</ele>
        <time>2018-06-30T09:45:41Z</time>
      </trkpt>
      <trkpt lat="45.87113" lon="4.70173">
        <ele>216</ele>
        <time>2018-06-30T09:45:42Z</time>
      </trkpt>
      <trkpt lat="45.87116" lon="4.70178">
        <ele>216</ele>
        <time>2018-06-30T09:45:43Z</time>
      </trkpt>
      <trkpt lat="45.8712" lon="4.70183">
        <ele>216</ele>
        <time>2018-06-30T09:45:44Z</time>
      </trkpt>
      <trkpt lat="45.87124" lon="4.70189">
        <ele>216</ele>
        <time>2018-06-30T09:45:45Z</time>
      </trkpt>
      <trkpt lat="45.87129" lon="4.70195">
        <ele>216</ele>
        <time>2018-06-30T09:45:46Z</time>
      </trkpt>
      <trkpt lat="45.87134" lon="4.70202">
        <ele>216</ele>
        <time>2018-06-30T09:45:47Z</time>
      </trkpt>
      <trkpt lat="45.87139" lon="4.70208">
        <ele>216</ele>
        <time>2018-06-30T09:45:48Z</time>
      </trkpt>
      <trkpt lat="45.87143" lon="4.70214">
        <ele>216</ele>
        <time>2018-06-30T09:45:49Z</time>
      </trkpt>
      <trkpt lat="45.87147" lon="4.70219">
        <ele>216</ele>
        <time>2018-06-30T09:45:50Z</time>
      </trkpt>
      <trkpt lat="45.87151" lon="4.70224">
        <ele>216</ele>
        <time>2018-06-30T09:45:51Z</time>
      </trkpt>
      <trkpt lat="45.87155" lon="4.70229">
        <ele>216</ele>
        <time>2018-06-30T09:45:52Z</time>
      </trkpt>
      <trkpt lat="45.87159" lon="4.70234">
        <ele>216</ele>
        <time>2018-06-30T09:45:53Z</time>
      </trkpt>
      <trkpt lat="45.87163" lon="4.70241">
        <ele>216</ele>
        <time>2018-06-30T09:45:54Z</time>
      </trkpt>
      <trkpt lat="45.87167" lon="4.70246">
        <ele>216</ele>
        <time>2018-06-30T09:45:55Z</time>
      </trkpt>
      <trkpt lat="45.87171" lon="4.70252">
        <ele>216</ele>
        <time>2018-06-30T09:45:56Z</time>
      </trkpt>
      <trkpt lat="45.87176" lon="4.70258">
        <ele>216</ele>
        <time>2018-06-30T09:45:57Z</time>
      </trkpt>
      <trkpt lat="45.8718" lon="4.70263">
        <ele>216</ele>
        <time>2018-06-30T09:45:58Z</time>
      </trkpt>
      <trkpt lat="45.87184" lon="4.70268">
        <ele>217</ele>
        <time>2018-06-30T09:45:59Z</time>
      </trkpt>
      <trkpt lat="45.87188" lon="4.70275">
        <ele>217</ele>
        <time>2018-06-30T09:46:00Z</time>
      </trkpt>
      <trkpt lat="45.87193" lon="4.70281">
        <ele>217</ele>
        <time>2018-06-30T09:46:01Z</time>
      </trkpt>
      <trkpt lat="45.87198" lon="4.70287">
        <ele>217</ele>
        <time>2018-06-30T09:46:02Z</time>
      </trkpt>
      <trkpt lat="45.87202" lon="4.70294">
        <ele>217</ele>
        <time>2018-06-30T09:46:03Z</time>
      </trkpt>
      <trkpt lat="45.87206" lon="4.703">
        <ele>217</ele>
        <time>2018-06-30T09:46:04Z</time>
      </trkpt>
      <trkpt lat="45.87211" lon="4.70307">
        <ele>217</ele>
        <time>2018-06-30T09:46:05Z</time>
      </trkpt>
      <trkpt lat="45.87215" lon="4.70314">
        <ele>217</ele>
        <time>2018-06-30T09:46:06Z</time>
      </trkpt>
      <trkpt lat="45.8722" lon="4.7032">
        <ele>217</ele>
        <time>2018-06-30T09:46:07Z</time>
      </trkpt>
      <trkpt lat="45.87224" lon="4.70325">
        <ele>217</ele>
        <time>2018-06-30T09:46:08Z</time>
      </trkpt>
      <trkpt lat="45.8723" lon="4.70332">
        <ele>217</ele>
        <time>2018-06-30T09:46:09Z</time>
      </trkpt>
      <trkpt lat="45.87234" lon="4.70338">
        <ele>217</ele>
        <time>2018-06-30T09:46:10Z</time>
      </trkpt>
      <trkpt lat="45.87239" lon="4.70345">
        <ele>217</ele>
        <time>2018-06-30T09:46:11Z</time>
      </trkpt>
      <trkpt lat="45.87243" lon="4.7035">
        <ele>217</ele>
        <time>2018-06-30T09:46:12Z</time>
      </trkpt>
      <trkpt lat="45.87248" lon="4.70356">
        <ele>217</ele>
        <time>2018-06-30T09:46:13Z</time>
      </trkpt>
      <trkpt lat="45.87252" lon="4.70362">
        <ele>216</ele>
        <time>2018-06-30T09:46:14Z</time>
      </trkpt>
      <trkpt lat="45.87257" lon="4.70368">
        <ele>216</ele>
        <time>2018-06-30T09:46:15Z</time>
      </trkpt>
      <trkpt lat="45.87263" lon="4.70373">
        <ele>216</ele>
        <time>2018-06-30T09:46:16Z</time>
      </trkpt>
      <trkpt lat="45.87267" lon="4.7038">
        <ele>216</ele>
        <time>2018-06-30T09:46:17Z</time>
      </trkpt>
      <trkpt lat="45.87271" lon="4.70386">
        <ele>216</ele>
        <time>2018-06-30T09:46:18Z</time>
      </trkpt>
      <trkpt lat="45.87275" lon="4.70394">
        <ele>216</ele>
        <time>2018-06-30T09:46:19Z</time>
      </trkpt>
      <trkpt lat="45.87277" lon="4.704">
        <ele>216</ele>
        <time>2018-06-30T09:46:20Z</time>
      </trkpt>
      <trkpt lat="45.87281" lon="4.70406">
        <ele>216</ele>
        <time>2018-06-30T09:46:21Z</time>
      </trkpt>
      <trkpt lat="45.87287" lon="4.70411">
        <ele>216</ele>
        <time>2018-06-30T09:46:22Z</time>
      </trkpt>
      <trkpt lat="45.87291" lon="4.70417">
        <ele>214</ele>
        <time>2018-06-30T09:46:23Z</time>
      </trkpt>
      <trkpt lat="45.87295" lon="4.70423">
        <ele>214</ele>
        <time>2018-06-30T09:46:24Z</time>
      </trkpt>
      <trkpt lat="45.87299" lon="4.7043">
        <ele>214</ele>
        <time>2018-06-30T09:46:25Z</time>
      </trkpt>
      <trkpt lat="45.87304" lon="4.70437">
        <ele>214</ele>
        <time>2018-06-30T09:46:26Z</time>
      </trkpt>
      <trkpt lat="45.87308" lon="4.70444">
        <ele>214</ele>
        <time>2018-06-30T09:46:27Z</time>
      </trkpt>
      <trkpt lat="45.87312" lon="4.70451">
        <ele>214</ele>
        <time>2018-06-30T09:46:28Z</time>
      </trkpt>
      <trkpt lat="45.87317" lon="4.70458">
        <ele>214</ele>
        <time>2018-06-30T09:46:29Z</time>
      </trkpt>
      <trkpt lat="45.87321" lon="4.70465">
        <ele>214</ele>
        <time>2018-06-30T09:46:30Z</time>
      </trkpt>
      <trkpt lat="45.87327" lon="4.70472">
        <ele>214</ele>
        <time>2018-06-30T09:46:31Z</time>
      </trkpt>
      <trkpt lat="45.87331" lon="4.70479">
        <ele>214</ele>
        <time>2018-06-30T09:46:32Z</time>
      </trkpt>
      <trkpt lat="45.87336" lon="4.70488">
        <ele>213</ele>
        <time>2018-06-30T09:46:33Z</time>
      </trkpt>
      <trkpt lat="45.87341" lon="4.70497">
        <ele>213</ele>
        <time>2018-06-30T09:46:34Z</time>
      </trkpt>
      <trkpt lat="45.87347" lon="4.70505">
        <ele>212</ele>
        <time>2018-06-30T09:46:35Z</time>
      </trkpt>
      <trkpt lat="45.87352" lon="4.70513">
        <ele>212</ele>
        <time>2018-06-30T09:46:36Z</time>
      </trkpt>
      <trkpt lat="45.87357" lon="4.70522">
        <ele>212</ele>
        <time>2018-06-30T09:46:37Z</time>
      </trkpt>
      <trkpt lat="45.87362" lon="4.7053">
        <ele>212</ele>
        <time>2018-06-30T09:46:38Z</time>
      </trkpt>
      <trkpt lat="45.87368" lon="4.70539">
        <ele>212</ele>
        <time>2018-06-30T09:46:39Z</time>
      </trkpt>
      <trkpt lat="45.87373" lon="4.70548">
        <ele>212</ele>
        <time>2018-06-30T09:46:40Z</time>
      </trkpt>
      <trkpt lat="45.87379" lon="4.70556">
        <ele>212</ele>
        <time>2018-06-30T09:46:41Z</time>
      </trkpt>
      <trkpt lat="45.87384" lon="4.70564">
        <ele>211</ele>
        <time>2018-06-30T09:46:42Z</time>
      </trkpt>
      <trkpt lat="45.8739" lon="4.70572">
        <ele>211</ele>
        <time>2018-06-30T09:46:43Z</time>
      </trkpt>
      <trkpt lat="45.87395" lon="4.70583">
        <ele>211</ele>
        <time>2018-06-30T09:46:44Z</time>
      </trkpt>
      <trkpt lat="45.874" lon="4.70592">
        <ele>210</ele>
        <time>2018-06-30T09:46:45Z</time>
      </trkpt>
      <trkpt lat="45.87404" lon="4.706">
        <ele>210</ele>
        <time>2018-06-30T09:46:46Z</time>
      </trkpt>
      <trkpt lat="45.87407" lon="4.70609">
        <ele>210</ele>
        <time>2018-06-30T09:46:47Z</time>
      </trkpt>
      <trkpt lat="45.87411" lon="4.70618">
        <ele>209</ele>
        <time>2018-06-30T09:46:48Z</time>
      </trkpt>
      <trkpt lat="45.87412" lon="4.70627">
        <ele>209</ele>
        <time>2018-06-30T09:46:49Z</time>
      </trkpt>
      <trkpt lat="45.87413" lon="4.70636">
        <ele>209</ele>
        <time>2018-06-30T09:46:50Z</time>
      </trkpt>
      <trkpt lat="45.87415" lon="4.70645">
        <ele>209</ele>
        <time>2018-06-30T09:46:51Z</time>
      </trkpt>
      <trkpt lat="45.87416" lon="4.70655">
        <ele>208</ele>
        <time>2018-06-30T09:46:52Z</time>
      </trkpt>
      <trkpt lat="45.87416" lon="4.70664">
        <ele>207</ele>
        <time>2018-06-30T09:46:53Z</time>
      </trkpt>
      <trkpt lat="45.87417" lon="4.70672">
        <ele>208</ele>
        <time>2018-06-30T09:46:54Z</time>
      </trkpt>
      <trkpt lat="45.87419" lon="4.70681">
        <ele>208</ele>
        <time>2018-06-30T09:46:55Z</time>
      </trkpt>
      <trkpt lat="45.87421" lon="4.70689">
        <ele>209</ele>
        <time>2018-06-30T09:46:56Z</time>
      </trkpt>
      <trkpt lat="45.87422" lon="4.70697">
        <ele>209</ele>
        <time>2018-06-30T09:46:57Z</time>
      </trkpt>
      <trkpt lat="45.87423" lon="4.70705">
        <ele>209</ele>
        <time>2018-06-30T09:46:58Z</time>
      </trkpt>
      <trkpt lat="45.87424" lon="4.70711">
        <ele>209</ele>
        <time>2018-06-30T09:46:59Z</time>
      </trkpt>
      <trkpt lat="45.87425" lon="4.7072">
        <ele>209</ele>
        <time>2018-06-30T09:47:00Z</time>
      </trkpt>
      <trkpt lat="45.87428" lon="4.70729">
        <ele>209</ele>
        <time>2018-06-30T09:47:01Z</time>
      </trkpt>
      <trkpt lat="45.87428" lon="4.70737">
        <ele>209</ele>
        <time>2018-06-30T09:47:02Z</time>
      </trkpt>
      <trkpt lat="45.87429" lon="4.70746">
        <ele>208</ele>
        <time>2018-06-30T09:47:03Z</time>
      </trkpt>
      <trkpt lat="45.87431" lon="4.70755">
        <ele>209</ele>
        <time>2018-06-30T09:47:04Z</time>
      </trkpt>
      <trkpt lat="45.87433" lon="4.70763">
        <ele>209</ele>
        <time>2018-06-30T09:47:05Z</time>
      </trkpt>
      <trkpt lat="45.87434" lon="4.70773">
        <ele>210</ele>
        <time>2018-06-30T09:47:06Z</time>
      </trkpt>
      <trkpt lat="45.87435" lon="4.7078">
        <ele>210</ele>
        <time>2018-06-30T09:47:07Z</time>
      </trkpt>
      <trkpt lat="45.87437" lon="4.70787">
        <ele>210</ele>
        <time>2018-06-30T09:47:08Z</time>
      </trkpt>
      <trkpt lat="45.87439" lon="4.70795">
        <ele>211</ele>
        <time>2018-06-30T09:47:09Z</time>
      </trkpt>
      <trkpt lat="45.87442" lon="4.70801">
        <ele>211</ele>
        <time>2018-06-30T09:47:10Z</time>
      </trkpt>
      <trkpt lat="45.87442" lon="4.70807">
        <ele>211</ele>
        <time>2018-06-30T09:47:11Z</time>
      </trkpt>
      <trkpt lat="45.87444" lon="4.70814">
        <ele>211</ele>
        <time>2018-06-30T09:47:12Z</time>
      </trkpt>
      <trkpt lat="45.87446" lon="4.70825">
        <ele>211</ele>
        <time>2018-06-30T09:47:14Z</time>
      </trkpt>
      <trkpt lat="45.87447" lon="4.70831">
        <ele>211</ele>
        <time>2018-06-30T09:47:15Z</time>
      </trkpt>
      <trkpt lat="45.87448" lon="4.70837">
        <ele>212</ele>
        <time>2018-06-30T09:47:16Z</time>
      </trkpt>
      <trkpt lat="45.87449" lon="4.70844">
        <ele>212</ele>
        <time>2018-06-30T09:47:17Z</time>
      </trkpt>
      <trkpt lat="45.87451" lon="4.70851">
        <ele>213</ele>
        <time>2018-06-30T09:47:18Z</time>
      </trkpt>
      <trkpt lat="45.87453" lon="4.70858">
        <ele>213</ele>
        <time>2018-06-30T09:47:19Z</time>
      </trkpt>
      <trkpt lat="45.87455" lon="4.70866">
        <ele>213</ele>
        <time>2018-06-30T09:47:20Z</time>
      </trkpt>
      <trkpt lat="45.87457" lon="4.70873">
        <ele>213</ele>
        <time>2018-06-30T09:47:21Z</time>
      </trkpt>
      <trkpt lat="45.8746" lon="4.7088">
        <ele>213</ele>
        <time>2018-06-30T09:47:22Z</time>
      </trkpt>
      <trkpt lat="45.87463" lon="4.70885">
        <ele>214</ele>
        <time>2018-06-30T09:47:23Z</time>
      </trkpt>
      <trkpt lat="45.87465" lon="4.70892">
        <ele>214</ele>
        <time>2018-06-30T09:47:24Z</time>
      </trkpt>
      <trkpt lat="45.87467" lon="4.709">
        <ele>214</ele>
        <time>2018-06-30T09:47:25Z</time>
      </trkpt>
      <trkpt lat="45.8747" lon="4.70911">
        <ele>214</ele>
        <time>2018-06-30T09:47:27Z</time>
      </trkpt>
      <trkpt lat="45.87471" lon="4.70917">
        <ele>215</ele>
        <time>2018-06-30T09:47:28Z</time>
      </trkpt>
      <trkpt lat="45.87472" lon="4.70928">
        <ele>215</ele>
        <time>2018-06-30T09:47:30Z</time>
      </trkpt>
      <trkpt lat="45.87475" lon="4.70936">
        <ele>215</ele>
        <time>2018-06-30T09:47:31Z</time>
      </trkpt>
      <trkpt lat="45.87476" lon="4.70943">
        <ele>215</ele>
        <time>2018-06-30T09:47:32Z</time>
      </trkpt>
      <trkpt lat="45.87478" lon="4.70948">
        <ele>215</ele>
        <time>2018-06-30T09:47:33Z</time>
      </trkpt>
      <trkpt lat="45.8748" lon="4.70955">
        <ele>215</ele>
        <time>2018-06-30T09:47:34Z</time>
      </trkpt>
      <trkpt lat="45.87483" lon="4.70961">
        <ele>215</ele>
        <time>2018-06-30T09:47:35Z</time>
      </trkpt>
      <trkpt lat="45.87484" lon="4.70967">
        <ele>215</ele>
        <time>2018-06-30T09:47:36Z</time>
      </trkpt>
      <trkpt lat="45.87487" lon="4.70973">
        <ele>215</ele>
        <time>2018-06-30T09:47:37Z</time>
      </trkpt>
      <trkpt lat="45.87493" lon="4.70978">
        <ele>215</ele>
        <time>2018-06-30T09:47:38Z</time>
      </trkpt>
      <trkpt lat="45.87496" lon="4.70985">
        <ele>214</ele>
        <time>2018-06-30T09:47:39Z</time>
      </trkpt>
      <trkpt lat="45.87499" lon="4.70991">
        <ele>214</ele>
        <time>2018-06-30T09:47:40Z</time>
      </trkpt>
      <trkpt lat="45.87503" lon="4.70997">
        <ele>214</ele>
        <time>2018-06-30T09:47:41Z</time>
      </trkpt>
      <trkpt lat="45.87506" lon="4.71002">
        <ele>214</ele>
        <time>2018-06-30T09:47:42Z</time>
      </trkpt>
      <trkpt lat="45.87509" lon="4.71007">
        <ele>214</ele>
        <time>2018-06-30T09:47:43Z</time>
      </trkpt>
      <trkpt lat="45.87514" lon="4.71018">
        <ele>215</ele>
        <time>2018-06-30T09:47:45Z</time>
      </trkpt>
      <trkpt lat="45.87517" lon="4.71022">
        <ele>215</ele>
        <time>2018-06-30T09:47:46Z</time>
      </trkpt>
      <trkpt lat="45.87522" lon="4.71027">
        <ele>215</ele>
        <time>2018-06-30T09:47:48Z</time>
      </trkpt>
      <trkpt lat="45.87524" lon="4.71033">
        <ele>215</ele>
        <time>2018-06-30T09:47:49Z</time>
      </trkpt>
      <trkpt lat="45.87529" lon="4.7104">
        <ele>215</ele>
        <time>2018-06-30T09:47:52Z</time>
      </trkpt>
      <trkpt lat="45.8753" lon="4.71043">
        <ele>215</ele>
        <time>2018-06-30T09:47:53Z</time>
      </trkpt>
      <trkpt lat="45.87536" lon="4.71052">
        <ele>215</ele>
        <time>2018-06-30T09:47:54Z</time>
      </trkpt>
      <trkpt lat="45.87537" lon="4.71054">
        <ele>215</ele>
        <time>2018-06-30T09:47:55Z</time>
      </trkpt>
      <trkpt lat="45.87542" lon="4.71061">
        <ele>216</ele>
        <time>2018-06-30T09:47:58Z</time>
      </trkpt>
      <trkpt lat="45.87548" lon="4.71069">
        <ele>216</ele>
        <time>2018-06-30T09:47:59Z</time>
      </trkpt>
      <trkpt lat="45.87555" lon="4.71075">
        <ele>216</ele>
        <time>2018-06-30T09:48:03Z</time>
      </trkpt>
      <trkpt lat="45.87556" lon="4.71077">
        <ele>216</ele>
        <time>2018-06-30T09:48:04Z</time>
      </trkpt>
      <trkpt lat="45.87562" lon="4.71084">
        <ele>218</ele>
        <time>2018-06-30T09:48:55Z</time>
      </trkpt>
      <trkpt lat="45.87564" lon="4.71085">
        <ele>218</ele>
        <time>2018-06-30T09:48:56Z</time>
      </trkpt>
      <trkpt lat="45.87571" lon="4.71089">
        <ele>218</ele>
        <time>2018-06-30T09:48:59Z</time>
      </trkpt>
      <trkpt lat="45.87581" lon="4.71091">
        <ele>217</ele>
        <time>2018-06-30T09:49:00Z</time>
      </trkpt>
      <trkpt lat="45.87586" lon="4.7109">
        <ele>218</ele>
        <time>2018-06-30T09:49:01Z</time>
      </trkpt>
      <trkpt lat="45.8759" lon="4.71088">
        <ele>218</ele>
        <time>2018-06-30T09:49:02Z</time>
      </trkpt>
      <trkpt lat="45.87595" lon="4.71085">
        <ele>218</ele>
        <time>2018-06-30T09:49:03Z</time>
      </trkpt>
      <trkpt lat="45.876" lon="4.71083">
        <ele>219</ele>
        <time>2018-06-30T09:49:04Z</time>
      </trkpt>
      <trkpt lat="45.87609" lon="4.7108">
        <ele>217</ele>
        <time>2018-06-30T09:49:05Z</time>
      </trkpt>
      <trkpt lat="45.87613" lon="4.71078">
        <ele>217</ele>
        <time>2018-06-30T09:49:06Z</time>
      </trkpt>
      <trkpt lat="45.87619" lon="4.71077">
        <ele>217</ele>
        <time>2018-06-30T09:49:07Z</time>
      </trkpt>
      <trkpt lat="45.87624" lon="4.71074">
        <ele>217</ele>
        <time>2018-06-30T09:49:09Z</time>
      </trkpt>
      <trkpt lat="45.87627" lon="4.71071">
        <ele>218</ele>
        <time>2018-06-30T09:49:10Z</time>
      </trkpt>
      <trkpt lat="45.87631" lon="4.71069">
        <ele>218</ele>
        <time>2018-06-30T09:49:11Z</time>
      </trkpt>
      <trkpt lat="45.87637" lon="4.71067">
        <ele>218</ele>
        <time>2018-06-30T09:49:12Z</time>
      </trkpt>
      <trkpt lat="45.87645" lon="4.71065">
        <ele>218</ele>
        <time>2018-06-30T09:49:14Z</time>
      </trkpt>
      <trkpt lat="45.8765" lon="4.71063">
        <ele>218</ele>
        <time>2018-06-30T09:49:15Z</time>
      </trkpt>
      <trkpt lat="45.87656" lon="4.71063">
        <ele>218</ele>
        <time>2018-06-30T09:49:17Z</time>
      </trkpt>
      <trkpt lat="45.8766" lon="4.71062">
        <ele>218</ele>
        <time>2018-06-30T09:49:18Z</time>
      </trkpt>
      <trkpt lat="45.87665" lon="4.7106">
        <ele>218</ele>
        <time>2018-06-30T09:49:19Z</time>
      </trkpt>
      <trkpt lat="45.87669" lon="4.71058">
        <ele>220</ele>
        <time>2018-06-30T09:49:20Z</time>
      </trkpt>
      <trkpt lat="45.87675" lon="4.71055">
        <ele>220</ele>
        <time>2018-06-30T09:49:21Z</time>
      </trkpt>
      <trkpt lat="45.87678" lon="4.71054">
        <ele>220</ele>
        <time>2018-06-30T09:49:22Z</time>
      </trkpt>
      <trkpt lat="45.87686" lon="4.71053">
        <ele>220</ele>
        <time>2018-06-30T09:49:24Z</time>
      </trkpt>
      <trkpt lat="45.8769" lon="4.71051">
        <ele>220</ele>
        <time>2018-06-30T09:49:25Z</time>
      </trkpt>
      <trkpt lat="45.87694" lon="4.71049">
        <ele>220</ele>
        <time>2018-06-30T09:49:26Z</time>
      </trkpt>
      <trkpt lat="45.87699" lon="4.7105">
        <ele>220</ele>
        <time>2018-06-30T09:49:27Z</time>
      </trkpt>
      <trkpt lat="45.87707" lon="4.71049">
        <ele>220</ele>
        <time>2018-06-30T09:49:29Z</time>
      </trkpt>
      <trkpt lat="45.87711" lon="4.71047">
        <ele>220</ele>
        <time>2018-06-30T09:49:30Z</time>
      </trkpt>
      <trkpt lat="45.87715" lon="4.71046">
        <ele>220</ele>
        <time>2018-06-30T09:49:31Z</time>
      </trkpt>
      <trkpt lat="45.8772" lon="4.71043">
        <ele>220</ele>
        <time>2018-06-30T09:49:32Z</time>
      </trkpt>
      <trkpt lat="45.87726" lon="4.71041">
        <ele>220</ele>
        <time>2018-06-30T09:49:33Z</time>
      </trkpt>
      <trkpt lat="45.87731" lon="4.71039">
        <ele>220</ele>
        <time>2018-06-30T09:49:34Z</time>
      </trkpt>
      <trkpt lat="45.87737" lon="4.71036">
        <ele>220</ele>
        <time>2018-06-30T09:49:36Z</time>
      </trkpt>
      <trkpt lat="45.87742" lon="4.71034">
        <ele>220</ele>
        <time>2018-06-30T09:49:37Z</time>
      </trkpt>
      <trkpt lat="45.87746" lon="4.71033">
        <ele>220</ele>
        <time>2018-06-30T09:49:38Z</time>
      </trkpt>
      <trkpt lat="45.87751" lon="4.71032">
        <ele>222</ele>
        <time>2018-06-30T09:49:39Z</time>
      </trkpt>
      <trkpt lat="45.87755" lon="4.7103">
        <ele>222</ele>
        <time>2018-06-30T09:49:40Z</time>
      </trkpt>
      <trkpt lat="45.87762" lon="4.71028">
        <ele>222</ele>
        <time>2018-06-30T09:49:41Z</time>
      </trkpt>
      <trkpt lat="45.8777" lon="4.71024">
        <ele>222</ele>
        <time>2018-06-30T09:49:43Z</time>
      </trkpt>
      <trkpt lat="45.87775" lon="4.71023">
        <ele>222</ele>
        <time>2018-06-30T09:49:44Z</time>
      </trkpt>
      <trkpt lat="45.87779" lon="4.71021">
        <ele>222</ele>
        <time>2018-06-30T09:49:45Z</time>
      </trkpt>
      <trkpt lat="45.87784" lon="4.71019">
        <ele>223</ele>
        <time>2018-06-30T09:49:46Z</time>
      </trkpt>
      <trkpt lat="45.87789" lon="4.71015">
        <ele>223</ele>
        <time>2018-06-30T09:49:47Z</time>
      </trkpt>
      <trkpt lat="45.87795" lon="4.71012">
        <ele>223</ele>
        <time>2018-06-30T09:49:48Z</time>
      </trkpt>
      <trkpt lat="45.87799" lon="4.71011">
        <ele>223</ele>
        <time>2018-06-30T09:49:49Z</time>
      </trkpt>
      <trkpt lat="45.87804" lon="4.71009">
        <ele>223</ele>
        <time>2018-06-30T09:49:50Z</time>
      </trkpt>
      <trkpt lat="45.87809" lon="4.71007">
        <ele>223</ele>
        <time>2018-06-30T09:49:52Z</time>
      </trkpt>
      <trkpt lat="45.87813" lon="4.71006">
        <ele>223</ele>
        <time>2018-06-30T09:49:53Z</time>
      </trkpt>
      <trkpt lat="45.87817" lon="4.71003">
        <ele>223</ele>
        <time>2018-06-30T09:49:54Z</time>
      </trkpt>
      <trkpt lat="45.87821" lon="4.71001">
        <ele>224</ele>
        <time>2018-06-30T09:49:55Z</time>
      </trkpt>
      <trkpt lat="45.87829" lon="4.70997">
        <ele>224</ele>
        <time>2018-06-30T09:49:57Z</time>
      </trkpt>
      <trkpt lat="45.87834" lon="4.70995">
        <ele>224</ele>
        <time>2018-06-30T09:49:58Z</time>
      </trkpt>
      <trkpt lat="45.87842" lon="4.70992">
        <ele>224</ele>
        <time>2018-06-30T09:50:00Z</time>
      </trkpt>
      <trkpt lat="45.87846" lon="4.70989">
        <ele>224</ele>
        <time>2018-06-30T09:50:01Z</time>
      </trkpt>
      <trkpt lat="45.87852" lon="4.70983">
        <ele>224</ele>
        <time>2018-06-30T09:50:03Z</time>
      </trkpt>
      <trkpt lat="45.87856" lon="4.70981">
        <ele>224</ele>
        <time>2018-06-30T09:50:04Z</time>
      </trkpt>
      <trkpt lat="45.87864" lon="4.70977">
        <ele>224</ele>
        <time>2018-06-30T09:50:06Z</time>
      </trkpt>
      <trkpt lat="45.87868" lon="4.70974">
        <ele>225</ele>
        <time>2018-06-30T09:50:07Z</time>
      </trkpt>
      <trkpt lat="45.87872" lon="4.70972">
        <ele>225</ele>
        <time>2018-06-30T09:50:08Z</time>
      </trkpt>
      <trkpt lat="45.87879" lon="4.7097">
        <ele>225</ele>
        <time>2018-06-30T09:50:09Z</time>
      </trkpt>
      <trkpt lat="45.87884" lon="4.70967">
        <ele>225</ele>
        <time>2018-06-30T09:50:10Z</time>
      </trkpt>
      <trkpt lat="45.87889" lon="4.70963">
        <ele>225</ele>
        <time>2018-06-30T09:50:11Z</time>
      </trkpt>
      <trkpt lat="45.87894" lon="4.7096">
        <ele>225</ele>
        <time>2018-06-30T09:50:12Z</time>
      </trkpt>
      <trkpt lat="45.87898" lon="4.70957">
        <ele>225</ele>
        <time>2018-06-30T09:50:13Z</time>
      </trkpt>
      <trkpt lat="45.87903" lon="4.70955">
        <ele>225</ele>
        <time>2018-06-30T09:50:15Z</time>
      </trkpt>
      <trkpt lat="45.87909" lon="4.70951">
        <ele>225</ele>
        <time>2018-06-30T09:50:16Z</time>
      </trkpt>
      <trkpt lat="45.87916" lon="4.70946">
        <ele>225</ele>
        <time>2018-06-30T09:50:18Z</time>
      </trkpt>
      <trkpt lat="45.8792" lon="4.70943">
        <ele>225</ele>
        <time>2018-06-30T09:50:19Z</time>
      </trkpt>
      <trkpt lat="45.87927" lon="4.70939">
        <ele>225</ele>
        <time>2018-06-30T09:50:21Z</time>
      </trkpt>
      <trkpt lat="45.87932" lon="4.70937">
        <ele>225</ele>
        <time>2018-06-30T09:50:22Z</time>
      </trkpt>
      <trkpt lat="45.87939" lon="4.70932">
        <ele>225</ele>
        <time>2018-06-30T09:50:24Z</time>
      </trkpt>
      <trkpt lat="45.87943" lon="4.70929">
        <ele>225</ele>
        <time>2018-06-30T09:50:25Z</time>
      </trkpt>
      <trkpt lat="45.87951" lon="4.70923">
        <ele>225</ele>
        <time>2018-06-30T09:50:27Z</time>
      </trkpt>
      <trkpt lat="45.87955" lon="4.70921">
        <ele>225</ele>
        <time>2018-06-30T09:50:28Z</time>
      </trkpt>
      <trkpt lat="45.87962" lon="4.70916">
        <ele>225</ele>
        <time>2018-06-30T09:50:30Z</time>
      </trkpt>
      <trkpt lat="45.87964" lon="4.70915">
        <ele>225</ele>
        <time>2018-06-30T09:50:31Z</time>
      </trkpt>
      <trkpt lat="45.87969" lon="4.70911">
        <ele>225</ele>
        <time>2018-06-30T09:50:32Z</time>
      </trkpt>
      <trkpt lat="45.87973" lon="4.70908">
        <ele>225</ele>
        <time>2018-06-30T09:50:33Z</time>
      </trkpt>
      <trkpt lat="45.87977" lon="4.70905">
        <ele>225</ele>
        <time>2018-06-30T09:50:34Z</time>
      </trkpt>
      <trkpt lat="45.87981" lon="4.70903">
        <ele>225</ele>
        <time>2018-06-30T09:50:35Z</time>
      </trkpt>
      <trkpt lat="45.87986" lon="4.70898">
        <ele>225</ele>
        <time>2018-06-30T09:50:36Z</time>
      </trkpt>
      <trkpt lat="45.87989" lon="4.70896">
        <ele>225</ele>
        <time>2018-06-30T09:50:37Z</time>
      </trkpt>
      <trkpt lat="45.87994" lon="4.70892">
        <ele>225</ele>
        <time>2018-06-30T09:50:38Z</time>
      </trkpt>
      <trkpt lat="45.88001" lon="4.70891">
        <ele>226</ele>
        <time>2018-06-30T09:50:39Z</time>
      </trkpt>
      <trkpt lat="45.88008" lon="4.70885">
        <ele>226</ele>
        <time>2018-06-30T09:50:41Z</time>
      </trkpt>
      <trkpt lat="45.88012" lon="4.70881">
        <ele>226</ele>
        <time>2018-06-30T09:50:42Z</time>
      </trkpt>
      <trkpt lat="45.8802" lon="4.70876">
        <ele>226</ele>
        <time>2018-06-30T09:50:44Z</time>
      </trkpt>
      <trkpt lat="45.88025" lon="4.70874">
        <ele>226</ele>
        <time>2018-06-30T09:50:45Z</time>
      </trkpt>
      <trkpt lat="45.88033" lon="4.70869">
        <ele>226</ele>
        <time>2018-06-30T09:50:47Z</time>
      </trkpt>
      <trkpt lat="45.88037" lon="4.70867">
        <ele>226</ele>
        <time>2018-06-30T09:50:48Z</time>
      </trkpt>
      <trkpt lat="45.88045" lon="4.70861">
        <ele>227</ele>
        <time>2018-06-30T09:50:50Z</time>
      </trkpt>
      <trkpt lat="45.8805" lon="4.70858">
        <ele>227</ele>
        <time>2018-06-30T09:50:51Z</time>
      </trkpt>
      <trkpt lat="45.88056" lon="4.70853">
        <ele>227</ele>
        <time>2018-06-30T09:50:52Z</time>
      </trkpt>
      <trkpt lat="45.88062" lon="4.70849">
        <ele>227</ele>
        <time>2018-06-30T09:50:53Z</time>
      </trkpt>
      <trkpt lat="45.88065" lon="4.70844">
        <ele>227</ele>
        <time>2018-06-30T09:50:54Z</time>
      </trkpt>
      <trkpt lat="45.8807" lon="4.70842">
        <ele>228</ele>
        <time>2018-06-30T09:50:55Z</time>
      </trkpt>
      <trkpt lat="45.88074" lon="4.70838">
        <ele>228</ele>
        <time>2018-06-30T09:50:56Z</time>
      </trkpt>
      <trkpt lat="45.88078" lon="4.70836">
        <ele>228</ele>
        <time>2018-06-30T09:50:57Z</time>
      </trkpt>
      <trkpt lat="45.88086" lon="4.70836">
        <ele>229</ele>
        <time>2018-06-30T09:50:59Z</time>
      </trkpt>
      <trkpt lat="45.8809" lon="4.70838">
        <ele>229</ele>
        <time>2018-06-30T09:51:00Z</time>
      </trkpt>
      <trkpt lat="45.88097" lon="4.70844">
        <ele>229</ele>
        <time>2018-06-30T09:51:02Z</time>
      </trkpt>
      <trkpt lat="45.88101" lon="4.70845">
        <ele>229</ele>
        <time>2018-06-30T09:51:03Z</time>
      </trkpt>
      <trkpt lat="45.88108" lon="4.70843">
        <ele>229</ele>
        <time>2018-06-30T09:51:05Z</time>
      </trkpt>
      <trkpt lat="45.88111" lon="4.70839">
        <ele>229</ele>
        <time>2018-06-30T09:51:06Z</time>
      </trkpt>
      <trkpt lat="45.88115" lon="4.70829">
        <ele>230</ele>
        <time>2018-06-30T09:51:08Z</time>
      </trkpt>
      <trkpt lat="45.88116" lon="4.70824">
        <ele>230</ele>
        <time>2018-06-30T09:51:09Z</time>
      </trkpt>
      <trkpt lat="45.8812" lon="4.70816">
        <ele>230</ele>
        <time>2018-06-30T09:51:11Z</time>
      </trkpt>
      <trkpt lat="45.88123" lon="4.70812">
        <ele>230</ele>
        <time>2018-06-30T09:51:12Z</time>
      </trkpt>
      <trkpt lat="45.88129" lon="4.70805">
        <ele>230</ele>
        <time>2018-06-30T09:51:14Z</time>
      </trkpt>
      <trkpt lat="45.88132" lon="4.70802">
        <ele>231</ele>
        <time>2018-06-30T09:51:15Z</time>
      </trkpt>
      <trkpt lat="45.88139" lon="4.70796">
        <ele>231</ele>
        <time>2018-06-30T09:51:17Z</time>
      </trkpt>
      <trkpt lat="45.88143" lon="4.70792">
        <ele>231</ele>
        <time>2018-06-30T09:51:18Z</time>
      </trkpt>
      <trkpt lat="45.88147" lon="4.70789">
        <ele>231</ele>
        <time>2018-06-30T09:51:19Z</time>
      </trkpt>
      <trkpt lat="45.88151" lon="4.70786">
        <ele>231</ele>
        <time>2018-06-30T09:51:20Z</time>
      </trkpt>
      <trkpt lat="45.88155" lon="4.70782">
        <ele>231</ele>
        <time>2018-06-30T09:51:21Z</time>
      </trkpt>
      <trkpt lat="45.88159" lon="4.70779">
        <ele>231</ele>
        <time>2018-06-30T09:51:22Z</time>
      </trkpt>
      <trkpt lat="45.88166" lon="4.70776">
        <ele>231</ele>
        <time>2018-06-30T09:51:24Z</time>
      </trkpt>
      <trkpt lat="45.8817" lon="4.70774">
        <ele>232</ele>
        <time>2018-06-30T09:51:25Z</time>
      </trkpt>
      <trkpt lat="45.88175" lon="4.70771">
        <ele>232</ele>
        <time>2018-06-30T09:51:26Z</time>
      </trkpt>
      <trkpt lat="45.88179" lon="4.70768">
        <ele>232</ele>
        <time>2018-06-30T09:51:27Z</time>
      </trkpt>
      <trkpt lat="45.88183" lon="4.70766">
        <ele>232</ele>
        <time>2018-06-30T09:51:28Z</time>
      </trkpt>
      <trkpt lat="45.88187" lon="4.70763">
        <ele>232</ele>
        <time>2018-06-30T09:51:29Z</time>
      </trkpt>
      <trkpt lat="45.88194" lon="4.70755">
        <ele>232</ele>
        <time>2018-06-30T09:51:31Z</time>
      </trkpt>
      <trkpt lat="45.88198" lon="4.70753">
        <ele>232</ele>
        <time>2018-06-30T09:51:32Z</time>
      </trkpt>
      <trkpt lat="45.88206" lon="4.70747">
        <ele>235</ele>
        <time>2018-06-30T09:51:34Z</time>
      </trkpt>
      <trkpt lat="45.8821" lon="4.70745">
        <ele>235</ele>
        <time>2018-06-30T09:51:35Z</time>
      </trkpt>
      <trkpt lat="45.88213" lon="4.70741">
        <ele>235</ele>
        <time>2018-06-30T09:51:36Z</time>
      </trkpt>
      <trkpt lat="45.88218" lon="4.70738">
        <ele>235</ele>
        <time>2018-06-30T09:51:37Z</time>
      </trkpt>
      <trkpt lat="45.88224" lon="4.70733">
        <ele>235</ele>
        <time>2018-06-30T09:51:38Z</time>
      </trkpt>
      <trkpt lat="45.88229" lon="4.7073">
        <ele>235</ele>
        <time>2018-06-30T09:51:39Z</time>
      </trkpt>
      <trkpt lat="45.88236" lon="4.70724">
        <ele>235</ele>
        <time>2018-06-30T09:51:41Z</time>
      </trkpt>
      <trkpt lat="45.8824" lon="4.70721">
        <ele>235</ele>
        <time>2018-06-30T09:51:42Z</time>
      </trkpt>
      <trkpt lat="45.88245" lon="4.70716">
        <ele>235</ele>
        <time>2018-06-30T09:51:43Z</time>
      </trkpt>
      <trkpt lat="45.88249" lon="4.70713">
        <ele>236</ele>
        <time>2018-06-30T09:51:44Z</time>
      </trkpt>
      <trkpt lat="45.88254" lon="4.7071">
        <ele>235</ele>
        <time>2018-06-30T09:51:45Z</time>
      </trkpt>
      <trkpt lat="45.88258" lon="4.70706">
        <ele>235</ele>
        <time>2018-06-30T09:51:46Z</time>
      </trkpt>
      <trkpt lat="45.88263" lon="4.70704">
        <ele>235</ele>
        <time>2018-06-30T09:51:47Z</time>
      </trkpt>
      <trkpt lat="45.88268" lon="4.707">
        <ele>235</ele>
        <time>2018-06-30T09:51:48Z</time>
      </trkpt>
      <trkpt lat="45.88272" lon="4.70697">
        <ele>235</ele>
        <time>2018-06-30T09:51:49Z</time>
      </trkpt>
      <trkpt lat="45.88276" lon="4.70692">
        <ele>235</ele>
        <time>2018-06-30T09:51:50Z</time>
      </trkpt>
      <trkpt lat="45.88282" lon="4.70688">
        <ele>235</ele>
        <time>2018-06-30T09:51:51Z</time>
      </trkpt>
      <trkpt lat="45.88286" lon="4.70685">
        <ele>235</ele>
        <time>2018-06-30T09:51:52Z</time>
      </trkpt>
      <trkpt lat="45.8829" lon="4.70682">
        <ele>235</ele>
        <time>2018-06-30T09:51:53Z</time>
      </trkpt>
      <trkpt lat="45.88296" lon="4.70678">
        <ele>235</ele>
        <time>2018-06-30T09:51:54Z</time>
      </trkpt>
      <trkpt lat="45.88304" lon="4.70674">
        <ele>235</ele>
        <time>2018-06-30T09:51:56Z</time>
      </trkpt>
      <trkpt lat="45.88309" lon="4.7067">
        <ele>235</ele>
        <time>2018-06-30T09:51:57Z</time>
      </trkpt>
      <trkpt lat="45.88315" lon="4.70665">
        <ele>237</ele>
        <time>2018-06-30T09:51:58Z</time>
      </trkpt>
      <trkpt lat="45.88318" lon="4.70662">
        <ele>237</ele>
        <time>2018-06-30T09:51:59Z</time>
      </trkpt>
      <trkpt lat="45.88322" lon="4.70659">
        <ele>237</ele>
        <time>2018-06-30T09:52:00Z</time>
      </trkpt>
      <trkpt lat="45.88327" lon="4.70655">
        <ele>237</ele>
        <time>2018-06-30T09:52:01Z</time>
      </trkpt>
      <trkpt lat="45.88331" lon="4.70651">
        <ele>237</ele>
        <time>2018-06-30T09:52:02Z</time>
      </trkpt>
      <trkpt lat="45.88335" lon="4.70648">
        <ele>235</ele>
        <time>2018-06-30T09:52:03Z</time>
      </trkpt>
      <trkpt lat="45.88339" lon="4.70643">
        <ele>235</ele>
        <time>2018-06-30T09:52:04Z</time>
      </trkpt>
      <trkpt lat="45.88344" lon="4.70639">
        <ele>235</ele>
        <time>2018-06-30T09:52:05Z</time>
      </trkpt>
      <trkpt lat="45.88351" lon="4.70636">
        <ele>235</ele>
        <time>2018-06-30T09:52:06Z</time>
      </trkpt>
      <trkpt lat="45.88356" lon="4.70633">
        <ele>235</ele>
        <time>2018-06-30T09:52:07Z</time>
      </trkpt>
      <trkpt lat="45.88361" lon="4.70629">
        <ele>235</ele>
        <time>2018-06-30T09:52:08Z</time>
      </trkpt>
      <trkpt lat="45.88366" lon="4.70627">
        <ele>235</ele>
        <time>2018-06-30T09:52:09Z</time>
      </trkpt>
      <trkpt lat="45.8837" lon="4.70623">
        <ele>235</ele>
        <time>2018-06-30T09:52:10Z</time>
      </trkpt>
      <trkpt lat="45.88375" lon="4.7062">
        <ele>235</ele>
        <time>2018-06-30T09:52:11Z</time>
      </trkpt>
      <trkpt lat="45.8838" lon="4.70616">
        <ele>235</ele>
        <time>2018-06-30T09:52:12Z</time>
      </trkpt>
      <trkpt lat="45.88384" lon="4.70613">
        <ele>235</ele>
        <time>2018-06-30T09:52:13Z</time>
      </trkpt>
      <trkpt lat="45.8839" lon="4.70608">
        <ele>235</ele>
        <time>2018-06-30T09:52:14Z</time>
      </trkpt>
      <trkpt lat="45.88395" lon="4.70605">
        <ele>235</ele>
        <time>2018-06-30T09:52:15Z</time>
      </trkpt>
      <trkpt lat="45.88401" lon="4.706">
        <ele>235</ele>
        <time>2018-06-30T09:52:16Z</time>
      </trkpt>
      <trkpt lat="45.88405" lon="4.70595">
        <ele>235</ele>
        <time>2018-06-30T09:52:17Z</time>
      </trkpt>
      <trkpt lat="45.8841" lon="4.70592">
        <ele>235</ele>
        <time>2018-06-30T09:52:18Z</time>
      </trkpt>
      <trkpt lat="45.88415" lon="4.70587">
        <ele>235</ele>
        <time>2018-06-30T09:52:19Z</time>
      </trkpt>
      <trkpt lat="45.88419" lon="4.70585">
        <ele>234</ele>
        <time>2018-06-30T09:52:20Z</time>
      </trkpt>
      <trkpt lat="45.88425" lon="4.70583">
        <ele>235</ele>
        <time>2018-06-30T09:52:21Z</time>
      </trkpt>
      <trkpt lat="45.88431" lon="4.70578">
        <ele>235</ele>
        <time>2018-06-30T09:52:22Z</time>
      </trkpt>
      <trkpt lat="45.88434" lon="4.70577">
        <ele>234</ele>
        <time>2018-06-30T09:52:23Z</time>
      </trkpt>
      <trkpt lat="45.8844" lon="4.70572">
        <ele>234</ele>
        <time>2018-06-30T09:52:24Z</time>
      </trkpt>
      <trkpt lat="45.88443" lon="4.70567">
        <ele>234</ele>
        <time>2018-06-30T09:52:25Z</time>
      </trkpt>
      <trkpt lat="45.88448" lon="4.70562">
        <ele>234</ele>
        <time>2018-06-30T09:52:26Z</time>
      </trkpt>
      <trkpt lat="45.88453" lon="4.70559">
        <ele>234</ele>
        <time>2018-06-30T09:52:27Z</time>
      </trkpt>
      <trkpt lat="45.88459" lon="4.70553">
        <ele>234</ele>
        <time>2018-06-30T09:52:28Z</time>
      </trkpt>
      <trkpt lat="45.88463" lon="4.7055">
        <ele>234</ele>
        <time>2018-06-30T09:52:29Z</time>
      </trkpt>
      <trkpt lat="45.88469" lon="4.70547">
        <ele>234</ele>
        <time>2018-06-30T09:52:30Z</time>
      </trkpt>
      <trkpt lat="45.88474" lon="4.70543">
        <ele>234</ele>
        <time>2018-06-30T09:52:31Z</time>
      </trkpt>
      <trkpt lat="45.88479" lon="4.70539">
        <ele>234</ele>
        <time>2018-06-30T09:52:32Z</time>
      </trkpt>
      <trkpt lat="45.88483" lon="4.70539">
        <ele>233</ele>
        <time>2018-06-30T09:52:33Z</time>
      </trkpt>
      <trkpt lat="45.88487" lon="4.70534">
        <ele>233</ele>
        <time>2018-06-30T09:52:34Z</time>
      </trkpt>
      <trkpt lat="45.88492" lon="4.7053">
        <ele>233</ele>
        <time>2018-06-30T09:52:35Z</time>
      </trkpt>
      <trkpt lat="45.88497" lon="4.70525">
        <ele>233</ele>
        <time>2018-06-30T09:52:36Z</time>
      </trkpt>
      <trkpt lat="45.88501" lon="4.70522">
        <ele>230</ele>
        <time>2018-06-30T09:52:37Z</time>
      </trkpt>
      <trkpt lat="45.88507" lon="4.70514">
        <ele>231</ele>
        <time>2018-06-30T09:52:38Z</time>
      </trkpt>
      <trkpt lat="45.88512" lon="4.70509">
        <ele>231</ele>
        <time>2018-06-30T09:52:39Z</time>
      </trkpt>
      <trkpt lat="45.88517" lon="4.70505">
        <ele>230</ele>
        <time>2018-06-30T09:52:40Z</time>
      </trkpt>
      <trkpt lat="45.88523" lon="4.70501">
        <ele>230</ele>
        <time>2018-06-30T09:52:41Z</time>
      </trkpt>
      <trkpt lat="45.88528" lon="4.70497">
        <ele>232</ele>
        <time>2018-06-30T09:52:42Z</time>
      </trkpt>
      <trkpt lat="45.88534" lon="4.70493">
        <ele>232</ele>
        <time>2018-06-30T09:52:43Z</time>
      </trkpt>
      <trkpt lat="45.88539" lon="4.70489">
        <ele>232</ele>
        <time>2018-06-30T09:52:44Z</time>
      </trkpt>
      <trkpt lat="45.88545" lon="4.70484">
        <ele>232</ele>
        <time>2018-06-30T09:52:45Z</time>
      </trkpt>
      <trkpt lat="45.8855" lon="4.70479">
        <ele>232</ele>
        <time>2018-06-30T09:52:46Z</time>
      </trkpt>
      <trkpt lat="45.88554" lon="4.70473">
        <ele>232</ele>
        <time>2018-06-30T09:52:47Z</time>
      </trkpt>
      <trkpt lat="45.8856" lon="4.7047">
        <ele>231</ele>
        <time>2018-06-30T09:52:48Z</time>
      </trkpt>
      <trkpt lat="45.88565" lon="4.70466">
        <ele>231</ele>
        <time>2018-06-30T09:52:49Z</time>
      </trkpt>
      <trkpt lat="45.88571" lon="4.70461">
        <ele>231</ele>
        <time>2018-06-30T09:52:50Z</time>
      </trkpt>
      <trkpt lat="45.88576" lon="4.70457">
        <ele>232</ele>
        <time>2018-06-30T09:52:51Z</time>
      </trkpt>
      <trkpt lat="45.88583" lon="4.70452">
        <ele>232</ele>
        <time>2018-06-30T09:52:52Z</time>
      </trkpt>
      <trkpt lat="45.88587" lon="4.70449">
        <ele>228</ele>
        <time>2018-06-30T09:52:53Z</time>
      </trkpt>
      <trkpt lat="45.88592" lon="4.70446">
        <ele>228</ele>
        <time>2018-06-30T09:52:54Z</time>
      </trkpt>
      <trkpt lat="45.88598" lon="4.7044">
        <ele>229</ele>
        <time>2018-06-30T09:52:55Z</time>
      </trkpt>
      <trkpt lat="45.88602" lon="4.70437">
        <ele>229</ele>
        <time>2018-06-30T09:52:56Z</time>
      </trkpt>
      <trkpt lat="45.88607" lon="4.70432">
        <ele>229</ele>
        <time>2018-06-30T09:52:57Z</time>
      </trkpt>
      <trkpt lat="45.88612" lon="4.70428">
        <ele>228</ele>
        <time>2018-06-30T09:52:58Z</time>
      </trkpt>
      <trkpt lat="45.88621" lon="4.7042">
        <ele>228</ele>
        <time>2018-06-30T09:52:59Z</time>
      </trkpt>
      <trkpt lat="45.88627" lon="4.70417">
        <ele>231</ele>
        <time>2018-06-30T09:53:00Z</time>
      </trkpt>
      <trkpt lat="45.88632" lon="4.70414">
        <ele>230</ele>
        <time>2018-06-30T09:53:01Z</time>
      </trkpt>
      <trkpt lat="45.88639" lon="4.70408">
        <ele>230</ele>
        <time>2018-06-30T09:53:02Z</time>
      </trkpt>
      <trkpt lat="45.88644" lon="4.70404">
        <ele>230</ele>
        <time>2018-06-30T09:53:03Z</time>
      </trkpt>
      <trkpt lat="45.88649" lon="4.704">
        <ele>230</ele>
        <time>2018-06-30T09:53:04Z</time>
      </trkpt>
      <trkpt lat="45.88655" lon="4.70395">
        <ele>230</ele>
        <time>2018-06-30T09:53:05Z</time>
      </trkpt>
      <trkpt lat="45.88662" lon="4.70389">
        <ele>230</ele>
        <time>2018-06-30T09:53:07Z</time>
      </trkpt>
      <trkpt lat="45.88667" lon="4.70385">
        <ele>228</ele>
        <time>2018-06-30T09:53:08Z</time>
      </trkpt>
      <trkpt lat="45.88671" lon="4.70382">
        <ele>228</ele>
        <time>2018-06-30T09:53:09Z</time>
      </trkpt>
      <trkpt lat="45.88676" lon="4.70379">
        <ele>228</ele>
        <time>2018-06-30T09:53:10Z</time>
      </trkpt>
      <trkpt lat="45.88681" lon="4.70375">
        <ele>228</ele>
        <time>2018-06-30T09:53:11Z</time>
      </trkpt>
      <trkpt lat="45.88686" lon="4.7037">
        <ele>229</ele>
        <time>2018-06-30T09:53:12Z</time>
      </trkpt>
      <trkpt lat="45.88692" lon="4.70367">
        <ele>229</ele>
        <time>2018-06-30T09:53:13Z</time>
      </trkpt>
      <trkpt lat="45.88696" lon="4.70361">
        <ele>229</ele>
        <time>2018-06-30T09:53:14Z</time>
      </trkpt>
      <trkpt lat="45.88702" lon="4.70356">
        <ele>229</ele>
        <time>2018-06-30T09:53:15Z</time>
      </trkpt>
      <trkpt lat="45.88708" lon="4.70353">
        <ele>229</ele>
        <time>2018-06-30T09:53:16Z</time>
      </trkpt>
      <trkpt lat="45.88714" lon="4.7035">
        <ele>229</ele>
        <time>2018-06-30T09:53:17Z</time>
      </trkpt>
      <trkpt lat="45.88719" lon="4.70346">
        <ele>229</ele>
        <time>2018-06-30T09:53:18Z</time>
      </trkpt>
      <trkpt lat="45.88722" lon="4.70342">
        <ele>229</ele>
        <time>2018-06-30T09:53:19Z</time>
      </trkpt>
      <trkpt lat="45.88728" lon="4.70337">
        <ele>229</ele>
        <time>2018-06-30T09:53:20Z</time>
      </trkpt>
      <trkpt lat="45.88733" lon="4.70333">
        <ele>232</ele>
        <time>2018-06-30T09:53:21Z</time>
      </trkpt>
      <trkpt lat="45.88738" lon="4.7033">
        <ele>232</ele>
        <time>2018-06-30T09:53:22Z</time>
      </trkpt>
      <trkpt lat="45.88744" lon="4.70325">
        <ele>231</ele>
        <time>2018-06-30T09:53:23Z</time>
      </trkpt>
      <trkpt lat="45.88749" lon="4.7032">
        <ele>232</ele>
        <time>2018-06-30T09:53:24Z</time>
      </trkpt>
      <trkpt lat="45.88756" lon="4.70317">
        <ele>231</ele>
        <time>2018-06-30T09:53:25Z</time>
      </trkpt>
      <trkpt lat="45.88761" lon="4.70313">
        <ele>232</ele>
        <time>2018-06-30T09:53:26Z</time>
      </trkpt>
      <trkpt lat="45.88765" lon="4.70308">
        <ele>233</ele>
        <time>2018-06-30T09:53:27Z</time>
      </trkpt>
      <trkpt lat="45.8877" lon="4.70302">
        <ele>233</ele>
        <time>2018-06-30T09:53:28Z</time>
      </trkpt>
      <trkpt lat="45.88775" lon="4.70298">
        <ele>233</ele>
        <time>2018-06-30T09:53:29Z</time>
      </trkpt>
      <trkpt lat="45.88779" lon="4.70295">
        <ele>234</ele>
        <time>2018-06-30T09:53:30Z</time>
      </trkpt>
      <trkpt lat="45.88783" lon="4.70291">
        <ele>234</ele>
        <time>2018-06-30T09:53:31Z</time>
      </trkpt>
      <trkpt lat="45.88788" lon="4.70287">
        <ele>234</ele>
        <time>2018-06-30T09:53:32Z</time>
      </trkpt>
      <trkpt lat="45.88794" lon="4.70284">
        <ele>234</ele>
        <time>2018-06-30T09:53:33Z</time>
      </trkpt>
      <trkpt lat="45.88799" lon="4.7028">
        <ele>234</ele>
        <time>2018-06-30T09:53:34Z</time>
      </trkpt>
      <trkpt lat="45.88803" lon="4.70273">
        <ele>234</ele>
        <time>2018-06-30T09:53:35Z</time>
      </trkpt>
      <trkpt lat="45.88807" lon="4.70267">
        <ele>235</ele>
        <time>2018-06-30T09:53:36Z</time>
      </trkpt>
      <trkpt lat="45.88812" lon="4.70264">
        <ele>235</ele>
        <time>2018-06-30T09:53:37Z</time>
      </trkpt>
      <trkpt lat="45.88818" lon="4.70261">
        <ele>235</ele>
        <time>2018-06-30T09:53:38Z</time>
      </trkpt>
      <trkpt lat="45.88822" lon="4.70255">
        <ele>236</ele>
        <time>2018-06-30T09:53:39Z</time>
      </trkpt>
      <trkpt lat="45.88827" lon="4.70252">
        <ele>236</ele>
        <time>2018-06-30T09:53:40Z</time>
      </trkpt>
      <trkpt lat="45.88831" lon="4.70248">
        <ele>238</ele>
        <time>2018-06-30T09:53:41Z</time>
      </trkpt>
      <trkpt lat="45.88836" lon="4.70244">
        <ele>238</ele>
        <time>2018-06-30T09:53:42Z</time>
      </trkpt>
      <trkpt lat="45.88841" lon="4.70241">
        <ele>238</ele>
        <time>2018-06-30T09:53:42.705Z</time>
      </trkpt>
      <trkpt lat="45.88845" lon="4.7024">
        <ele>238</ele>
        <time>2018-06-30T09:53:44Z</time>
      </trkpt>
      <trkpt lat="45.8885" lon="4.70239">
        <ele>238</ele>
        <time>2018-06-30T09:53:45Z</time>
      </trkpt>
      <trkpt lat="45.88856" lon="4.70236">
        <ele>238</ele>
        <time>2018-06-30T09:53:46Z</time>
      </trkpt>
      <trkpt lat="45.88862" lon="4.70234">
        <ele>238</ele>
        <time>2018-06-30T09:53:47Z</time>
      </trkpt>
      <trkpt lat="45.88867" lon="4.7023">
        <ele>238</ele>
        <time>2018-06-30T09:53:48Z</time>
      </trkpt>
      <trkpt lat="45.88872" lon="4.70227">
        <ele>238</ele>
        <time>2018-06-30T09:53:49Z</time>
      </trkpt>
      <trkpt lat="45.8888" lon="4.70225">
        <ele>238</ele>
        <time>2018-06-30T09:53:50Z</time>
      </trkpt>
      <trkpt lat="45.88884" lon="4.70224">
        <ele>238</ele>
        <time>2018-06-30T09:53:51Z</time>
      </trkpt>
      <trkpt lat="45.8889" lon="4.70221">
        <ele>238</ele>
        <time>2018-06-30T09:53:52Z</time>
      </trkpt>
      <trkpt lat="45.88895" lon="4.70217">
        <ele>238</ele>
        <time>2018-06-30T09:53:53Z</time>
      </trkpt>
      <trkpt lat="45.889" lon="4.70215">
        <ele>238</ele>
        <time>2018-06-30T09:53:54Z</time>
      </trkpt>
      <trkpt lat="45.88906" lon="4.70211">
        <ele>238</ele>
        <time>2018-06-30T09:53:55Z</time>
      </trkpt>
      <trkpt lat="45.88912" lon="4.70208">
        <ele>238</ele>
        <time>2018-06-30T09:53:56Z</time>
      </trkpt>
      <trkpt lat="45.88917" lon="4.70206">
        <ele>235</ele>
        <time>2018-06-30T09:53:57Z</time>
      </trkpt>
      <trkpt lat="45.88922" lon="4.70204">
        <ele>235</ele>
        <time>2018-06-30T09:53:58Z</time>
      </trkpt>
      <trkpt lat="45.88926" lon="4.70199">
        <ele>235</ele>
        <time>2018-06-30T09:53:59Z</time>
      </trkpt>
      <trkpt lat="45.8893" lon="4.70194">
        <ele>235</ele>
        <time>2018-06-30T09:54:00Z</time>
      </trkpt>
      <trkpt lat="45.88934" lon="4.70191">
        <ele>235</ele>
        <time>2018-06-30T09:54:01Z</time>
      </trkpt>
      <trkpt lat="45.88941" lon="4.70186">
        <ele>235</ele>
        <time>2018-06-30T09:54:02Z</time>
      </trkpt>
      <trkpt lat="45.88946" lon="4.70184">
        <ele>235</ele>
        <time>2018-06-30T09:54:03Z</time>
      </trkpt>
      <trkpt lat="45.88952" lon="4.70181">
        <ele>235</ele>
        <time>2018-06-30T09:54:04Z</time>
      </trkpt>
      <trkpt lat="45.88957" lon="4.70177">
        <ele>234</ele>
        <time>2018-06-30T09:54:05Z</time>
      </trkpt>
      <trkpt lat="45.88962" lon="4.70174">
        <ele>234</ele>
        <time>2018-06-30T09:54:06Z</time>
      </trkpt>
      <trkpt lat="45.88967" lon="4.70171">
        <ele>234</ele>
        <time>2018-06-30T09:54:07Z</time>
      </trkpt>
      <trkpt lat="45.88974" lon="4.7017">
        <ele>233</ele>
        <time>2018-06-30T09:54:08Z</time>
      </trkpt>
      <trkpt lat="45.88979" lon="4.70164">
        <ele>236</ele>
        <time>2018-06-30T09:54:09Z</time>
      </trkpt>
      <trkpt lat="45.88984" lon="4.7016">
        <ele>235</ele>
        <time>2018-06-30T09:54:10Z</time>
      </trkpt>
      <trkpt lat="45.8899" lon="4.70156">
        <ele>235</ele>
        <time>2018-06-30T09:54:11Z</time>
      </trkpt>
      <trkpt lat="45.88995" lon="4.70153">
        <ele>235</ele>
        <time>2018-06-30T09:54:12Z</time>
      </trkpt>
      <trkpt lat="45.89" lon="4.7015">
        <ele>232</ele>
        <time>2018-06-30T09:54:13Z</time>
      </trkpt>
      <trkpt lat="45.89005" lon="4.70148">
        <ele>232</ele>
        <time>2018-06-30T09:54:14Z</time>
      </trkpt>
      <trkpt lat="45.8901" lon="4.70147">
        <ele>232</ele>
        <time>2018-06-30T09:54:15Z</time>
      </trkpt>
      <trkpt lat="45.89015" lon="4.70146">
        <ele>231</ele>
        <time>2018-06-30T09:54:16Z</time>
      </trkpt>
      <trkpt lat="45.89023" lon="4.70143">
        <ele>231</ele>
        <time>2018-06-30T09:54:17Z</time>
      </trkpt>
      <trkpt lat="45.89029" lon="4.7014">
        <ele>231</ele>
        <time>2018-06-30T09:54:18Z</time>
      </trkpt>
      <trkpt lat="45.89034" lon="4.70136">
        <ele>231</ele>
        <time>2018-06-30T09:54:19Z</time>
      </trkpt>
      <trkpt lat="45.89038" lon="4.70132">
        <ele>231</ele>
        <time>2018-06-30T09:54:20Z</time>
      </trkpt>
      <trkpt lat="45.89042" lon="4.70128">
        <ele>231</ele>
        <time>2018-06-30T09:54:21Z</time>
      </trkpt>
      <trkpt lat="45.89046" lon="4.70123">
        <ele>231</ele>
        <time>2018-06-30T09:54:22Z</time>
      </trkpt>
      <trkpt lat="45.89051" lon="4.70118">
        <ele>231</ele>
        <time>2018-06-30T09:54:23Z</time>
      </trkpt>
      <trkpt lat="45.89056" lon="4.70115">
        <ele>231</ele>
        <time>2018-06-30T09:54:24Z</time>
      </trkpt>
      <trkpt lat="45.8906" lon="4.70113">
        <ele>231</ele>
        <time>2018-06-30T09:54:25Z</time>
      </trkpt>
      <trkpt lat="45.89067" lon="4.70111">
        <ele>230</ele>
        <time>2018-06-30T09:54:26Z</time>
      </trkpt>
      <trkpt lat="45.89072" lon="4.70109">
        <ele>230</ele>
        <time>2018-06-30T09:54:27Z</time>
      </trkpt>
      <trkpt lat="45.89077" lon="4.70106">
        <ele>230</ele>
        <time>2018-06-30T09:54:28Z</time>
      </trkpt>
      <trkpt lat="45.89082" lon="4.70102">
        <ele>230</ele>
        <time>2018-06-30T09:54:29Z</time>
      </trkpt>
      <trkpt lat="45.89087" lon="4.70098">
        <ele>228</ele>
        <time>2018-06-30T09:54:30Z</time>
      </trkpt>
      <trkpt lat="45.89091" lon="4.70095">
        <ele>229</ele>
        <time>2018-06-30T09:54:31Z</time>
      </trkpt>
      <trkpt lat="45.89098" lon="4.70091">
        <ele>228</ele>
        <time>2018-06-30T09:54:32Z</time>
      </trkpt>
      <trkpt lat="45.89103" lon="4.70087">
        <ele>228</ele>
        <time>2018-06-30T09:54:33Z</time>
      </trkpt>
      <trkpt lat="45.8911" lon="4.70084">
        <ele>228</ele>
        <time>2018-06-30T09:54:34Z</time>
      </trkpt>
      <trkpt lat="45.89116" lon="4.70082">
        <ele>231</ele>
        <time>2018-06-30T09:54:35Z</time>
      </trkpt>
      <trkpt lat="45.89123" lon="4.70078">
        <ele>231</ele>
        <time>2018-06-30T09:54:36Z</time>
      </trkpt>
      <trkpt lat="45.89128" lon="4.70073">
        <ele>231</ele>
        <time>2018-06-30T09:54:37Z</time>
      </trkpt>
      <trkpt lat="45.89135" lon="4.70071">
        <ele>231</ele>
        <time>2018-06-30T09:54:38Z</time>
      </trkpt>
      <trkpt lat="45.89141" lon="4.70067">
        <ele>231</ele>
        <time>2018-06-30T09:54:39Z</time>
      </trkpt>
      <trkpt lat="45.89149" lon="4.70062">
        <ele>231</ele>
        <time>2018-06-30T09:54:40Z</time>
      </trkpt>
      <trkpt lat="45.89155" lon="4.7006">
        <ele>231</ele>
        <time>2018-06-30T09:54:41Z</time>
      </trkpt>
      <trkpt lat="45.89161" lon="4.70058">
        <ele>231</ele>
        <time>2018-06-30T09:54:42Z</time>
      </trkpt>
      <trkpt lat="45.89167" lon="4.70056">
        <ele>229</ele>
        <time>2018-06-30T09:54:43Z</time>
      </trkpt>
      <trkpt lat="45.89174" lon="4.70053">
        <ele>229</ele>
        <time>2018-06-30T09:54:44Z</time>
      </trkpt>
      <trkpt lat="45.8918" lon="4.70051">
        <ele>229</ele>
        <time>2018-06-30T09:54:45Z</time>
      </trkpt>
      <trkpt lat="45.89186" lon="4.7005">
        <ele>229</ele>
        <time>2018-06-30T09:54:46Z</time>
      </trkpt>
      <trkpt lat="45.89192" lon="4.70049">
        <ele>229</ele>
        <time>2018-06-30T09:54:47Z</time>
      </trkpt>
      <trkpt lat="45.89197" lon="4.70045">
        <ele>229</ele>
        <time>2018-06-30T09:54:48Z</time>
      </trkpt>
      <trkpt lat="45.89203" lon="4.7004">
        <ele>229</ele>
        <time>2018-06-30T09:54:49Z</time>
      </trkpt>
      <trkpt lat="45.89208" lon="4.70039">
        <ele>229</ele>
        <time>2018-06-30T09:54:50Z</time>
      </trkpt>
      <trkpt lat="45.89214" lon="4.70036">
        <ele>229</ele>
        <time>2018-06-30T09:54:51Z</time>
      </trkpt>
      <trkpt lat="45.8922" lon="4.70034">
        <ele>228</ele>
        <time>2018-06-30T09:54:52Z</time>
      </trkpt>
      <trkpt lat="45.89227" lon="4.70033">
        <ele>228</ele>
        <time>2018-06-30T09:54:53Z</time>
      </trkpt>
      <trkpt lat="45.89234" lon="4.70031">
        <ele>228</ele>
        <time>2018-06-30T09:54:54Z</time>
      </trkpt>
      <trkpt lat="45.89239" lon="4.70027">
        <ele>228</ele>
        <time>2018-06-30T09:54:55Z</time>
      </trkpt>
      <trkpt lat="45.89243" lon="4.70023">
        <ele>228</ele>
        <time>2018-06-30T09:54:56Z</time>
      </trkpt>
      <trkpt lat="45.89249" lon="4.70022">
        <ele>228</ele>
        <time>2018-06-30T09:54:57Z</time>
      </trkpt>
      <trkpt lat="45.89255" lon="4.7002">
        <ele>227</ele>
        <time>2018-06-30T09:54:58Z</time>
      </trkpt>
      <trkpt lat="45.89262" lon="4.70019">
        <ele>227</ele>
        <time>2018-06-30T09:54:59Z</time>
      </trkpt>
      <trkpt lat="45.89269" lon="4.70017">
        <ele>227</ele>
        <time>2018-06-30T09:55:00Z</time>
      </trkpt>
      <trkpt lat="45.89275" lon="4.70016">
        <ele>226</ele>
        <time>2018-06-30T09:55:01Z</time>
      </trkpt>
      <trkpt lat="45.89283" lon="4.70014">
        <ele>226</ele>
        <time>2018-06-30T09:55:02Z</time>
      </trkpt>
      <trkpt lat="45.89288" lon="4.70014">
        <ele>226</ele>
        <time>2018-06-30T09:55:03Z</time>
      </trkpt>
      <trkpt lat="45.89294" lon="4.7001">
        <ele>226</ele>
        <time>2018-06-30T09:55:04Z</time>
      </trkpt>
      <trkpt lat="45.89302" lon="4.70005">
        <ele>226</ele>
        <time>2018-06-30T09:55:05Z</time>
      </trkpt>
      <trkpt lat="45.89309" lon="4.70003">
        <ele>226</ele>
        <time>2018-06-30T09:55:06Z</time>
      </trkpt>
      <trkpt lat="45.89315" lon="4.70001">
        <ele>226</ele>
        <time>2018-06-30T09:55:07Z</time>
      </trkpt>
      <trkpt lat="45.89322" lon="4.69998">
        <ele>227</ele>
        <time>2018-06-30T09:55:08Z</time>
      </trkpt>
      <trkpt lat="45.89329" lon="4.69997">
        <ele>227</ele>
        <time>2018-06-30T09:55:09Z</time>
      </trkpt>
      <trkpt lat="45.89337" lon="4.69996">
        <ele>226</ele>
        <time>2018-06-30T09:55:10Z</time>
      </trkpt>
      <trkpt lat="45.89342" lon="4.69994">
        <ele>227</ele>
        <time>2018-06-30T09:55:11Z</time>
      </trkpt>
      <trkpt lat="45.89349" lon="4.69994">
        <ele>227</ele>
        <time>2018-06-30T09:55:12Z</time>
      </trkpt>
      <trkpt lat="45.89358" lon="4.69993">
        <ele>227</ele>
        <time>2018-06-30T09:55:13Z</time>
      </trkpt>
      <trkpt lat="45.89364" lon="4.69992">
        <ele>227</ele>
        <time>2018-06-30T09:55:14Z</time>
      </trkpt>
      <trkpt lat="45.89371" lon="4.69993">
        <ele>227</ele>
        <time>2018-06-30T09:55:15Z</time>
      </trkpt>
      <trkpt lat="45.89377" lon="4.69995">
        <ele>227</ele>
        <time>2018-06-30T09:55:16Z</time>
      </trkpt>
      <trkpt lat="45.89384" lon="4.69996">
        <ele>227</ele>
        <time>2018-06-30T09:55:17Z</time>
      </trkpt>
      <trkpt lat="45.8939" lon="4.69998">
        <ele>227</ele>
        <time>2018-06-30T09:55:18Z</time>
      </trkpt>
      <trkpt lat="45.89398" lon="4.7">
        <ele>227</ele>
        <time>2018-06-30T09:55:19Z</time>
      </trkpt>
      <trkpt lat="45.89404" lon="4.70001">
        <ele>226</ele>
        <time>2018-06-30T09:55:20Z</time>
      </trkpt>
      <trkpt lat="45.8941" lon="4.70004">
        <ele>226</ele>
        <time>2018-06-30T09:55:21Z</time>
      </trkpt>
      <trkpt lat="45.89417" lon="4.70005">
        <ele>227</ele>
        <time>2018-06-30T09:55:22Z</time>
      </trkpt>
      <trkpt lat="45.89423" lon="4.70007">
        <ele>226</ele>
        <time>2018-06-30T09:55:23Z</time>
      </trkpt>
      <trkpt lat="45.8943" lon="4.70008">
        <ele>226</ele>
        <time>2018-06-30T09:55:24Z</time>
      </trkpt>
      <trkpt lat="45.89436" lon="4.7001">
        <ele>225</ele>
        <time>2018-06-30T09:55:25Z</time>
      </trkpt>
      <trkpt lat="45.89442" lon="4.70012">
        <ele>225</ele>
        <time>2018-06-30T09:55:26Z</time>
      </trkpt>
      <trkpt lat="45.89447" lon="4.70014">
        <ele>225</ele>
        <time>2018-06-30T09:55:27Z</time>
      </trkpt>
      <trkpt lat="45.89454" lon="4.70016">
        <ele>225</ele>
        <time>2018-06-30T09:55:28Z</time>
      </trkpt>
      <trkpt lat="45.89461" lon="4.70018">
        <ele>225</ele>
        <time>2018-06-30T09:55:29Z</time>
      </trkpt>
      <trkpt lat="45.89466" lon="4.70019">
        <ele>225</ele>
        <time>2018-06-30T09:55:30Z</time>
      </trkpt>
      <trkpt lat="45.89472" lon="4.70021">
        <ele>224</ele>
        <time>2018-06-30T09:55:31Z</time>
      </trkpt>
      <trkpt lat="45.89479" lon="4.70024">
        <ele>224</ele>
        <time>2018-06-30T09:55:32Z</time>
      </trkpt>
      <trkpt lat="45.89486" lon="4.70025">
        <ele>224</ele>
        <time>2018-06-30T09:55:33Z</time>
      </trkpt>
      <trkpt lat="45.89492" lon="4.70026">
        <ele>224</ele>
        <time>2018-06-30T09:55:34Z</time>
      </trkpt>
      <trkpt lat="45.89499" lon="4.70028">
        <ele>224</ele>
        <time>2018-06-30T09:55:35Z</time>
      </trkpt>
      <trkpt lat="45.89507" lon="4.70029">
        <ele>223</ele>
        <time>2018-06-30T09:55:36Z</time>
      </trkpt>
      <trkpt lat="45.89515" lon="4.7003">
        <ele>223</ele>
        <time>2018-06-30T09:55:37Z</time>
      </trkpt>
      <trkpt lat="45.89523" lon="4.70032">
        <ele>223</ele>
        <time>2018-06-30T09:55:38Z</time>
      </trkpt>
      <trkpt lat="45.8953" lon="4.70033">
        <ele>223</ele>
        <time>2018-06-30T09:55:39Z</time>
      </trkpt>
      <trkpt lat="45.89535" lon="4.70033">
        <ele>222</ele>
        <time>2018-06-30T09:55:40Z</time>
      </trkpt>
      <trkpt lat="45.89542" lon="4.70035">
        <ele>222</ele>
        <time>2018-06-30T09:55:41Z</time>
      </trkpt>
      <trkpt lat="45.89549" lon="4.70035">
        <ele>222</ele>
        <time>2018-06-30T09:55:42Z</time>
      </trkpt>
      <trkpt lat="45.89557" lon="4.70037">
        <ele>222</ele>
        <time>2018-06-30T09:55:43Z</time>
      </trkpt>
      <trkpt lat="45.89565" lon="4.70037">
        <ele>222</ele>
        <time>2018-06-30T09:55:44Z</time>
      </trkpt>
      <trkpt lat="45.89574" lon="4.70038">
        <ele>222</ele>
        <time>2018-06-30T09:55:45Z</time>
      </trkpt>
      <trkpt lat="45.89581" lon="4.7004">
        <ele>222</ele>
        <time>2018-06-30T09:55:46Z</time>
      </trkpt>
      <trkpt lat="45.8959" lon="4.70041">
        <ele>222</ele>
        <time>2018-06-30T09:55:47Z</time>
      </trkpt>
      <trkpt lat="45.89597" lon="4.70042">
        <ele>222</ele>
        <time>2018-06-30T09:55:48Z</time>
      </trkpt>
      <trkpt lat="45.89604" lon="4.70044">
        <ele>222</ele>
        <time>2018-06-30T09:55:49Z</time>
      </trkpt>
      <trkpt lat="45.89612" lon="4.70045">
        <ele>222</ele>
        <time>2018-06-30T09:55:50Z</time>
      </trkpt>
      <trkpt lat="45.89619" lon="4.70046">
        <ele>222</ele>
        <time>2018-06-30T09:55:51Z</time>
      </trkpt>
      <trkpt lat="45.89627" lon="4.70047">
        <ele>222</ele>
        <time>2018-06-30T09:55:52Z</time>
      </trkpt>
      <trkpt lat="45.89633" lon="4.70048">
        <ele>222</ele>
        <time>2018-06-30T09:55:53Z</time>
      </trkpt>
      <trkpt lat="45.89641" lon="4.7005">
        <ele>222</ele>
        <time>2018-06-30T09:55:54Z</time>
      </trkpt>
      <trkpt lat="45.89649" lon="4.70052">
        <ele>222</ele>
        <time>2018-06-30T09:55:55Z</time>
      </trkpt>
      <trkpt lat="45.89657" lon="4.70054">
        <ele>222</ele>
        <time>2018-06-30T09:55:56Z</time>
      </trkpt>
      <trkpt lat="45.89664" lon="4.70055">
        <ele>222</ele>
        <time>2018-06-30T09:55:57Z</time>
      </trkpt>
      <trkpt lat="45.89672" lon="4.70056">
        <ele>222</ele>
        <time>2018-06-30T09:55:58Z</time>
      </trkpt>
      <trkpt lat="45.89679" lon="4.70056">
        <ele>222</ele>
        <time>2018-06-30T09:55:59Z</time>
      </trkpt>
      <trkpt lat="45.89686" lon="4.70057">
        <ele>222</ele>
        <time>2018-06-30T09:56:00Z</time>
      </trkpt>
      <trkpt lat="45.89694" lon="4.70059">
        <ele>222</ele>
        <time>2018-06-30T09:56:01Z</time>
      </trkpt>
      <trkpt lat="45.897" lon="4.70059">
        <ele>221</ele>
        <time>2018-06-30T09:56:02Z</time>
      </trkpt>
      <trkpt lat="45.89707" lon="4.7006">
        <ele>221</ele>
        <time>2018-06-30T09:56:03Z</time>
      </trkpt>
      <trkpt lat="45.89714" lon="4.70062">
        <ele>221</ele>
        <time>2018-06-30T09:56:04Z</time>
      </trkpt>
      <trkpt lat="45.8972" lon="4.70062">
        <ele>221</ele>
        <time>2018-06-30T09:56:05Z</time>
      </trkpt>
      <trkpt lat="45.89727" lon="4.70063">
        <ele>221</ele>
        <time>2018-06-30T09:56:06Z</time>
      </trkpt>
      <trkpt lat="45.89734" lon="4.70064">
        <ele>221</ele>
        <time>2018-06-30T09:56:07Z</time>
      </trkpt>
      <trkpt lat="45.89741" lon="4.70066">
        <ele>221</ele>
        <time>2018-06-30T09:56:08Z</time>
      </trkpt>
      <trkpt lat="45.89749" lon="4.70067">
        <ele>220</ele>
        <time>2018-06-30T09:56:09Z</time>
      </trkpt>
      <trkpt lat="45.89755" lon="4.70068">
        <ele>220</ele>
        <time>2018-06-30T09:56:10Z</time>
      </trkpt>
      <trkpt lat="45.89761" lon="4.7007">
        <ele>220</ele>
        <time>2018-06-30T09:56:11Z</time>
      </trkpt>
      <trkpt lat="45.89768" lon="4.70072">
        <ele>220</ele>
        <time>2018-06-30T09:56:12Z</time>
      </trkpt>
      <trkpt lat="45.89775" lon="4.70073">
        <ele>220</ele>
        <time>2018-06-30T09:56:13Z</time>
      </trkpt>
      <trkpt lat="45.89783" lon="4.70073">
        <ele>221</ele>
        <time>2018-06-30T09:56:14Z</time>
      </trkpt>
      <trkpt lat="45.89789" lon="4.70073">
        <ele>221</ele>
        <time>2018-06-30T09:56:15Z</time>
      </trkpt>
      <trkpt lat="45.89796" lon="4.70074">
        <ele>221</ele>
        <time>2018-06-30T09:56:16Z</time>
      </trkpt>
      <trkpt lat="45.89803" lon="4.70075">
        <ele>221</ele>
        <time>2018-06-30T09:56:17Z</time>
      </trkpt>
      <trkpt lat="45.89809" lon="4.70075">
        <ele>221</ele>
        <time>2018-06-30T09:56:18Z</time>
      </trkpt>
      <trkpt lat="45.89817" lon="4.70074">
        <ele>221</ele>
        <time>2018-06-30T09:56:19Z</time>
      </trkpt>
      <trkpt lat="45.89824" lon="4.70074">
        <ele>220</ele>
        <time>2018-06-30T09:56:20Z</time>
      </trkpt>
      <trkpt lat="45.89829" lon="4.70076">
        <ele>220</ele>
        <time>2018-06-30T09:56:21Z</time>
      </trkpt>
      <trkpt lat="45.89835" lon="4.70077">
        <ele>220</ele>
        <time>2018-06-30T09:56:22Z</time>
      </trkpt>
      <trkpt lat="45.8984" lon="4.70078">
        <ele>221</ele>
        <time>2018-06-30T09:56:23Z</time>
      </trkpt>
      <trkpt lat="45.89846" lon="4.70079">
        <ele>221</ele>
        <time>2018-06-30T09:56:24Z</time>
      </trkpt>
      <trkpt lat="45.89852" lon="4.7008">
        <ele>221</ele>
        <time>2018-06-30T09:56:25Z</time>
      </trkpt>
      <trkpt lat="45.89857" lon="4.70081">
        <ele>221</ele>
        <time>2018-06-30T09:56:26Z</time>
      </trkpt>
      <trkpt lat="45.89861" lon="4.7008">
        <ele>221</ele>
        <time>2018-06-30T09:56:27Z</time>
      </trkpt>
      <trkpt lat="45.89868" lon="4.70081">
        <ele>221</ele>
        <time>2018-06-30T09:56:28Z</time>
      </trkpt>
      <trkpt lat="45.89876" lon="4.70082">
        <ele>221</ele>
        <time>2018-06-30T09:56:30Z</time>
      </trkpt>
      <trkpt lat="45.89884" lon="4.70082">
        <ele>221</ele>
        <time>2018-06-30T09:56:31Z</time>
      </trkpt>
      <trkpt lat="45.8989" lon="4.70081">
        <ele>221</ele>
        <time>2018-06-30T09:56:32Z</time>
      </trkpt>
      <trkpt lat="45.89896" lon="4.70081">
        <ele>221</ele>
        <time>2018-06-30T09:56:33Z</time>
      </trkpt>
      <trkpt lat="45.89902" lon="4.70081">
        <ele>221</ele>
        <time>2018-06-30T09:56:34Z</time>
      </trkpt>
      <trkpt lat="45.89908" lon="4.70082">
        <ele>221</ele>
        <time>2018-06-30T09:56:35Z</time>
      </trkpt>
      <trkpt lat="45.89914" lon="4.70083">
        <ele>221</ele>
        <time>2018-06-30T09:56:36Z</time>
      </trkpt>
      <trkpt lat="45.89918" lon="4.70084">
        <ele>221</ele>
        <time>2018-06-30T09:56:37Z</time>
      </trkpt>
      <trkpt lat="45.89923" lon="4.70085">
        <ele>221</ele>
        <time>2018-06-30T09:56:38Z</time>
      </trkpt>
      <trkpt lat="45.89929" lon="4.70087">
        <ele>221</ele>
        <time>2018-06-30T09:56:39Z</time>
      </trkpt>
      <trkpt lat="45.89936" lon="4.70089">
        <ele>221</ele>
        <time>2018-06-30T09:56:41Z</time>
      </trkpt>
      <trkpt lat="45.89944" lon="4.70087">
        <ele>221</ele>
        <time>2018-06-30T09:56:42Z</time>
      </trkpt>
      <trkpt lat="45.89951" lon="4.70087">
        <ele>221</ele>
        <time>2018-06-30T09:56:43Z</time>
      </trkpt>
      <trkpt lat="45.89954" lon="4.70087">
        <ele>221</ele>
        <time>2018-06-30T09:56:44Z</time>
      </trkpt>
      <trkpt lat="45.89959" lon="4.70088">
        <ele>221</ele>
        <time>2018-06-30T09:56:45Z</time>
      </trkpt>
      <trkpt lat="45.89965" lon="4.70088">
        <ele>221</ele>
        <time>2018-06-30T09:56:46Z</time>
      </trkpt>
      <trkpt lat="45.89971" lon="4.70087">
        <ele>221</ele>
        <time>2018-06-30T09:56:47Z</time>
      </trkpt>
      <trkpt lat="45.89977" lon="4.70085">
        <ele>221</ele>
        <time>2018-06-30T09:56:48Z</time>
      </trkpt>
      <trkpt lat="45.89982" lon="4.70086">
        <ele>221</ele>
        <time>2018-06-30T09:56:49Z</time>
      </trkpt>
      <trkpt lat="45.89988" lon="4.70086">
        <ele>222</ele>
        <time>2018-06-30T09:56:50Z</time>
      </trkpt>
      <trkpt lat="45.89995" lon="4.70087">
        <ele>222</ele>
        <time>2018-06-30T09:56:51Z</time>
      </trkpt>
      <trkpt lat="45.90001" lon="4.70088">
        <ele>222</ele>
        <time>2018-06-30T09:56:52Z</time>
      </trkpt>
      <trkpt lat="45.90007" lon="4.70088">
        <ele>222</ele>
        <time>2018-06-30T09:56:53Z</time>
      </trkpt>
      <trkpt lat="45.90013" lon="4.70089">
        <ele>222</ele>
        <time>2018-06-30T09:56:54Z</time>
      </trkpt>
      <trkpt lat="45.90021" lon="4.70089">
        <ele>222</ele>
        <time>2018-06-30T09:56:55Z</time>
      </trkpt>
      <trkpt lat="45.90027" lon="4.7009">
        <ele>222</ele>
        <time>2018-06-30T09:56:56Z</time>
      </trkpt>
      <trkpt lat="45.90033" lon="4.7009">
        <ele>222</ele>
        <time>2018-06-30T09:56:57Z</time>
      </trkpt>
      <trkpt lat="45.90038" lon="4.70091">
        <ele>222</ele>
        <time>2018-06-30T09:56:58Z</time>
      </trkpt>
      <trkpt lat="45.90043" lon="4.7009">
        <ele>222</ele>
        <time>2018-06-30T09:56:59Z</time>
      </trkpt>
      <trkpt lat="45.90048" lon="4.70091">
        <ele>222</ele>
        <time>2018-06-30T09:57:00Z</time>
      </trkpt>
      <trkpt lat="45.90053" lon="4.70091">
        <ele>222</ele>
        <time>2018-06-30T09:57:01Z</time>
      </trkpt>
      <trkpt lat="45.90058" lon="4.70091">
        <ele>223</ele>
        <time>2018-06-30T09:57:02Z</time>
      </trkpt>
      <trkpt lat="45.90064" lon="4.70092">
        <ele>223</ele>
        <time>2018-06-30T09:57:03Z</time>
      </trkpt>
      <trkpt lat="45.9007" lon="4.70092">
        <ele>223</ele>
        <time>2018-06-30T09:57:04Z</time>
      </trkpt>
      <trkpt lat="45.90075" lon="4.70091">
        <ele>223</ele>
        <time>2018-06-30T09:57:05Z</time>
      </trkpt>
      <trkpt lat="45.9008" lon="4.70089">
        <ele>223</ele>
        <time>2018-06-30T09:57:06Z</time>
      </trkpt>
      <trkpt lat="45.90086" lon="4.70088">
        <ele>224</ele>
        <time>2018-06-30T09:57:07Z</time>
      </trkpt>
      <trkpt lat="45.9009" lon="4.70087">
        <ele>224</ele>
        <time>2018-06-30T09:57:08Z</time>
      </trkpt>
      <trkpt lat="45.90097" lon="4.70087">
        <ele>224</ele>
        <time>2018-06-30T09:57:09Z</time>
      </trkpt>
      <trkpt lat="45.90105" lon="4.70085">
        <ele>223</ele>
        <time>2018-06-30T09:57:10Z</time>
      </trkpt>
      <trkpt lat="45.90112" lon="4.70085">
        <ele>223</ele>
        <time>2018-06-30T09:57:11Z</time>
      </trkpt>
      <trkpt lat="45.90117" lon="4.70083">
        <ele>226</ele>
        <time>2018-06-30T09:57:12Z</time>
      </trkpt>
      <trkpt lat="45.90123" lon="4.70082">
        <ele>226</ele>
        <time>2018-06-30T09:57:13Z</time>
      </trkpt>
      <trkpt lat="45.90128" lon="4.70082">
        <ele>226</ele>
        <time>2018-06-30T09:57:14Z</time>
      </trkpt>
      <trkpt lat="45.90133" lon="4.7008">
        <ele>226</ele>
        <time>2018-06-30T09:57:15Z</time>
      </trkpt>
      <trkpt lat="45.90139" lon="4.7008">
        <ele>226</ele>
        <time>2018-06-30T09:57:16Z</time>
      </trkpt>
      <trkpt lat="45.90143" lon="4.70079">
        <ele>226</ele>
        <time>2018-06-30T09:57:17Z</time>
      </trkpt>
      <trkpt lat="45.90148" lon="4.70078">
        <ele>226</ele>
        <time>2018-06-30T09:57:18Z</time>
      </trkpt>
      <trkpt lat="45.90157" lon="4.70077">
        <ele>226</ele>
        <time>2018-06-30T09:57:20Z</time>
      </trkpt>
      <trkpt lat="45.90162" lon="4.70076">
        <ele>226</ele>
        <time>2018-06-30T09:57:21Z</time>
      </trkpt>
      <trkpt lat="45.90168" lon="4.70076">
        <ele>225</ele>
        <time>2018-06-30T09:57:22Z</time>
      </trkpt>
      <trkpt lat="45.90174" lon="4.70074">
        <ele>225</ele>
        <time>2018-06-30T09:57:23Z</time>
      </trkpt>
      <trkpt lat="45.90179" lon="4.70073">
        <ele>226</ele>
        <time>2018-06-30T09:57:24Z</time>
      </trkpt>
      <trkpt lat="45.90184" lon="4.70073">
        <ele>226</ele>
        <time>2018-06-30T09:57:25Z</time>
      </trkpt>
      <trkpt lat="45.9019" lon="4.70071">
        <ele>226</ele>
        <time>2018-06-30T09:57:26Z</time>
      </trkpt>
      <trkpt lat="45.90195" lon="4.7007">
        <ele>226</ele>
        <time>2018-06-30T09:57:27Z</time>
      </trkpt>
      <trkpt lat="45.902" lon="4.70068">
        <ele>226</ele>
        <time>2018-06-30T09:57:28Z</time>
      </trkpt>
      <trkpt lat="45.90206" lon="4.70067">
        <ele>226</ele>
        <time>2018-06-30T09:57:29Z</time>
      </trkpt>
      <trkpt lat="45.90212" lon="4.70066">
        <ele>226</ele>
        <time>2018-06-30T09:57:30Z</time>
      </trkpt>
      <trkpt lat="45.90217" lon="4.70066">
        <ele>225</ele>
        <time>2018-06-30T09:57:31Z</time>
      </trkpt>
      <trkpt lat="45.90223" lon="4.70066">
        <ele>225</ele>
        <time>2018-06-30T09:57:32Z</time>
      </trkpt>
      <trkpt lat="45.90228" lon="4.70063">
        <ele>225</ele>
        <time>2018-06-30T09:57:33Z</time>
      </trkpt>
      <trkpt lat="45.90235" lon="4.70062">
        <ele>225</ele>
        <time>2018-06-30T09:57:34Z</time>
      </trkpt>
      <trkpt lat="45.9024" lon="4.70061">
        <ele>225</ele>
        <time>2018-06-30T09:57:35Z</time>
      </trkpt>
      <trkpt lat="45.90245" lon="4.7006">
        <ele>225</ele>
        <time>2018-06-30T09:57:36Z</time>
      </trkpt>
      <trkpt lat="45.9025" lon="4.7006">
        <ele>225</ele>
        <time>2018-06-30T09:57:37Z</time>
      </trkpt>
      <trkpt lat="45.90255" lon="4.7006">
        <ele>224</ele>
        <time>2018-06-30T09:57:38Z</time>
      </trkpt>
      <trkpt lat="45.90261" lon="4.70059">
        <ele>224</ele>
        <time>2018-06-30T09:57:39Z</time>
      </trkpt>
      <trkpt lat="45.90267" lon="4.70057">
        <ele>224</ele>
        <time>2018-06-30T09:57:40Z</time>
      </trkpt>
      <trkpt lat="45.90272" lon="4.70056">
        <ele>224</ele>
        <time>2018-06-30T09:57:41Z</time>
      </trkpt>
      <trkpt lat="45.90278" lon="4.70055">
        <ele>224</ele>
        <time>2018-06-30T09:57:42Z</time>
      </trkpt>
      <trkpt lat="45.90283" lon="4.70056">
        <ele>224</ele>
        <time>2018-06-30T09:57:43Z</time>
      </trkpt>
      <trkpt lat="45.90288" lon="4.70055">
        <ele>224</ele>
        <time>2018-06-30T09:57:44Z</time>
      </trkpt>
      <trkpt lat="45.90292" lon="4.70054">
        <ele>224</ele>
        <time>2018-06-30T09:57:45Z</time>
      </trkpt>
      <trkpt lat="45.90297" lon="4.70053">
        <ele>224</ele>
        <time>2018-06-30T09:57:46Z</time>
      </trkpt>
      <trkpt lat="45.90302" lon="4.70052">
        <ele>224</ele>
        <time>2018-06-30T09:57:47Z</time>
      </trkpt>
      <trkpt lat="45.90308" lon="4.70051">
        <ele>224</ele>
        <time>2018-06-30T09:57:48Z</time>
      </trkpt>
      <trkpt lat="45.90313" lon="4.7005">
        <ele>224</ele>
        <time>2018-06-30T09:57:49Z</time>
      </trkpt>
      <trkpt lat="45.90317" lon="4.70049">
        <ele>224</ele>
        <time>2018-06-30T09:57:50Z</time>
      </trkpt>
      <trkpt lat="45.90322" lon="4.70049">
        <ele>224</ele>
        <time>2018-06-30T09:57:51Z</time>
      </trkpt>
      <trkpt lat="45.90327" lon="4.70048">
        <ele>224</ele>
        <time>2018-06-30T09:57:52Z</time>
      </trkpt>
      <trkpt lat="45.90332" lon="4.70048">
        <ele>224</ele>
        <time>2018-06-30T09:57:53Z</time>
      </trkpt>
      <trkpt lat="45.9034" lon="4.70046">
        <ele>224</ele>
        <time>2018-06-30T09:57:55Z</time>
      </trkpt>
      <trkpt lat="45.90345" lon="4.70046">
        <ele>224</ele>
        <time>2018-06-30T09:57:56Z</time>
      </trkpt>
      <trkpt lat="45.9035" lon="4.70045">
        <ele>224</ele>
        <time>2018-06-30T09:57:57Z</time>
      </trkpt>
      <trkpt lat="45.90354" lon="4.70045">
        <ele>224</ele>
        <time>2018-06-30T09:57:58Z</time>
      </trkpt>
      <trkpt lat="45.90359" lon="4.70045">
        <ele>224</ele>
        <time>2018-06-30T09:57:59Z</time>
      </trkpt>
      <trkpt lat="45.90364" lon="4.70044">
        <ele>224</ele>
        <time>2018-06-30T09:58:00Z</time>
      </trkpt>
      <trkpt lat="45.90369" lon="4.70043">
        <ele>224</ele>
        <time>2018-06-30T09:58:01Z</time>
      </trkpt>
      <trkpt lat="45.90375" lon="4.70038">
        <ele>224</ele>
        <time>2018-06-30T09:58:02Z</time>
      </trkpt>
      <trkpt lat="45.9038" lon="4.70038">
        <ele>224</ele>
        <time>2018-06-30T09:58:03Z</time>
      </trkpt>
      <trkpt lat="45.90388" lon="4.70036">
        <ele>225</ele>
        <time>2018-06-30T09:58:04Z</time>
      </trkpt>
      <trkpt lat="45.90393" lon="4.70034">
        <ele>225</ele>
        <time>2018-06-30T09:58:05Z</time>
      </trkpt>
      <trkpt lat="45.90399" lon="4.70034">
        <ele>225</ele>
        <time>2018-06-30T09:58:06Z</time>
      </trkpt>
      <trkpt lat="45.90405" lon="4.70034">
        <ele>225</ele>
        <time>2018-06-30T09:58:07Z</time>
      </trkpt>
      <trkpt lat="45.9041" lon="4.70033">
        <ele>225</ele>
        <time>2018-06-30T09:58:08Z</time>
      </trkpt>
      <trkpt lat="45.90415" lon="4.70033">
        <ele>225</ele>
        <time>2018-06-30T09:58:09Z</time>
      </trkpt>
      <trkpt lat="45.9042" lon="4.70032">
        <ele>225</ele>
        <time>2018-06-30T09:58:10Z</time>
      </trkpt>
      <trkpt lat="45.90428" lon="4.70027">
        <ele>225</ele>
        <time>2018-06-30T09:58:12Z</time>
      </trkpt>
      <trkpt lat="45.90433" lon="4.70027">
        <ele>225</ele>
        <time>2018-06-30T09:58:13Z</time>
      </trkpt>
      <trkpt lat="45.90439" lon="4.70027">
        <ele>225</ele>
        <time>2018-06-30T09:58:14Z</time>
      </trkpt>
      <trkpt lat="45.90445" lon="4.70028">
        <ele>225</ele>
        <time>2018-06-30T09:58:15Z</time>
      </trkpt>
      <trkpt lat="45.9045" lon="4.70029">
        <ele>225</ele>
        <time>2018-06-30T09:58:16Z</time>
      </trkpt>
      <trkpt lat="45.90457" lon="4.7003">
        <ele>225</ele>
        <time>2018-06-30T09:58:17Z</time>
      </trkpt>
      <trkpt lat="45.90462" lon="4.70032">
        <ele>225</ele>
        <time>2018-06-30T09:58:18Z</time>
      </trkpt>
      <trkpt lat="45.90467" lon="4.70032">
        <ele>225</ele>
        <time>2018-06-30T09:58:19Z</time>
      </trkpt>
      <trkpt lat="45.90474" lon="4.70033">
        <ele>225</ele>
        <time>2018-06-30T09:58:20Z</time>
      </trkpt>
      <trkpt lat="45.90481" lon="4.70031">
        <ele>225</ele>
        <time>2018-06-30T09:58:21Z</time>
      </trkpt>
      <trkpt lat="45.90486" lon="4.70033">
        <ele>225</ele>
        <time>2018-06-30T09:58:22Z</time>
      </trkpt>
      <trkpt lat="45.90493" lon="4.70034">
        <ele>225</ele>
        <time>2018-06-30T09:58:23Z</time>
      </trkpt>
      <trkpt lat="45.90499" lon="4.70035">
        <ele>225</ele>
        <time>2018-06-30T09:58:24Z</time>
      </trkpt>
      <trkpt lat="45.90506" lon="4.70037">
        <ele>224</ele>
        <time>2018-06-30T09:58:25Z</time>
      </trkpt>
      <trkpt lat="45.90512" lon="4.70039">
        <ele>224</ele>
        <time>2018-06-30T09:58:26Z</time>
      </trkpt>
      <trkpt lat="45.90518" lon="4.7004">
        <ele>224</ele>
        <time>2018-06-30T09:58:27Z</time>
      </trkpt>
      <trkpt lat="45.90523" lon="4.70042">
        <ele>224</ele>
        <time>2018-06-30T09:58:28Z</time>
      </trkpt>
      <trkpt lat="45.90529" lon="4.70043">
        <ele>224</ele>
        <time>2018-06-30T09:58:29Z</time>
      </trkpt>
      <trkpt lat="45.90534" lon="4.70045">
        <ele>224</ele>
        <time>2018-06-30T09:58:30Z</time>
      </trkpt>
      <trkpt lat="45.90541" lon="4.70048">
        <ele>224</ele>
        <time>2018-06-30T09:58:31Z</time>
      </trkpt>
      <trkpt lat="45.90547" lon="4.70052">
        <ele>224</ele>
        <time>2018-06-30T09:58:32Z</time>
      </trkpt>
      <trkpt lat="45.90553" lon="4.70056">
        <ele>223</ele>
        <time>2018-06-30T09:58:33Z</time>
      </trkpt>
      <trkpt lat="45.90559" lon="4.70058">
        <ele>223</ele>
        <time>2018-06-30T09:58:34Z</time>
      </trkpt>
      <trkpt lat="45.90566" lon="4.70062">
        <ele>223</ele>
        <time>2018-06-30T09:58:35Z</time>
      </trkpt>
      <trkpt lat="45.90571" lon="4.70067">
        <ele>223</ele>
        <time>2018-06-30T09:58:36Z</time>
      </trkpt>
      <trkpt lat="45.90577" lon="4.70069">
        <ele>222</ele>
        <time>2018-06-30T09:58:37Z</time>
      </trkpt>
      <trkpt lat="45.90582" lon="4.70073">
        <ele>222</ele>
        <time>2018-06-30T09:58:38Z</time>
      </trkpt>
      <trkpt lat="45.90588" lon="4.70076">
        <ele>222</ele>
        <time>2018-06-30T09:58:39Z</time>
      </trkpt>
      <trkpt lat="45.90593" lon="4.70079">
        <ele>222</ele>
        <time>2018-06-30T09:58:40Z</time>
      </trkpt>
      <trkpt lat="45.90599" lon="4.70082">
        <ele>223</ele>
        <time>2018-06-30T09:58:41Z</time>
      </trkpt>
      <trkpt lat="45.90604" lon="4.70085">
        <ele>221</ele>
        <time>2018-06-30T09:58:42Z</time>
      </trkpt>
      <trkpt lat="45.9061" lon="4.70088">
        <ele>221</ele>
        <time>2018-06-30T09:58:43Z</time>
      </trkpt>
      <trkpt lat="45.90617" lon="4.7009">
        <ele>221</ele>
        <time>2018-06-30T09:58:44Z</time>
      </trkpt>
      <trkpt lat="45.90622" lon="4.70093">
        <ele>221</ele>
        <time>2018-06-30T09:58:45Z</time>
      </trkpt>
      <trkpt lat="45.90627" lon="4.70096">
        <ele>221</ele>
        <time>2018-06-30T09:58:46Z</time>
      </trkpt>
      <trkpt lat="45.90633" lon="4.701">
        <ele>221</ele>
        <time>2018-06-30T09:58:47Z</time>
      </trkpt>
      <trkpt lat="45.90639" lon="4.70103">
        <ele>221</ele>
        <time>2018-06-30T09:58:48Z</time>
      </trkpt>
      <trkpt lat="45.90645" lon="4.70107">
        <ele>221</ele>
        <time>2018-06-30T09:58:49Z</time>
      </trkpt>
      <trkpt lat="45.9065" lon="4.7011">
        <ele>221</ele>
        <time>2018-06-30T09:58:50Z</time>
      </trkpt>
      <trkpt lat="45.90655" lon="4.70113">
        <ele>221</ele>
        <time>2018-06-30T09:58:51Z</time>
      </trkpt>
      <trkpt lat="45.90661" lon="4.70116">
        <ele>221</ele>
        <time>2018-06-30T09:58:52Z</time>
      </trkpt>
      <trkpt lat="45.90668" lon="4.7012">
        <ele>221</ele>
        <time>2018-06-30T09:58:53Z</time>
      </trkpt>
      <trkpt lat="45.90674" lon="4.70124">
        <ele>221</ele>
        <time>2018-06-30T09:58:54Z</time>
      </trkpt>
      <trkpt lat="45.9068" lon="4.70128">
        <ele>221</ele>
        <time>2018-06-30T09:58:55Z</time>
      </trkpt>
      <trkpt lat="45.90683" lon="4.70134">
        <ele>221</ele>
        <time>2018-06-30T09:58:56Z</time>
      </trkpt>
      <trkpt lat="45.90688" lon="4.70139">
        <ele>221</ele>
        <time>2018-06-30T09:58:57Z</time>
      </trkpt>
      <trkpt lat="45.90693" lon="4.70145">
        <ele>220</ele>
        <time>2018-06-30T09:58:58Z</time>
      </trkpt>
      <trkpt lat="45.90698" lon="4.70148">
        <ele>220</ele>
        <time>2018-06-30T09:58:59Z</time>
      </trkpt>
      <trkpt lat="45.90705" lon="4.70148">
        <ele>220</ele>
        <time>2018-06-30T09:59:00Z</time>
      </trkpt>
      <trkpt lat="45.90711" lon="4.70147">
        <ele>220</ele>
        <time>2018-06-30T09:59:01Z</time>
      </trkpt>
      <trkpt lat="45.90717" lon="4.70146">
        <ele>220</ele>
        <time>2018-06-30T09:59:02Z</time>
      </trkpt>
      <trkpt lat="45.90723" lon="4.70146">
        <ele>220</ele>
        <time>2018-06-30T09:59:03Z</time>
      </trkpt>
      <trkpt lat="45.90729" lon="4.70146">
        <ele>220</ele>
        <time>2018-06-30T09:59:04Z</time>
      </trkpt>
      <trkpt lat="45.90735" lon="4.70147">
        <ele>220</ele>
        <time>2018-06-30T09:59:05Z</time>
      </trkpt>
      <trkpt lat="45.90743" lon="4.70147">
        <ele>220</ele>
        <time>2018-06-30T09:59:06Z</time>
      </trkpt>
      <trkpt lat="45.9075" lon="4.70147">
        <ele>220</ele>
        <time>2018-06-30T09:59:07Z</time>
      </trkpt>
      <trkpt lat="45.90757" lon="4.70147">
        <ele>219</ele>
        <time>2018-06-30T09:59:08Z</time>
      </trkpt>
      <trkpt lat="45.90764" lon="4.70147">
        <ele>219</ele>
        <time>2018-06-30T09:59:09Z</time>
      </trkpt>
      <trkpt lat="45.90771" lon="4.70148">
        <ele>219</ele>
        <time>2018-06-30T09:59:10Z</time>
      </trkpt>
      <trkpt lat="45.90779" lon="4.70147">
        <ele>219</ele>
        <time>2018-06-30T09:59:11Z</time>
      </trkpt>
      <trkpt lat="45.90786" lon="4.70146">
        <ele>219</ele>
        <time>2018-06-30T09:59:12Z</time>
      </trkpt>
      <trkpt lat="45.90793" lon="4.70144">
        <ele>219</ele>
        <time>2018-06-30T09:59:13Z</time>
      </trkpt>
      <trkpt lat="45.90799" lon="4.70144">
        <ele>219</ele>
        <time>2018-06-30T09:59:14Z</time>
      </trkpt>
      <trkpt lat="45.90807" lon="4.70143">
        <ele>219</ele>
        <time>2018-06-30T09:59:15Z</time>
      </trkpt>
      <trkpt lat="45.90814" lon="4.70143">
        <ele>219</ele>
        <time>2018-06-30T09:59:16Z</time>
      </trkpt>
      <trkpt lat="45.90821" lon="4.70142">
        <ele>218</ele>
        <time>2018-06-30T09:59:17Z</time>
      </trkpt>
      <trkpt lat="45.90828" lon="4.70142">
        <ele>218</ele>
        <time>2018-06-30T09:59:18Z</time>
      </trkpt>
      <trkpt lat="45.90835" lon="4.70142">
        <ele>218</ele>
        <time>2018-06-30T09:59:19Z</time>
      </trkpt>
      <trkpt lat="45.90842" lon="4.70141">
        <ele>218</ele>
        <time>2018-06-30T09:59:20Z</time>
      </trkpt>
      <trkpt lat="45.90848" lon="4.70142">
        <ele>218</ele>
        <time>2018-06-30T09:59:21Z</time>
      </trkpt>
      <trkpt lat="45.90855" lon="4.70142">
        <ele>218</ele>
        <time>2018-06-30T09:59:22Z</time>
      </trkpt>
      <trkpt lat="45.9086" lon="4.70142">
        <ele>218</ele>
        <time>2018-06-30T09:59:23Z</time>
      </trkpt>
      <trkpt lat="45.90867" lon="4.70142">
        <ele>218</ele>
        <time>2018-06-30T09:59:24Z</time>
      </trkpt>
      <trkpt lat="45.90873" lon="4.70142">
        <ele>218</ele>
        <time>2018-06-30T09:59:25Z</time>
      </trkpt>
      <trkpt lat="45.90879" lon="4.70141">
        <ele>218</ele>
        <time>2018-06-30T09:59:26Z</time>
      </trkpt>
      <trkpt lat="45.90885" lon="4.70141">
        <ele>218</ele>
        <time>2018-06-30T09:59:27Z</time>
      </trkpt>
      <trkpt lat="45.9089" lon="4.7014">
        <ele>218</ele>
        <time>2018-06-30T09:59:28Z</time>
      </trkpt>
      <trkpt lat="45.90896" lon="4.7014">
        <ele>218</ele>
        <time>2018-06-30T09:59:29Z</time>
      </trkpt>
      <trkpt lat="45.90902" lon="4.70139">
        <ele>218</ele>
        <time>2018-06-30T09:59:30Z</time>
      </trkpt>
      <trkpt lat="45.90908" lon="4.70138">
        <ele>218</ele>
        <time>2018-06-30T09:59:31Z</time>
      </trkpt>
      <trkpt lat="45.90915" lon="4.70137">
        <ele>218</ele>
        <time>2018-06-30T09:59:32Z</time>
      </trkpt>
      <trkpt lat="45.9092" lon="4.70138">
        <ele>218</ele>
        <time>2018-06-30T09:59:33Z</time>
      </trkpt>
      <trkpt lat="45.90927" lon="4.70138">
        <ele>218</ele>
        <time>2018-06-30T09:59:34Z</time>
      </trkpt>
      <trkpt lat="45.90934" lon="4.70138">
        <ele>218</ele>
        <time>2018-06-30T09:59:35Z</time>
      </trkpt>
      <trkpt lat="45.90941" lon="4.70139">
        <ele>218</ele>
        <time>2018-06-30T09:59:36Z</time>
      </trkpt>
      <trkpt lat="45.90946" lon="4.70142">
        <ele>218</ele>
        <time>2018-06-30T09:59:37Z</time>
      </trkpt>
      <trkpt lat="45.90952" lon="4.70144">
        <ele>218</ele>
        <time>2018-06-30T09:59:38Z</time>
      </trkpt>
      <trkpt lat="45.90959" lon="4.70146">
        <ele>218</ele>
        <time>2018-06-30T09:59:39Z</time>
      </trkpt>
      <trkpt lat="45.90966" lon="4.70148">
        <ele>218</ele>
        <time>2018-06-30T09:59:40Z</time>
      </trkpt>
      <trkpt lat="45.9097" lon="4.70149">
        <ele>218</ele>
        <time>2018-06-30T09:59:41Z</time>
      </trkpt>
      <trkpt lat="45.90977" lon="4.70149">
        <ele>218</ele>
        <time>2018-06-30T09:59:42Z</time>
      </trkpt>
      <trkpt lat="45.90983" lon="4.70151">
        <ele>218</ele>
        <time>2018-06-30T09:59:43Z</time>
      </trkpt>
      <trkpt lat="45.90989" lon="4.70152">
        <ele>218</ele>
        <time>2018-06-30T09:59:44Z</time>
      </trkpt>
      <trkpt lat="45.90995" lon="4.70154">
        <ele>217</ele>
        <time>2018-06-30T09:59:45Z</time>
      </trkpt>
      <trkpt lat="45.91001" lon="4.70157">
        <ele>217</ele>
        <time>2018-06-30T09:59:46Z</time>
      </trkpt>
      <trkpt lat="45.91006" lon="4.70159">
        <ele>217</ele>
        <time>2018-06-30T09:59:47Z</time>
      </trkpt>
      <trkpt lat="45.91013" lon="4.70161">
        <ele>217</ele>
        <time>2018-06-30T09:59:48Z</time>
      </trkpt>
      <trkpt lat="45.91019" lon="4.70162">
        <ele>218</ele>
        <time>2018-06-30T09:59:49Z</time>
      </trkpt>
      <trkpt lat="45.91026" lon="4.70164">
        <ele>218</ele>
        <time>2018-06-30T09:59:50Z</time>
      </trkpt>
      <trkpt lat="45.91033" lon="4.70166">
        <ele>218</ele>
        <time>2018-06-30T09:59:51Z</time>
      </trkpt>
      <trkpt lat="45.91039" lon="4.7017">
        <ele>215</ele>
        <time>2018-06-30T09:59:52Z</time>
      </trkpt>
      <trkpt lat="45.91045" lon="4.70173">
        <ele>215</ele>
        <time>2018-06-30T09:59:53Z</time>
      </trkpt>
      <trkpt lat="45.91052" lon="4.70176">
        <ele>215</ele>
        <time>2018-06-30T09:59:54Z</time>
      </trkpt>
      <trkpt lat="45.91058" lon="4.70177">
        <ele>216</ele>
        <time>2018-06-30T09:59:55Z</time>
      </trkpt>
      <trkpt lat="45.91066" lon="4.70179">
        <ele>216</ele>
        <time>2018-06-30T09:59:56Z</time>
      </trkpt>
      <trkpt lat="45.91072" lon="4.70181">
        <ele>216</ele>
        <time>2018-06-30T09:59:57Z</time>
      </trkpt>
      <trkpt lat="45.91079" lon="4.70184">
        <ele>216</ele>
        <time>2018-06-30T09:59:58Z</time>
      </trkpt>
      <trkpt lat="45.91087" lon="4.70184">
        <ele>216</ele>
        <time>2018-06-30T09:59:59Z</time>
      </trkpt>
      <trkpt lat="45.91093" lon="4.70186">
        <ele>216</ele>
        <time>2018-06-30T10:00:00Z</time>
      </trkpt>
      <trkpt lat="45.911" lon="4.70188">
        <ele>215</ele>
        <time>2018-06-30T10:00:01Z</time>
      </trkpt>
      <trkpt lat="45.91106" lon="4.7019">
        <ele>215</ele>
        <time>2018-06-30T10:00:02Z</time>
      </trkpt>
      <trkpt lat="45.91113" lon="4.70191">
        <ele>215</ele>
        <time>2018-06-30T10:00:03Z</time>
      </trkpt>
      <trkpt lat="45.9112" lon="4.70191">
        <ele>215</ele>
        <time>2018-06-30T10:00:04Z</time>
      </trkpt>
      <trkpt lat="45.91127" lon="4.70193">
        <ele>215</ele>
        <time>2018-06-30T10:00:05Z</time>
      </trkpt>
      <trkpt lat="45.91133" lon="4.70195">
        <ele>215</ele>
        <time>2018-06-30T10:00:06Z</time>
      </trkpt>
      <trkpt lat="45.91142" lon="4.70197">
        <ele>215</ele>
        <time>2018-06-30T10:00:07Z</time>
      </trkpt>
      <trkpt lat="45.91149" lon="4.70199">
        <ele>215</ele>
        <time>2018-06-30T10:00:08Z</time>
      </trkpt>
      <trkpt lat="45.91156" lon="4.70201">
        <ele>215</ele>
        <time>2018-06-30T10:00:09Z</time>
      </trkpt>
      <trkpt lat="45.91162" lon="4.70203">
        <ele>215</ele>
        <time>2018-06-30T10:00:10Z</time>
      </trkpt>
      <trkpt lat="45.91169" lon="4.70205">
        <ele>214</ele>
        <time>2018-06-30T10:00:11Z</time>
      </trkpt>
      <trkpt lat="45.91176" lon="4.70208">
        <ele>214</ele>
        <time>2018-06-30T10:00:12Z</time>
      </trkpt>
      <trkpt lat="45.91182" lon="4.70211">
        <ele>214</ele>
        <time>2018-06-30T10:00:13Z</time>
      </trkpt>
      <trkpt lat="45.91189" lon="4.70214">
        <ele>214</ele>
        <time>2018-06-30T10:00:14Z</time>
      </trkpt>
      <trkpt lat="45.91196" lon="4.70217">
        <ele>214</ele>
        <time>2018-06-30T10:00:15Z</time>
      </trkpt>
      <trkpt lat="45.91204" lon="4.70219">
        <ele>214</ele>
        <time>2018-06-30T10:00:16Z</time>
      </trkpt>
      <trkpt lat="45.91212" lon="4.70222">
        <ele>214</ele>
        <time>2018-06-30T10:00:17Z</time>
      </trkpt>
      <trkpt lat="45.9122" lon="4.70224">
        <ele>213</ele>
        <time>2018-06-30T10:00:18Z</time>
      </trkpt>
      <trkpt lat="45.91227" lon="4.70227">
        <ele>213</ele>
        <time>2018-06-30T10:00:19Z</time>
      </trkpt>
      <trkpt lat="45.91234" lon="4.70229">
        <ele>213</ele>
        <time>2018-06-30T10:00:20Z</time>
      </trkpt>
      <trkpt lat="45.9124" lon="4.70233">
        <ele>213</ele>
        <time>2018-06-30T10:00:21Z</time>
      </trkpt>
      <trkpt lat="45.91247" lon="4.70236">
        <ele>212</ele>
        <time>2018-06-30T10:00:22Z</time>
      </trkpt>
      <trkpt lat="45.91254" lon="4.70238">
        <ele>212</ele>
        <time>2018-06-30T10:00:23Z</time>
      </trkpt>
      <trkpt lat="45.91262" lon="4.70241">
        <ele>213</ele>
        <time>2018-06-30T10:00:24Z</time>
      </trkpt>
      <trkpt lat="45.91271" lon="4.70244">
        <ele>213</ele>
        <time>2018-06-30T10:00:25Z</time>
      </trkpt>
      <trkpt lat="45.91277" lon="4.70244">
        <ele>213</ele>
        <time>2018-06-30T10:00:26Z</time>
      </trkpt>
      <trkpt lat="45.91284" lon="4.70246">
        <ele>213</ele>
        <time>2018-06-30T10:00:27Z</time>
      </trkpt>
      <trkpt lat="45.91291" lon="4.7025">
        <ele>214</ele>
        <time>2018-06-30T10:00:28Z</time>
      </trkpt>
      <trkpt lat="45.91299" lon="4.70253">
        <ele>210</ele>
        <time>2018-06-30T10:00:29Z</time>
      </trkpt>
      <trkpt lat="45.91306" lon="4.70257">
        <ele>210</ele>
        <time>2018-06-30T10:00:30Z</time>
      </trkpt>
      <trkpt lat="45.91312" lon="4.7026">
        <ele>210</ele>
        <time>2018-06-30T10:00:31Z</time>
      </trkpt>
      <trkpt lat="45.91318" lon="4.70263">
        <ele>210</ele>
        <time>2018-06-30T10:00:32Z</time>
      </trkpt>
      <trkpt lat="45.91324" lon="4.70265">
        <ele>210</ele>
        <time>2018-06-30T10:00:33Z</time>
      </trkpt>
      <trkpt lat="45.91329" lon="4.70268">
        <ele>210</ele>
        <time>2018-06-30T10:00:34Z</time>
      </trkpt>
      <trkpt lat="45.91334" lon="4.70271">
        <ele>210</ele>
        <time>2018-06-30T10:00:35Z</time>
      </trkpt>
      <trkpt lat="45.91339" lon="4.70276">
        <ele>210</ele>
        <time>2018-06-30T10:00:36Z</time>
      </trkpt>
      <trkpt lat="45.91342" lon="4.70279">
        <ele>210</ele>
        <time>2018-06-30T10:00:37Z</time>
      </trkpt>
      <trkpt lat="45.91344" lon="4.70285">
        <ele>210</ele>
        <time>2018-06-30T10:00:38Z</time>
      </trkpt>
      <trkpt lat="45.91349" lon="4.70289">
        <ele>210</ele>
        <time>2018-06-30T10:00:39Z</time>
      </trkpt>
      <trkpt lat="45.91358" lon="4.70291">
        <ele>210</ele>
        <time>2018-06-30T10:00:40Z</time>
      </trkpt>
      <trkpt lat="45.91364" lon="4.70296">
        <ele>209</ele>
        <time>2018-06-30T10:00:41Z</time>
      </trkpt>
      <trkpt lat="45.91369" lon="4.70301">
        <ele>209</ele>
        <time>2018-06-30T10:00:42Z</time>
      </trkpt>
      <trkpt lat="45.91375" lon="4.70306">
        <ele>209</ele>
        <time>2018-06-30T10:00:43Z</time>
      </trkpt>
      <trkpt lat="45.9138" lon="4.70311">
        <ele>209</ele>
        <time>2018-06-30T10:00:44Z</time>
      </trkpt>
      <trkpt lat="45.91386" lon="4.70314">
        <ele>209</ele>
        <time>2018-06-30T10:00:45Z</time>
      </trkpt>
      <trkpt lat="45.91391" lon="4.70318">
        <ele>209</ele>
        <time>2018-06-30T10:00:46Z</time>
      </trkpt>
      <trkpt lat="45.91397" lon="4.70322">
        <ele>209</ele>
        <time>2018-06-30T10:00:47Z</time>
      </trkpt>
      <trkpt lat="45.91402" lon="4.70326">
        <ele>209</ele>
        <time>2018-06-30T10:00:48Z</time>
      </trkpt>
      <trkpt lat="45.91407" lon="4.7033">
        <ele>208</ele>
        <time>2018-06-30T10:00:49Z</time>
      </trkpt>
      <trkpt lat="45.91413" lon="4.70334">
        <ele>208</ele>
        <time>2018-06-30T10:00:50Z</time>
      </trkpt>
      <trkpt lat="45.91419" lon="4.70339">
        <ele>208</ele>
        <time>2018-06-30T10:00:51Z</time>
      </trkpt>
      <trkpt lat="45.91428" lon="4.70344">
        <ele>207</ele>
        <time>2018-06-30T10:00:52Z</time>
      </trkpt>
      <trkpt lat="45.91431" lon="4.7035">
        <ele>207</ele>
        <time>2018-06-30T10:00:53Z</time>
      </trkpt>
      <trkpt lat="45.91438" lon="4.70355">
        <ele>207</ele>
        <time>2018-06-30T10:00:54Z</time>
      </trkpt>
      <trkpt lat="45.91444" lon="4.70361">
        <ele>206</ele>
        <time>2018-06-30T10:00:55Z</time>
      </trkpt>
      <trkpt lat="45.91449" lon="4.70367">
        <ele>206</ele>
        <time>2018-06-30T10:00:56Z</time>
      </trkpt>
      <trkpt lat="45.91456" lon="4.70372">
        <ele>206</ele>
        <time>2018-06-30T10:00:57Z</time>
      </trkpt>
      <trkpt lat="45.91463" lon="4.70377">
        <ele>206</ele>
        <time>2018-06-30T10:00:58Z</time>
      </trkpt>
      <trkpt lat="45.91469" lon="4.70382">
        <ele>206</ele>
        <time>2018-06-30T10:00:59Z</time>
      </trkpt>
      <trkpt lat="45.91475" lon="4.70385">
        <ele>206</ele>
        <time>2018-06-30T10:01:00Z</time>
      </trkpt>
      <trkpt lat="45.91482" lon="4.7039">
        <ele>205</ele>
        <time>2018-06-30T10:01:01Z</time>
      </trkpt>
      <trkpt lat="45.91486" lon="4.70395">
        <ele>205</ele>
        <time>2018-06-30T10:01:02Z</time>
      </trkpt>
      <trkpt lat="45.91492" lon="4.704">
        <ele>205</ele>
        <time>2018-06-30T10:01:03Z</time>
      </trkpt>
      <trkpt lat="45.91499" lon="4.70404">
        <ele>204</ele>
        <time>2018-06-30T10:01:04Z</time>
      </trkpt>
      <trkpt lat="45.91505" lon="4.70408">
        <ele>204</ele>
        <time>2018-06-30T10:01:05Z</time>
      </trkpt>
      <trkpt lat="45.91508" lon="4.70413">
        <ele>204</ele>
        <time>2018-06-30T10:01:06Z</time>
      </trkpt>
      <trkpt lat="45.91516" lon="4.70416">
        <ele>205</ele>
        <time>2018-06-30T10:01:07Z</time>
      </trkpt>
      <trkpt lat="45.91523" lon="4.7042">
        <ele>203</ele>
        <time>2018-06-30T10:01:08Z</time>
      </trkpt>
      <trkpt lat="45.91529" lon="4.70425">
        <ele>203</ele>
        <time>2018-06-30T10:01:09Z</time>
      </trkpt>
      <trkpt lat="45.91534" lon="4.70431">
        <ele>203</ele>
        <time>2018-06-30T10:01:10Z</time>
      </trkpt>
      <trkpt lat="45.91539" lon="4.70436">
        <ele>203</ele>
        <time>2018-06-30T10:01:11Z</time>
      </trkpt>
      <trkpt lat="45.91546" lon="4.70442">
        <ele>203</ele>
        <time>2018-06-30T10:01:12Z</time>
      </trkpt>
      <trkpt lat="45.91549" lon="4.70447">
        <ele>203</ele>
        <time>2018-06-30T10:01:13Z</time>
      </trkpt>
      <trkpt lat="45.91556" lon="4.70453">
        <ele>203</ele>
        <time>2018-06-30T10:01:14Z</time>
      </trkpt>
      <trkpt lat="45.91562" lon="4.70458">
        <ele>203</ele>
        <time>2018-06-30T10:01:15Z</time>
      </trkpt>
      <trkpt lat="45.91568" lon="4.70463">
        <ele>203</ele>
        <time>2018-06-30T10:01:16Z</time>
      </trkpt>
      <trkpt lat="45.91575" lon="4.70467">
        <ele>203</ele>
        <time>2018-06-30T10:01:17Z</time>
      </trkpt>
      <trkpt lat="45.9158" lon="4.70471">
        <ele>203</ele>
        <time>2018-06-30T10:01:18Z</time>
      </trkpt>
      <trkpt lat="45.91584" lon="4.70474">
        <ele>202</ele>
        <time>2018-06-30T10:01:19Z</time>
      </trkpt>
      <trkpt lat="45.91589" lon="4.70479">
        <ele>202</ele>
        <time>2018-06-30T10:01:20Z</time>
      </trkpt>
      <trkpt lat="45.91594" lon="4.70484">
        <ele>202</ele>
        <time>2018-06-30T10:01:21Z</time>
      </trkpt>
      <trkpt lat="45.916" lon="4.7049">
        <ele>202</ele>
        <time>2018-06-30T10:01:22Z</time>
      </trkpt>
      <trkpt lat="45.91609" lon="4.70496">
        <ele>202</ele>
        <time>2018-06-30T10:01:23Z</time>
      </trkpt>
      <trkpt lat="45.91615" lon="4.705">
        <ele>199</ele>
        <time>2018-06-30T10:01:24Z</time>
      </trkpt>
      <trkpt lat="45.9162" lon="4.70506">
        <ele>199</ele>
        <time>2018-06-30T10:01:25Z</time>
      </trkpt>
      <trkpt lat="45.91627" lon="4.70512">
        <ele>199</ele>
        <time>2018-06-30T10:01:26Z</time>
      </trkpt>
      <trkpt lat="45.91634" lon="4.70517">
        <ele>199</ele>
        <time>2018-06-30T10:01:27Z</time>
      </trkpt>
      <trkpt lat="45.91641" lon="4.70522">
        <ele>199</ele>
        <time>2018-06-30T10:01:28Z</time>
      </trkpt>
      <trkpt lat="45.91652" lon="4.70526">
        <ele>198</ele>
        <time>2018-06-30T10:01:29Z</time>
      </trkpt>
      <trkpt lat="45.91658" lon="4.70531">
        <ele>198</ele>
        <time>2018-06-30T10:01:30Z</time>
      </trkpt>
      <trkpt lat="45.91665" lon="4.70536">
        <ele>198</ele>
        <time>2018-06-30T10:01:31Z</time>
      </trkpt>
      <trkpt lat="45.91671" lon="4.70541">
        <ele>198</ele>
        <time>2018-06-30T10:01:32Z</time>
      </trkpt>
      <trkpt lat="45.91676" lon="4.70546">
        <ele>198</ele>
        <time>2018-06-30T10:01:33Z</time>
      </trkpt>
      <trkpt lat="45.91681" lon="4.70553">
        <ele>198</ele>
        <time>2018-06-30T10:01:34Z</time>
      </trkpt>
      <trkpt lat="45.91686" lon="4.70558">
        <ele>198</ele>
        <time>2018-06-30T10:01:35Z</time>
      </trkpt>
      <trkpt lat="45.91691" lon="4.70564">
        <ele>197</ele>
        <time>2018-06-30T10:01:36Z</time>
      </trkpt>
      <trkpt lat="45.91697" lon="4.7057">
        <ele>197</ele>
        <time>2018-06-30T10:01:37Z</time>
      </trkpt>
      <trkpt lat="45.91701" lon="4.70578">
        <ele>197</ele>
        <time>2018-06-30T10:01:38Z</time>
      </trkpt>
      <trkpt lat="45.91704" lon="4.70585">
        <ele>196</ele>
        <time>2018-06-30T10:01:39Z</time>
      </trkpt>
      <trkpt lat="45.91709" lon="4.7059">
        <ele>196</ele>
        <time>2018-06-30T10:01:40Z</time>
      </trkpt>
      <trkpt lat="45.91715" lon="4.70594">
        <ele>195</ele>
        <time>2018-06-30T10:01:41Z</time>
      </trkpt>
      <trkpt lat="45.9172" lon="4.70595">
        <ele>195</ele>
        <time>2018-06-30T10:01:42Z</time>
      </trkpt>
      <trkpt lat="45.91726" lon="4.70596">
        <ele>195</ele>
        <time>2018-06-30T10:01:43Z</time>
      </trkpt>
      <trkpt lat="45.91732" lon="4.70595">
        <ele>196</ele>
        <time>2018-06-30T10:01:44Z</time>
      </trkpt>
      <trkpt lat="45.91738" lon="4.70596">
        <ele>196</ele>
        <time>2018-06-30T10:01:45Z</time>
      </trkpt>
      <trkpt lat="45.91743" lon="4.706">
        <ele>196</ele>
        <time>2018-06-30T10:01:46Z</time>
      </trkpt>
      <trkpt lat="45.91749" lon="4.70603">
        <ele>195</ele>
        <time>2018-06-30T10:01:47Z</time>
      </trkpt>
      <trkpt lat="45.91755" lon="4.70606">
        <ele>195</ele>
        <time>2018-06-30T10:01:48Z</time>
      </trkpt>
      <trkpt lat="45.91762" lon="4.70609">
        <ele>195</ele>
        <time>2018-06-30T10:01:49Z</time>
      </trkpt>
      <trkpt lat="45.91767" lon="4.70611">
        <ele>195</ele>
        <time>2018-06-30T10:01:50Z</time>
      </trkpt>
      <trkpt lat="45.91773" lon="4.70614">
        <ele>195</ele>
        <time>2018-06-30T10:01:51Z</time>
      </trkpt>
      <trkpt lat="45.91778" lon="4.70615">
        <ele>194</ele>
        <time>2018-06-30T10:01:52Z</time>
      </trkpt>
      <trkpt lat="45.91785" lon="4.70616">
        <ele>194</ele>
        <time>2018-06-30T10:01:53Z</time>
      </trkpt>
      <trkpt lat="45.91792" lon="4.70616">
        <ele>194</ele>
        <time>2018-06-30T10:01:54Z</time>
      </trkpt>
      <trkpt lat="45.91798" lon="4.70618">
        <ele>194</ele>
        <time>2018-06-30T10:01:55Z</time>
      </trkpt>
      <trkpt lat="45.91804" lon="4.70619">
        <ele>194</ele>
        <time>2018-06-30T10:01:56Z</time>
      </trkpt>
      <trkpt lat="45.91811" lon="4.7062">
        <ele>194</ele>
        <time>2018-06-30T10:01:57Z</time>
      </trkpt>
      <trkpt lat="45.91819" lon="4.7062">
        <ele>194</ele>
        <time>2018-06-30T10:01:58Z</time>
      </trkpt>
      <trkpt lat="45.91825" lon="4.7062">
        <ele>194</ele>
        <time>2018-06-30T10:01:59Z</time>
      </trkpt>
      <trkpt lat="45.91832" lon="4.7062">
        <ele>194</ele>
        <time>2018-06-30T10:02:00Z</time>
      </trkpt>
      <trkpt lat="45.91838" lon="4.70619">
        <ele>194</ele>
        <time>2018-06-30T10:02:01Z</time>
      </trkpt>
      <trkpt lat="45.91842" lon="4.7062">
        <ele>194</ele>
        <time>2018-06-30T10:02:02Z</time>
      </trkpt>
      <trkpt lat="45.91847" lon="4.70619">
        <ele>194</ele>
        <time>2018-06-30T10:02:03Z</time>
      </trkpt>
      <trkpt lat="45.91853" lon="4.7062">
        <ele>194</ele>
        <time>2018-06-30T10:02:04Z</time>
      </trkpt>
      <trkpt lat="45.91859" lon="4.70619">
        <ele>194</ele>
        <time>2018-06-30T10:02:05Z</time>
      </trkpt>
      <trkpt lat="45.91864" lon="4.70619">
        <ele>194</ele>
        <time>2018-06-30T10:02:06Z</time>
      </trkpt>
      <trkpt lat="45.9187" lon="4.70619">
        <ele>194</ele>
        <time>2018-06-30T10:02:07Z</time>
      </trkpt>
      <trkpt lat="45.91876" lon="4.70619">
        <ele>194</ele>
        <time>2018-06-30T10:02:08Z</time>
      </trkpt>
      <trkpt lat="45.91882" lon="4.70619">
        <ele>194</ele>
        <time>2018-06-30T10:02:09Z</time>
      </trkpt>
      <trkpt lat="45.91887" lon="4.70619">
        <ele>194</ele>
        <time>2018-06-30T10:02:10Z</time>
      </trkpt>
      <trkpt lat="45.91892" lon="4.70618">
        <ele>194</ele>
        <time>2018-06-30T10:02:11Z</time>
      </trkpt>
      <trkpt lat="45.91897" lon="4.70618">
        <ele>194</ele>
        <time>2018-06-30T10:02:12Z</time>
      </trkpt>
      <trkpt lat="45.91902" lon="4.70617">
        <ele>194</ele>
        <time>2018-06-30T10:02:13Z</time>
      </trkpt>
      <trkpt lat="45.91906" lon="4.70616">
        <ele>194</ele>
        <time>2018-06-30T10:02:14Z</time>
      </trkpt>
      <trkpt lat="45.91912" lon="4.70615">
        <ele>194</ele>
        <time>2018-06-30T10:02:15Z</time>
      </trkpt>
      <trkpt lat="45.91917" lon="4.70615">
        <ele>194</ele>
        <time>2018-06-30T10:02:16Z</time>
      </trkpt>
      <trkpt lat="45.91923" lon="4.70615">
        <ele>194</ele>
        <time>2018-06-30T10:02:17Z</time>
      </trkpt>
      <trkpt lat="45.91929" lon="4.70615">
        <ele>194</ele>
        <time>2018-06-30T10:02:18Z</time>
      </trkpt>
      <trkpt lat="45.91934" lon="4.70615">
        <ele>194</ele>
        <time>2018-06-30T10:02:19Z</time>
      </trkpt>
      <trkpt lat="45.91938" lon="4.70614">
        <ele>194</ele>
        <time>2018-06-30T10:02:20Z</time>
      </trkpt>
      <trkpt lat="45.91944" lon="4.70614">
        <ele>194</ele>
        <time>2018-06-30T10:02:21Z</time>
      </trkpt>
      <trkpt lat="45.91949" lon="4.70613">
        <ele>194</ele>
        <time>2018-06-30T10:02:22Z</time>
      </trkpt>
      <trkpt lat="45.91955" lon="4.70611">
        <ele>194</ele>
        <time>2018-06-30T10:02:23Z</time>
      </trkpt>
      <trkpt lat="45.91962" lon="4.70611">
        <ele>194</ele>
        <time>2018-06-30T10:02:24Z</time>
      </trkpt>
      <trkpt lat="45.91969" lon="4.7061">
        <ele>194</ele>
        <time>2018-06-30T10:02:25Z</time>
      </trkpt>
      <trkpt lat="45.91975" lon="4.70609">
        <ele>194</ele>
        <time>2018-06-30T10:02:26Z</time>
      </trkpt>
      <trkpt lat="45.91981" lon="4.70607">
        <ele>194</ele>
        <time>2018-06-30T10:02:27Z</time>
      </trkpt>
      <trkpt lat="45.91987" lon="4.70606">
        <ele>194</ele>
        <time>2018-06-30T10:02:28Z</time>
      </trkpt>
      <trkpt lat="45.91992" lon="4.70606">
        <ele>194</ele>
        <time>2018-06-30T10:02:29Z</time>
      </trkpt>
      <trkpt lat="45.91999" lon="4.70605">
        <ele>194</ele>
        <time>2018-06-30T10:02:30Z</time>
      </trkpt>
      <trkpt lat="45.92005" lon="4.70604">
        <ele>194</ele>
        <time>2018-06-30T10:02:31Z</time>
      </trkpt>
      <trkpt lat="45.92011" lon="4.70602">
        <ele>194</ele>
        <time>2018-06-30T10:02:32Z</time>
      </trkpt>
      <trkpt lat="45.92017" lon="4.70601">
        <ele>194</ele>
        <time>2018-06-30T10:02:33Z</time>
      </trkpt>
      <trkpt lat="45.92023" lon="4.706">
        <ele>194</ele>
        <time>2018-06-30T10:02:34Z</time>
      </trkpt>
      <trkpt lat="45.92029" lon="4.706">
        <ele>194</ele>
        <time>2018-06-30T10:02:35Z</time>
      </trkpt>
      <trkpt lat="45.92035" lon="4.70598">
        <ele>194</ele>
        <time>2018-06-30T10:02:36Z</time>
      </trkpt>
      <trkpt lat="45.92042" lon="4.70598">
        <ele>193</ele>
        <time>2018-06-30T10:02:37Z</time>
      </trkpt>
      <trkpt lat="45.92048" lon="4.70597">
        <ele>193</ele>
        <time>2018-06-30T10:02:38Z</time>
      </trkpt>
      <trkpt lat="45.92057" lon="4.70597">
        <ele>193</ele>
        <time>2018-06-30T10:02:39Z</time>
      </trkpt>
      <trkpt lat="45.92066" lon="4.70597">
        <ele>193</ele>
        <time>2018-06-30T10:02:40Z</time>
      </trkpt>
      <trkpt lat="45.92075" lon="4.70597">
        <ele>194</ele>
        <time>2018-06-30T10:02:41Z</time>
      </trkpt>
      <trkpt lat="45.92081" lon="4.70596">
        <ele>194</ele>
        <time>2018-06-30T10:02:42Z</time>
      </trkpt>
      <trkpt lat="45.92086" lon="4.70596">
        <ele>193</ele>
        <time>2018-06-30T10:02:43Z</time>
      </trkpt>
      <trkpt lat="45.92092" lon="4.70596">
        <ele>193</ele>
        <time>2018-06-30T10:02:44Z</time>
      </trkpt>
      <trkpt lat="45.92098" lon="4.70594">
        <ele>192</ele>
        <time>2018-06-30T10:02:45Z</time>
      </trkpt>
      <trkpt lat="45.92105" lon="4.70594">
        <ele>192</ele>
        <time>2018-06-30T10:02:46Z</time>
      </trkpt>
      <trkpt lat="45.92109" lon="4.70594">
        <ele>192</ele>
        <time>2018-06-30T10:02:47Z</time>
      </trkpt>
      <trkpt lat="45.92116" lon="4.70594">
        <ele>191</ele>
        <time>2018-06-30T10:02:48Z</time>
      </trkpt>
      <trkpt lat="45.92122" lon="4.70594">
        <ele>191</ele>
        <time>2018-06-30T10:02:49Z</time>
      </trkpt>
      <trkpt lat="45.92131" lon="4.70592">
        <ele>191</ele>
        <time>2018-06-30T10:02:50Z</time>
      </trkpt>
      <trkpt lat="45.92138" lon="4.70592">
        <ele>191</ele>
        <time>2018-06-30T10:02:51Z</time>
      </trkpt>
      <trkpt lat="45.92144" lon="4.70592">
        <ele>191</ele>
        <time>2018-06-30T10:02:52Z</time>
      </trkpt>
      <trkpt lat="45.92152" lon="4.70592">
        <ele>190</ele>
        <time>2018-06-30T10:02:53Z</time>
      </trkpt>
      <trkpt lat="45.92158" lon="4.70593">
        <ele>190</ele>
        <time>2018-06-30T10:02:54Z</time>
      </trkpt>
      <trkpt lat="45.92164" lon="4.70593">
        <ele>190</ele>
        <time>2018-06-30T10:02:55Z</time>
      </trkpt>
      <trkpt lat="45.9217" lon="4.70593">
        <ele>191</ele>
        <time>2018-06-30T10:02:56Z</time>
      </trkpt>
      <trkpt lat="45.92176" lon="4.70593">
        <ele>191</ele>
        <time>2018-06-30T10:02:57Z</time>
      </trkpt>
      <trkpt lat="45.92182" lon="4.70594">
        <ele>191</ele>
        <time>2018-06-30T10:02:58Z</time>
      </trkpt>
      <trkpt lat="45.92188" lon="4.70595">
        <ele>191</ele>
        <time>2018-06-30T10:02:59Z</time>
      </trkpt>
      <trkpt lat="45.92193" lon="4.70596">
        <ele>192</ele>
        <time>2018-06-30T10:03:00Z</time>
      </trkpt>
      <trkpt lat="45.92197" lon="4.70596">
        <ele>192</ele>
        <time>2018-06-30T10:03:01Z</time>
      </trkpt>
      <trkpt lat="45.92201" lon="4.70598">
        <ele>192</ele>
        <time>2018-06-30T10:03:02Z</time>
      </trkpt>
      <trkpt lat="45.92206" lon="4.706">
        <ele>192</ele>
        <time>2018-06-30T10:03:03Z</time>
      </trkpt>
      <trkpt lat="45.92213" lon="4.70602">
        <ele>193</ele>
        <time>2018-06-30T10:03:04Z</time>
      </trkpt>
      <trkpt lat="45.92219" lon="4.70603">
        <ele>193</ele>
        <time>2018-06-30T10:03:05Z</time>
      </trkpt>
      <trkpt lat="45.92224" lon="4.70605">
        <ele>193</ele>
        <time>2018-06-30T10:03:06Z</time>
      </trkpt>
      <trkpt lat="45.92231" lon="4.70606">
        <ele>193</ele>
        <time>2018-06-30T10:03:07Z</time>
      </trkpt>
      <trkpt lat="45.92239" lon="4.70607">
        <ele>194</ele>
        <time>2018-06-30T10:03:08Z</time>
      </trkpt>
      <trkpt lat="45.92244" lon="4.70609">
        <ele>194</ele>
        <time>2018-06-30T10:03:09Z</time>
      </trkpt>
      <trkpt lat="45.9225" lon="4.70612">
        <ele>194</ele>
        <time>2018-06-30T10:03:10Z</time>
      </trkpt>
      <trkpt lat="45.92257" lon="4.70615">
        <ele>196</ele>
        <time>2018-06-30T10:03:11Z</time>
      </trkpt>
      <trkpt lat="45.92263" lon="4.70617">
        <ele>196</ele>
        <time>2018-06-30T10:03:12Z</time>
      </trkpt>
      <trkpt lat="45.92268" lon="4.70621">
        <ele>196</ele>
        <time>2018-06-30T10:03:13Z</time>
      </trkpt>
      <trkpt lat="45.92273" lon="4.70623">
        <ele>196</ele>
        <time>2018-06-30T10:03:14Z</time>
      </trkpt>
      <trkpt lat="45.92279" lon="4.70623">
        <ele>196</ele>
        <time>2018-06-30T10:03:15Z</time>
      </trkpt>
      <trkpt lat="45.92285" lon="4.70624">
        <ele>196</ele>
        <time>2018-06-30T10:03:16Z</time>
      </trkpt>
      <trkpt lat="45.92291" lon="4.70628">
        <ele>196</ele>
        <time>2018-06-30T10:03:17Z</time>
      </trkpt>
      <trkpt lat="45.92295" lon="4.70631">
        <ele>196</ele>
        <time>2018-06-30T10:03:18Z</time>
      </trkpt>
      <trkpt lat="45.92301" lon="4.70633">
        <ele>196</ele>
        <time>2018-06-30T10:03:19Z</time>
      </trkpt>
      <trkpt lat="45.92307" lon="4.70636">
        <ele>196</ele>
        <time>2018-06-30T10:03:20Z</time>
      </trkpt>
      <trkpt lat="45.92312" lon="4.70639">
        <ele>196</ele>
        <time>2018-06-30T10:03:21Z</time>
      </trkpt>
      <trkpt lat="45.9232" lon="4.70643">
        <ele>196</ele>
        <time>2018-06-30T10:03:22Z</time>
      </trkpt>
      <trkpt lat="45.92325" lon="4.70646">
        <ele>196</ele>
        <time>2018-06-30T10:03:23Z</time>
      </trkpt>
      <trkpt lat="45.92332" lon="4.70649">
        <ele>196</ele>
        <time>2018-06-30T10:03:24Z</time>
      </trkpt>
      <trkpt lat="45.92338" lon="4.70652">
        <ele>196</ele>
        <time>2018-06-30T10:03:25Z</time>
      </trkpt>
      <trkpt lat="45.92344" lon="4.70656">
        <ele>196</ele>
        <time>2018-06-30T10:03:26Z</time>
      </trkpt>
      <trkpt lat="45.92349" lon="4.70659">
        <ele>196</ele>
        <time>2018-06-30T10:03:27Z</time>
      </trkpt>
      <trkpt lat="45.92355" lon="4.70663">
        <ele>196</ele>
        <time>2018-06-30T10:03:28Z</time>
      </trkpt>
      <trkpt lat="45.92361" lon="4.70668">
        <ele>195</ele>
        <time>2018-06-30T10:03:29Z</time>
      </trkpt>
      <trkpt lat="45.92367" lon="4.7067">
        <ele>194</ele>
        <time>2018-06-30T10:03:30Z</time>
      </trkpt>
      <trkpt lat="45.92373" lon="4.70671">
        <ele>194</ele>
        <time>2018-06-30T10:03:31Z</time>
      </trkpt>
      <trkpt lat="45.92379" lon="4.70674">
        <ele>194</ele>
        <time>2018-06-30T10:03:32Z</time>
      </trkpt>
      <trkpt lat="45.92385" lon="4.70677">
        <ele>194</ele>
        <time>2018-06-30T10:03:33Z</time>
      </trkpt>
      <trkpt lat="45.92391" lon="4.70681">
        <ele>194</ele>
        <time>2018-06-30T10:03:34Z</time>
      </trkpt>
      <trkpt lat="45.92397" lon="4.70684">
        <ele>194</ele>
        <time>2018-06-30T10:03:35Z</time>
      </trkpt>
      <trkpt lat="45.92404" lon="4.70688">
        <ele>194</ele>
        <time>2018-06-30T10:03:36Z</time>
      </trkpt>
      <trkpt lat="45.9241" lon="4.70692">
        <ele>194</ele>
        <time>2018-06-30T10:03:37Z</time>
      </trkpt>
      <trkpt lat="45.92416" lon="4.70695">
        <ele>194</ele>
        <time>2018-06-30T10:03:38Z</time>
      </trkpt>
      <trkpt lat="45.92422" lon="4.70698">
        <ele>195</ele>
        <time>2018-06-30T10:03:39Z</time>
      </trkpt>
      <trkpt lat="45.92428" lon="4.70702">
        <ele>194</ele>
        <time>2018-06-30T10:03:40Z</time>
      </trkpt>
      <trkpt lat="45.92435" lon="4.70705">
        <ele>194</ele>
        <time>2018-06-30T10:03:41Z</time>
      </trkpt>
      <trkpt lat="45.92441" lon="4.70709">
        <ele>194</ele>
        <time>2018-06-30T10:03:42Z</time>
      </trkpt>
      <trkpt lat="45.92447" lon="4.70711">
        <ele>194</ele>
        <time>2018-06-30T10:03:43Z</time>
      </trkpt>
      <trkpt lat="45.92452" lon="4.70715">
        <ele>194</ele>
        <time>2018-06-30T10:03:44Z</time>
      </trkpt>
      <trkpt lat="45.92458" lon="4.70716">
        <ele>194</ele>
        <time>2018-06-30T10:03:45Z</time>
      </trkpt>
      <trkpt lat="45.92464" lon="4.70719">
        <ele>194</ele>
        <time>2018-06-30T10:03:46Z</time>
      </trkpt>
      <trkpt lat="45.9247" lon="4.70723">
        <ele>194</ele>
        <time>2018-06-30T10:03:47Z</time>
      </trkpt>
      <trkpt lat="45.92475" lon="4.70725">
        <ele>194</ele>
        <time>2018-06-30T10:03:48Z</time>
      </trkpt>
      <trkpt lat="45.92481" lon="4.70728">
        <ele>194</ele>
        <time>2018-06-30T10:03:49Z</time>
      </trkpt>
      <trkpt lat="45.92486" lon="4.70732">
        <ele>194</ele>
        <time>2018-06-30T10:03:50Z</time>
      </trkpt>
      <trkpt lat="45.92491" lon="4.70736">
        <ele>194</ele>
        <time>2018-06-30T10:03:51Z</time>
      </trkpt>
      <trkpt lat="45.92496" lon="4.70739">
        <ele>194</ele>
        <time>2018-06-30T10:03:52Z</time>
      </trkpt>
      <trkpt lat="45.92502" lon="4.70743">
        <ele>195</ele>
        <time>2018-06-30T10:03:53Z</time>
      </trkpt>
      <trkpt lat="45.92507" lon="4.70746">
        <ele>195</ele>
        <time>2018-06-30T10:03:54Z</time>
      </trkpt>
      <trkpt lat="45.92512" lon="4.70749">
        <ele>195</ele>
        <time>2018-06-30T10:03:55Z</time>
      </trkpt>
      <trkpt lat="45.92516" lon="4.70754">
        <ele>195</ele>
        <time>2018-06-30T10:03:56Z</time>
      </trkpt>
      <trkpt lat="45.92522" lon="4.70756">
        <ele>195</ele>
        <time>2018-06-30T10:03:57Z</time>
      </trkpt>
      <trkpt lat="45.92526" lon="4.70759">
        <ele>195</ele>
        <time>2018-06-30T10:03:58Z</time>
      </trkpt>
      <trkpt lat="45.92531" lon="4.70762">
        <ele>195</ele>
        <time>2018-06-30T10:03:59Z</time>
      </trkpt>
      <trkpt lat="45.92537" lon="4.70766">
        <ele>195</ele>
        <time>2018-06-30T10:04:00Z</time>
      </trkpt>
      <trkpt lat="45.92542" lon="4.70769">
        <ele>195</ele>
        <time>2018-06-30T10:04:01Z</time>
      </trkpt>
      <trkpt lat="45.92547" lon="4.70773">
        <ele>195</ele>
        <time>2018-06-30T10:04:02Z</time>
      </trkpt>
      <trkpt lat="45.92552" lon="4.70775">
        <ele>195</ele>
        <time>2018-06-30T10:04:03Z</time>
      </trkpt>
      <trkpt lat="45.92557" lon="4.70779">
        <ele>196</ele>
        <time>2018-06-30T10:04:04Z</time>
      </trkpt>
      <trkpt lat="45.9256" lon="4.70783">
        <ele>196</ele>
        <time>2018-06-30T10:04:05Z</time>
      </trkpt>
      <trkpt lat="45.92564" lon="4.70786">
        <ele>196</ele>
        <time>2018-06-30T10:04:06Z</time>
      </trkpt>
      <trkpt lat="45.92569" lon="4.7079">
        <ele>196</ele>
        <time>2018-06-30T10:04:07Z</time>
      </trkpt>
      <trkpt lat="45.92573" lon="4.70794">
        <ele>196</ele>
        <time>2018-06-30T10:04:08Z</time>
      </trkpt>
      <trkpt lat="45.92578" lon="4.70797">
        <ele>196</ele>
        <time>2018-06-30T10:04:09Z</time>
      </trkpt>
      <trkpt lat="45.92584" lon="4.70801">
        <ele>198</ele>
        <time>2018-06-30T10:04:10Z</time>
      </trkpt>
      <trkpt lat="45.9259" lon="4.70805">
        <ele>198</ele>
        <time>2018-06-30T10:04:11Z</time>
      </trkpt>
      <trkpt lat="45.92595" lon="4.70809">
        <ele>198</ele>
        <time>2018-06-30T10:04:12Z</time>
      </trkpt>
      <trkpt lat="45.92599" lon="4.70814">
        <ele>198</ele>
        <time>2018-06-30T10:04:13Z</time>
      </trkpt>
      <trkpt lat="45.92605" lon="4.70822">
        <ele>198</ele>
        <time>2018-06-30T10:04:15Z</time>
      </trkpt>
      <trkpt lat="45.92611" lon="4.70828">
        <ele>198</ele>
        <time>2018-06-30T10:04:16Z</time>
      </trkpt>
      <trkpt lat="45.92615" lon="4.70833">
        <ele>199</ele>
        <time>2018-06-30T10:04:17Z</time>
      </trkpt>
      <trkpt lat="45.92619" lon="4.70836">
        <ele>197</ele>
        <time>2018-06-30T10:04:18Z</time>
      </trkpt>
      <trkpt lat="45.92625" lon="4.70842">
        <ele>198</ele>
        <time>2018-06-30T10:04:19Z</time>
      </trkpt>
      <trkpt lat="45.9263" lon="4.70847">
        <ele>198</ele>
        <time>2018-06-30T10:04:20Z</time>
      </trkpt>
      <trkpt lat="45.92635" lon="4.70851">
        <ele>198</ele>
        <time>2018-06-30T10:04:21Z</time>
      </trkpt>
      <trkpt lat="45.92639" lon="4.70854">
        <ele>198</ele>
        <time>2018-06-30T10:04:22Z</time>
      </trkpt>
      <trkpt lat="45.92645" lon="4.70861">
        <ele>198</ele>
        <time>2018-06-30T10:04:24Z</time>
      </trkpt>
      <trkpt lat="45.92651" lon="4.70865">
        <ele>198</ele>
        <time>2018-06-30T10:04:25Z</time>
      </trkpt>
      <trkpt lat="45.92656" lon="4.70869">
        <ele>198</ele>
        <time>2018-06-30T10:04:26Z</time>
      </trkpt>
      <trkpt lat="45.92661" lon="4.70873">
        <ele>198</ele>
        <time>2018-06-30T10:04:27Z</time>
      </trkpt>
      <trkpt lat="45.92663" lon="4.70878">
        <ele>197</ele>
        <time>2018-06-30T10:04:28Z</time>
      </trkpt>
      <trkpt lat="45.92667" lon="4.70882">
        <ele>198</ele>
        <time>2018-06-30T10:04:29Z</time>
      </trkpt>
      <trkpt lat="45.92672" lon="4.70885">
        <ele>198</ele>
        <time>2018-06-30T10:04:30Z</time>
      </trkpt>
      <trkpt lat="45.92677" lon="4.7089">
        <ele>198</ele>
        <time>2018-06-30T10:04:31Z</time>
      </trkpt>
      <trkpt lat="45.92682" lon="4.709">
        <ele>197</ele>
        <time>2018-06-30T10:04:33Z</time>
      </trkpt>
      <trkpt lat="45.92685" lon="4.70903">
        <ele>197</ele>
        <time>2018-06-30T10:04:34Z</time>
      </trkpt>
      <trkpt lat="45.92692" lon="4.70906">
        <ele>197</ele>
        <time>2018-06-30T10:04:35Z</time>
      </trkpt>
      <trkpt lat="45.92696" lon="4.7091">
        <ele>197</ele>
        <time>2018-06-30T10:04:36Z</time>
      </trkpt>
      <trkpt lat="45.92701" lon="4.70913">
        <ele>197</ele>
        <time>2018-06-30T10:04:37Z</time>
      </trkpt>
      <trkpt lat="45.92706" lon="4.70914">
        <ele>197</ele>
        <time>2018-06-30T10:04:38Z</time>
      </trkpt>
      <trkpt lat="45.92712" lon="4.70917">
        <ele>197</ele>
        <time>2018-06-30T10:04:39Z</time>
      </trkpt>
      <trkpt lat="45.92718" lon="4.70919">
        <ele>195</ele>
        <time>2018-06-30T10:04:40Z</time>
      </trkpt>
      <trkpt lat="45.92724" lon="4.7092">
        <ele>195</ele>
        <time>2018-06-30T10:04:41Z</time>
      </trkpt>
      <trkpt lat="45.92728" lon="4.70922">
        <ele>195</ele>
        <time>2018-06-30T10:04:42Z</time>
      </trkpt>
      <trkpt lat="45.92734" lon="4.70922">
        <ele>195</ele>
        <time>2018-06-30T10:04:43Z</time>
      </trkpt>
      <trkpt lat="45.92738" lon="4.70924">
        <ele>195</ele>
        <time>2018-06-30T10:04:44Z</time>
      </trkpt>
      <trkpt lat="45.92744" lon="4.70925">
        <ele>195</ele>
        <time>2018-06-30T10:04:45Z</time>
      </trkpt>
      <trkpt lat="45.9275" lon="4.70926">
        <ele>195</ele>
        <time>2018-06-30T10:04:46Z</time>
      </trkpt>
      <trkpt lat="45.92757" lon="4.70928">
        <ele>196</ele>
        <time>2018-06-30T10:04:47Z</time>
      </trkpt>
      <trkpt lat="45.92762" lon="4.7093">
        <ele>196</ele>
        <time>2018-06-30T10:04:48Z</time>
      </trkpt>
      <trkpt lat="45.92767" lon="4.70931">
        <ele>196</ele>
        <time>2018-06-30T10:04:49Z</time>
      </trkpt>
      <trkpt lat="45.92772" lon="4.70931">
        <ele>196</ele>
        <time>2018-06-30T10:04:50Z</time>
      </trkpt>
      <trkpt lat="45.92777" lon="4.70933">
        <ele>196</ele>
        <time>2018-06-30T10:04:51Z</time>
      </trkpt>
      <trkpt lat="45.92782" lon="4.70934">
        <ele>196</ele>
        <time>2018-06-30T10:04:52Z</time>
      </trkpt>
      <trkpt lat="45.92788" lon="4.70935">
        <ele>196</ele>
        <time>2018-06-30T10:04:53Z</time>
      </trkpt>
      <trkpt lat="45.92793" lon="4.70936">
        <ele>196</ele>
        <time>2018-06-30T10:04:54Z</time>
      </trkpt>
      <trkpt lat="45.92798" lon="4.70937">
        <ele>196</ele>
        <time>2018-06-30T10:04:55Z</time>
      </trkpt>
      <trkpt lat="45.92801" lon="4.70942">
        <ele>196</ele>
        <time>2018-06-30T10:04:56Z</time>
      </trkpt>
      <trkpt lat="45.92806" lon="4.70946">
        <ele>196</ele>
        <time>2018-06-30T10:04:57Z</time>
      </trkpt>
      <trkpt lat="45.92811" lon="4.70949">
        <ele>196</ele>
        <time>2018-06-30T10:04:58Z</time>
      </trkpt>
      <trkpt lat="45.92816" lon="4.7095">
        <ele>197</ele>
        <time>2018-06-30T10:04:59Z</time>
      </trkpt>
      <trkpt lat="45.92821" lon="4.70949">
        <ele>197</ele>
        <time>2018-06-30T10:05:00Z</time>
      </trkpt>
      <trkpt lat="45.92826" lon="4.70945">
        <ele>197</ele>
        <time>2018-06-30T10:05:01Z</time>
      </trkpt>
      <trkpt lat="45.92831" lon="4.70944">
        <ele>197</ele>
        <time>2018-06-30T10:05:02Z</time>
      </trkpt>
      <trkpt lat="45.92837" lon="4.70943">
        <ele>198</ele>
        <time>2018-06-30T10:05:03Z</time>
      </trkpt>
      <trkpt lat="45.92843" lon="4.70942">
        <ele>198</ele>
        <time>2018-06-30T10:05:04Z</time>
      </trkpt>
      <trkpt lat="45.92849" lon="4.70943">
        <ele>198</ele>
        <time>2018-06-30T10:05:05Z</time>
      </trkpt>
      <trkpt lat="45.92855" lon="4.70945">
        <ele>198</ele>
        <time>2018-06-30T10:05:06Z</time>
      </trkpt>
      <trkpt lat="45.92861" lon="4.70947">
        <ele>198</ele>
        <time>2018-06-30T10:05:07Z</time>
      </trkpt>
      <trkpt lat="45.92866" lon="4.70948">
        <ele>198</ele>
        <time>2018-06-30T10:05:08Z</time>
      </trkpt>
      <trkpt lat="45.92871" lon="4.7095">
        <ele>198</ele>
        <time>2018-06-30T10:05:09Z</time>
      </trkpt>
      <trkpt lat="45.92877" lon="4.70951">
        <ele>198</ele>
        <time>2018-06-30T10:05:10Z</time>
      </trkpt>
      <trkpt lat="45.92882" lon="4.70953">
        <ele>198</ele>
        <time>2018-06-30T10:05:11Z</time>
      </trkpt>
      <trkpt lat="45.92888" lon="4.70955">
        <ele>198</ele>
        <time>2018-06-30T10:05:12Z</time>
      </trkpt>
      <trkpt lat="45.92892" lon="4.70955">
        <ele>198</ele>
        <time>2018-06-30T10:05:13Z</time>
      </trkpt>
      <trkpt lat="45.92898" lon="4.70957">
        <ele>198</ele>
        <time>2018-06-30T10:05:14Z</time>
      </trkpt>
      <trkpt lat="45.92903" lon="4.70959">
        <ele>197</ele>
        <time>2018-06-30T10:05:15Z</time>
      </trkpt>
      <trkpt lat="45.92908" lon="4.70961">
        <ele>197</ele>
        <time>2018-06-30T10:05:16Z</time>
      </trkpt>
      <trkpt lat="45.92914" lon="4.70962">
        <ele>197</ele>
        <time>2018-06-30T10:05:17Z</time>
      </trkpt>
      <trkpt lat="45.9292" lon="4.70965">
        <ele>198</ele>
        <time>2018-06-30T10:05:18Z</time>
      </trkpt>
      <trkpt lat="45.92925" lon="4.70965">
        <ele>198</ele>
        <time>2018-06-30T10:05:19Z</time>
      </trkpt>
      <trkpt lat="45.92931" lon="4.70967">
        <ele>198</ele>
        <time>2018-06-30T10:05:20Z</time>
      </trkpt>
      <trkpt lat="45.92937" lon="4.70969">
        <ele>198</ele>
        <time>2018-06-30T10:05:21Z</time>
      </trkpt>
      <trkpt lat="45.92943" lon="4.7097">
        <ele>198</ele>
        <time>2018-06-30T10:05:22Z</time>
      </trkpt>
      <trkpt lat="45.92949" lon="4.70971">
        <ele>198</ele>
        <time>2018-06-30T10:05:23Z</time>
      </trkpt>
      <trkpt lat="45.92955" lon="4.70973">
        <ele>198</ele>
        <time>2018-06-30T10:05:24Z</time>
      </trkpt>
      <trkpt lat="45.9296" lon="4.70975">
        <ele>198</ele>
        <time>2018-06-30T10:05:25Z</time>
      </trkpt>
      <trkpt lat="45.92966" lon="4.70976">
        <ele>198</ele>
        <time>2018-06-30T10:05:26Z</time>
      </trkpt>
      <trkpt lat="45.92971" lon="4.70978">
        <ele>198</ele>
        <time>2018-06-30T10:05:27Z</time>
      </trkpt>
      <trkpt lat="45.92977" lon="4.7098">
        <ele>198</ele>
        <time>2018-06-30T10:05:28Z</time>
      </trkpt>
      <trkpt lat="45.92983" lon="4.70982">
        <ele>198</ele>
        <time>2018-06-30T10:05:29Z</time>
      </trkpt>
      <trkpt lat="45.92989" lon="4.70984">
        <ele>198</ele>
        <time>2018-06-30T10:05:30Z</time>
      </trkpt>
      <trkpt lat="45.92995" lon="4.70986">
        <ele>197</ele>
        <time>2018-06-30T10:05:31Z</time>
      </trkpt>
      <trkpt lat="45.93001" lon="4.70988">
        <ele>198</ele>
        <time>2018-06-30T10:05:32Z</time>
      </trkpt>
      <trkpt lat="45.93008" lon="4.70988">
        <ele>198</ele>
        <time>2018-06-30T10:05:33Z</time>
      </trkpt>
      <trkpt lat="45.93013" lon="4.70991">
        <ele>198</ele>
        <time>2018-06-30T10:05:34Z</time>
      </trkpt>
      <trkpt lat="45.93019" lon="4.70994">
        <ele>198</ele>
        <time>2018-06-30T10:05:35Z</time>
      </trkpt>
      <trkpt lat="45.93024" lon="4.70996">
        <ele>198</ele>
        <time>2018-06-30T10:05:36Z</time>
      </trkpt>
      <trkpt lat="45.9303" lon="4.70998">
        <ele>198</ele>
        <time>2018-06-30T10:05:37Z</time>
      </trkpt>
      <trkpt lat="45.93036" lon="4.71003">
        <ele>197</ele>
        <time>2018-06-30T10:05:38Z</time>
      </trkpt>
      <trkpt lat="45.93041" lon="4.71007">
        <ele>197</ele>
        <time>2018-06-30T10:05:39Z</time>
      </trkpt>
      <trkpt lat="45.93045" lon="4.71011">
        <ele>197</ele>
        <time>2018-06-30T10:05:40Z</time>
      </trkpt>
      <trkpt lat="45.93051" lon="4.71016">
        <ele>197</ele>
        <time>2018-06-30T10:05:41Z</time>
      </trkpt>
      <trkpt lat="45.93054" lon="4.71021">
        <ele>197</ele>
        <time>2018-06-30T10:05:42Z</time>
      </trkpt>
      <trkpt lat="45.9306" lon="4.71028">
        <ele>197</ele>
        <time>2018-06-30T10:05:43Z</time>
      </trkpt>
      <trkpt lat="45.93065" lon="4.71033">
        <ele>197</ele>
        <time>2018-06-30T10:05:44Z</time>
      </trkpt>
      <trkpt lat="45.93071" lon="4.71039">
        <ele>196</ele>
        <time>2018-06-30T10:05:45Z</time>
      </trkpt>
      <trkpt lat="45.93077" lon="4.71046">
        <ele>196</ele>
        <time>2018-06-30T10:05:46Z</time>
      </trkpt>
      <trkpt lat="45.93083" lon="4.71053">
        <ele>196</ele>
        <time>2018-06-30T10:05:47Z</time>
      </trkpt>
      <trkpt lat="45.93089" lon="4.7106">
        <ele>195</ele>
        <time>2018-06-30T10:05:48Z</time>
      </trkpt>
      <trkpt lat="45.93093" lon="4.71067">
        <ele>195</ele>
        <time>2018-06-30T10:05:49Z</time>
      </trkpt>
      <trkpt lat="45.93098" lon="4.71075">
        <ele>195</ele>
        <time>2018-06-30T10:05:50Z</time>
      </trkpt>
      <trkpt lat="45.93101" lon="4.71084">
        <ele>193</ele>
        <time>2018-06-30T10:05:51Z</time>
      </trkpt>
      <trkpt lat="45.93108" lon="4.71093">
        <ele>193</ele>
        <time>2018-06-30T10:05:52Z</time>
      </trkpt>
      <trkpt lat="45.93115" lon="4.711">
        <ele>193</ele>
        <time>2018-06-30T10:05:53Z</time>
      </trkpt>
      <trkpt lat="45.9312" lon="4.71108">
        <ele>192</ele>
        <time>2018-06-30T10:05:54Z</time>
      </trkpt>
      <trkpt lat="45.93124" lon="4.71117">
        <ele>192</ele>
        <time>2018-06-30T10:05:55Z</time>
      </trkpt>
      <trkpt lat="45.9313" lon="4.71126">
        <ele>192</ele>
        <time>2018-06-30T10:05:56Z</time>
      </trkpt>
      <trkpt lat="45.93134" lon="4.71135">
        <ele>192</ele>
        <time>2018-06-30T10:05:57Z</time>
      </trkpt>
      <trkpt lat="45.93139" lon="4.71144">
        <ele>192</ele>
        <time>2018-06-30T10:05:58Z</time>
      </trkpt>
      <trkpt lat="45.93143" lon="4.71155">
        <ele>191</ele>
        <time>2018-06-30T10:05:59Z</time>
      </trkpt>
      <trkpt lat="45.93147" lon="4.71164">
        <ele>191</ele>
        <time>2018-06-30T10:06:00Z</time>
      </trkpt>
      <trkpt lat="45.93149" lon="4.71175">
        <ele>190</ele>
        <time>2018-06-30T10:06:01Z</time>
      </trkpt>
      <trkpt lat="45.93153" lon="4.71185">
        <ele>190</ele>
        <time>2018-06-30T10:06:02Z</time>
      </trkpt>
      <trkpt lat="45.93158" lon="4.71194">
        <ele>190</ele>
        <time>2018-06-30T10:06:03Z</time>
      </trkpt>
      <trkpt lat="45.93161" lon="4.71204">
        <ele>190</ele>
        <time>2018-06-30T10:06:04Z</time>
      </trkpt>
      <trkpt lat="45.93166" lon="4.71215">
        <ele>190</ele>
        <time>2018-06-30T10:06:05Z</time>
      </trkpt>
      <trkpt lat="45.93171" lon="4.71226">
        <ele>190</ele>
        <time>2018-06-30T10:06:06Z</time>
      </trkpt>
      <trkpt lat="45.93176" lon="4.71234">
        <ele>190</ele>
        <time>2018-06-30T10:06:07Z</time>
      </trkpt>
      <trkpt lat="45.9318" lon="4.71243">
        <ele>190</ele>
        <time>2018-06-30T10:06:08Z</time>
      </trkpt>
      <trkpt lat="45.93184" lon="4.71252">
        <ele>189</ele>
        <time>2018-06-30T10:06:09Z</time>
      </trkpt>
      <trkpt lat="45.93189" lon="4.7126">
        <ele>189</ele>
        <time>2018-06-30T10:06:10Z</time>
      </trkpt>
      <trkpt lat="45.93193" lon="4.7127">
        <ele>189</ele>
        <time>2018-06-30T10:06:11Z</time>
      </trkpt>
      <trkpt lat="45.93197" lon="4.71278">
        <ele>188</ele>
        <time>2018-06-30T10:06:12Z</time>
      </trkpt>
      <trkpt lat="45.932" lon="4.71287">
        <ele>188</ele>
        <time>2018-06-30T10:06:13Z</time>
      </trkpt>
      <trkpt lat="45.93204" lon="4.71294">
        <ele>188</ele>
        <time>2018-06-30T10:06:14Z</time>
      </trkpt>
      <trkpt lat="45.93208" lon="4.71303">
        <ele>188</ele>
        <time>2018-06-30T10:06:15Z</time>
      </trkpt>
      <trkpt lat="45.93211" lon="4.71311">
        <ele>188</ele>
        <time>2018-06-30T10:06:16Z</time>
      </trkpt>
      <trkpt lat="45.93214" lon="4.71318">
        <ele>188</ele>
        <time>2018-06-30T10:06:17Z</time>
      </trkpt>
      <trkpt lat="45.93217" lon="4.71325">
        <ele>187</ele>
        <time>2018-06-30T10:06:18Z</time>
      </trkpt>
      <trkpt lat="45.9322" lon="4.71332">
        <ele>187</ele>
        <time>2018-06-30T10:06:19Z</time>
      </trkpt>
      <trkpt lat="45.93224" lon="4.71339">
        <ele>186</ele>
        <time>2018-06-30T10:06:20Z</time>
      </trkpt>
      <trkpt lat="45.93227" lon="4.71346">
        <ele>186</ele>
        <time>2018-06-30T10:06:21Z</time>
      </trkpt>
      <trkpt lat="45.9323" lon="4.71352">
        <ele>186</ele>
        <time>2018-06-30T10:06:22Z</time>
      </trkpt>
      <trkpt lat="45.93234" lon="4.71362">
        <ele>186</ele>
        <time>2018-06-30T10:06:25Z</time>
      </trkpt>
      <trkpt lat="45.93235" lon="4.71364">
        <ele>186</ele>
        <time>2018-06-30T10:06:26Z</time>
      </trkpt>
      <trkpt lat="45.93239" lon="4.71373">
        <ele>186</ele>
        <time>2018-06-30T10:06:38Z</time>
      </trkpt>
      <trkpt lat="45.93239" lon="4.71376">
        <ele>186</ele>
        <time>2018-06-30T10:06:39Z</time>
      </trkpt>
      <trkpt lat="45.9324" lon="4.71381">
        <ele>186</ele>
        <time>2018-06-30T10:06:41Z</time>
      </trkpt>
      <trkpt lat="45.93243" lon="4.7139">
        <ele>186</ele>
        <time>2018-06-30T10:06:42Z</time>
      </trkpt>
      <trkpt lat="45.93247" lon="4.714">
        <ele>186</ele>
        <time>2018-06-30T10:06:44Z</time>
      </trkpt>
      <trkpt lat="45.93249" lon="4.71404">
        <ele>186</ele>
        <time>2018-06-30T10:06:45Z</time>
      </trkpt>
      <trkpt lat="45.93253" lon="4.71415">
        <ele>186</ele>
        <time>2018-06-30T10:06:47Z</time>
      </trkpt>
      <trkpt lat="45.93256" lon="4.71421">
        <ele>186</ele>
        <time>2018-06-30T10:06:48Z</time>
      </trkpt>
      <trkpt lat="45.93258" lon="4.71427">
        <ele>186</ele>
        <time>2018-06-30T10:06:49Z</time>
      </trkpt>
      <trkpt lat="45.93262" lon="4.71433">
        <ele>185</ele>
        <time>2018-06-30T10:06:50Z</time>
      </trkpt>
      <trkpt lat="45.93264" lon="4.71439">
        <ele>185</ele>
        <time>2018-06-30T10:06:51Z</time>
      </trkpt>
      <trkpt lat="45.93267" lon="4.71445">
        <ele>185</ele>
        <time>2018-06-30T10:06:52Z</time>
      </trkpt>
      <trkpt lat="45.9327" lon="4.71452">
        <ele>185</ele>
        <time>2018-06-30T10:06:53Z</time>
      </trkpt>
      <trkpt lat="45.93273" lon="4.71457">
        <ele>185</ele>
        <time>2018-06-30T10:06:54Z</time>
      </trkpt>
      <trkpt lat="45.93276" lon="4.71463">
        <ele>185</ele>
        <time>2018-06-30T10:06:55Z</time>
      </trkpt>
      <trkpt lat="45.9328" lon="4.71471">
        <ele>185</ele>
        <time>2018-06-30T10:06:56Z</time>
      </trkpt>
      <trkpt lat="45.93282" lon="4.71477">
        <ele>185</ele>
        <time>2018-06-30T10:06:57Z</time>
      </trkpt>
      <trkpt lat="45.93285" lon="4.71483">
        <ele>185</ele>
        <time>2018-06-30T10:06:58Z</time>
      </trkpt>
      <trkpt lat="45.93288" lon="4.7149">
        <ele>185</ele>
        <time>2018-06-30T10:06:59Z</time>
      </trkpt>
      <trkpt lat="45.93291" lon="4.71496">
        <ele>185</ele>
        <time>2018-06-30T10:07:00Z</time>
      </trkpt>
      <trkpt lat="45.93294" lon="4.71502">
        <ele>184</ele>
        <time>2018-06-30T10:07:01Z</time>
      </trkpt>
      <trkpt lat="45.93296" lon="4.71509">
        <ele>184</ele>
        <time>2018-06-30T10:07:02Z</time>
      </trkpt>
      <trkpt lat="45.933" lon="4.71516">
        <ele>184</ele>
        <time>2018-06-30T10:07:03Z</time>
      </trkpt>
      <trkpt lat="45.93303" lon="4.71522">
        <ele>184</ele>
        <time>2018-06-30T10:07:04Z</time>
      </trkpt>
      <trkpt lat="45.93306" lon="4.71529">
        <ele>184</ele>
        <time>2018-06-30T10:07:05Z</time>
      </trkpt>
      <trkpt lat="45.93311" lon="4.71534">
        <ele>184</ele>
        <time>2018-06-30T10:07:06Z</time>
      </trkpt>
      <trkpt lat="45.93314" lon="4.71542">
        <ele>184</ele>
        <time>2018-06-30T10:07:07Z</time>
      </trkpt>
      <trkpt lat="45.93317" lon="4.71547">
        <ele>184</ele>
        <time>2018-06-30T10:07:08Z</time>
      </trkpt>
      <trkpt lat="45.93319" lon="4.71554">
        <ele>184</ele>
        <time>2018-06-30T10:07:09Z</time>
      </trkpt>
      <trkpt lat="45.93322" lon="4.71559">
        <ele>184</ele>
        <time>2018-06-30T10:07:10Z</time>
      </trkpt>
      <trkpt lat="45.93326" lon="4.71565">
        <ele>185</ele>
        <time>2018-06-30T10:07:11Z</time>
      </trkpt>
      <trkpt lat="45.9333" lon="4.71572">
        <ele>185</ele>
        <time>2018-06-30T10:07:12Z</time>
      </trkpt>
      <trkpt lat="45.93334" lon="4.71578">
        <ele>185</ele>
        <time>2018-06-30T10:07:13Z</time>
      </trkpt>
      <trkpt lat="45.93337" lon="4.71585">
        <ele>185</ele>
        <time>2018-06-30T10:07:14Z</time>
      </trkpt>
      <trkpt lat="45.93339" lon="4.71591">
        <ele>185</ele>
        <time>2018-06-30T10:07:15Z</time>
      </trkpt>
      <trkpt lat="45.93342" lon="4.71597">
        <ele>185</ele>
        <time>2018-06-30T10:07:16Z</time>
      </trkpt>
      <trkpt lat="45.93344" lon="4.71605">
        <ele>185</ele>
        <time>2018-06-30T10:07:17Z</time>
      </trkpt>
      <trkpt lat="45.93349" lon="4.71612">
        <ele>185</ele>
        <time>2018-06-30T10:07:18Z</time>
      </trkpt>
      <trkpt lat="45.93353" lon="4.71619">
        <ele>185</ele>
        <time>2018-06-30T10:07:19Z</time>
      </trkpt>
      <trkpt lat="45.93355" lon="4.71625">
        <ele>185</ele>
        <time>2018-06-30T10:07:20Z</time>
      </trkpt>
      <trkpt lat="45.93358" lon="4.71632">
        <ele>185</ele>
        <time>2018-06-30T10:07:21Z</time>
      </trkpt>
      <trkpt lat="45.93361" lon="4.7164">
        <ele>185</ele>
        <time>2018-06-30T10:07:22Z</time>
      </trkpt>
      <trkpt lat="45.93363" lon="4.71647">
        <ele>185</ele>
        <time>2018-06-30T10:07:23Z</time>
      </trkpt>
      <trkpt lat="45.93367" lon="4.71654">
        <ele>185</ele>
        <time>2018-06-30T10:07:24Z</time>
      </trkpt>
      <trkpt lat="45.9337" lon="4.71661">
        <ele>185</ele>
        <time>2018-06-30T10:07:25Z</time>
      </trkpt>
      <trkpt lat="45.93373" lon="4.71668">
        <ele>185</ele>
        <time>2018-06-30T10:07:26Z</time>
      </trkpt>
      <trkpt lat="45.93378" lon="4.71675">
        <ele>185</ele>
        <time>2018-06-30T10:07:27Z</time>
      </trkpt>
      <trkpt lat="45.93382" lon="4.71682">
        <ele>185</ele>
        <time>2018-06-30T10:07:28Z</time>
      </trkpt>
      <trkpt lat="45.93386" lon="4.71692">
        <ele>184</ele>
        <time>2018-06-30T10:07:29Z</time>
      </trkpt>
      <trkpt lat="45.93389" lon="4.71699">
        <ele>184</ele>
        <time>2018-06-30T10:07:30Z</time>
      </trkpt>
      <trkpt lat="45.93394" lon="4.71709">
        <ele>184</ele>
        <time>2018-06-30T10:07:31Z</time>
      </trkpt>
      <trkpt lat="45.93397" lon="4.71717">
        <ele>184</ele>
        <time>2018-06-30T10:07:32Z</time>
      </trkpt>
      <trkpt lat="45.934" lon="4.71725">
        <ele>184</ele>
        <time>2018-06-30T10:07:33Z</time>
      </trkpt>
      <trkpt lat="45.93405" lon="4.71734">
        <ele>184</ele>
        <time>2018-06-30T10:07:34Z</time>
      </trkpt>
      <trkpt lat="45.93409" lon="4.71742">
        <ele>184</ele>
        <time>2018-06-30T10:07:35Z</time>
      </trkpt>
      <trkpt lat="45.93413" lon="4.71751">
        <ele>183</ele>
        <time>2018-06-30T10:07:36Z</time>
      </trkpt>
      <trkpt lat="45.93416" lon="4.71759">
        <ele>183</ele>
        <time>2018-06-30T10:07:37Z</time>
      </trkpt>
      <trkpt lat="45.93421" lon="4.71768">
        <ele>182</ele>
        <time>2018-06-30T10:07:38Z</time>
      </trkpt>
      <trkpt lat="45.93425" lon="4.71777">
        <ele>182</ele>
        <time>2018-06-30T10:07:39Z</time>
      </trkpt>
      <trkpt lat="45.93429" lon="4.71785">
        <ele>182</ele>
        <time>2018-06-30T10:07:40Z</time>
      </trkpt>
      <trkpt lat="45.93431" lon="4.71792">
        <ele>182</ele>
        <time>2018-06-30T10:07:41Z</time>
      </trkpt>
      <trkpt lat="45.93434" lon="4.71799">
        <ele>182</ele>
        <time>2018-06-30T10:07:42Z</time>
      </trkpt>
      <trkpt lat="45.93435" lon="4.71808">
        <ele>182</ele>
        <time>2018-06-30T10:07:44Z</time>
      </trkpt>
      <trkpt lat="45.93438" lon="4.71817">
        <ele>182</ele>
        <time>2018-06-30T10:07:45Z</time>
      </trkpt>
      <trkpt lat="45.93442" lon="4.71828">
        <ele>182</ele>
        <time>2018-06-30T10:07:47Z</time>
      </trkpt>
      <trkpt lat="45.93443" lon="4.71833">
        <ele>182</ele>
        <time>2018-06-30T10:07:48Z</time>
      </trkpt>
      <trkpt lat="45.93447" lon="4.71838">
        <ele>181</ele>
        <time>2018-06-30T10:07:49Z</time>
      </trkpt>
      <trkpt lat="45.9345" lon="4.71844">
        <ele>181</ele>
        <time>2018-06-30T10:07:50Z</time>
      </trkpt>
      <trkpt lat="45.93453" lon="4.71849">
        <ele>181</ele>
        <time>2018-06-30T10:07:51Z</time>
      </trkpt>
      <trkpt lat="45.93458" lon="4.71854">
        <ele>181</ele>
        <time>2018-06-30T10:07:52Z</time>
      </trkpt>
      <trkpt lat="45.93464" lon="4.71863">
        <ele>180</ele>
        <time>2018-06-30T10:07:54Z</time>
      </trkpt>
      <trkpt lat="45.93467" lon="4.71867">
        <ele>180</ele>
        <time>2018-06-30T10:07:55Z</time>
      </trkpt>
      <trkpt lat="45.93471" lon="4.71877">
        <ele>180</ele>
        <time>2018-06-30T10:07:58Z</time>
      </trkpt>
      <trkpt lat="45.93473" lon="4.7188">
        <ele>180</ele>
        <time>2018-06-30T10:07:59Z</time>
      </trkpt>
      <trkpt lat="45.93475" lon="4.71889">
        <ele>180</ele>
        <time>2018-06-30T10:08:02Z</time>
      </trkpt>
      <trkpt lat="45.93475" lon="4.71893">
        <ele>180</ele>
        <time>2018-06-30T10:08:03Z</time>
      </trkpt>
      <trkpt lat="45.93474" lon="4.71905">
        <ele>179</ele>
        <time>2018-06-30T10:08:06Z</time>
      </trkpt>
      <trkpt lat="45.93474" lon="4.7191">
        <ele>179</ele>
        <time>2018-06-30T10:08:07Z</time>
      </trkpt>
      <trkpt lat="45.93472" lon="4.71922">
        <ele>178</ele>
        <time>2018-06-30T10:08:10Z</time>
      </trkpt>
      <trkpt lat="45.93471" lon="4.71925">
        <ele>178</ele>
        <time>2018-06-30T10:08:11Z</time>
      </trkpt>
      <trkpt lat="45.93471" lon="4.71937">
        <ele>178</ele>
        <time>2018-06-30T10:08:51Z</time>
      </trkpt>
      <trkpt lat="45.93473" lon="4.71938">
        <ele>178</ele>
        <time>2018-06-30T10:08:52Z</time>
      </trkpt>
      <trkpt lat="45.93481" lon="4.71939">
        <ele>178</ele>
        <time>2018-06-30T10:09:05Z</time>
      </trkpt>
      <trkpt lat="45.93482" lon="4.7194">
        <ele>178</ele>
        <time>2018-06-30T10:09:08Z</time>
      </trkpt>
      <trkpt lat="45.93482" lon="4.71938">
        <ele>178</ele>
        <time>2018-06-30T10:10:12Z</time>
      </trkpt>
      <trkpt lat="45.93476" lon="4.71918">
        <ele>178</ele>
        <time>2018-06-30T10:10:23Z</time>
      </trkpt>
      <trkpt lat="45.93481" lon="4.71909">
        <ele>179</ele>
        <time>2018-06-30T10:10:26Z</time>
      </trkpt>
      <trkpt lat="45.93482" lon="4.71905">
        <ele>179</ele>
        <time>2018-06-30T10:10:27Z</time>
      </trkpt>
      <trkpt lat="45.93484" lon="4.71896">
        <ele>179</ele>
        <time>2018-06-30T10:10:29Z</time>
      </trkpt>
      <trkpt lat="45.93485" lon="4.71892">
        <ele>179</ele>
        <time>2018-06-30T10:10:30Z</time>
      </trkpt>
      <trkpt lat="45.93485" lon="4.71883">
        <ele>180</ele>
        <time>2018-06-30T10:10:32Z</time>
      </trkpt>
      <trkpt lat="45.93484" lon="4.71879">
        <ele>180</ele>
        <time>2018-06-30T10:10:33Z</time>
      </trkpt>
      <trkpt lat="45.93483" lon="4.7187">
        <ele>180</ele>
        <time>2018-06-30T10:10:35Z</time>
      </trkpt>
      <trkpt lat="45.93482" lon="4.71865">
        <ele>180</ele>
        <time>2018-06-30T10:10:36Z</time>
      </trkpt>
      <trkpt lat="45.93483" lon="4.71856">
        <ele>180</ele>
        <time>2018-06-30T10:10:39Z</time>
      </trkpt>
      <trkpt lat="45.9349" lon="4.71852">
        <ele>180</ele>
        <time>2018-06-30T10:10:40Z</time>
      </trkpt>
      <trkpt lat="45.93496" lon="4.71851">
        <ele>180</ele>
        <time>2018-06-30T10:10:42Z</time>
      </trkpt>
      <trkpt lat="45.935" lon="4.71849">
        <ele>180</ele>
        <time>2018-06-30T10:10:43Z</time>
      </trkpt>
      <trkpt lat="45.93507" lon="4.71847">
        <ele>179</ele>
        <time>2018-06-30T10:10:45Z</time>
      </trkpt>
      <trkpt lat="45.93509" lon="4.71847">
        <ele>179</ele>
        <time>2018-06-30T10:10:46Z</time>
      </trkpt>
      <trkpt lat="45.93516" lon="4.71845">
        <ele>179</ele>
        <time>2018-06-30T10:10:50Z</time>
      </trkpt>
      <trkpt lat="45.93519" lon="4.71844">
        <ele>179</ele>
        <time>2018-06-30T10:10:51Z</time>
      </trkpt>
      <trkpt lat="45.93526" lon="4.71843">
        <ele>179</ele>
        <time>2018-06-30T10:10:54Z</time>
      </trkpt>
      <trkpt lat="45.93528" lon="4.71843">
        <ele>179</ele>
        <time>2018-06-30T10:10:55Z</time>
      </trkpt>
      <trkpt lat="45.93533" lon="4.71843">
        <ele>179</ele>
        <time>2018-06-30T10:10:59Z</time>
      </trkpt>
      <trkpt lat="45.93534" lon="4.71843">
        <ele>179</ele>
        <time>2018-06-30T10:11:00Z</time>
      </trkpt>
      <trkpt lat="45.93534" lon="4.71843">
        <ele>179</ele>
        <time>2018-06-30T10:11:12Z</time>
      </trkpt>
      <trkpt lat="45.93535" lon="4.71844">
        <ele>179</ele>
        <time>2018-06-30T10:11:13Z</time>
      </trkpt>
      <trkpt lat="45.93542" lon="4.71843">
        <ele>179</ele>
        <time>2018-06-30T10:12:18Z</time>
      </trkpt>
      <trkpt lat="45.93544" lon="4.71842">
        <ele>179</ele>
        <time>2018-06-30T10:12:19Z</time>
      </trkpt>
      <trkpt lat="45.93549" lon="4.71841">
        <ele>179</ele>
        <time>2018-06-30T10:12:21Z</time>
      </trkpt>
      <trkpt lat="45.93557" lon="4.71842">
        <ele>179</ele>
        <time>2018-06-30T10:12:22Z</time>
      </trkpt>
      <trkpt lat="45.93565" lon="4.71848">
        <ele>179</ele>
        <time>2018-06-30T10:12:24Z</time>
      </trkpt>
      <trkpt lat="45.93569" lon="4.71848">
        <ele>179</ele>
        <time>2018-06-30T10:12:25Z</time>
      </trkpt>
      <trkpt lat="45.93577" lon="4.71844">
        <ele>179</ele>
        <time>2018-06-30T10:12:27Z</time>
      </trkpt>
      <trkpt lat="45.93579" lon="4.71843">
        <ele>180</ele>
        <time>2018-06-30T10:12:28Z</time>
      </trkpt>
      <trkpt lat="45.93581" lon="4.71841">
        <ele>180</ele>
        <time>2018-06-30T10:12:29Z</time>
      </trkpt>
      <trkpt lat="45.93588" lon="4.71837">
        <ele>179</ele>
        <time>2018-06-30T10:12:30Z</time>
      </trkpt>
      <trkpt lat="45.93595" lon="4.71833">
        <ele>180</ele>
        <time>2018-06-30T10:12:32Z</time>
      </trkpt>
      <trkpt lat="45.93599" lon="4.7183">
        <ele>179</ele>
        <time>2018-06-30T10:12:33Z</time>
      </trkpt>
      <trkpt lat="45.93602" lon="4.71826">
        <ele>179</ele>
        <time>2018-06-30T10:12:35Z</time>
      </trkpt>
      <trkpt lat="45.93607" lon="4.71819">
        <ele>179</ele>
        <time>2018-06-30T10:12:36Z</time>
      </trkpt>
      <trkpt lat="45.93612" lon="4.71812">
        <ele>179</ele>
        <time>2018-06-30T10:12:38Z</time>
      </trkpt>
      <trkpt lat="45.93616" lon="4.71807">
        <ele>179</ele>
        <time>2018-06-30T10:12:39Z</time>
      </trkpt>
      <trkpt lat="45.93623" lon="4.71802">
        <ele>179</ele>
        <time>2018-06-30T10:12:41Z</time>
      </trkpt>
      <trkpt lat="45.9363" lon="4.71801">
        <ele>179</ele>
        <time>2018-06-30T10:12:42Z</time>
      </trkpt>
      <trkpt lat="45.93637" lon="4.71797">
        <ele>179</ele>
        <time>2018-06-30T10:12:44Z</time>
      </trkpt>
      <trkpt lat="45.93642" lon="4.71796">
        <ele>179</ele>
        <time>2018-06-30T10:12:45Z</time>
      </trkpt>
      <trkpt lat="45.9365" lon="4.71793">
        <ele>179</ele>
        <time>2018-06-30T10:12:47Z</time>
      </trkpt>
      <trkpt lat="45.93654" lon="4.71793">
        <ele>179</ele>
        <time>2018-06-30T10:12:48Z</time>
      </trkpt>
      <trkpt lat="45.93662" lon="4.7179">
        <ele>179</ele>
        <time>2018-06-30T10:12:52Z</time>
      </trkpt>
      <trkpt lat="45.93663" lon="4.7179">
        <ele>179</ele>
        <time>2018-06-30T10:12:53Z</time>
      </trkpt>
      <trkpt lat="45.93668" lon="4.71789">
        <ele>177</ele>
        <time>2018-06-30T10:13:21Z</time>
      </trkpt>
      <trkpt lat="45.93668" lon="4.71788">
        <ele>177</ele>
        <time>2018-06-30T10:13:22Z</time>
      </trkpt>
      <trkpt lat="45.93669" lon="4.71786">
        <ele>177</ele>
        <time>2018-06-30T10:13:25Z</time>
      </trkpt>
      <trkpt lat="45.9367" lon="4.71786">
        <ele>177</ele>
        <time>2018-06-30T10:13:26Z</time>
      </trkpt>
      <trkpt lat="45.93666" lon="4.71775">
        <ele>179</ele>
        <time>2018-06-30T10:14:07Z</time>
      </trkpt>
      <trkpt lat="45.93666" lon="4.71774">
        <ele>179</ele>
        <time>2018-06-30T10:14:08Z</time>
      </trkpt>
      <trkpt lat="45.93674" lon="4.71776">
        <ele>177</ele>
        <time>2018-06-30T10:14:28Z</time>
      </trkpt>
      <trkpt lat="45.93676" lon="4.71776">
        <ele>177</ele>
        <time>2018-06-30T10:14:29Z</time>
      </trkpt>
      <trkpt lat="45.93682" lon="4.71782">
        <ele>177</ele>
        <time>2018-06-30T10:14:33Z</time>
      </trkpt>
      <trkpt lat="45.93683" lon="4.71785">
        <ele>177</ele>
        <time>2018-06-30T10:14:34Z</time>
      </trkpt>
      <trkpt lat="45.93687" lon="4.71796">
        <ele>177</ele>
        <time>2018-06-30T10:14:36Z</time>
      </trkpt>
      <trkpt lat="45.93688" lon="4.71802">
        <ele>177</ele>
        <time>2018-06-30T10:14:37Z</time>
      </trkpt>
      <trkpt lat="45.93689" lon="4.71808">
        <ele>176</ele>
        <time>2018-06-30T10:14:38Z</time>
      </trkpt>
      <trkpt lat="45.93692" lon="4.71825">
        <ele>176</ele>
        <time>2018-06-30T10:14:39Z</time>
      </trkpt>
      <trkpt lat="45.93693" lon="4.71831">
        <ele>176</ele>
        <time>2018-06-30T10:14:41Z</time>
      </trkpt>
      <trkpt lat="45.93693" lon="4.71841">
        <ele>175</ele>
        <time>2018-06-30T10:14:42Z</time>
      </trkpt>
      <trkpt lat="45.93692" lon="4.71852">
        <ele>175</ele>
        <time>2018-06-30T10:14:44Z</time>
      </trkpt>
      <trkpt lat="45.93691" lon="4.71854">
        <ele>175</ele>
        <time>2018-06-30T10:14:45Z</time>
      </trkpt>
      <trkpt lat="45.93688" lon="4.71864">
        <ele>175</ele>
        <time>2018-06-30T10:14:48Z</time>
      </trkpt>
      <trkpt lat="45.93685" lon="4.71874">
        <ele>175</ele>
        <time>2018-06-30T10:14:49Z</time>
      </trkpt>
      <trkpt lat="45.93681" lon="4.71883">
        <ele>175</ele>
        <time>2018-06-30T10:14:51Z</time>
      </trkpt>
      <trkpt lat="45.93679" lon="4.71888">
        <ele>175</ele>
        <time>2018-06-30T10:14:52Z</time>
      </trkpt>
      <trkpt lat="45.93676" lon="4.71899">
        <ele>175</ele>
        <time>2018-06-30T10:14:55Z</time>
      </trkpt>
      <trkpt lat="45.93675" lon="4.71901">
        <ele>175</ele>
        <time>2018-06-30T10:14:56Z</time>
      </trkpt>
      <trkpt lat="45.93671" lon="4.71912">
        <ele>175</ele>
        <time>2018-06-30T10:15:04Z</time>
      </trkpt>
      <trkpt lat="45.9367" lon="4.71913">
        <ele>175</ele>
        <time>2018-06-30T10:15:05Z</time>
      </trkpt>
      <trkpt lat="45.93666" lon="4.71924">
        <ele>175</ele>
        <time>2018-06-30T10:15:10Z</time>
      </trkpt>
      <trkpt lat="45.93665" lon="4.71926">
        <ele>175</ele>
        <time>2018-06-30T10:15:11Z</time>
      </trkpt>
      <trkpt lat="45.93661" lon="4.71935">
        <ele>175</ele>
        <time>2018-06-30T10:15:16Z</time>
      </trkpt>
      <trkpt lat="45.93659" lon="4.71946">
        <ele>175</ele>
        <time>2018-06-30T10:15:17Z</time>
      </trkpt>
      <trkpt lat="45.93658" lon="4.71951">
        <ele>175</ele>
        <time>2018-06-30T10:15:18Z</time>
      </trkpt>
      <trkpt lat="45.93656" lon="4.71959">
        <ele>175</ele>
        <time>2018-06-30T10:15:19Z</time>
      </trkpt>
      <trkpt lat="45.93653" lon="4.71965">
        <ele>175</ele>
        <time>2018-06-30T10:15:20Z</time>
      </trkpt>
      <trkpt lat="45.93651" lon="4.71973">
        <ele>175</ele>
        <time>2018-06-30T10:15:21Z</time>
      </trkpt>
      <trkpt lat="45.93647" lon="4.71982">
        <ele>175</ele>
        <time>2018-06-30T10:15:22Z</time>
      </trkpt>
      <trkpt lat="45.93644" lon="4.71989">
        <ele>175</ele>
        <time>2018-06-30T10:15:23Z</time>
      </trkpt>
      <trkpt lat="45.93643" lon="4.71997">
        <ele>175</ele>
        <time>2018-06-30T10:15:24Z</time>
      </trkpt>
      <trkpt lat="45.93639" lon="4.72005">
        <ele>174</ele>
        <time>2018-06-30T10:15:25Z</time>
      </trkpt>
      <trkpt lat="45.93635" lon="4.72012">
        <ele>174</ele>
        <time>2018-06-30T10:15:26Z</time>
      </trkpt>
      <trkpt lat="45.9363" lon="4.72019">
        <ele>174</ele>
        <time>2018-06-30T10:15:27Z</time>
      </trkpt>
      <trkpt lat="45.93625" lon="4.72025">
        <ele>175</ele>
        <time>2018-06-30T10:15:28Z</time>
      </trkpt>
      <trkpt lat="45.93622" lon="4.72032">
        <ele>175</ele>
        <time>2018-06-30T10:15:29Z</time>
      </trkpt>
      <trkpt lat="45.93619" lon="4.72039">
        <ele>175</ele>
        <time>2018-06-30T10:15:30Z</time>
      </trkpt>
      <trkpt lat="45.93612" lon="4.72044">
        <ele>175</ele>
        <time>2018-06-30T10:15:31Z</time>
      </trkpt>
      <trkpt lat="45.93615" lon="4.72052">
        <ele>175</ele>
        <time>2018-06-30T10:15:32Z</time>
      </trkpt>
      <trkpt lat="45.93607" lon="4.72058">
        <ele>175</ele>
        <time>2018-06-30T10:15:33Z</time>
      </trkpt>
      <trkpt lat="45.93605" lon="4.72064">
        <ele>175</ele>
        <time>2018-06-30T10:15:34Z</time>
      </trkpt>
      <trkpt lat="45.93598" lon="4.7207">
        <ele>175</ele>
        <time>2018-06-30T10:15:35Z</time>
      </trkpt>
      <trkpt lat="45.93596" lon="4.72078">
        <ele>175</ele>
        <time>2018-06-30T10:15:36Z</time>
      </trkpt>
      <trkpt lat="45.93595" lon="4.72087">
        <ele>175</ele>
        <time>2018-06-30T10:15:37Z</time>
      </trkpt>
      <trkpt lat="45.936" lon="4.72094">
        <ele>174</ele>
        <time>2018-06-30T10:15:38Z</time>
      </trkpt>
      <trkpt lat="45.93596" lon="4.72103">
        <ele>174</ele>
        <time>2018-06-30T10:15:39Z</time>
      </trkpt>
      <trkpt lat="45.93592" lon="4.72109">
        <ele>174</ele>
        <time>2018-06-30T10:15:40Z</time>
      </trkpt>
      <trkpt lat="45.9359" lon="4.72113">
        <ele>174</ele>
        <time>2018-06-30T10:15:41Z</time>
      </trkpt>
      <trkpt lat="45.93589" lon="4.72116">
        <ele>174</ele>
        <time>2018-06-30T10:15:42Z</time>
      </trkpt>
      <trkpt lat="45.93587" lon="4.72126">
        <ele>174</ele>
        <time>2018-06-30T10:15:43Z</time>
      </trkpt>
      <trkpt lat="45.93582" lon="4.72136">
        <ele>174</ele>
        <time>2018-06-30T10:15:45Z</time>
      </trkpt>
      <trkpt lat="45.93579" lon="4.72144">
        <ele>174</ele>
        <time>2018-06-30T10:15:46Z</time>
      </trkpt>
      <trkpt lat="45.93575" lon="4.7215">
        <ele>174</ele>
        <time>2018-06-30T10:15:47Z</time>
      </trkpt>
      <trkpt lat="45.93574" lon="4.72155">
        <ele>174</ele>
        <time>2018-06-30T10:15:48Z</time>
      </trkpt>
      <trkpt lat="45.9357" lon="4.72162">
        <ele>174</ele>
        <time>2018-06-30T10:15:49Z</time>
      </trkpt>
      <trkpt lat="45.93567" lon="4.72168">
        <ele>173</ele>
        <time>2018-06-30T10:15:50Z</time>
      </trkpt>
      <trkpt lat="45.93571" lon="4.72175">
        <ele>173</ele>
        <time>2018-06-30T10:15:51Z</time>
      </trkpt>
      <trkpt lat="45.93569" lon="4.72182">
        <ele>173</ele>
        <time>2018-06-30T10:15:52Z</time>
      </trkpt>
      <trkpt lat="45.93567" lon="4.72188">
        <ele>173</ele>
        <time>2018-06-30T10:15:53Z</time>
      </trkpt>
      <trkpt lat="45.93558" lon="4.72194">
        <ele>173</ele>
        <time>2018-06-30T10:15:54Z</time>
      </trkpt>
      <trkpt lat="45.93554" lon="4.722">
        <ele>173</ele>
        <time>2018-06-30T10:15:55Z</time>
      </trkpt>
      <trkpt lat="45.93551" lon="4.72206">
        <ele>173</ele>
        <time>2018-06-30T10:15:56Z</time>
      </trkpt>
      <trkpt lat="45.93549" lon="4.72211">
        <ele>173</ele>
        <time>2018-06-30T10:15:57Z</time>
      </trkpt>
      <trkpt lat="45.93545" lon="4.72219">
        <ele>172</ele>
        <time>2018-06-30T10:15:58Z</time>
      </trkpt>
      <trkpt lat="45.93542" lon="4.72226">
        <ele>172</ele>
        <time>2018-06-30T10:15:59Z</time>
      </trkpt>
      <trkpt lat="45.9354" lon="4.72233">
        <ele>172</ele>
        <time>2018-06-30T10:16:00Z</time>
      </trkpt>
      <trkpt lat="45.93538" lon="4.7224">
        <ele>172</ele>
        <time>2018-06-30T10:16:01Z</time>
      </trkpt>
      <trkpt lat="45.93535" lon="4.72245">
        <ele>172</ele>
        <time>2018-06-30T10:16:02Z</time>
      </trkpt>
      <trkpt lat="45.93533" lon="4.72253">
        <ele>172</ele>
        <time>2018-06-30T10:16:03Z</time>
      </trkpt>
      <trkpt lat="45.9353" lon="4.72258">
        <ele>172</ele>
        <time>2018-06-30T10:16:04Z</time>
      </trkpt>
      <trkpt lat="45.93527" lon="4.72264">
        <ele>172</ele>
        <time>2018-06-30T10:16:05Z</time>
      </trkpt>
      <trkpt lat="45.93526" lon="4.7227">
        <ele>172</ele>
        <time>2018-06-30T10:16:06Z</time>
      </trkpt>
      <trkpt lat="45.93523" lon="4.72276">
        <ele>172</ele>
        <time>2018-06-30T10:16:07Z</time>
      </trkpt>
      <trkpt lat="45.9352" lon="4.72282">
        <ele>172</ele>
        <time>2018-06-30T10:16:08Z</time>
      </trkpt>
      <trkpt lat="45.93517" lon="4.72288">
        <ele>172</ele>
        <time>2018-06-30T10:16:09Z</time>
      </trkpt>
      <trkpt lat="45.93515" lon="4.72293">
        <ele>172</ele>
        <time>2018-06-30T10:16:10Z</time>
      </trkpt>
      <trkpt lat="45.93511" lon="4.72299">
        <ele>172</ele>
        <time>2018-06-30T10:16:11Z</time>
      </trkpt>
      <trkpt lat="45.93508" lon="4.72305">
        <ele>173</ele>
        <time>2018-06-30T10:16:12Z</time>
      </trkpt>
      <trkpt lat="45.93505" lon="4.7231">
        <ele>173</ele>
        <time>2018-06-30T10:16:13Z</time>
      </trkpt>
      <trkpt lat="45.935" lon="4.72316">
        <ele>173</ele>
        <time>2018-06-30T10:16:14Z</time>
      </trkpt>
      <trkpt lat="45.93494" lon="4.72323">
        <ele>173</ele>
        <time>2018-06-30T10:16:15Z</time>
      </trkpt>
      <trkpt lat="45.93491" lon="4.72328">
        <ele>173</ele>
        <time>2018-06-30T10:16:16Z</time>
      </trkpt>
      <trkpt lat="45.93487" lon="4.72334">
        <ele>173</ele>
        <time>2018-06-30T10:16:17Z</time>
      </trkpt>
      <trkpt lat="45.93482" lon="4.72341">
        <ele>173</ele>
        <time>2018-06-30T10:16:18Z</time>
      </trkpt>
      <trkpt lat="45.9348" lon="4.72348">
        <ele>173</ele>
        <time>2018-06-30T10:16:19Z</time>
      </trkpt>
      <trkpt lat="45.93473" lon="4.72354">
        <ele>173</ele>
        <time>2018-06-30T10:16:20Z</time>
      </trkpt>
      <trkpt lat="45.93466" lon="4.72356">
        <ele>173</ele>
        <time>2018-06-30T10:16:21Z</time>
      </trkpt>
      <trkpt lat="45.93462" lon="4.72366">
        <ele>173</ele>
        <time>2018-06-30T10:16:22Z</time>
      </trkpt>
      <trkpt lat="45.93457" lon="4.72372">
        <ele>173</ele>
        <time>2018-06-30T10:16:23Z</time>
      </trkpt>
      <trkpt lat="45.93453" lon="4.72376">
        <ele>173</ele>
        <time>2018-06-30T10:16:24Z</time>
      </trkpt>
      <trkpt lat="45.93448" lon="4.72382">
        <ele>173</ele>
        <time>2018-06-30T10:16:25Z</time>
      </trkpt>
      <trkpt lat="45.93443" lon="4.72389">
        <ele>173</ele>
        <time>2018-06-30T10:16:26Z</time>
      </trkpt>
      <trkpt lat="45.93439" lon="4.72394">
        <ele>173</ele>
        <time>2018-06-30T10:16:27Z</time>
      </trkpt>
      <trkpt lat="45.93435" lon="4.72396">
        <ele>173</ele>
        <time>2018-06-30T10:16:28Z</time>
      </trkpt>
      <trkpt lat="45.93428" lon="4.724">
        <ele>174</ele>
        <time>2018-06-30T10:16:30Z</time>
      </trkpt>
      <trkpt lat="45.93425" lon="4.72401">
        <ele>174</ele>
        <time>2018-06-30T10:16:31Z</time>
      </trkpt>
      <trkpt lat="45.93419" lon="4.72403">
        <ele>174</ele>
        <time>2018-06-30T10:16:32Z</time>
      </trkpt>
      <trkpt lat="45.93414" lon="4.72405">
        <ele>174</ele>
        <time>2018-06-30T10:16:33Z</time>
      </trkpt>
      <trkpt lat="45.93408" lon="4.72404">
        <ele>174</ele>
        <time>2018-06-30T10:16:34Z</time>
      </trkpt>
      <trkpt lat="45.93403" lon="4.72405">
        <ele>174</ele>
        <time>2018-06-30T10:16:35Z</time>
      </trkpt>
      <trkpt lat="45.93398" lon="4.72403">
        <ele>174</ele>
        <time>2018-06-30T10:16:36Z</time>
      </trkpt>
      <trkpt lat="45.93393" lon="4.72405">
        <ele>174</ele>
        <time>2018-06-30T10:16:37Z</time>
      </trkpt>
      <trkpt lat="45.93388" lon="4.72406">
        <ele>174</ele>
        <time>2018-06-30T10:16:38Z</time>
      </trkpt>
      <trkpt lat="45.93384" lon="4.72412">
        <ele>174</ele>
        <time>2018-06-30T10:16:39Z</time>
      </trkpt>
      <trkpt lat="45.93382" lon="4.72417">
        <ele>173</ele>
        <time>2018-06-30T10:16:40Z</time>
      </trkpt>
      <trkpt lat="45.9338" lon="4.72423">
        <ele>173</ele>
        <time>2018-06-30T10:16:41Z</time>
      </trkpt>
      <trkpt lat="45.93382" lon="4.72434">
        <ele>173</ele>
        <time>2018-06-30T10:16:42Z</time>
      </trkpt>
      <trkpt lat="45.93382" lon="4.72442">
        <ele>173</ele>
        <time>2018-06-30T10:16:43Z</time>
      </trkpt>
      <trkpt lat="45.93385" lon="4.72453">
        <ele>173</ele>
        <time>2018-06-30T10:16:45Z</time>
      </trkpt>
      <trkpt lat="45.93385" lon="4.7246">
        <ele>173</ele>
        <time>2018-06-30T10:16:46Z</time>
      </trkpt>
      <trkpt lat="45.93382" lon="4.72469">
        <ele>173</ele>
        <time>2018-06-30T10:16:47Z</time>
      </trkpt>
      <trkpt lat="45.93378" lon="4.72473">
        <ele>173</ele>
        <time>2018-06-30T10:16:48Z</time>
      </trkpt>
      <trkpt lat="45.93373" lon="4.72479">
        <ele>173</ele>
        <time>2018-06-30T10:16:49Z</time>
      </trkpt>
      <trkpt lat="45.93369" lon="4.72484">
        <ele>173</ele>
        <time>2018-06-30T10:16:50Z</time>
      </trkpt>
      <trkpt lat="45.93365" lon="4.72489">
        <ele>173</ele>
        <time>2018-06-30T10:16:51Z</time>
      </trkpt>
      <trkpt lat="45.93361" lon="4.72493">
        <ele>173</ele>
        <time>2018-06-30T10:16:52Z</time>
      </trkpt>
      <trkpt lat="45.93357" lon="4.72498">
        <ele>173</ele>
        <time>2018-06-30T10:16:53Z</time>
      </trkpt>
      <trkpt lat="45.9335" lon="4.72502">
        <ele>172</ele>
        <time>2018-06-30T10:16:54Z</time>
      </trkpt>
      <trkpt lat="45.93346" lon="4.72508">
        <ele>172</ele>
        <time>2018-06-30T10:16:55Z</time>
      </trkpt>
      <trkpt lat="45.93341" lon="4.72514">
        <ele>172</ele>
        <time>2018-06-30T10:16:56Z</time>
      </trkpt>
      <trkpt lat="45.93337" lon="4.72519">
        <ele>172</ele>
        <time>2018-06-30T10:16:57Z</time>
      </trkpt>
      <trkpt lat="45.93333" lon="4.72524">
        <ele>172</ele>
        <time>2018-06-30T10:16:58Z</time>
      </trkpt>
      <trkpt lat="45.93329" lon="4.72534">
        <ele>172</ele>
        <time>2018-06-30T10:16:59Z</time>
      </trkpt>
      <trkpt lat="45.93326" lon="4.7254">
        <ele>172</ele>
        <time>2018-06-30T10:17:00Z</time>
      </trkpt>
      <trkpt lat="45.9332" lon="4.72545">
        <ele>172</ele>
        <time>2018-06-30T10:17:01Z</time>
      </trkpt>
      <trkpt lat="45.93316" lon="4.72549">
        <ele>172</ele>
        <time>2018-06-30T10:17:02Z</time>
      </trkpt>
      <trkpt lat="45.93312" lon="4.72553">
        <ele>172</ele>
        <time>2018-06-30T10:17:03Z</time>
      </trkpt>
      <trkpt lat="45.93308" lon="4.72557">
        <ele>172</ele>
        <time>2018-06-30T10:17:04Z</time>
      </trkpt>
      <trkpt lat="45.93303" lon="4.72565">
        <ele>171</ele>
        <time>2018-06-30T10:17:05Z</time>
      </trkpt>
      <trkpt lat="45.93297" lon="4.72571">
        <ele>171</ele>
        <time>2018-06-30T10:17:06Z</time>
      </trkpt>
      <trkpt lat="45.93291" lon="4.72576">
        <ele>171</ele>
        <time>2018-06-30T10:17:07Z</time>
      </trkpt>
      <trkpt lat="45.93286" lon="4.72582">
        <ele>171</ele>
        <time>2018-06-30T10:17:08Z</time>
      </trkpt>
      <trkpt lat="45.93282" lon="4.72588">
        <ele>170</ele>
        <time>2018-06-30T10:17:09Z</time>
      </trkpt>
      <trkpt lat="45.93278" lon="4.72592">
        <ele>170</ele>
        <time>2018-06-30T10:17:10Z</time>
      </trkpt>
      <trkpt lat="45.93272" lon="4.72598">
        <ele>170</ele>
        <time>2018-06-30T10:17:11Z</time>
      </trkpt>
      <trkpt lat="45.93268" lon="4.72603">
        <ele>170</ele>
        <time>2018-06-30T10:17:12Z</time>
      </trkpt>
      <trkpt lat="45.93264" lon="4.72607">
        <ele>170</ele>
        <time>2018-06-30T10:17:13Z</time>
      </trkpt>
      <trkpt lat="45.93258" lon="4.72613">
        <ele>170</ele>
        <time>2018-06-30T10:17:14Z</time>
      </trkpt>
      <trkpt lat="45.93256" lon="4.72618">
        <ele>170</ele>
        <time>2018-06-30T10:17:15Z</time>
      </trkpt>
      <trkpt lat="45.93251" lon="4.72623">
        <ele>170</ele>
        <time>2018-06-30T10:17:16Z</time>
      </trkpt>
      <trkpt lat="45.93244" lon="4.7263">
        <ele>170</ele>
        <time>2018-06-30T10:17:18Z</time>
      </trkpt>
      <trkpt lat="45.9324" lon="4.72634">
        <ele>170</ele>
        <time>2018-06-30T10:17:19Z</time>
      </trkpt>
      <trkpt lat="45.93238" lon="4.72638">
        <ele>170</ele>
        <time>2018-06-30T10:17:20Z</time>
      </trkpt>
      <trkpt lat="45.93234" lon="4.72643">
        <ele>170</ele>
        <time>2018-06-30T10:17:21Z</time>
      </trkpt>
      <trkpt lat="45.93228" lon="4.72646">
        <ele>170</ele>
        <time>2018-06-30T10:17:22Z</time>
      </trkpt>
      <trkpt lat="45.93226" lon="4.72651">
        <ele>170</ele>
        <time>2018-06-30T10:17:23Z</time>
      </trkpt>
      <trkpt lat="45.93222" lon="4.72656">
        <ele>170</ele>
        <time>2018-06-30T10:17:24Z</time>
      </trkpt>
      <trkpt lat="45.93219" lon="4.7266">
        <ele>170</ele>
        <time>2018-06-30T10:17:25Z</time>
      </trkpt>
      <trkpt lat="45.93216" lon="4.72665">
        <ele>170</ele>
        <time>2018-06-30T10:17:26Z</time>
      </trkpt>
      <trkpt lat="45.93211" lon="4.7267">
        <ele>169</ele>
        <time>2018-06-30T10:17:27Z</time>
      </trkpt>
      <trkpt lat="45.93206" lon="4.72674">
        <ele>169</ele>
        <time>2018-06-30T10:17:28Z</time>
      </trkpt>
      <trkpt lat="45.93202" lon="4.72679">
        <ele>169</ele>
        <time>2018-06-30T10:17:29Z</time>
      </trkpt>
      <trkpt lat="45.93196" lon="4.72687">
        <ele>169</ele>
        <time>2018-06-30T10:17:31Z</time>
      </trkpt>
      <trkpt lat="45.93193" lon="4.72692">
        <ele>169</ele>
        <time>2018-06-30T10:17:32Z</time>
      </trkpt>
      <trkpt lat="45.93188" lon="4.72696">
        <ele>169</ele>
        <time>2018-06-30T10:17:33Z</time>
      </trkpt>
      <trkpt lat="45.93184" lon="4.72702">
        <ele>169</ele>
        <time>2018-06-30T10:17:34Z</time>
      </trkpt>
      <trkpt lat="45.93179" lon="4.72707">
        <ele>169</ele>
        <time>2018-06-30T10:17:35Z</time>
      </trkpt>
      <trkpt lat="45.93175" lon="4.72713">
        <ele>170</ele>
        <time>2018-06-30T10:17:36Z</time>
      </trkpt>
      <trkpt lat="45.93171" lon="4.72718">
        <ele>170</ele>
        <time>2018-06-30T10:17:37Z</time>
      </trkpt>
      <trkpt lat="45.93165" lon="4.72724">
        <ele>170</ele>
        <time>2018-06-30T10:17:38Z</time>
      </trkpt>
      <trkpt lat="45.93159" lon="4.7273">
        <ele>170</ele>
        <time>2018-06-30T10:17:39Z</time>
      </trkpt>
      <trkpt lat="45.93154" lon="4.72735">
        <ele>170</ele>
        <time>2018-06-30T10:17:40Z</time>
      </trkpt>
      <trkpt lat="45.93149" lon="4.72741">
        <ele>170</ele>
        <time>2018-06-30T10:17:41Z</time>
      </trkpt>
      <trkpt lat="45.93144" lon="4.72748">
        <ele>170</ele>
        <time>2018-06-30T10:17:42Z</time>
      </trkpt>
      <trkpt lat="45.9314" lon="4.72754">
        <ele>171</ele>
        <time>2018-06-30T10:17:43Z</time>
      </trkpt>
      <trkpt lat="45.93135" lon="4.7276">
        <ele>171</ele>
        <time>2018-06-30T10:17:44Z</time>
      </trkpt>
      <trkpt lat="45.9313" lon="4.72768">
        <ele>171</ele>
        <time>2018-06-30T10:17:45Z</time>
      </trkpt>
      <trkpt lat="45.93125" lon="4.72774">
        <ele>171</ele>
        <time>2018-06-30T10:17:46Z</time>
      </trkpt>
      <trkpt lat="45.9312" lon="4.72779">
        <ele>171</ele>
        <time>2018-06-30T10:17:47Z</time>
      </trkpt>
      <trkpt lat="45.93115" lon="4.72786">
        <ele>171</ele>
        <time>2018-06-30T10:17:48Z</time>
      </trkpt>
      <trkpt lat="45.93109" lon="4.7279">
        <ele>171</ele>
        <time>2018-06-30T10:17:49Z</time>
      </trkpt>
      <trkpt lat="45.93104" lon="4.72796">
        <ele>171</ele>
        <time>2018-06-30T10:17:50Z</time>
      </trkpt>
      <trkpt lat="45.93099" lon="4.72801">
        <ele>171</ele>
        <time>2018-06-30T10:17:51Z</time>
      </trkpt>
      <trkpt lat="45.93096" lon="4.72809">
        <ele>172</ele>
        <time>2018-06-30T10:17:52Z</time>
      </trkpt>
      <trkpt lat="45.9309" lon="4.72814">
        <ele>172</ele>
        <time>2018-06-30T10:17:53Z</time>
      </trkpt>
      <trkpt lat="45.93085" lon="4.7282">
        <ele>172</ele>
        <time>2018-06-30T10:17:54Z</time>
      </trkpt>
      <trkpt lat="45.9308" lon="4.72825">
        <ele>173</ele>
        <time>2018-06-30T10:17:55Z</time>
      </trkpt>
      <trkpt lat="45.93075" lon="4.7283">
        <ele>173</ele>
        <time>2018-06-30T10:17:56Z</time>
      </trkpt>
      <trkpt lat="45.93059" lon="4.72846">
        <ele>172</ele>
        <time>2018-06-30T10:17:59Z</time>
      </trkpt>
      <trkpt lat="45.93047" lon="4.72854">
        <ele>172</ele>
        <time>2018-06-30T10:18:02Z</time>
      </trkpt>
      <trkpt lat="45.9304" lon="4.72868">
        <ele>172</ele>
        <time>2018-06-30T10:18:03Z</time>
      </trkpt>
      <trkpt lat="45.93037" lon="4.72874">
        <ele>172</ele>
        <time>2018-06-30T10:18:04Z</time>
      </trkpt>
      <trkpt lat="45.93035" lon="4.72878">
        <ele>172</ele>
        <time>2018-06-30T10:18:05Z</time>
      </trkpt>
      <trkpt lat="45.93028" lon="4.72883">
        <ele>172</ele>
        <time>2018-06-30T10:18:06Z</time>
      </trkpt>
      <trkpt lat="45.93024" lon="4.7289">
        <ele>172</ele>
        <time>2018-06-30T10:18:07Z</time>
      </trkpt>
      <trkpt lat="45.93021" lon="4.72896">
        <ele>172</ele>
        <time>2018-06-30T10:18:08Z</time>
      </trkpt>
      <trkpt lat="45.93017" lon="4.72901">
        <ele>172</ele>
        <time>2018-06-30T10:18:09Z</time>
      </trkpt>
      <trkpt lat="45.93012" lon="4.72908">
        <ele>171</ele>
        <time>2018-06-30T10:18:10Z</time>
      </trkpt>
      <trkpt lat="45.93008" lon="4.72912">
        <ele>171</ele>
        <time>2018-06-30T10:18:11Z</time>
      </trkpt>
      <trkpt lat="45.93004" lon="4.72916">
        <ele>171</ele>
        <time>2018-06-30T10:18:12Z</time>
      </trkpt>
      <trkpt lat="45.93" lon="4.72921">
        <ele>171</ele>
        <time>2018-06-30T10:18:13Z</time>
      </trkpt>
      <trkpt lat="45.92996" lon="4.72925">
        <ele>171</ele>
        <time>2018-06-30T10:18:14Z</time>
      </trkpt>
      <trkpt lat="45.92992" lon="4.7293">
        <ele>171</ele>
        <time>2018-06-30T10:18:15Z</time>
      </trkpt>
      <trkpt lat="45.92988" lon="4.72936">
        <ele>171</ele>
        <time>2018-06-30T10:18:16Z</time>
      </trkpt>
      <trkpt lat="45.92984" lon="4.72941">
        <ele>171</ele>
        <time>2018-06-30T10:18:17Z</time>
      </trkpt>
      <trkpt lat="45.9298" lon="4.72946">
        <ele>171</ele>
        <time>2018-06-30T10:18:18Z</time>
      </trkpt>
      <trkpt lat="45.92977" lon="4.72951">
        <ele>171</ele>
        <time>2018-06-30T10:18:19Z</time>
      </trkpt>
      <trkpt lat="45.92973" lon="4.72956">
        <ele>171</ele>
        <time>2018-06-30T10:18:20Z</time>
      </trkpt>
      <trkpt lat="45.92968" lon="4.72961">
        <ele>171</ele>
        <time>2018-06-30T10:18:21Z</time>
      </trkpt>
      <trkpt lat="45.92963" lon="4.72967">
        <ele>171</ele>
        <time>2018-06-30T10:18:22Z</time>
      </trkpt>
      <trkpt lat="45.92958" lon="4.72969">
        <ele>171</ele>
        <time>2018-06-30T10:18:23Z</time>
      </trkpt>
      <trkpt lat="45.92955" lon="4.72975">
        <ele>171</ele>
        <time>2018-06-30T10:18:24Z</time>
      </trkpt>
      <trkpt lat="45.92951" lon="4.7298">
        <ele>171</ele>
        <time>2018-06-30T10:18:25Z</time>
      </trkpt>
      <trkpt lat="45.92948" lon="4.72986">
        <ele>171</ele>
        <time>2018-06-30T10:18:26Z</time>
      </trkpt>
      <trkpt lat="45.92943" lon="4.72991">
        <ele>171</ele>
        <time>2018-06-30T10:18:27Z</time>
      </trkpt>
      <trkpt lat="45.92939" lon="4.72997">
        <ele>171</ele>
        <time>2018-06-30T10:18:28Z</time>
      </trkpt>
      <trkpt lat="45.92935" lon="4.73002">
        <ele>171</ele>
        <time>2018-06-30T10:18:29Z</time>
      </trkpt>
      <trkpt lat="45.92931" lon="4.73008">
        <ele>171</ele>
        <time>2018-06-30T10:18:30Z</time>
      </trkpt>
      <trkpt lat="45.92924" lon="4.73015">
        <ele>172</ele>
        <time>2018-06-30T10:18:31Z</time>
      </trkpt>
      <trkpt lat="45.92922" lon="4.73023">
        <ele>171</ele>
        <time>2018-06-30T10:18:32Z</time>
      </trkpt>
      <trkpt lat="45.92918" lon="4.73029">
        <ele>172</ele>
        <time>2018-06-30T10:18:33Z</time>
      </trkpt>
      <trkpt lat="45.92915" lon="4.73035">
        <ele>172</ele>
        <time>2018-06-30T10:18:34Z</time>
      </trkpt>
      <trkpt lat="45.92911" lon="4.7304">
        <ele>172</ele>
        <time>2018-06-30T10:18:35Z</time>
      </trkpt>
      <trkpt lat="45.92908" lon="4.73044">
        <ele>172</ele>
        <time>2018-06-30T10:18:36Z</time>
      </trkpt>
      <trkpt lat="45.92904" lon="4.73048">
        <ele>172</ele>
        <time>2018-06-30T10:18:37Z</time>
      </trkpt>
      <trkpt lat="45.929" lon="4.73054">
        <ele>172</ele>
        <time>2018-06-30T10:18:38Z</time>
      </trkpt>
      <trkpt lat="45.92897" lon="4.73058">
        <ele>172</ele>
        <time>2018-06-30T10:18:39Z</time>
      </trkpt>
      <trkpt lat="45.92893" lon="4.73063">
        <ele>172</ele>
        <time>2018-06-30T10:18:40Z</time>
      </trkpt>
      <trkpt lat="45.9289" lon="4.73069">
        <ele>172</ele>
        <time>2018-06-30T10:18:41Z</time>
      </trkpt>
      <trkpt lat="45.92887" lon="4.73073">
        <ele>172</ele>
        <time>2018-06-30T10:18:42Z</time>
      </trkpt>
      <trkpt lat="45.92883" lon="4.73078">
        <ele>172</ele>
        <time>2018-06-30T10:18:43Z</time>
      </trkpt>
      <trkpt lat="45.92879" lon="4.73083">
        <ele>172</ele>
        <time>2018-06-30T10:18:44Z</time>
      </trkpt>
      <trkpt lat="45.92876" lon="4.7309">
        <ele>172</ele>
        <time>2018-06-30T10:18:45Z</time>
      </trkpt>
      <trkpt lat="45.92873" lon="4.73095">
        <ele>172</ele>
        <time>2018-06-30T10:18:46Z</time>
      </trkpt>
      <trkpt lat="45.92869" lon="4.73101">
        <ele>172</ele>
        <time>2018-06-30T10:18:47Z</time>
      </trkpt>
      <trkpt lat="45.92865" lon="4.73106">
        <ele>171</ele>
        <time>2018-06-30T10:18:48Z</time>
      </trkpt>
      <trkpt lat="45.92862" lon="4.73109">
        <ele>171</ele>
        <time>2018-06-30T10:18:49Z</time>
      </trkpt>
      <trkpt lat="45.92856" lon="4.73111">
        <ele>171</ele>
        <time>2018-06-30T10:18:51Z</time>
      </trkpt>
      <trkpt lat="45.92851" lon="4.73109">
        <ele>171</ele>
        <time>2018-06-30T10:18:52Z</time>
      </trkpt>
      <trkpt lat="45.92852" lon="4.73101">
        <ele>171</ele>
        <time>2018-06-30T10:18:53Z</time>
      </trkpt>
      <trkpt lat="45.92851" lon="4.73095">
        <ele>171</ele>
        <time>2018-06-30T10:18:54Z</time>
      </trkpt>
      <trkpt lat="45.92851" lon="4.73089">
        <ele>171</ele>
        <time>2018-06-30T10:18:55Z</time>
      </trkpt>
      <trkpt lat="45.92849" lon="4.73082">
        <ele>171</ele>
        <time>2018-06-30T10:18:56Z</time>
      </trkpt>
      <trkpt lat="45.92848" lon="4.73074">
        <ele>171</ele>
        <time>2018-06-30T10:18:57Z</time>
      </trkpt>
      <trkpt lat="45.92847" lon="4.73066">
        <ele>171</ele>
        <time>2018-06-30T10:18:58Z</time>
      </trkpt>
      <trkpt lat="45.92845" lon="4.73059">
        <ele>171</ele>
        <time>2018-06-30T10:18:59Z</time>
      </trkpt>
      <trkpt lat="45.92843" lon="4.73052">
        <ele>171</ele>
        <time>2018-06-30T10:19:00Z</time>
      </trkpt>
      <trkpt lat="45.92842" lon="4.73045">
        <ele>171</ele>
        <time>2018-06-30T10:19:01Z</time>
      </trkpt>
      <trkpt lat="45.92842" lon="4.73038">
        <ele>171</ele>
        <time>2018-06-30T10:19:02Z</time>
      </trkpt>
      <trkpt lat="45.92841" lon="4.73032">
        <ele>171</ele>
        <time>2018-06-30T10:19:03Z</time>
      </trkpt>
      <trkpt lat="45.92841" lon="4.73024">
        <ele>171</ele>
        <time>2018-06-30T10:19:04Z</time>
      </trkpt>
      <trkpt lat="45.92838" lon="4.73016">
        <ele>171</ele>
        <time>2018-06-30T10:19:05Z</time>
      </trkpt>
      <trkpt lat="45.92836" lon="4.73007">
        <ele>170</ele>
        <time>2018-06-30T10:19:06Z</time>
      </trkpt>
      <trkpt lat="45.92835" lon="4.72997">
        <ele>170</ele>
        <time>2018-06-30T10:19:07Z</time>
      </trkpt>
      <trkpt lat="45.92833" lon="4.72989">
        <ele>170</ele>
        <time>2018-06-30T10:19:08Z</time>
      </trkpt>
      <trkpt lat="45.92833" lon="4.72982">
        <ele>170</ele>
        <time>2018-06-30T10:19:09Z</time>
      </trkpt>
      <trkpt lat="45.92835" lon="4.72975">
        <ele>171</ele>
        <time>2018-06-30T10:19:10Z</time>
      </trkpt>
      <trkpt lat="45.92831" lon="4.72966">
        <ele>170</ele>
        <time>2018-06-30T10:19:11Z</time>
      </trkpt>
      <trkpt lat="45.9283" lon="4.72959">
        <ele>170</ele>
        <time>2018-06-30T10:19:12Z</time>
      </trkpt>
      <trkpt lat="45.92829" lon="4.7295">
        <ele>170</ele>
        <time>2018-06-30T10:19:13Z</time>
      </trkpt>
      <trkpt lat="45.92828" lon="4.72943">
        <ele>170</ele>
        <time>2018-06-30T10:19:14Z</time>
      </trkpt>
      <trkpt lat="45.92828" lon="4.72937">
        <ele>170</ele>
        <time>2018-06-30T10:19:15Z</time>
      </trkpt>
      <trkpt lat="45.92827" lon="4.72929">
        <ele>170</ele>
        <time>2018-06-30T10:19:16Z</time>
      </trkpt>
      <trkpt lat="45.92826" lon="4.72922">
        <ele>170</ele>
        <time>2018-06-30T10:19:17Z</time>
      </trkpt>
      <trkpt lat="45.92826" lon="4.72914">
        <ele>170</ele>
        <time>2018-06-30T10:19:18Z</time>
      </trkpt>
      <trkpt lat="45.92826" lon="4.72907">
        <ele>170</ele>
        <time>2018-06-30T10:19:19Z</time>
      </trkpt>
      <trkpt lat="45.92825" lon="4.72898">
        <ele>170</ele>
        <time>2018-06-30T10:19:20Z</time>
      </trkpt>
      <trkpt lat="45.92822" lon="4.7289">
        <ele>170</ele>
        <time>2018-06-30T10:19:21Z</time>
      </trkpt>
      <trkpt lat="45.92821" lon="4.72881">
        <ele>170</ele>
        <time>2018-06-30T10:19:22Z</time>
      </trkpt>
      <trkpt lat="45.92819" lon="4.72873">
        <ele>170</ele>
        <time>2018-06-30T10:19:23Z</time>
      </trkpt>
      <trkpt lat="45.92818" lon="4.72865">
        <ele>170</ele>
        <time>2018-06-30T10:19:24Z</time>
      </trkpt>
      <trkpt lat="45.92816" lon="4.72857">
        <ele>170</ele>
        <time>2018-06-30T10:19:25Z</time>
      </trkpt>
      <trkpt lat="45.92815" lon="4.7285">
        <ele>170</ele>
        <time>2018-06-30T10:19:26Z</time>
      </trkpt>
      <trkpt lat="45.92814" lon="4.72842">
        <ele>170</ele>
        <time>2018-06-30T10:19:27Z</time>
      </trkpt>
      <trkpt lat="45.92813" lon="4.72834">
        <ele>170</ele>
        <time>2018-06-30T10:19:28Z</time>
      </trkpt>
      <trkpt lat="45.92811" lon="4.72827">
        <ele>171</ele>
        <time>2018-06-30T10:19:29Z</time>
      </trkpt>
      <trkpt lat="45.92811" lon="4.7282">
        <ele>171</ele>
        <time>2018-06-30T10:19:30Z</time>
      </trkpt>
      <trkpt lat="45.9281" lon="4.72809">
        <ele>171</ele>
        <time>2018-06-30T10:19:32Z</time>
      </trkpt>
      <trkpt lat="45.92809" lon="4.72802">
        <ele>171</ele>
        <time>2018-06-30T10:19:33Z</time>
      </trkpt>
      <trkpt lat="45.92805" lon="4.72791">
        <ele>171</ele>
        <time>2018-06-30T10:19:35Z</time>
      </trkpt>
      <trkpt lat="45.92801" lon="4.72789">
        <ele>171</ele>
        <time>2018-06-30T10:19:36Z</time>
      </trkpt>
      <trkpt lat="45.92797" lon="4.72789">
        <ele>171</ele>
        <time>2018-06-30T10:19:37Z</time>
      </trkpt>
      <trkpt lat="45.92792" lon="4.72791">
        <ele>171</ele>
        <time>2018-06-30T10:19:38Z</time>
      </trkpt>
      <trkpt lat="45.92788" lon="4.72795">
        <ele>170</ele>
        <time>2018-06-30T10:19:39Z</time>
      </trkpt>
      <trkpt lat="45.92783" lon="4.72796">
        <ele>170</ele>
        <time>2018-06-30T10:19:40Z</time>
      </trkpt>
      <trkpt lat="45.92779" lon="4.72798">
        <ele>170</ele>
        <time>2018-06-30T10:19:41Z</time>
      </trkpt>
      <trkpt lat="45.92774" lon="4.72801">
        <ele>170</ele>
        <time>2018-06-30T10:19:42Z</time>
      </trkpt>
      <trkpt lat="45.9277" lon="4.72803">
        <ele>170</ele>
        <time>2018-06-30T10:19:43Z</time>
      </trkpt>
      <trkpt lat="45.92765" lon="4.72806">
        <ele>170</ele>
        <time>2018-06-30T10:19:44Z</time>
      </trkpt>
      <trkpt lat="45.92759" lon="4.7281">
        <ele>170</ele>
        <time>2018-06-30T10:19:45Z</time>
      </trkpt>
      <trkpt lat="45.92753" lon="4.72815">
        <ele>170</ele>
        <time>2018-06-30T10:19:46Z</time>
      </trkpt>
      <trkpt lat="45.92748" lon="4.7282">
        <ele>169</ele>
        <time>2018-06-30T10:19:47Z</time>
      </trkpt>
      <trkpt lat="45.92743" lon="4.72825">
        <ele>169</ele>
        <time>2018-06-30T10:19:48Z</time>
      </trkpt>
      <trkpt lat="45.92735" lon="4.7283">
        <ele>169</ele>
        <time>2018-06-30T10:19:50Z</time>
      </trkpt>
      <trkpt lat="45.9273" lon="4.72836">
        <ele>169</ele>
        <time>2018-06-30T10:19:51Z</time>
      </trkpt>
      <trkpt lat="45.92726" lon="4.72841">
        <ele>169</ele>
        <time>2018-06-30T10:19:52Z</time>
      </trkpt>
      <trkpt lat="45.92721" lon="4.72844">
        <ele>169</ele>
        <time>2018-06-30T10:19:53Z</time>
      </trkpt>
      <trkpt lat="45.92715" lon="4.72848">
        <ele>169</ele>
        <time>2018-06-30T10:19:54Z</time>
      </trkpt>
      <trkpt lat="45.92709" lon="4.72853">
        <ele>169</ele>
        <time>2018-06-30T10:19:55Z</time>
      </trkpt>
      <trkpt lat="45.92705" lon="4.72858">
        <ele>169</ele>
        <time>2018-06-30T10:19:56Z</time>
      </trkpt>
      <trkpt lat="45.927" lon="4.72861">
        <ele>169</ele>
        <time>2018-06-30T10:19:57Z</time>
      </trkpt>
      <trkpt lat="45.92692" lon="4.72867">
        <ele>169</ele>
        <time>2018-06-30T10:19:59Z</time>
      </trkpt>
      <trkpt lat="45.92686" lon="4.72871">
        <ele>169</ele>
        <time>2018-06-30T10:20:00Z</time>
      </trkpt>
      <trkpt lat="45.92683" lon="4.72876">
        <ele>170</ele>
        <time>2018-06-30T10:20:01Z</time>
      </trkpt>
      <trkpt lat="45.92678" lon="4.72881">
        <ele>170</ele>
        <time>2018-06-30T10:20:02Z</time>
      </trkpt>
      <trkpt lat="45.92673" lon="4.72885">
        <ele>170</ele>
        <time>2018-06-30T10:20:03Z</time>
      </trkpt>
      <trkpt lat="45.92667" lon="4.72889">
        <ele>170</ele>
        <time>2018-06-30T10:20:04Z</time>
      </trkpt>
      <trkpt lat="45.92661" lon="4.72892">
        <ele>170</ele>
        <time>2018-06-30T10:20:05Z</time>
      </trkpt>
      <trkpt lat="45.92656" lon="4.72896">
        <ele>170</ele>
        <time>2018-06-30T10:20:06Z</time>
      </trkpt>
      <trkpt lat="45.92651" lon="4.729">
        <ele>170</ele>
        <time>2018-06-30T10:20:07Z</time>
      </trkpt>
      <trkpt lat="45.92646" lon="4.72903">
        <ele>170</ele>
        <time>2018-06-30T10:20:08Z</time>
      </trkpt>
      <trkpt lat="45.92642" lon="4.72908">
        <ele>169</ele>
        <time>2018-06-30T10:20:09Z</time>
      </trkpt>
      <trkpt lat="45.92637" lon="4.72913">
        <ele>169</ele>
        <time>2018-06-30T10:20:10Z</time>
      </trkpt>
      <trkpt lat="45.92633" lon="4.72917">
        <ele>170</ele>
        <time>2018-06-30T10:20:11Z</time>
      </trkpt>
      <trkpt lat="45.92628" lon="4.72921">
        <ele>170</ele>
        <time>2018-06-30T10:20:12Z</time>
      </trkpt>
      <trkpt lat="45.92623" lon="4.72925">
        <ele>169</ele>
        <time>2018-06-30T10:20:13Z</time>
      </trkpt>
      <trkpt lat="45.92617" lon="4.7293">
        <ele>169</ele>
        <time>2018-06-30T10:20:14Z</time>
      </trkpt>
      <trkpt lat="45.92612" lon="4.72934">
        <ele>169</ele>
        <time>2018-06-30T10:20:15Z</time>
      </trkpt>
      <trkpt lat="45.92607" lon="4.72938">
        <ele>169</ele>
        <time>2018-06-30T10:20:16Z</time>
      </trkpt>
      <trkpt lat="45.92604" lon="4.72944">
        <ele>169</ele>
        <time>2018-06-30T10:20:17Z</time>
      </trkpt>
      <trkpt lat="45.926" lon="4.72948">
        <ele>169</ele>
        <time>2018-06-30T10:20:18Z</time>
      </trkpt>
      <trkpt lat="45.92596" lon="4.72953">
        <ele>169</ele>
        <time>2018-06-30T10:20:19Z</time>
      </trkpt>
      <trkpt lat="45.92593" lon="4.72958">
        <ele>169</ele>
        <time>2018-06-30T10:20:20Z</time>
      </trkpt>
      <trkpt lat="45.92589" lon="4.72965">
        <ele>169</ele>
        <time>2018-06-30T10:20:21Z</time>
      </trkpt>
      <trkpt lat="45.92585" lon="4.72971">
        <ele>169</ele>
        <time>2018-06-30T10:20:22Z</time>
      </trkpt>
      <trkpt lat="45.92582" lon="4.72978">
        <ele>169</ele>
        <time>2018-06-30T10:20:23Z</time>
      </trkpt>
      <trkpt lat="45.92577" lon="4.72981">
        <ele>169</ele>
        <time>2018-06-30T10:20:24Z</time>
      </trkpt>
      <trkpt lat="45.92572" lon="4.72987">
        <ele>169</ele>
        <time>2018-06-30T10:20:25Z</time>
      </trkpt>
      <trkpt lat="45.92567" lon="4.72992">
        <ele>169</ele>
        <time>2018-06-30T10:20:26Z</time>
      </trkpt>
      <trkpt lat="45.92562" lon="4.72997">
        <ele>169</ele>
        <time>2018-06-30T10:20:27Z</time>
      </trkpt>
      <trkpt lat="45.92557" lon="4.73004">
        <ele>169</ele>
        <time>2018-06-30T10:20:28Z</time>
      </trkpt>
      <trkpt lat="45.9255" lon="4.73006">
        <ele>169</ele>
        <time>2018-06-30T10:20:29Z</time>
      </trkpt>
      <trkpt lat="45.92545" lon="4.7301">
        <ele>169</ele>
        <time>2018-06-30T10:20:30Z</time>
      </trkpt>
      <trkpt lat="45.92541" lon="4.73015">
        <ele>169</ele>
        <time>2018-06-30T10:20:31Z</time>
      </trkpt>
      <trkpt lat="45.92538" lon="4.73023">
        <ele>169</ele>
        <time>2018-06-30T10:20:32Z</time>
      </trkpt>
      <trkpt lat="45.92533" lon="4.73026">
        <ele>169</ele>
        <time>2018-06-30T10:20:33Z</time>
      </trkpt>
      <trkpt lat="45.92528" lon="4.7303">
        <ele>169</ele>
        <time>2018-06-30T10:20:34Z</time>
      </trkpt>
      <trkpt lat="45.92523" lon="4.73033">
        <ele>169</ele>
        <time>2018-06-30T10:20:35Z</time>
      </trkpt>
      <trkpt lat="45.92519" lon="4.73037">
        <ele>169</ele>
        <time>2018-06-30T10:20:36Z</time>
      </trkpt>
      <trkpt lat="45.92513" lon="4.73041">
        <ele>169</ele>
        <time>2018-06-30T10:20:37Z</time>
      </trkpt>
      <trkpt lat="45.92508" lon="4.73045">
        <ele>170</ele>
        <time>2018-06-30T10:20:38Z</time>
      </trkpt>
      <trkpt lat="45.92504" lon="4.73049">
        <ele>170</ele>
        <time>2018-06-30T10:20:39Z</time>
      </trkpt>
      <trkpt lat="45.92498" lon="4.73054">
        <ele>170</ele>
        <time>2018-06-30T10:20:40Z</time>
      </trkpt>
      <trkpt lat="45.92492" lon="4.73058">
        <ele>170</ele>
        <time>2018-06-30T10:20:41Z</time>
      </trkpt>
      <trkpt lat="45.92488" lon="4.73062">
        <ele>170</ele>
        <time>2018-06-30T10:20:42Z</time>
      </trkpt>
      <trkpt lat="45.92483" lon="4.73066">
        <ele>170</ele>
        <time>2018-06-30T10:20:43Z</time>
      </trkpt>
      <trkpt lat="45.92478" lon="4.7307">
        <ele>170</ele>
        <time>2018-06-30T10:20:44Z</time>
      </trkpt>
      <trkpt lat="45.92475" lon="4.73074">
        <ele>170</ele>
        <time>2018-06-30T10:20:45Z</time>
      </trkpt>
      <trkpt lat="45.9247" lon="4.73078">
        <ele>170</ele>
        <time>2018-06-30T10:20:46Z</time>
      </trkpt>
      <trkpt lat="45.92466" lon="4.73082">
        <ele>170</ele>
        <time>2018-06-30T10:20:47Z</time>
      </trkpt>
      <trkpt lat="45.92463" lon="4.73086">
        <ele>170</ele>
        <time>2018-06-30T10:20:48Z</time>
      </trkpt>
      <trkpt lat="45.92457" lon="4.73089">
        <ele>170</ele>
        <time>2018-06-30T10:20:49Z</time>
      </trkpt>
      <trkpt lat="45.92453" lon="4.73093">
        <ele>170</ele>
        <time>2018-06-30T10:20:50Z</time>
      </trkpt>
      <trkpt lat="45.92449" lon="4.73097">
        <ele>170</ele>
        <time>2018-06-30T10:20:51Z</time>
      </trkpt>
      <trkpt lat="45.92444" lon="4.73101">
        <ele>170</ele>
        <time>2018-06-30T10:20:52Z</time>
      </trkpt>
      <trkpt lat="45.92437" lon="4.73108">
        <ele>170</ele>
        <time>2018-06-30T10:20:54Z</time>
      </trkpt>
      <trkpt lat="45.92434" lon="4.73112">
        <ele>170</ele>
        <time>2018-06-30T10:20:55Z</time>
      </trkpt>
      <trkpt lat="45.92426" lon="4.73116">
        <ele>170</ele>
        <time>2018-06-30T10:20:57Z</time>
      </trkpt>
      <trkpt lat="45.92421" lon="4.73119">
        <ele>170</ele>
        <time>2018-06-30T10:20:58Z</time>
      </trkpt>
      <trkpt lat="45.92418" lon="4.73122">
        <ele>170</ele>
        <time>2018-06-30T10:20:59Z</time>
      </trkpt>
      <trkpt lat="45.92414" lon="4.73131">
        <ele>171</ele>
        <time>2018-06-30T10:21:00Z</time>
      </trkpt>
      <trkpt lat="45.92412" lon="4.73138">
        <ele>171</ele>
        <time>2018-06-30T10:21:01Z</time>
      </trkpt>
      <trkpt lat="45.9241" lon="4.73144">
        <ele>171</ele>
        <time>2018-06-30T10:21:02Z</time>
      </trkpt>
      <trkpt lat="45.92409" lon="4.7315">
        <ele>171</ele>
        <time>2018-06-30T10:21:03Z</time>
      </trkpt>
      <trkpt lat="45.92408" lon="4.73157">
        <ele>170</ele>
        <time>2018-06-30T10:21:04Z</time>
      </trkpt>
      <trkpt lat="45.92408" lon="4.73164">
        <ele>170</ele>
        <time>2018-06-30T10:21:05Z</time>
      </trkpt>
      <trkpt lat="45.92408" lon="4.73172">
        <ele>170</ele>
        <time>2018-06-30T10:21:06Z</time>
      </trkpt>
      <trkpt lat="45.92408" lon="4.73183">
        <ele>171</ele>
        <time>2018-06-30T10:21:08Z</time>
      </trkpt>
      <trkpt lat="45.92407" lon="4.73187">
        <ele>171</ele>
        <time>2018-06-30T10:21:09Z</time>
      </trkpt>
      <trkpt lat="45.92407" lon="4.73193">
        <ele>171</ele>
        <time>2018-06-30T10:21:10Z</time>
      </trkpt>
      <trkpt lat="45.92407" lon="4.73201">
        <ele>171</ele>
        <time>2018-06-30T10:21:11Z</time>
      </trkpt>
      <trkpt lat="45.92408" lon="4.73209">
        <ele>171</ele>
        <time>2018-06-30T10:21:12Z</time>
      </trkpt>
      <trkpt lat="45.92408" lon="4.73217">
        <ele>171</ele>
        <time>2018-06-30T10:21:13Z</time>
      </trkpt>
      <trkpt lat="45.92408" lon="4.73224">
        <ele>171</ele>
        <time>2018-06-30T10:21:14Z</time>
      </trkpt>
      <trkpt lat="45.92407" lon="4.73231">
        <ele>171</ele>
        <time>2018-06-30T10:21:15Z</time>
      </trkpt>
      <trkpt lat="45.92407" lon="4.73238">
        <ele>171</ele>
        <time>2018-06-30T10:21:16Z</time>
      </trkpt>
      <trkpt lat="45.92408" lon="4.73247">
        <ele>171</ele>
        <time>2018-06-30T10:21:17Z</time>
      </trkpt>
      <trkpt lat="45.92409" lon="4.73255">
        <ele>171</ele>
        <time>2018-06-30T10:21:18Z</time>
      </trkpt>
      <trkpt lat="45.9241" lon="4.73262">
        <ele>171</ele>
        <time>2018-06-30T10:21:19Z</time>
      </trkpt>
      <trkpt lat="45.92411" lon="4.73274">
        <ele>171</ele>
        <time>2018-06-30T10:21:21Z</time>
      </trkpt>
      <trkpt lat="45.92412" lon="4.73282">
        <ele>171</ele>
        <time>2018-06-30T10:21:22Z</time>
      </trkpt>
      <trkpt lat="45.92413" lon="4.73289">
        <ele>171</ele>
        <time>2018-06-30T10:21:23Z</time>
      </trkpt>
      <trkpt lat="45.92412" lon="4.73296">
        <ele>171</ele>
        <time>2018-06-30T10:21:24Z</time>
      </trkpt>
      <trkpt lat="45.92412" lon="4.73304">
        <ele>171</ele>
        <time>2018-06-30T10:21:25Z</time>
      </trkpt>
      <trkpt lat="45.92414" lon="4.7331">
        <ele>171</ele>
        <time>2018-06-30T10:21:26Z</time>
      </trkpt>
      <trkpt lat="45.92416" lon="4.73317">
        <ele>171</ele>
        <time>2018-06-30T10:21:27Z</time>
      </trkpt>
      <trkpt lat="45.92417" lon="4.73326">
        <ele>171</ele>
        <time>2018-06-30T10:21:28Z</time>
      </trkpt>
      <trkpt lat="45.92417" lon="4.73333">
        <ele>171</ele>
        <time>2018-06-30T10:21:29Z</time>
      </trkpt>
      <trkpt lat="45.92418" lon="4.73342">
        <ele>171</ele>
        <time>2018-06-30T10:21:30Z</time>
      </trkpt>
      <trkpt lat="45.92418" lon="4.7335">
        <ele>171</ele>
        <time>2018-06-30T10:21:31Z</time>
      </trkpt>
      <trkpt lat="45.92419" lon="4.73358">
        <ele>171</ele>
        <time>2018-06-30T10:21:32Z</time>
      </trkpt>
      <trkpt lat="45.9242" lon="4.73365">
        <ele>172</ele>
        <time>2018-06-30T10:21:33Z</time>
      </trkpt>
      <trkpt lat="45.92421" lon="4.73372">
        <ele>172</ele>
        <time>2018-06-30T10:21:34Z</time>
      </trkpt>
      <trkpt lat="45.92422" lon="4.73379">
        <ele>172</ele>
        <time>2018-06-30T10:21:35Z</time>
      </trkpt>
      <trkpt lat="45.92423" lon="4.73385">
        <ele>172</ele>
        <time>2018-06-30T10:21:36Z</time>
      </trkpt>
      <trkpt lat="45.92425" lon="4.73391">
        <ele>172</ele>
        <time>2018-06-30T10:21:37Z</time>
      </trkpt>
      <trkpt lat="45.92427" lon="4.73399">
        <ele>172</ele>
        <time>2018-06-30T10:21:38Z</time>
      </trkpt>
      <trkpt lat="45.9243" lon="4.73405">
        <ele>172</ele>
        <time>2018-06-30T10:21:39Z</time>
      </trkpt>
      <trkpt lat="45.92434" lon="4.7341">
        <ele>172</ele>
        <time>2018-06-30T10:21:40Z</time>
      </trkpt>
      <trkpt lat="45.92439" lon="4.73412">
        <ele>172</ele>
        <time>2018-06-30T10:21:41Z</time>
      </trkpt>
      <trkpt lat="45.92442" lon="4.73416">
        <ele>172</ele>
        <time>2018-06-30T10:21:42Z</time>
      </trkpt>
      <trkpt lat="45.92447" lon="4.7342">
        <ele>173</ele>
        <time>2018-06-30T10:21:43Z</time>
      </trkpt>
      <trkpt lat="45.92451" lon="4.73423">
        <ele>173</ele>
        <time>2018-06-30T10:21:44Z</time>
      </trkpt>
      <trkpt lat="45.92456" lon="4.73428">
        <ele>173</ele>
        <time>2018-06-30T10:21:45Z</time>
      </trkpt>
      <trkpt lat="45.9246" lon="4.73434">
        <ele>173</ele>
        <time>2018-06-30T10:21:46Z</time>
      </trkpt>
      <trkpt lat="45.92463" lon="4.73443">
        <ele>173</ele>
        <time>2018-06-30T10:21:47Z</time>
      </trkpt>
      <trkpt lat="45.92465" lon="4.73451">
        <ele>173</ele>
        <time>2018-06-30T10:21:48Z</time>
      </trkpt>
      <trkpt lat="45.92465" lon="4.73458">
        <ele>173</ele>
        <time>2018-06-30T10:21:49Z</time>
      </trkpt>
      <trkpt lat="45.92466" lon="4.73465">
        <ele>173</ele>
        <time>2018-06-30T10:21:50Z</time>
      </trkpt>
      <trkpt lat="45.92467" lon="4.73471">
        <ele>173</ele>
        <time>2018-06-30T10:21:51Z</time>
      </trkpt>
      <trkpt lat="45.92464" lon="4.73481">
        <ele>173</ele>
        <time>2018-06-30T10:21:52Z</time>
      </trkpt>
      <trkpt lat="45.92465" lon="4.73488">
        <ele>173</ele>
        <time>2018-06-30T10:21:53Z</time>
      </trkpt>
      <trkpt lat="45.92466" lon="4.73496">
        <ele>173</ele>
        <time>2018-06-30T10:21:54Z</time>
      </trkpt>
      <trkpt lat="45.92465" lon="4.73503">
        <ele>174</ele>
        <time>2018-06-30T10:21:55Z</time>
      </trkpt>
      <trkpt lat="45.92465" lon="4.73511">
        <ele>174</ele>
        <time>2018-06-30T10:21:56Z</time>
      </trkpt>
      <trkpt lat="45.92464" lon="4.73519">
        <ele>174</ele>
        <time>2018-06-30T10:21:57Z</time>
      </trkpt>
      <trkpt lat="45.92463" lon="4.73526">
        <ele>174</ele>
        <time>2018-06-30T10:21:58Z</time>
      </trkpt>
      <trkpt lat="45.92463" lon="4.73534">
        <ele>174</ele>
        <time>2018-06-30T10:21:59Z</time>
      </trkpt>
      <trkpt lat="45.92464" lon="4.73541">
        <ele>174</ele>
        <time>2018-06-30T10:22:00Z</time>
      </trkpt>
      <trkpt lat="45.92462" lon="4.73551">
        <ele>173</ele>
        <time>2018-06-30T10:22:02Z</time>
      </trkpt>
      <trkpt lat="45.92462" lon="4.73558">
        <ele>173</ele>
        <time>2018-06-30T10:22:03Z</time>
      </trkpt>
      <trkpt lat="45.92462" lon="4.73566">
        <ele>173</ele>
        <time>2018-06-30T10:22:04Z</time>
      </trkpt>
      <trkpt lat="45.92462" lon="4.73573">
        <ele>173</ele>
        <time>2018-06-30T10:22:05Z</time>
      </trkpt>
      <trkpt lat="45.92463" lon="4.73582">
        <ele>173</ele>
        <time>2018-06-30T10:22:06Z</time>
      </trkpt>
      <trkpt lat="45.92462" lon="4.73592">
        <ele>174</ele>
        <time>2018-06-30T10:22:07Z</time>
      </trkpt>
      <trkpt lat="45.92463" lon="4.73602">
        <ele>174</ele>
        <time>2018-06-30T10:22:08Z</time>
      </trkpt>
      <trkpt lat="45.92464" lon="4.7361">
        <ele>174</ele>
        <time>2018-06-30T10:22:09Z</time>
      </trkpt>
      <trkpt lat="45.92465" lon="4.73619">
        <ele>174</ele>
        <time>2018-06-30T10:22:10Z</time>
      </trkpt>
      <trkpt lat="45.92466" lon="4.73629">
        <ele>174</ele>
        <time>2018-06-30T10:22:11Z</time>
      </trkpt>
      <trkpt lat="45.92466" lon="4.73637">
        <ele>174</ele>
        <time>2018-06-30T10:22:12Z</time>
      </trkpt>
      <trkpt lat="45.92466" lon="4.73645">
        <ele>174</ele>
        <time>2018-06-30T10:22:13Z</time>
      </trkpt>
      <trkpt lat="45.92466" lon="4.73652">
        <ele>174</ele>
        <time>2018-06-30T10:22:14Z</time>
      </trkpt>
      <trkpt lat="45.92467" lon="4.73661">
        <ele>174</ele>
        <time>2018-06-30T10:22:15Z</time>
      </trkpt>
      <trkpt lat="45.92469" lon="4.73669">
        <ele>174</ele>
        <time>2018-06-30T10:22:16Z</time>
      </trkpt>
      <trkpt lat="45.9247" lon="4.73677">
        <ele>174</ele>
        <time>2018-06-30T10:22:17Z</time>
      </trkpt>
      <trkpt lat="45.92467" lon="4.73687">
        <ele>174</ele>
        <time>2018-06-30T10:22:19Z</time>
      </trkpt>
      <trkpt lat="45.92467" lon="4.73693">
        <ele>174</ele>
        <time>2018-06-30T10:22:20Z</time>
      </trkpt>
      <trkpt lat="45.92462" lon="4.73703">
        <ele>174</ele>
        <time>2018-06-30T10:22:26Z</time>
      </trkpt>
      <trkpt lat="45.92462" lon="4.73704">
        <ele>174</ele>
        <time>2018-06-30T10:22:27Z</time>
      </trkpt>
      <trkpt lat="45.92456" lon="4.73707">
        <ele>174</ele>
        <time>2018-06-30T10:28:01Z</time>
      </trkpt>
      <trkpt lat="45.92453" lon="4.73702">
        <ele>174</ele>
        <time>2018-06-30T10:28:11.458Z</time>
      </trkpt>
      <trkpt lat="45.92451" lon="4.73703">
        <ele>174</ele>
        <time>2018-06-30T10:29:04Z</time>
      </trkpt>
      <trkpt lat="45.92451" lon="4.73703">
        <ele>174</ele>
        <time>2018-06-30T10:29:05Z</time>
      </trkpt>
      <trkpt lat="45.92451" lon="4.73701">
        <ele>174</ele>
        <time>2018-06-30T10:29:07Z</time>
      </trkpt>
      <trkpt lat="45.92451" lon="4.73701">
        <ele>174</ele>
        <time>2018-06-30T10:29:08Z</time>
      </trkpt>
      <trkpt lat="45.92446" lon="4.73692">
        <ele>174</ele>
        <time>2018-06-30T10:32:15.082Z</time>
      </trkpt>
    </trkseg>
  </trk>
</gpx>